<?xml version="1.0" encoding="UTF-8" standalone="no" ?>
<gpx xmlns="http://www.topografix.com/GPX/1/1" xmlns:xsi="http://www.w3.org/2001/XMLSchema-instance" xsi:schemaLocation="http://www.topografix.com/GPX/1/1 http://www.topografix.com/GPX/1/1/gpx.xsd" version="1.1" creator="VisuGPX - https://www.visugpx.com">
  <metadata>
    <name>Course à pied en soirée</name>
  </metadata>
  <trk>
    <name><![CDATA[Course à pied en soirée_1]]></name>
    <trkseg>
      <trkpt lat="43.64757" lon="1.37619">
        <ele>143</ele>
        <time>2025-04-10T16:14:44Z</time>
      </trkpt>
      <trkpt lat="43.64759" lon="1.37616">
        <ele>143</ele>
        <time>2025-04-10T16:14:45Z</time>
      </trkpt>
      <trkpt lat="43.64759" lon="1.37616">
        <ele>144</ele>
        <time>2025-04-10T16:14:46Z</time>
      </trkpt>
      <trkpt lat="43.64762" lon="1.37614">
        <ele>144</ele>
        <time>2025-04-10T16:14:47Z</time>
      </trkpt>
      <trkpt lat="43.64765" lon="1.37612">
        <ele>143</ele>
        <time>2025-04-10T16:14:48Z</time>
      </trkpt>
      <trkpt lat="43.64767" lon="1.37609">
        <ele>143</ele>
        <time>2025-04-10T16:14:49Z</time>
      </trkpt>
      <trkpt lat="43.6477" lon="1.37607">
        <ele>143</ele>
        <time>2025-04-10T16:14:50Z</time>
      </trkpt>
      <trkpt lat="43.64772" lon="1.37605">
        <ele>143</ele>
        <time>2025-04-10T16:14:51Z</time>
      </trkpt>
      <trkpt lat="43.64774" lon="1.37603">
        <ele>143</ele>
        <time>2025-04-10T16:14:52Z</time>
      </trkpt>
      <trkpt lat="43.64776" lon="1.37601">
        <ele>143</ele>
        <time>2025-04-10T16:14:53Z</time>
      </trkpt>
      <trkpt lat="43.64778" lon="1.37599">
        <ele>143</ele>
        <time>2025-04-10T16:14:54Z</time>
      </trkpt>
      <trkpt lat="43.6478" lon="1.37597">
        <ele>143</ele>
        <time>2025-04-10T16:14:55Z</time>
      </trkpt>
      <trkpt lat="43.64783" lon="1.37595">
        <ele>143</ele>
        <time>2025-04-10T16:14:56Z</time>
      </trkpt>
      <trkpt lat="43.64783" lon="1.37595">
        <ele>143</ele>
        <time>2025-04-10T16:14:57Z</time>
      </trkpt>
      <trkpt lat="43.64785" lon="1.37593">
        <ele>143</ele>
        <time>2025-04-10T16:14:58Z</time>
      </trkpt>
      <trkpt lat="43.64787" lon="1.37591">
        <ele>143</ele>
        <time>2025-04-10T16:14:59Z</time>
      </trkpt>
      <trkpt lat="43.64789" lon="1.37589">
        <ele>143</ele>
        <time>2025-04-10T16:15:00Z</time>
      </trkpt>
      <trkpt lat="43.64791" lon="1.37586">
        <ele>143</ele>
        <time>2025-04-10T16:15:01Z</time>
      </trkpt>
      <trkpt lat="43.64794" lon="1.37586">
        <ele>143</ele>
        <time>2025-04-10T16:15:02Z</time>
      </trkpt>
      <trkpt lat="43.64798" lon="1.37586">
        <ele>143</ele>
        <time>2025-04-10T16:15:03Z</time>
      </trkpt>
      <trkpt lat="43.64801" lon="1.37585">
        <ele>143</ele>
        <time>2025-04-10T16:15:04Z</time>
      </trkpt>
      <trkpt lat="43.64805" lon="1.37585">
        <ele>143</ele>
        <time>2025-04-10T16:15:05Z</time>
      </trkpt>
      <trkpt lat="43.64808" lon="1.37586">
        <ele>143</ele>
        <time>2025-04-10T16:15:06Z</time>
      </trkpt>
      <trkpt lat="43.6481" lon="1.37587">
        <ele>143</ele>
        <time>2025-04-10T16:15:07Z</time>
      </trkpt>
      <trkpt lat="43.64812" lon="1.37589">
        <ele>144</ele>
        <time>2025-04-10T16:15:08Z</time>
      </trkpt>
      <trkpt lat="43.64815" lon="1.37591">
        <ele>144</ele>
        <time>2025-04-10T16:15:09Z</time>
      </trkpt>
      <trkpt lat="43.64817" lon="1.37592">
        <ele>144</ele>
        <time>2025-04-10T16:15:10Z</time>
      </trkpt>
      <trkpt lat="43.64819" lon="1.37593">
        <ele>144</ele>
        <time>2025-04-10T16:15:11Z</time>
      </trkpt>
      <trkpt lat="43.64822" lon="1.37595">
        <ele>144</ele>
        <time>2025-04-10T16:15:12Z</time>
      </trkpt>
      <trkpt lat="43.64825" lon="1.37596">
        <ele>144</ele>
        <time>2025-04-10T16:15:13Z</time>
      </trkpt>
      <trkpt lat="43.64825" lon="1.37596">
        <ele>144</ele>
        <time>2025-04-10T16:15:14Z</time>
      </trkpt>
      <trkpt lat="43.64827" lon="1.37598">
        <ele>144</ele>
        <time>2025-04-10T16:15:15Z</time>
      </trkpt>
      <trkpt lat="43.64829" lon="1.376">
        <ele>144</ele>
        <time>2025-04-10T16:15:16Z</time>
      </trkpt>
      <trkpt lat="43.64832" lon="1.37602">
        <ele>144</ele>
        <time>2025-04-10T16:15:17Z</time>
      </trkpt>
      <trkpt lat="43.64834" lon="1.37605">
        <ele>144</ele>
        <time>2025-04-10T16:15:18Z</time>
      </trkpt>
      <trkpt lat="43.64838" lon="1.37609">
        <ele>144</ele>
        <time>2025-04-10T16:15:19Z</time>
      </trkpt>
      <trkpt lat="43.64842" lon="1.37613">
        <ele>144</ele>
        <time>2025-04-10T16:15:20Z</time>
      </trkpt>
      <trkpt lat="43.64846" lon="1.37618">
        <ele>144</ele>
        <time>2025-04-10T16:15:21Z</time>
      </trkpt>
      <trkpt lat="43.64849" lon="1.37623">
        <ele>144</ele>
        <time>2025-04-10T16:15:22Z</time>
      </trkpt>
      <trkpt lat="43.64849" lon="1.37623">
        <ele>144</ele>
        <time>2025-04-10T16:15:23Z</time>
      </trkpt>
      <trkpt lat="43.64855" lon="1.37632">
        <ele>144</ele>
        <time>2025-04-10T16:15:24Z</time>
      </trkpt>
      <trkpt lat="43.64855" lon="1.37632">
        <ele>144</ele>
        <time>2025-04-10T16:15:25Z</time>
      </trkpt>
      <trkpt lat="43.64862" lon="1.37639">
        <ele>144</ele>
        <time>2025-04-10T16:15:26Z</time>
      </trkpt>
      <trkpt lat="43.64863" lon="1.3764">
        <ele>144</ele>
        <time>2025-04-10T16:15:27Z</time>
      </trkpt>
      <trkpt lat="43.64866" lon="1.37642">
        <ele>144</ele>
        <time>2025-04-10T16:15:28Z</time>
      </trkpt>
      <trkpt lat="43.64868" lon="1.37643">
        <ele>144</ele>
        <time>2025-04-10T16:15:29Z</time>
      </trkpt>
      <trkpt lat="43.6487" lon="1.37645">
        <ele>144</ele>
        <time>2025-04-10T16:15:30Z</time>
      </trkpt>
      <trkpt lat="43.64873" lon="1.37645">
        <ele>144</ele>
        <time>2025-04-10T16:15:31Z</time>
      </trkpt>
      <trkpt lat="43.64873" lon="1.37645">
        <ele>144</ele>
        <time>2025-04-10T16:15:32Z</time>
      </trkpt>
      <trkpt lat="43.64876" lon="1.37646">
        <ele>144</ele>
        <time>2025-04-10T16:15:33Z</time>
      </trkpt>
      <trkpt lat="43.64876" lon="1.37646">
        <ele>144</ele>
        <time>2025-04-10T16:15:34Z</time>
      </trkpt>
      <trkpt lat="43.64879" lon="1.37648">
        <ele>144</ele>
        <time>2025-04-10T16:15:35Z</time>
      </trkpt>
      <trkpt lat="43.64883" lon="1.3765">
        <ele>144</ele>
        <time>2025-04-10T16:15:36Z</time>
      </trkpt>
      <trkpt lat="43.64886" lon="1.37652">
        <ele>144</ele>
        <time>2025-04-10T16:15:37Z</time>
      </trkpt>
      <trkpt lat="43.64888" lon="1.37657">
        <ele>144</ele>
        <time>2025-04-10T16:15:38Z</time>
      </trkpt>
      <trkpt lat="43.64889" lon="1.37661">
        <ele>144</ele>
        <time>2025-04-10T16:15:39Z</time>
      </trkpt>
      <trkpt lat="43.6489" lon="1.37665">
        <ele>144</ele>
        <time>2025-04-10T16:15:40Z</time>
      </trkpt>
      <trkpt lat="43.64892" lon="1.37669">
        <ele>144</ele>
        <time>2025-04-10T16:15:41Z</time>
      </trkpt>
      <trkpt lat="43.64892" lon="1.37669">
        <ele>144</ele>
        <time>2025-04-10T16:15:42Z</time>
      </trkpt>
      <trkpt lat="43.64893" lon="1.37673">
        <ele>144</ele>
        <time>2025-04-10T16:15:43Z</time>
      </trkpt>
      <trkpt lat="43.64893" lon="1.37676">
        <ele>144</ele>
        <time>2025-04-10T16:15:44Z</time>
      </trkpt>
      <trkpt lat="43.64894" lon="1.37679">
        <ele>144</ele>
        <time>2025-04-10T16:15:45Z</time>
      </trkpt>
      <trkpt lat="43.64894" lon="1.37683">
        <ele>144</ele>
        <time>2025-04-10T16:15:46Z</time>
      </trkpt>
      <trkpt lat="43.64895" lon="1.37687">
        <ele>144</ele>
        <time>2025-04-10T16:15:47Z</time>
      </trkpt>
      <trkpt lat="43.64895" lon="1.3769">
        <ele>144</ele>
        <time>2025-04-10T16:15:48Z</time>
      </trkpt>
      <trkpt lat="43.64896" lon="1.37694">
        <ele>144</ele>
        <time>2025-04-10T16:15:49Z</time>
      </trkpt>
      <trkpt lat="43.64896" lon="1.37698">
        <ele>144</ele>
        <time>2025-04-10T16:15:50Z</time>
      </trkpt>
      <trkpt lat="43.64897" lon="1.37702">
        <ele>144</ele>
        <time>2025-04-10T16:15:51Z</time>
      </trkpt>
      <trkpt lat="43.64897" lon="1.37707">
        <ele>144</ele>
        <time>2025-04-10T16:15:52Z</time>
      </trkpt>
      <trkpt lat="43.64898" lon="1.37709">
        <ele>144</ele>
        <time>2025-04-10T16:15:53Z</time>
      </trkpt>
      <trkpt lat="43.64898" lon="1.37709">
        <ele>143</ele>
        <time>2025-04-10T16:15:54Z</time>
      </trkpt>
      <trkpt lat="43.64901" lon="1.37717">
        <ele>143</ele>
        <time>2025-04-10T16:15:55Z</time>
      </trkpt>
      <trkpt lat="43.64902" lon="1.37719">
        <ele>144</ele>
        <time>2025-04-10T16:15:56Z</time>
      </trkpt>
      <trkpt lat="43.64902" lon="1.37719">
        <ele>144</ele>
        <time>2025-04-10T16:15:57Z</time>
      </trkpt>
      <trkpt lat="43.64903" lon="1.37723">
        <ele>143</ele>
        <time>2025-04-10T16:15:58Z</time>
      </trkpt>
      <trkpt lat="43.64905" lon="1.37727">
        <ele>143</ele>
        <time>2025-04-10T16:15:59Z</time>
      </trkpt>
      <trkpt lat="43.64906" lon="1.37731">
        <ele>143</ele>
        <time>2025-04-10T16:16:00Z</time>
      </trkpt>
      <trkpt lat="43.64906" lon="1.37735">
        <ele>143</ele>
        <time>2025-04-10T16:16:01Z</time>
      </trkpt>
      <trkpt lat="43.64907" lon="1.37738">
        <ele>143</ele>
        <time>2025-04-10T16:16:02Z</time>
      </trkpt>
      <trkpt lat="43.64908" lon="1.37742">
        <ele>143</ele>
        <time>2025-04-10T16:16:03Z</time>
      </trkpt>
      <trkpt lat="43.64909" lon="1.37746">
        <ele>143</ele>
        <time>2025-04-10T16:16:04Z</time>
      </trkpt>
      <trkpt lat="43.64909" lon="1.37749">
        <ele>143</ele>
        <time>2025-04-10T16:16:05Z</time>
      </trkpt>
      <trkpt lat="43.6491" lon="1.37752">
        <ele>143</ele>
        <time>2025-04-10T16:16:06Z</time>
      </trkpt>
      <trkpt lat="43.64911" lon="1.37754">
        <ele>143</ele>
        <time>2025-04-10T16:16:07Z</time>
      </trkpt>
      <trkpt lat="43.64911" lon="1.37757">
        <ele>144</ele>
        <time>2025-04-10T16:16:08Z</time>
      </trkpt>
      <trkpt lat="43.64912" lon="1.3776">
        <ele>144</ele>
        <time>2025-04-10T16:16:09Z</time>
      </trkpt>
      <trkpt lat="43.64912" lon="1.37762">
        <ele>144</ele>
        <time>2025-04-10T16:16:10Z</time>
      </trkpt>
      <trkpt lat="43.64913" lon="1.37765">
        <ele>144</ele>
        <time>2025-04-10T16:16:11Z</time>
      </trkpt>
      <trkpt lat="43.64913" lon="1.37768">
        <ele>144</ele>
        <time>2025-04-10T16:16:12Z</time>
      </trkpt>
      <trkpt lat="43.64914" lon="1.37772">
        <ele>143</ele>
        <time>2025-04-10T16:16:13Z</time>
      </trkpt>
      <trkpt lat="43.64914" lon="1.37776">
        <ele>143</ele>
        <time>2025-04-10T16:16:14Z</time>
      </trkpt>
      <trkpt lat="43.64914" lon="1.37779">
        <ele>143</ele>
        <time>2025-04-10T16:16:15Z</time>
      </trkpt>
      <trkpt lat="43.64915" lon="1.37783">
        <ele>143</ele>
        <time>2025-04-10T16:16:16Z</time>
      </trkpt>
      <trkpt lat="43.64915" lon="1.37787">
        <ele>143</ele>
        <time>2025-04-10T16:16:17Z</time>
      </trkpt>
      <trkpt lat="43.64916" lon="1.3779">
        <ele>143</ele>
        <time>2025-04-10T16:16:18Z</time>
      </trkpt>
      <trkpt lat="43.64916" lon="1.37793">
        <ele>143</ele>
        <time>2025-04-10T16:16:19Z</time>
      </trkpt>
      <trkpt lat="43.64917" lon="1.37797">
        <ele>143</ele>
        <time>2025-04-10T16:16:20Z</time>
      </trkpt>
      <trkpt lat="43.64918" lon="1.378">
        <ele>143</ele>
        <time>2025-04-10T16:16:21Z</time>
      </trkpt>
      <trkpt lat="43.64919" lon="1.37804">
        <ele>143</ele>
        <time>2025-04-10T16:16:22Z</time>
      </trkpt>
      <trkpt lat="43.6492" lon="1.37807">
        <ele>143</ele>
        <time>2025-04-10T16:16:23Z</time>
      </trkpt>
      <trkpt lat="43.64921" lon="1.3781">
        <ele>143</ele>
        <time>2025-04-10T16:16:24Z</time>
      </trkpt>
      <trkpt lat="43.64921" lon="1.37814">
        <ele>143</ele>
        <time>2025-04-10T16:16:25Z</time>
      </trkpt>
      <trkpt lat="43.64922" lon="1.37818">
        <ele>143</ele>
        <time>2025-04-10T16:16:26Z</time>
      </trkpt>
      <trkpt lat="43.64923" lon="1.37822">
        <ele>142</ele>
        <time>2025-04-10T16:16:27Z</time>
      </trkpt>
      <trkpt lat="43.64924" lon="1.37826">
        <ele>142</ele>
        <time>2025-04-10T16:16:28Z</time>
      </trkpt>
      <trkpt lat="43.64924" lon="1.37828">
        <ele>143</ele>
        <time>2025-04-10T16:16:29Z</time>
      </trkpt>
      <trkpt lat="43.64925" lon="1.37831">
        <ele>143</ele>
        <time>2025-04-10T16:16:30Z</time>
      </trkpt>
      <trkpt lat="43.64926" lon="1.37833">
        <ele>142</ele>
        <time>2025-04-10T16:16:31Z</time>
      </trkpt>
      <trkpt lat="43.64926" lon="1.37836">
        <ele>142</ele>
        <time>2025-04-10T16:16:32Z</time>
      </trkpt>
      <trkpt lat="43.64927" lon="1.37839">
        <ele>142</ele>
        <time>2025-04-10T16:16:33Z</time>
      </trkpt>
      <trkpt lat="43.64928" lon="1.37842">
        <ele>142</ele>
        <time>2025-04-10T16:16:34Z</time>
      </trkpt>
      <trkpt lat="43.64929" lon="1.37845">
        <ele>142</ele>
        <time>2025-04-10T16:16:35Z</time>
      </trkpt>
      <trkpt lat="43.6493" lon="1.37848">
        <ele>142</ele>
        <time>2025-04-10T16:16:36Z</time>
      </trkpt>
      <trkpt lat="43.64931" lon="1.37851">
        <ele>142</ele>
        <time>2025-04-10T16:16:37Z</time>
      </trkpt>
      <trkpt lat="43.64933" lon="1.37855">
        <ele>142</ele>
        <time>2025-04-10T16:16:38Z</time>
      </trkpt>
      <trkpt lat="43.64934" lon="1.37859">
        <ele>142</ele>
        <time>2025-04-10T16:16:39Z</time>
      </trkpt>
      <trkpt lat="43.64936" lon="1.37863">
        <ele>142</ele>
        <time>2025-04-10T16:16:40Z</time>
      </trkpt>
      <trkpt lat="43.64937" lon="1.37867">
        <ele>142</ele>
        <time>2025-04-10T16:16:41Z</time>
      </trkpt>
      <trkpt lat="43.64938" lon="1.3787">
        <ele>142</ele>
        <time>2025-04-10T16:16:42Z</time>
      </trkpt>
      <trkpt lat="43.64939" lon="1.37874">
        <ele>142</ele>
        <time>2025-04-10T16:16:43Z</time>
      </trkpt>
      <trkpt lat="43.64943" lon="1.37878">
        <ele>142</ele>
        <time>2025-04-10T16:16:44Z</time>
      </trkpt>
      <trkpt lat="43.64943" lon="1.37878">
        <ele>142</ele>
        <time>2025-04-10T16:16:45Z</time>
      </trkpt>
      <trkpt lat="43.64945" lon="1.37882">
        <ele>142</ele>
        <time>2025-04-10T16:16:46Z</time>
      </trkpt>
      <trkpt lat="43.64947" lon="1.37886">
        <ele>143</ele>
        <time>2025-04-10T16:16:47Z</time>
      </trkpt>
      <trkpt lat="43.64949" lon="1.3789">
        <ele>143</ele>
        <time>2025-04-10T16:16:48Z</time>
      </trkpt>
      <trkpt lat="43.64951" lon="1.37894">
        <ele>143</ele>
        <time>2025-04-10T16:16:49Z</time>
      </trkpt>
      <trkpt lat="43.64952" lon="1.37898">
        <ele>142</ele>
        <time>2025-04-10T16:16:50Z</time>
      </trkpt>
      <trkpt lat="43.64952" lon="1.37898">
        <ele>142</ele>
        <time>2025-04-10T16:16:51Z</time>
      </trkpt>
      <trkpt lat="43.64954" lon="1.37908">
        <ele>142</ele>
        <time>2025-04-10T16:16:52Z</time>
      </trkpt>
      <trkpt lat="43.64955" lon="1.3791">
        <ele>142</ele>
        <time>2025-04-10T16:16:53Z</time>
      </trkpt>
      <trkpt lat="43.64956" lon="1.37913">
        <ele>142</ele>
        <time>2025-04-10T16:16:54Z</time>
      </trkpt>
      <trkpt lat="43.64957" lon="1.37917">
        <ele>142</ele>
        <time>2025-04-10T16:16:55Z</time>
      </trkpt>
      <trkpt lat="43.64958" lon="1.37921">
        <ele>142</ele>
        <time>2025-04-10T16:16:56Z</time>
      </trkpt>
      <trkpt lat="43.64959" lon="1.37924">
        <ele>142</ele>
        <time>2025-04-10T16:16:57Z</time>
      </trkpt>
      <trkpt lat="43.6496" lon="1.37927">
        <ele>142</ele>
        <time>2025-04-10T16:16:58Z</time>
      </trkpt>
      <trkpt lat="43.6496" lon="1.37927">
        <ele>142</ele>
        <time>2025-04-10T16:16:59Z</time>
      </trkpt>
      <trkpt lat="43.64965" lon="1.37935">
        <ele>141</ele>
        <time>2025-04-10T16:17:00Z</time>
      </trkpt>
      <trkpt lat="43.64966" lon="1.37936">
        <ele>141</ele>
        <time>2025-04-10T16:17:01Z</time>
      </trkpt>
      <trkpt lat="43.64968" lon="1.37939">
        <ele>141</ele>
        <time>2025-04-10T16:17:02Z</time>
      </trkpt>
      <trkpt lat="43.6497" lon="1.37942">
        <ele>141</ele>
        <time>2025-04-10T16:17:03Z</time>
      </trkpt>
      <trkpt lat="43.64972" lon="1.37945">
        <ele>141</ele>
        <time>2025-04-10T16:17:04Z</time>
      </trkpt>
      <trkpt lat="43.64973" lon="1.37947">
        <ele>141</ele>
        <time>2025-04-10T16:17:05Z</time>
      </trkpt>
      <trkpt lat="43.64975" lon="1.3795">
        <ele>141</ele>
        <time>2025-04-10T16:17:06Z</time>
      </trkpt>
      <trkpt lat="43.64977" lon="1.37953">
        <ele>141</ele>
        <time>2025-04-10T16:17:07Z</time>
      </trkpt>
      <trkpt lat="43.64979" lon="1.37956">
        <ele>141</ele>
        <time>2025-04-10T16:17:08Z</time>
      </trkpt>
      <trkpt lat="43.6498" lon="1.37959">
        <ele>141</ele>
        <time>2025-04-10T16:17:09Z</time>
      </trkpt>
      <trkpt lat="43.64982" lon="1.37962">
        <ele>141</ele>
        <time>2025-04-10T16:17:10Z</time>
      </trkpt>
      <trkpt lat="43.64984" lon="1.37965">
        <ele>141</ele>
        <time>2025-04-10T16:17:11Z</time>
      </trkpt>
      <trkpt lat="43.64985" lon="1.37967">
        <ele>141</ele>
        <time>2025-04-10T16:17:12Z</time>
      </trkpt>
      <trkpt lat="43.64985" lon="1.37967">
        <ele>141</ele>
        <time>2025-04-10T16:17:13Z</time>
      </trkpt>
      <trkpt lat="43.64988" lon="1.37971">
        <ele>141</ele>
        <time>2025-04-10T16:17:14Z</time>
      </trkpt>
      <trkpt lat="43.6499" lon="1.37974">
        <ele>141</ele>
        <time>2025-04-10T16:17:15Z</time>
      </trkpt>
      <trkpt lat="43.64993" lon="1.37977">
        <ele>141</ele>
        <time>2025-04-10T16:17:16Z</time>
      </trkpt>
      <trkpt lat="43.64995" lon="1.37981">
        <ele>141</ele>
        <time>2025-04-10T16:17:17Z</time>
      </trkpt>
      <trkpt lat="43.64997" lon="1.37983">
        <ele>141</ele>
        <time>2025-04-10T16:17:18Z</time>
      </trkpt>
      <trkpt lat="43.64999" lon="1.37986">
        <ele>141</ele>
        <time>2025-04-10T16:17:19Z</time>
      </trkpt>
      <trkpt lat="43.65001" lon="1.37988">
        <ele>141</ele>
        <time>2025-04-10T16:17:20Z</time>
      </trkpt>
      <trkpt lat="43.65002" lon="1.37991">
        <ele>141</ele>
        <time>2025-04-10T16:17:21Z</time>
      </trkpt>
      <trkpt lat="43.65004" lon="1.37994">
        <ele>141</ele>
        <time>2025-04-10T16:17:22Z</time>
      </trkpt>
      <trkpt lat="43.65006" lon="1.37997">
        <ele>140</ele>
        <time>2025-04-10T16:17:23Z</time>
      </trkpt>
      <trkpt lat="43.65008" lon="1.38">
        <ele>140</ele>
        <time>2025-04-10T16:17:24Z</time>
      </trkpt>
      <trkpt lat="43.6501" lon="1.38003">
        <ele>140</ele>
        <time>2025-04-10T16:17:25Z</time>
      </trkpt>
      <trkpt lat="43.65012" lon="1.38007">
        <ele>141</ele>
        <time>2025-04-10T16:17:26Z</time>
      </trkpt>
      <trkpt lat="43.65013" lon="1.3801">
        <ele>141</ele>
        <time>2025-04-10T16:17:27Z</time>
      </trkpt>
      <trkpt lat="43.65015" lon="1.38012">
        <ele>141</ele>
        <time>2025-04-10T16:17:28Z</time>
      </trkpt>
      <trkpt lat="43.65017" lon="1.38015">
        <ele>141</ele>
        <time>2025-04-10T16:17:29Z</time>
      </trkpt>
      <trkpt lat="43.65017" lon="1.38015">
        <ele>141</ele>
        <time>2025-04-10T16:17:30Z</time>
      </trkpt>
      <trkpt lat="43.65021" lon="1.38022">
        <ele>141</ele>
        <time>2025-04-10T16:17:31Z</time>
      </trkpt>
      <trkpt lat="43.65022" lon="1.38023">
        <ele>141</ele>
        <time>2025-04-10T16:17:32Z</time>
      </trkpt>
      <trkpt lat="43.65023" lon="1.38026">
        <ele>141</ele>
        <time>2025-04-10T16:17:33Z</time>
      </trkpt>
      <trkpt lat="43.65025" lon="1.38029">
        <ele>141</ele>
        <time>2025-04-10T16:17:34Z</time>
      </trkpt>
      <trkpt lat="43.65027" lon="1.38032">
        <ele>141</ele>
        <time>2025-04-10T16:17:35Z</time>
      </trkpt>
      <trkpt lat="43.65029" lon="1.38035">
        <ele>141</ele>
        <time>2025-04-10T16:17:36Z</time>
      </trkpt>
      <trkpt lat="43.6503" lon="1.38037">
        <ele>141</ele>
        <time>2025-04-10T16:17:37Z</time>
      </trkpt>
      <trkpt lat="43.65032" lon="1.3804">
        <ele>141</ele>
        <time>2025-04-10T16:17:38Z</time>
      </trkpt>
      <trkpt lat="43.65033" lon="1.38043">
        <ele>141</ele>
        <time>2025-04-10T16:17:39Z</time>
      </trkpt>
      <trkpt lat="43.65035" lon="1.38046">
        <ele>141</ele>
        <time>2025-04-10T16:17:40Z</time>
      </trkpt>
      <trkpt lat="43.65037" lon="1.38048">
        <ele>141</ele>
        <time>2025-04-10T16:17:41Z</time>
      </trkpt>
      <trkpt lat="43.65039" lon="1.38051">
        <ele>141</ele>
        <time>2025-04-10T16:17:42Z</time>
      </trkpt>
      <trkpt lat="43.65041" lon="1.38054">
        <ele>141</ele>
        <time>2025-04-10T16:17:43Z</time>
      </trkpt>
      <trkpt lat="43.65042" lon="1.38058">
        <ele>141</ele>
        <time>2025-04-10T16:17:44Z</time>
      </trkpt>
      <trkpt lat="43.65043" lon="1.38062">
        <ele>141</ele>
        <time>2025-04-10T16:17:45Z</time>
      </trkpt>
      <trkpt lat="43.65045" lon="1.38065">
        <ele>141</ele>
        <time>2025-04-10T16:17:46Z</time>
      </trkpt>
      <trkpt lat="43.65046" lon="1.38067">
        <ele>141</ele>
        <time>2025-04-10T16:17:47Z</time>
      </trkpt>
      <trkpt lat="43.65046" lon="1.38067">
        <ele>141</ele>
        <time>2025-04-10T16:17:48Z</time>
      </trkpt>
      <trkpt lat="43.65048" lon="1.38071">
        <ele>141</ele>
        <time>2025-04-10T16:17:49Z</time>
      </trkpt>
      <trkpt lat="43.65049" lon="1.38074">
        <ele>141</ele>
        <time>2025-04-10T16:17:50Z</time>
      </trkpt>
      <trkpt lat="43.65051" lon="1.38078">
        <ele>141</ele>
        <time>2025-04-10T16:17:51Z</time>
      </trkpt>
      <trkpt lat="43.65052" lon="1.38082">
        <ele>141</ele>
        <time>2025-04-10T16:17:52Z</time>
      </trkpt>
      <trkpt lat="43.65054" lon="1.38086">
        <ele>141</ele>
        <time>2025-04-10T16:17:53Z</time>
      </trkpt>
      <trkpt lat="43.65055" lon="1.3809">
        <ele>141</ele>
        <time>2025-04-10T16:17:54Z</time>
      </trkpt>
      <trkpt lat="43.65056" lon="1.38094">
        <ele>141</ele>
        <time>2025-04-10T16:17:55Z</time>
      </trkpt>
      <trkpt lat="43.65057" lon="1.38097">
        <ele>141</ele>
        <time>2025-04-10T16:17:56Z</time>
      </trkpt>
      <trkpt lat="43.65058" lon="1.381">
        <ele>141</ele>
        <time>2025-04-10T16:17:57Z</time>
      </trkpt>
      <trkpt lat="43.6506" lon="1.38103">
        <ele>141</ele>
        <time>2025-04-10T16:17:58Z</time>
      </trkpt>
      <trkpt lat="43.6506" lon="1.38105">
        <ele>141</ele>
        <time>2025-04-10T16:17:59Z</time>
      </trkpt>
      <trkpt lat="43.6506" lon="1.38105">
        <ele>141</ele>
        <time>2025-04-10T16:18:00Z</time>
      </trkpt>
      <trkpt lat="43.65063" lon="1.3811">
        <ele>141</ele>
        <time>2025-04-10T16:18:01Z</time>
      </trkpt>
      <trkpt lat="43.65063" lon="1.3811">
        <ele>141</ele>
        <time>2025-04-10T16:18:02Z</time>
      </trkpt>
      <trkpt lat="43.65067" lon="1.38118">
        <ele>141</ele>
        <time>2025-04-10T16:18:03Z</time>
      </trkpt>
      <trkpt lat="43.65067" lon="1.38119">
        <ele>141</ele>
        <time>2025-04-10T16:18:04Z</time>
      </trkpt>
      <trkpt lat="43.65067" lon="1.38119">
        <ele>141</ele>
        <time>2025-04-10T16:18:05Z</time>
      </trkpt>
      <trkpt lat="43.65069" lon="1.38118">
        <ele>141</ele>
        <time>2025-04-10T16:18:06Z</time>
      </trkpt>
      <trkpt lat="43.65071" lon="1.38117">
        <ele>142</ele>
        <time>2025-04-10T16:18:07Z</time>
      </trkpt>
      <trkpt lat="43.65073" lon="1.38115">
        <ele>142</ele>
        <time>2025-04-10T16:18:08Z</time>
      </trkpt>
      <trkpt lat="43.65075" lon="1.38114">
        <ele>142</ele>
        <time>2025-04-10T16:18:09Z</time>
      </trkpt>
      <trkpt lat="43.65077" lon="1.38113">
        <ele>142</ele>
        <time>2025-04-10T16:18:10Z</time>
      </trkpt>
      <trkpt lat="43.65079" lon="1.38111">
        <ele>142</ele>
        <time>2025-04-10T16:18:11Z</time>
      </trkpt>
      <trkpt lat="43.65082" lon="1.38109">
        <ele>142</ele>
        <time>2025-04-10T16:18:12Z</time>
      </trkpt>
      <trkpt lat="43.65084" lon="1.38107">
        <ele>143</ele>
        <time>2025-04-10T16:18:13Z</time>
      </trkpt>
      <trkpt lat="43.65086" lon="1.38105">
        <ele>143</ele>
        <time>2025-04-10T16:18:14Z</time>
      </trkpt>
      <trkpt lat="43.65089" lon="1.38104">
        <ele>143</ele>
        <time>2025-04-10T16:18:15Z</time>
      </trkpt>
      <trkpt lat="43.65091" lon="1.38102">
        <ele>143</ele>
        <time>2025-04-10T16:18:16Z</time>
      </trkpt>
      <trkpt lat="43.65093" lon="1.38101">
        <ele>143</ele>
        <time>2025-04-10T16:18:17Z</time>
      </trkpt>
      <trkpt lat="43.65096" lon="1.38099">
        <ele>142</ele>
        <time>2025-04-10T16:18:18Z</time>
      </trkpt>
      <trkpt lat="43.65098" lon="1.38097">
        <ele>142</ele>
        <time>2025-04-10T16:18:19Z</time>
      </trkpt>
      <trkpt lat="43.65101" lon="1.38096">
        <ele>143</ele>
        <time>2025-04-10T16:18:20Z</time>
      </trkpt>
      <trkpt lat="43.65103" lon="1.38094">
        <ele>143</ele>
        <time>2025-04-10T16:18:21Z</time>
      </trkpt>
      <trkpt lat="43.65106" lon="1.38092">
        <ele>143</ele>
        <time>2025-04-10T16:18:22Z</time>
      </trkpt>
      <trkpt lat="43.65108" lon="1.3809">
        <ele>143</ele>
        <time>2025-04-10T16:18:23Z</time>
      </trkpt>
      <trkpt lat="43.6511" lon="1.38088">
        <ele>143</ele>
        <time>2025-04-10T16:18:24Z</time>
      </trkpt>
      <trkpt lat="43.65113" lon="1.38086">
        <ele>143</ele>
        <time>2025-04-10T16:18:25Z</time>
      </trkpt>
      <trkpt lat="43.65115" lon="1.38085">
        <ele>143</ele>
        <time>2025-04-10T16:18:26Z</time>
      </trkpt>
      <trkpt lat="43.65117" lon="1.38083">
        <ele>143</ele>
        <time>2025-04-10T16:18:27Z</time>
      </trkpt>
      <trkpt lat="43.6512" lon="1.38081">
        <ele>143</ele>
        <time>2025-04-10T16:18:28Z</time>
      </trkpt>
      <trkpt lat="43.65122" lon="1.38079">
        <ele>143</ele>
        <time>2025-04-10T16:18:29Z</time>
      </trkpt>
      <trkpt lat="43.65125" lon="1.38077">
        <ele>143</ele>
        <time>2025-04-10T16:18:30Z</time>
      </trkpt>
      <trkpt lat="43.65127" lon="1.38075">
        <ele>143</ele>
        <time>2025-04-10T16:18:31Z</time>
      </trkpt>
      <trkpt lat="43.65129" lon="1.38073">
        <ele>143</ele>
        <time>2025-04-10T16:18:32Z</time>
      </trkpt>
      <trkpt lat="43.65131" lon="1.38072">
        <ele>143</ele>
        <time>2025-04-10T16:18:33Z</time>
      </trkpt>
      <trkpt lat="43.65133" lon="1.3807">
        <ele>143</ele>
        <time>2025-04-10T16:18:34Z</time>
      </trkpt>
      <trkpt lat="43.65135" lon="1.38068">
        <ele>143</ele>
        <time>2025-04-10T16:18:35Z</time>
      </trkpt>
      <trkpt lat="43.65138" lon="1.38067">
        <ele>143</ele>
        <time>2025-04-10T16:18:36Z</time>
      </trkpt>
      <trkpt lat="43.6514" lon="1.38065">
        <ele>143</ele>
        <time>2025-04-10T16:18:37Z</time>
      </trkpt>
      <trkpt lat="43.65143" lon="1.38064">
        <ele>143</ele>
        <time>2025-04-10T16:18:38Z</time>
      </trkpt>
      <trkpt lat="43.65145" lon="1.38061">
        <ele>143</ele>
        <time>2025-04-10T16:18:39Z</time>
      </trkpt>
      <trkpt lat="43.65148" lon="1.38059">
        <ele>143</ele>
        <time>2025-04-10T16:18:40Z</time>
      </trkpt>
      <trkpt lat="43.6515" lon="1.38057">
        <ele>143</ele>
        <time>2025-04-10T16:18:41Z</time>
      </trkpt>
      <trkpt lat="43.65153" lon="1.38055">
        <ele>143</ele>
        <time>2025-04-10T16:18:42Z</time>
      </trkpt>
      <trkpt lat="43.65155" lon="1.38054">
        <ele>142</ele>
        <time>2025-04-10T16:18:43Z</time>
      </trkpt>
      <trkpt lat="43.65158" lon="1.38053">
        <ele>142</ele>
        <time>2025-04-10T16:18:44Z</time>
      </trkpt>
      <trkpt lat="43.6516" lon="1.38052">
        <ele>143</ele>
        <time>2025-04-10T16:18:45Z</time>
      </trkpt>
      <trkpt lat="43.65163" lon="1.3805">
        <ele>143</ele>
        <time>2025-04-10T16:18:46Z</time>
      </trkpt>
      <trkpt lat="43.65165" lon="1.38049">
        <ele>143</ele>
        <time>2025-04-10T16:18:47Z</time>
      </trkpt>
      <trkpt lat="43.65168" lon="1.38047">
        <ele>143</ele>
        <time>2025-04-10T16:18:48Z</time>
      </trkpt>
      <trkpt lat="43.6517" lon="1.38045">
        <ele>143</ele>
        <time>2025-04-10T16:18:49Z</time>
      </trkpt>
      <trkpt lat="43.65173" lon="1.38043">
        <ele>143</ele>
        <time>2025-04-10T16:18:50Z</time>
      </trkpt>
      <trkpt lat="43.65176" lon="1.38041">
        <ele>143</ele>
        <time>2025-04-10T16:18:51Z</time>
      </trkpt>
      <trkpt lat="43.6518" lon="1.38039">
        <ele>143</ele>
        <time>2025-04-10T16:18:52Z</time>
      </trkpt>
      <trkpt lat="43.65183" lon="1.38037">
        <ele>143</ele>
        <time>2025-04-10T16:18:53Z</time>
      </trkpt>
      <trkpt lat="43.65186" lon="1.38037">
        <ele>143</ele>
        <time>2025-04-10T16:18:54Z</time>
      </trkpt>
      <trkpt lat="43.65188" lon="1.38036">
        <ele>143</ele>
        <time>2025-04-10T16:18:55Z</time>
      </trkpt>
      <trkpt lat="43.65189" lon="1.38037">
        <ele>143</ele>
        <time>2025-04-10T16:18:56Z</time>
      </trkpt>
      <trkpt lat="43.65191" lon="1.38038">
        <ele>143</ele>
        <time>2025-04-10T16:18:57Z</time>
      </trkpt>
      <trkpt lat="43.65194" lon="1.38038">
        <ele>143</ele>
        <time>2025-04-10T16:18:58Z</time>
      </trkpt>
      <trkpt lat="43.65196" lon="1.38036">
        <ele>143</ele>
        <time>2025-04-10T16:18:59Z</time>
      </trkpt>
      <trkpt lat="43.65199" lon="1.38034">
        <ele>143</ele>
        <time>2025-04-10T16:19:00Z</time>
      </trkpt>
      <trkpt lat="43.65202" lon="1.38035">
        <ele>143</ele>
        <time>2025-04-10T16:19:01Z</time>
      </trkpt>
      <trkpt lat="43.65205" lon="1.38037">
        <ele>143</ele>
        <time>2025-04-10T16:19:02Z</time>
      </trkpt>
      <trkpt lat="43.65209" lon="1.38039">
        <ele>143</ele>
        <time>2025-04-10T16:19:03Z</time>
      </trkpt>
      <trkpt lat="43.65212" lon="1.38039">
        <ele>143</ele>
        <time>2025-04-10T16:19:04Z</time>
      </trkpt>
      <trkpt lat="43.65214" lon="1.38038">
        <ele>143</ele>
        <time>2025-04-10T16:19:05Z</time>
      </trkpt>
      <trkpt lat="43.65217" lon="1.38036">
        <ele>143</ele>
        <time>2025-04-10T16:19:06Z</time>
      </trkpt>
      <trkpt lat="43.6522" lon="1.38037">
        <ele>143</ele>
        <time>2025-04-10T16:19:07Z</time>
      </trkpt>
      <trkpt lat="43.65223" lon="1.38039">
        <ele>143</ele>
        <time>2025-04-10T16:19:08Z</time>
      </trkpt>
      <trkpt lat="43.65224" lon="1.38043">
        <ele>143</ele>
        <time>2025-04-10T16:19:09Z</time>
      </trkpt>
      <trkpt lat="43.65226" lon="1.38048">
        <ele>143</ele>
        <time>2025-04-10T16:19:10Z</time>
      </trkpt>
      <trkpt lat="43.65227" lon="1.38052">
        <ele>143</ele>
        <time>2025-04-10T16:19:11Z</time>
      </trkpt>
      <trkpt lat="43.65228" lon="1.38056">
        <ele>143</ele>
        <time>2025-04-10T16:19:12Z</time>
      </trkpt>
      <trkpt lat="43.65229" lon="1.3806">
        <ele>143</ele>
        <time>2025-04-10T16:19:13Z</time>
      </trkpt>
      <trkpt lat="43.6523" lon="1.38064">
        <ele>142</ele>
        <time>2025-04-10T16:19:14Z</time>
      </trkpt>
      <trkpt lat="43.65232" lon="1.38067">
        <ele>142</ele>
        <time>2025-04-10T16:19:15Z</time>
      </trkpt>
      <trkpt lat="43.65233" lon="1.38071">
        <ele>142</ele>
        <time>2025-04-10T16:19:16Z</time>
      </trkpt>
      <trkpt lat="43.65234" lon="1.38075">
        <ele>142</ele>
        <time>2025-04-10T16:19:17Z</time>
      </trkpt>
      <trkpt lat="43.65235" lon="1.38078">
        <ele>142</ele>
        <time>2025-04-10T16:19:18Z</time>
      </trkpt>
      <trkpt lat="43.65236" lon="1.38082">
        <ele>142</ele>
        <time>2025-04-10T16:19:19Z</time>
      </trkpt>
      <trkpt lat="43.65237" lon="1.38086">
        <ele>142</ele>
        <time>2025-04-10T16:19:20Z</time>
      </trkpt>
      <trkpt lat="43.65238" lon="1.38089">
        <ele>143</ele>
        <time>2025-04-10T16:19:21Z</time>
      </trkpt>
      <trkpt lat="43.65239" lon="1.38092">
        <ele>143</ele>
        <time>2025-04-10T16:19:22Z</time>
      </trkpt>
      <trkpt lat="43.6524" lon="1.38096">
        <ele>143</ele>
        <time>2025-04-10T16:19:23Z</time>
      </trkpt>
      <trkpt lat="43.65241" lon="1.38099">
        <ele>143</ele>
        <time>2025-04-10T16:19:24Z</time>
      </trkpt>
      <trkpt lat="43.65241" lon="1.38103">
        <ele>142</ele>
        <time>2025-04-10T16:19:25Z</time>
      </trkpt>
      <trkpt lat="43.65243" lon="1.38106">
        <ele>142</ele>
        <time>2025-04-10T16:19:26Z</time>
      </trkpt>
      <trkpt lat="43.65244" lon="1.3811">
        <ele>142</ele>
        <time>2025-04-10T16:19:27Z</time>
      </trkpt>
      <trkpt lat="43.65246" lon="1.38113">
        <ele>142</ele>
        <time>2025-04-10T16:19:28Z</time>
      </trkpt>
      <trkpt lat="43.65247" lon="1.38117">
        <ele>142</ele>
        <time>2025-04-10T16:19:29Z</time>
      </trkpt>
      <trkpt lat="43.65247" lon="1.38121">
        <ele>142</ele>
        <time>2025-04-10T16:19:30Z</time>
      </trkpt>
      <trkpt lat="43.65247" lon="1.38125">
        <ele>142</ele>
        <time>2025-04-10T16:19:31Z</time>
      </trkpt>
      <trkpt lat="43.65246" lon="1.38129">
        <ele>143</ele>
        <time>2025-04-10T16:19:32Z</time>
      </trkpt>
      <trkpt lat="43.65243" lon="1.38132">
        <ele>143</ele>
        <time>2025-04-10T16:19:33Z</time>
      </trkpt>
      <trkpt lat="43.65241" lon="1.38135">
        <ele>143</ele>
        <time>2025-04-10T16:19:34Z</time>
      </trkpt>
      <trkpt lat="43.65238" lon="1.38137">
        <ele>144</ele>
        <time>2025-04-10T16:19:35Z</time>
      </trkpt>
      <trkpt lat="43.65235" lon="1.38138">
        <ele>143</ele>
        <time>2025-04-10T16:19:36Z</time>
      </trkpt>
      <trkpt lat="43.65232" lon="1.3814">
        <ele>142</ele>
        <time>2025-04-10T16:19:37Z</time>
      </trkpt>
      <trkpt lat="43.6523" lon="1.38142">
        <ele>142</ele>
        <time>2025-04-10T16:19:38Z</time>
      </trkpt>
      <trkpt lat="43.65227" lon="1.38143">
        <ele>141</ele>
        <time>2025-04-10T16:19:39Z</time>
      </trkpt>
      <trkpt lat="43.65225" lon="1.38145">
        <ele>141</ele>
        <time>2025-04-10T16:19:40Z</time>
      </trkpt>
      <trkpt lat="43.65222" lon="1.38147">
        <ele>141</ele>
        <time>2025-04-10T16:19:41Z</time>
      </trkpt>
      <trkpt lat="43.65219" lon="1.38149">
        <ele>142</ele>
        <time>2025-04-10T16:19:42Z</time>
      </trkpt>
      <trkpt lat="43.65217" lon="1.38151">
        <ele>142</ele>
        <time>2025-04-10T16:19:43Z</time>
      </trkpt>
      <trkpt lat="43.65214" lon="1.38152">
        <ele>142</ele>
        <time>2025-04-10T16:19:44Z</time>
      </trkpt>
      <trkpt lat="43.65212" lon="1.38154">
        <ele>142</ele>
        <time>2025-04-10T16:19:45Z</time>
      </trkpt>
      <trkpt lat="43.65209" lon="1.38155">
        <ele>141</ele>
        <time>2025-04-10T16:19:46Z</time>
      </trkpt>
      <trkpt lat="43.65207" lon="1.38157">
        <ele>141</ele>
        <time>2025-04-10T16:19:47Z</time>
      </trkpt>
      <trkpt lat="43.65205" lon="1.38159">
        <ele>142</ele>
        <time>2025-04-10T16:19:48Z</time>
      </trkpt>
      <trkpt lat="43.65203" lon="1.38161">
        <ele>142</ele>
        <time>2025-04-10T16:19:49Z</time>
      </trkpt>
      <trkpt lat="43.652" lon="1.38163">
        <ele>142</ele>
        <time>2025-04-10T16:19:50Z</time>
      </trkpt>
      <trkpt lat="43.65198" lon="1.38165">
        <ele>142</ele>
        <time>2025-04-10T16:19:51Z</time>
      </trkpt>
      <trkpt lat="43.65196" lon="1.38168">
        <ele>141</ele>
        <time>2025-04-10T16:19:52Z</time>
      </trkpt>
      <trkpt lat="43.65194" lon="1.38171">
        <ele>141</ele>
        <time>2025-04-10T16:19:53Z</time>
      </trkpt>
      <trkpt lat="43.65192" lon="1.38173">
        <ele>141</ele>
        <time>2025-04-10T16:19:54Z</time>
      </trkpt>
      <trkpt lat="43.65189" lon="1.38176">
        <ele>141</ele>
        <time>2025-04-10T16:19:55Z</time>
      </trkpt>
      <trkpt lat="43.65187" lon="1.38178">
        <ele>141</ele>
        <time>2025-04-10T16:19:56Z</time>
      </trkpt>
      <trkpt lat="43.65185" lon="1.38181">
        <ele>141</ele>
        <time>2025-04-10T16:19:57Z</time>
      </trkpt>
      <trkpt lat="43.65183" lon="1.38184">
        <ele>141</ele>
        <time>2025-04-10T16:19:58Z</time>
      </trkpt>
      <trkpt lat="43.65181" lon="1.38186">
        <ele>141</ele>
        <time>2025-04-10T16:19:59Z</time>
      </trkpt>
      <trkpt lat="43.65179" lon="1.38188">
        <ele>142</ele>
        <time>2025-04-10T16:20:00Z</time>
      </trkpt>
      <trkpt lat="43.65176" lon="1.38191">
        <ele>141</ele>
        <time>2025-04-10T16:20:01Z</time>
      </trkpt>
      <trkpt lat="43.65174" lon="1.38193">
        <ele>141</ele>
        <time>2025-04-10T16:20:02Z</time>
      </trkpt>
      <trkpt lat="43.65172" lon="1.38196">
        <ele>141</ele>
        <time>2025-04-10T16:20:03Z</time>
      </trkpt>
      <trkpt lat="43.6517" lon="1.38199">
        <ele>141</ele>
        <time>2025-04-10T16:20:04Z</time>
      </trkpt>
      <trkpt lat="43.65168" lon="1.38202">
        <ele>140</ele>
        <time>2025-04-10T16:20:05Z</time>
      </trkpt>
      <trkpt lat="43.65167" lon="1.38206">
        <ele>141</ele>
        <time>2025-04-10T16:20:06Z</time>
      </trkpt>
      <trkpt lat="43.65166" lon="1.3821">
        <ele>141</ele>
        <time>2025-04-10T16:20:07Z</time>
      </trkpt>
      <trkpt lat="43.65165" lon="1.38214">
        <ele>141</ele>
        <time>2025-04-10T16:20:08Z</time>
      </trkpt>
      <trkpt lat="43.65165" lon="1.38217">
        <ele>141</ele>
        <time>2025-04-10T16:20:09Z</time>
      </trkpt>
      <trkpt lat="43.65165" lon="1.38221">
        <ele>141</ele>
        <time>2025-04-10T16:20:10Z</time>
      </trkpt>
      <trkpt lat="43.65165" lon="1.38225">
        <ele>141</ele>
        <time>2025-04-10T16:20:11Z</time>
      </trkpt>
      <trkpt lat="43.65166" lon="1.38229">
        <ele>141</ele>
        <time>2025-04-10T16:20:12Z</time>
      </trkpt>
      <trkpt lat="43.65167" lon="1.38233">
        <ele>141</ele>
        <time>2025-04-10T16:20:13Z</time>
      </trkpt>
      <trkpt lat="43.65168" lon="1.38237">
        <ele>141</ele>
        <time>2025-04-10T16:20:14Z</time>
      </trkpt>
      <trkpt lat="43.65168" lon="1.38241">
        <ele>140</ele>
        <time>2025-04-10T16:20:15Z</time>
      </trkpt>
      <trkpt lat="43.6517" lon="1.38245">
        <ele>140</ele>
        <time>2025-04-10T16:20:16Z</time>
      </trkpt>
      <trkpt lat="43.65171" lon="1.38248">
        <ele>140</ele>
        <time>2025-04-10T16:20:17Z</time>
      </trkpt>
      <trkpt lat="43.65171" lon="1.38252">
        <ele>140</ele>
        <time>2025-04-10T16:20:18Z</time>
      </trkpt>
      <trkpt lat="43.65172" lon="1.38256">
        <ele>140</ele>
        <time>2025-04-10T16:20:19Z</time>
      </trkpt>
      <trkpt lat="43.65173" lon="1.3826">
        <ele>140</ele>
        <time>2025-04-10T16:20:20Z</time>
      </trkpt>
      <trkpt lat="43.65173" lon="1.38264">
        <ele>140</ele>
        <time>2025-04-10T16:20:21Z</time>
      </trkpt>
      <trkpt lat="43.65174" lon="1.38268">
        <ele>140</ele>
        <time>2025-04-10T16:20:22Z</time>
      </trkpt>
      <trkpt lat="43.65175" lon="1.38271">
        <ele>140</ele>
        <time>2025-04-10T16:20:23Z</time>
      </trkpt>
      <trkpt lat="43.65176" lon="1.38275">
        <ele>140</ele>
        <time>2025-04-10T16:20:24Z</time>
      </trkpt>
      <trkpt lat="43.65177" lon="1.38279">
        <ele>140</ele>
        <time>2025-04-10T16:20:25Z</time>
      </trkpt>
      <trkpt lat="43.65177" lon="1.38283">
        <ele>140</ele>
        <time>2025-04-10T16:20:26Z</time>
      </trkpt>
      <trkpt lat="43.65179" lon="1.38287">
        <ele>140</ele>
        <time>2025-04-10T16:20:27Z</time>
      </trkpt>
      <trkpt lat="43.6518" lon="1.3829">
        <ele>140</ele>
        <time>2025-04-10T16:20:28Z</time>
      </trkpt>
      <trkpt lat="43.6518" lon="1.38294">
        <ele>140</ele>
        <time>2025-04-10T16:20:29Z</time>
      </trkpt>
      <trkpt lat="43.65181" lon="1.38298">
        <ele>140</ele>
        <time>2025-04-10T16:20:30Z</time>
      </trkpt>
      <trkpt lat="43.65182" lon="1.38302">
        <ele>140</ele>
        <time>2025-04-10T16:20:31Z</time>
      </trkpt>
      <trkpt lat="43.65183" lon="1.38306">
        <ele>140</ele>
        <time>2025-04-10T16:20:32Z</time>
      </trkpt>
      <trkpt lat="43.65183" lon="1.38309">
        <ele>140</ele>
        <time>2025-04-10T16:20:33Z</time>
      </trkpt>
      <trkpt lat="43.65184" lon="1.38313">
        <ele>140</ele>
        <time>2025-04-10T16:20:34Z</time>
      </trkpt>
      <trkpt lat="43.65185" lon="1.38317">
        <ele>140</ele>
        <time>2025-04-10T16:20:35Z</time>
      </trkpt>
      <trkpt lat="43.65185" lon="1.38321">
        <ele>141</ele>
        <time>2025-04-10T16:20:36Z</time>
      </trkpt>
      <trkpt lat="43.65186" lon="1.38324">
        <ele>141</ele>
        <time>2025-04-10T16:20:37Z</time>
      </trkpt>
      <trkpt lat="43.65187" lon="1.38328">
        <ele>140</ele>
        <time>2025-04-10T16:20:38Z</time>
      </trkpt>
      <trkpt lat="43.65188" lon="1.38332">
        <ele>140</ele>
        <time>2025-04-10T16:20:39Z</time>
      </trkpt>
      <trkpt lat="43.65188" lon="1.38335">
        <ele>140</ele>
        <time>2025-04-10T16:20:40Z</time>
      </trkpt>
      <trkpt lat="43.65189" lon="1.38339">
        <ele>140</ele>
        <time>2025-04-10T16:20:41Z</time>
      </trkpt>
      <trkpt lat="43.6519" lon="1.38343">
        <ele>140</ele>
        <time>2025-04-10T16:20:42Z</time>
      </trkpt>
      <trkpt lat="43.65191" lon="1.38347">
        <ele>140</ele>
        <time>2025-04-10T16:20:43Z</time>
      </trkpt>
      <trkpt lat="43.65191" lon="1.38351">
        <ele>140</ele>
        <time>2025-04-10T16:20:44Z</time>
      </trkpt>
      <trkpt lat="43.65192" lon="1.38355">
        <ele>140</ele>
        <time>2025-04-10T16:20:45Z</time>
      </trkpt>
      <trkpt lat="43.65192" lon="1.3836">
        <ele>140</ele>
        <time>2025-04-10T16:20:46Z</time>
      </trkpt>
      <trkpt lat="43.65193" lon="1.38364">
        <ele>140</ele>
        <time>2025-04-10T16:20:47Z</time>
      </trkpt>
      <trkpt lat="43.65192" lon="1.38368">
        <ele>140</ele>
        <time>2025-04-10T16:20:48Z</time>
      </trkpt>
      <trkpt lat="43.65193" lon="1.38372">
        <ele>140</ele>
        <time>2025-04-10T16:20:49Z</time>
      </trkpt>
      <trkpt lat="43.65193" lon="1.38376">
        <ele>140</ele>
        <time>2025-04-10T16:20:50Z</time>
      </trkpt>
      <trkpt lat="43.65194" lon="1.38381">
        <ele>141</ele>
        <time>2025-04-10T16:20:51Z</time>
      </trkpt>
      <trkpt lat="43.65194" lon="1.38384">
        <ele>141</ele>
        <time>2025-04-10T16:20:52Z</time>
      </trkpt>
      <trkpt lat="43.65195" lon="1.38388">
        <ele>141</ele>
        <time>2025-04-10T16:20:53Z</time>
      </trkpt>
      <trkpt lat="43.65197" lon="1.38392">
        <ele>141</ele>
        <time>2025-04-10T16:20:54Z</time>
      </trkpt>
      <trkpt lat="43.65198" lon="1.38395">
        <ele>141</ele>
        <time>2025-04-10T16:20:55Z</time>
      </trkpt>
      <trkpt lat="43.65199" lon="1.38398">
        <ele>141</ele>
        <time>2025-04-10T16:20:56Z</time>
      </trkpt>
      <trkpt lat="43.65201" lon="1.38401">
        <ele>140</ele>
        <time>2025-04-10T16:20:57Z</time>
      </trkpt>
      <trkpt lat="43.65203" lon="1.38404">
        <ele>140</ele>
        <time>2025-04-10T16:20:58Z</time>
      </trkpt>
      <trkpt lat="43.65205" lon="1.38406">
        <ele>140</ele>
        <time>2025-04-10T16:20:59Z</time>
      </trkpt>
      <trkpt lat="43.65207" lon="1.38409">
        <ele>140</ele>
        <time>2025-04-10T16:21:00Z</time>
      </trkpt>
      <trkpt lat="43.65209" lon="1.38412">
        <ele>140</ele>
        <time>2025-04-10T16:21:01Z</time>
      </trkpt>
      <trkpt lat="43.65211" lon="1.38414">
        <ele>140</ele>
        <time>2025-04-10T16:21:02Z</time>
      </trkpt>
      <trkpt lat="43.65212" lon="1.38417">
        <ele>140</ele>
        <time>2025-04-10T16:21:03Z</time>
      </trkpt>
      <trkpt lat="43.65214" lon="1.3842">
        <ele>140</ele>
        <time>2025-04-10T16:21:04Z</time>
      </trkpt>
      <trkpt lat="43.65215" lon="1.38423">
        <ele>140</ele>
        <time>2025-04-10T16:21:05Z</time>
      </trkpt>
      <trkpt lat="43.65217" lon="1.38427">
        <ele>140</ele>
        <time>2025-04-10T16:21:06Z</time>
      </trkpt>
      <trkpt lat="43.65218" lon="1.3843">
        <ele>139</ele>
        <time>2025-04-10T16:21:07Z</time>
      </trkpt>
      <trkpt lat="43.65219" lon="1.38433">
        <ele>139</ele>
        <time>2025-04-10T16:21:08Z</time>
      </trkpt>
      <trkpt lat="43.65221" lon="1.38437">
        <ele>139</ele>
        <time>2025-04-10T16:21:09Z</time>
      </trkpt>
      <trkpt lat="43.65222" lon="1.3844">
        <ele>139</ele>
        <time>2025-04-10T16:21:10Z</time>
      </trkpt>
      <trkpt lat="43.65223" lon="1.38443">
        <ele>139</ele>
        <time>2025-04-10T16:21:11Z</time>
      </trkpt>
      <trkpt lat="43.65225" lon="1.38447">
        <ele>139</ele>
        <time>2025-04-10T16:21:12Z</time>
      </trkpt>
      <trkpt lat="43.65226" lon="1.3845">
        <ele>139</ele>
        <time>2025-04-10T16:21:13Z</time>
      </trkpt>
      <trkpt lat="43.65227" lon="1.38453">
        <ele>139</ele>
        <time>2025-04-10T16:21:14Z</time>
      </trkpt>
      <trkpt lat="43.65229" lon="1.38457">
        <ele>139</ele>
        <time>2025-04-10T16:21:15Z</time>
      </trkpt>
      <trkpt lat="43.65229" lon="1.38457">
        <ele>139</ele>
        <time>2025-04-10T16:21:16Z</time>
      </trkpt>
      <trkpt lat="43.65232" lon="1.38466">
        <ele>138</ele>
        <time>2025-04-10T16:21:17Z</time>
      </trkpt>
      <trkpt lat="43.65232" lon="1.38468">
        <ele>138</ele>
        <time>2025-04-10T16:21:18Z</time>
      </trkpt>
      <trkpt lat="43.65233" lon="1.38471">
        <ele>138</ele>
        <time>2025-04-10T16:21:19Z</time>
      </trkpt>
      <trkpt lat="43.65235" lon="1.38475">
        <ele>138</ele>
        <time>2025-04-10T16:21:20Z</time>
      </trkpt>
      <trkpt lat="43.65236" lon="1.38479">
        <ele>138</ele>
        <time>2025-04-10T16:21:21Z</time>
      </trkpt>
      <trkpt lat="43.65237" lon="1.38483">
        <ele>138</ele>
        <time>2025-04-10T16:21:22Z</time>
      </trkpt>
      <trkpt lat="43.65238" lon="1.38488">
        <ele>138</ele>
        <time>2025-04-10T16:21:23Z</time>
      </trkpt>
      <trkpt lat="43.65239" lon="1.38492">
        <ele>138</ele>
        <time>2025-04-10T16:21:24Z</time>
      </trkpt>
      <trkpt lat="43.6524" lon="1.38496">
        <ele>138</ele>
        <time>2025-04-10T16:21:25Z</time>
      </trkpt>
      <trkpt lat="43.6524" lon="1.385">
        <ele>138</ele>
        <time>2025-04-10T16:21:26Z</time>
      </trkpt>
      <trkpt lat="43.65241" lon="1.38504">
        <ele>138</ele>
        <time>2025-04-10T16:21:27Z</time>
      </trkpt>
      <trkpt lat="43.65241" lon="1.38506">
        <ele>138</ele>
        <time>2025-04-10T16:21:28Z</time>
      </trkpt>
      <trkpt lat="43.65242" lon="1.3851">
        <ele>138</ele>
        <time>2025-04-10T16:21:29Z</time>
      </trkpt>
      <trkpt lat="43.65243" lon="1.38514">
        <ele>139</ele>
        <time>2025-04-10T16:21:30Z</time>
      </trkpt>
      <trkpt lat="43.65245" lon="1.38517">
        <ele>139</ele>
        <time>2025-04-10T16:21:31Z</time>
      </trkpt>
      <trkpt lat="43.65246" lon="1.38521">
        <ele>138</ele>
        <time>2025-04-10T16:21:32Z</time>
      </trkpt>
      <trkpt lat="43.65246" lon="1.38524">
        <ele>138</ele>
        <time>2025-04-10T16:21:33Z</time>
      </trkpt>
      <trkpt lat="43.65247" lon="1.38528">
        <ele>138</ele>
        <time>2025-04-10T16:21:34Z</time>
      </trkpt>
      <trkpt lat="43.65249" lon="1.38532">
        <ele>138</ele>
        <time>2025-04-10T16:21:35Z</time>
      </trkpt>
      <trkpt lat="43.6525" lon="1.38536">
        <ele>138</ele>
        <time>2025-04-10T16:21:36Z</time>
      </trkpt>
      <trkpt lat="43.65251" lon="1.3854">
        <ele>138</ele>
        <time>2025-04-10T16:21:37Z</time>
      </trkpt>
      <trkpt lat="43.65252" lon="1.38544">
        <ele>138</ele>
        <time>2025-04-10T16:21:38Z</time>
      </trkpt>
      <trkpt lat="43.65253" lon="1.38548">
        <ele>138</ele>
        <time>2025-04-10T16:21:39Z</time>
      </trkpt>
      <trkpt lat="43.65255" lon="1.38552">
        <ele>138</ele>
        <time>2025-04-10T16:21:40Z</time>
      </trkpt>
      <trkpt lat="43.65257" lon="1.38556">
        <ele>138</ele>
        <time>2025-04-10T16:21:41Z</time>
      </trkpt>
      <trkpt lat="43.65257" lon="1.38559">
        <ele>138</ele>
        <time>2025-04-10T16:21:42Z</time>
      </trkpt>
      <trkpt lat="43.65257" lon="1.38559">
        <ele>138</ele>
        <time>2025-04-10T16:21:43Z</time>
      </trkpt>
      <trkpt lat="43.65259" lon="1.38563">
        <ele>138</ele>
        <time>2025-04-10T16:21:44Z</time>
      </trkpt>
      <trkpt lat="43.6526" lon="1.38566">
        <ele>138</ele>
        <time>2025-04-10T16:21:45Z</time>
      </trkpt>
      <trkpt lat="43.65261" lon="1.3857">
        <ele>138</ele>
        <time>2025-04-10T16:21:46Z</time>
      </trkpt>
      <trkpt lat="43.65263" lon="1.38574">
        <ele>138</ele>
        <time>2025-04-10T16:21:47Z</time>
      </trkpt>
      <trkpt lat="43.65265" lon="1.38578">
        <ele>138</ele>
        <time>2025-04-10T16:21:48Z</time>
      </trkpt>
      <trkpt lat="43.65266" lon="1.38582">
        <ele>138</ele>
        <time>2025-04-10T16:21:49Z</time>
      </trkpt>
      <trkpt lat="43.65268" lon="1.38586">
        <ele>138</ele>
        <time>2025-04-10T16:21:50Z</time>
      </trkpt>
      <trkpt lat="43.6527" lon="1.3859">
        <ele>138</ele>
        <time>2025-04-10T16:21:51Z</time>
      </trkpt>
      <trkpt lat="43.65271" lon="1.38594">
        <ele>137</ele>
        <time>2025-04-10T16:21:52Z</time>
      </trkpt>
      <trkpt lat="43.65272" lon="1.38597">
        <ele>137</ele>
        <time>2025-04-10T16:21:53Z</time>
      </trkpt>
      <trkpt lat="43.65273" lon="1.386">
        <ele>137</ele>
        <time>2025-04-10T16:21:54Z</time>
      </trkpt>
      <trkpt lat="43.65275" lon="1.38602">
        <ele>137</ele>
        <time>2025-04-10T16:21:55Z</time>
      </trkpt>
      <trkpt lat="43.65276" lon="1.38605">
        <ele>137</ele>
        <time>2025-04-10T16:21:56Z</time>
      </trkpt>
      <trkpt lat="43.65277" lon="1.38608">
        <ele>137</ele>
        <time>2025-04-10T16:21:57Z</time>
      </trkpt>
      <trkpt lat="43.65278" lon="1.3861">
        <ele>137</ele>
        <time>2025-04-10T16:21:58Z</time>
      </trkpt>
      <trkpt lat="43.6528" lon="1.38614">
        <ele>137</ele>
        <time>2025-04-10T16:21:59Z</time>
      </trkpt>
      <trkpt lat="43.65282" lon="1.38618">
        <ele>138</ele>
        <time>2025-04-10T16:22:00Z</time>
      </trkpt>
      <trkpt lat="43.65284" lon="1.38622">
        <ele>138</ele>
        <time>2025-04-10T16:22:01Z</time>
      </trkpt>
      <trkpt lat="43.65286" lon="1.38626">
        <ele>138</ele>
        <time>2025-04-10T16:22:02Z</time>
      </trkpt>
      <trkpt lat="43.65286" lon="1.38626">
        <ele>138</ele>
        <time>2025-04-10T16:22:03Z</time>
      </trkpt>
      <trkpt lat="43.65287" lon="1.38629">
        <ele>138</ele>
        <time>2025-04-10T16:22:04Z</time>
      </trkpt>
      <trkpt lat="43.65289" lon="1.38633">
        <ele>139</ele>
        <time>2025-04-10T16:22:05Z</time>
      </trkpt>
      <trkpt lat="43.65291" lon="1.38636">
        <ele>139</ele>
        <time>2025-04-10T16:22:06Z</time>
      </trkpt>
      <trkpt lat="43.65296" lon="1.38644">
        <ele>138</ele>
        <time>2025-04-10T16:22:07Z</time>
      </trkpt>
      <trkpt lat="43.65296" lon="1.38645">
        <ele>138</ele>
        <time>2025-04-10T16:22:08Z</time>
      </trkpt>
      <trkpt lat="43.65298" lon="1.38648">
        <ele>139</ele>
        <time>2025-04-10T16:22:09Z</time>
      </trkpt>
      <trkpt lat="43.65298" lon="1.38648">
        <ele>139</ele>
        <time>2025-04-10T16:22:10Z</time>
      </trkpt>
      <trkpt lat="43.65299" lon="1.38653">
        <ele>139</ele>
        <time>2025-04-10T16:22:11Z</time>
      </trkpt>
      <trkpt lat="43.65301" lon="1.38657">
        <ele>139</ele>
        <time>2025-04-10T16:22:12Z</time>
      </trkpt>
      <trkpt lat="43.65302" lon="1.38661">
        <ele>139</ele>
        <time>2025-04-10T16:22:13Z</time>
      </trkpt>
      <trkpt lat="43.65304" lon="1.38665">
        <ele>139</ele>
        <time>2025-04-10T16:22:14Z</time>
      </trkpt>
      <trkpt lat="43.65305" lon="1.3867">
        <ele>139</ele>
        <time>2025-04-10T16:22:15Z</time>
      </trkpt>
      <trkpt lat="43.65306" lon="1.38672">
        <ele>139</ele>
        <time>2025-04-10T16:22:16Z</time>
      </trkpt>
      <trkpt lat="43.65307" lon="1.38676">
        <ele>138</ele>
        <time>2025-04-10T16:22:17Z</time>
      </trkpt>
      <trkpt lat="43.65308" lon="1.38679">
        <ele>138</ele>
        <time>2025-04-10T16:22:18Z</time>
      </trkpt>
      <trkpt lat="43.6531" lon="1.38683">
        <ele>138</ele>
        <time>2025-04-10T16:22:19Z</time>
      </trkpt>
      <trkpt lat="43.65312" lon="1.38686">
        <ele>138</ele>
        <time>2025-04-10T16:22:20Z</time>
      </trkpt>
      <trkpt lat="43.65312" lon="1.3869">
        <ele>138</ele>
        <time>2025-04-10T16:22:21Z</time>
      </trkpt>
      <trkpt lat="43.65312" lon="1.3869">
        <ele>138</ele>
        <time>2025-04-10T16:22:22Z</time>
      </trkpt>
      <trkpt lat="43.65314" lon="1.38694">
        <ele>138</ele>
        <time>2025-04-10T16:22:23Z</time>
      </trkpt>
      <trkpt lat="43.65315" lon="1.38698">
        <ele>138</ele>
        <time>2025-04-10T16:22:24Z</time>
      </trkpt>
      <trkpt lat="43.65316" lon="1.38702">
        <ele>138</ele>
        <time>2025-04-10T16:22:25Z</time>
      </trkpt>
      <trkpt lat="43.65317" lon="1.38705">
        <ele>138</ele>
        <time>2025-04-10T16:22:26Z</time>
      </trkpt>
      <trkpt lat="43.65318" lon="1.38709">
        <ele>138</ele>
        <time>2025-04-10T16:22:27Z</time>
      </trkpt>
      <trkpt lat="43.65319" lon="1.38713">
        <ele>138</ele>
        <time>2025-04-10T16:22:28Z</time>
      </trkpt>
      <trkpt lat="43.6532" lon="1.38717">
        <ele>138</ele>
        <time>2025-04-10T16:22:29Z</time>
      </trkpt>
      <trkpt lat="43.65321" lon="1.38719">
        <ele>138</ele>
        <time>2025-04-10T16:22:30Z</time>
      </trkpt>
      <trkpt lat="43.65321" lon="1.38723">
        <ele>138</ele>
        <time>2025-04-10T16:22:31Z</time>
      </trkpt>
      <trkpt lat="43.65322" lon="1.38726">
        <ele>138</ele>
        <time>2025-04-10T16:22:32Z</time>
      </trkpt>
      <trkpt lat="43.65323" lon="1.3873">
        <ele>138</ele>
        <time>2025-04-10T16:22:33Z</time>
      </trkpt>
      <trkpt lat="43.65324" lon="1.38734">
        <ele>138</ele>
        <time>2025-04-10T16:22:34Z</time>
      </trkpt>
      <trkpt lat="43.65325" lon="1.38738">
        <ele>139</ele>
        <time>2025-04-10T16:22:35Z</time>
      </trkpt>
      <trkpt lat="43.65326" lon="1.38742">
        <ele>139</ele>
        <time>2025-04-10T16:22:36Z</time>
      </trkpt>
      <trkpt lat="43.65326" lon="1.38746">
        <ele>139</ele>
        <time>2025-04-10T16:22:37Z</time>
      </trkpt>
      <trkpt lat="43.65328" lon="1.3875">
        <ele>139</ele>
        <time>2025-04-10T16:22:38Z</time>
      </trkpt>
      <trkpt lat="43.65329" lon="1.38755">
        <ele>139</ele>
        <time>2025-04-10T16:22:39Z</time>
      </trkpt>
      <trkpt lat="43.65331" lon="1.38759">
        <ele>139</ele>
        <time>2025-04-10T16:22:40Z</time>
      </trkpt>
      <trkpt lat="43.65331" lon="1.38763">
        <ele>139</ele>
        <time>2025-04-10T16:22:41Z</time>
      </trkpt>
      <trkpt lat="43.65332" lon="1.38767">
        <ele>139</ele>
        <time>2025-04-10T16:22:42Z</time>
      </trkpt>
      <trkpt lat="43.65333" lon="1.3877">
        <ele>139</ele>
        <time>2025-04-10T16:22:43Z</time>
      </trkpt>
      <trkpt lat="43.65334" lon="1.38774">
        <ele>140</ele>
        <time>2025-04-10T16:22:44Z</time>
      </trkpt>
      <trkpt lat="43.65335" lon="1.38777">
        <ele>140</ele>
        <time>2025-04-10T16:22:45Z</time>
      </trkpt>
      <trkpt lat="43.65335" lon="1.38777">
        <ele>140</ele>
        <time>2025-04-10T16:22:46Z</time>
      </trkpt>
      <trkpt lat="43.65336" lon="1.38781">
        <ele>140</ele>
        <time>2025-04-10T16:22:47Z</time>
      </trkpt>
      <trkpt lat="43.65337" lon="1.38784">
        <ele>140</ele>
        <time>2025-04-10T16:22:48Z</time>
      </trkpt>
      <trkpt lat="43.65337" lon="1.38787">
        <ele>140</ele>
        <time>2025-04-10T16:22:49Z</time>
      </trkpt>
      <trkpt lat="43.65338" lon="1.38791">
        <ele>140</ele>
        <time>2025-04-10T16:22:50Z</time>
      </trkpt>
      <trkpt lat="43.6534" lon="1.38795">
        <ele>140</ele>
        <time>2025-04-10T16:22:51Z</time>
      </trkpt>
      <trkpt lat="43.65341" lon="1.388">
        <ele>140</ele>
        <time>2025-04-10T16:22:52Z</time>
      </trkpt>
      <trkpt lat="43.65343" lon="1.38805">
        <ele>140</ele>
        <time>2025-04-10T16:22:53Z</time>
      </trkpt>
      <trkpt lat="43.65344" lon="1.38809">
        <ele>140</ele>
        <time>2025-04-10T16:22:54Z</time>
      </trkpt>
      <trkpt lat="43.65346" lon="1.38813">
        <ele>140</ele>
        <time>2025-04-10T16:22:55Z</time>
      </trkpt>
      <trkpt lat="43.65346" lon="1.38813">
        <ele>140</ele>
        <time>2025-04-10T16:22:56Z</time>
      </trkpt>
      <trkpt lat="43.65348" lon="1.38818">
        <ele>140</ele>
        <time>2025-04-10T16:22:57Z</time>
      </trkpt>
      <trkpt lat="43.6535" lon="1.38822">
        <ele>140</ele>
        <time>2025-04-10T16:22:58Z</time>
      </trkpt>
      <trkpt lat="43.65353" lon="1.38827">
        <ele>140</ele>
        <time>2025-04-10T16:22:59Z</time>
      </trkpt>
      <trkpt lat="43.65355" lon="1.38831">
        <ele>140</ele>
        <time>2025-04-10T16:23:00Z</time>
      </trkpt>
      <trkpt lat="43.65356" lon="1.38834">
        <ele>140</ele>
        <time>2025-04-10T16:23:01Z</time>
      </trkpt>
      <trkpt lat="43.65358" lon="1.38836">
        <ele>140</ele>
        <time>2025-04-10T16:23:02Z</time>
      </trkpt>
      <trkpt lat="43.65358" lon="1.38836">
        <ele>140</ele>
        <time>2025-04-10T16:23:03Z</time>
      </trkpt>
      <trkpt lat="43.6536" lon="1.38838">
        <ele>140</ele>
        <time>2025-04-10T16:23:04Z</time>
      </trkpt>
      <trkpt lat="43.65362" lon="1.38841">
        <ele>140</ele>
        <time>2025-04-10T16:23:05Z</time>
      </trkpt>
      <trkpt lat="43.65364" lon="1.38843">
        <ele>140</ele>
        <time>2025-04-10T16:23:06Z</time>
      </trkpt>
      <trkpt lat="43.65366" lon="1.38846">
        <ele>140</ele>
        <time>2025-04-10T16:23:07Z</time>
      </trkpt>
      <trkpt lat="43.65368" lon="1.38847">
        <ele>140</ele>
        <time>2025-04-10T16:23:08Z</time>
      </trkpt>
      <trkpt lat="43.65368" lon="1.38847">
        <ele>140</ele>
        <time>2025-04-10T16:23:09Z</time>
      </trkpt>
      <trkpt lat="43.65371" lon="1.38849">
        <ele>139</ele>
        <time>2025-04-10T16:23:10Z</time>
      </trkpt>
      <trkpt lat="43.65371" lon="1.38849">
        <ele>139</ele>
        <time>2025-04-10T16:23:11Z</time>
      </trkpt>
      <trkpt lat="43.65374" lon="1.38848">
        <ele>139</ele>
        <time>2025-04-10T16:23:12Z</time>
      </trkpt>
      <trkpt lat="43.65377" lon="1.38848">
        <ele>138</ele>
        <time>2025-04-10T16:23:13Z</time>
      </trkpt>
      <trkpt lat="43.6538" lon="1.38848">
        <ele>138</ele>
        <time>2025-04-10T16:23:14Z</time>
      </trkpt>
      <trkpt lat="43.65382" lon="1.38847">
        <ele>138</ele>
        <time>2025-04-10T16:23:15Z</time>
      </trkpt>
      <trkpt lat="43.65385" lon="1.38847">
        <ele>138</ele>
        <time>2025-04-10T16:23:16Z</time>
      </trkpt>
      <trkpt lat="43.65388" lon="1.38846">
        <ele>138</ele>
        <time>2025-04-10T16:23:17Z</time>
      </trkpt>
      <trkpt lat="43.65391" lon="1.38845">
        <ele>138</ele>
        <time>2025-04-10T16:23:18Z</time>
      </trkpt>
      <trkpt lat="43.65393" lon="1.38844">
        <ele>139</ele>
        <time>2025-04-10T16:23:19Z</time>
      </trkpt>
      <trkpt lat="43.65398" lon="1.38845">
        <ele>139</ele>
        <time>2025-04-10T16:23:20Z</time>
      </trkpt>
      <trkpt lat="43.65402" lon="1.38845">
        <ele>139</ele>
        <time>2025-04-10T16:23:21Z</time>
      </trkpt>
      <trkpt lat="43.65406" lon="1.38846">
        <ele>139</ele>
        <time>2025-04-10T16:23:22Z</time>
      </trkpt>
      <trkpt lat="43.6541" lon="1.38849">
        <ele>139</ele>
        <time>2025-04-10T16:23:23Z</time>
      </trkpt>
      <trkpt lat="43.65413" lon="1.38853">
        <ele>138</ele>
        <time>2025-04-10T16:23:24Z</time>
      </trkpt>
      <trkpt lat="43.65415" lon="1.38857">
        <ele>138</ele>
        <time>2025-04-10T16:23:25Z</time>
      </trkpt>
      <trkpt lat="43.65416" lon="1.38862">
        <ele>138</ele>
        <time>2025-04-10T16:23:26Z</time>
      </trkpt>
      <trkpt lat="43.65416" lon="1.38862">
        <ele>138</ele>
        <time>2025-04-10T16:23:27Z</time>
      </trkpt>
      <trkpt lat="43.65419" lon="1.38872">
        <ele>138</ele>
        <time>2025-04-10T16:23:28Z</time>
      </trkpt>
      <trkpt lat="43.65419" lon="1.38872">
        <ele>137</ele>
        <time>2025-04-10T16:23:29Z</time>
      </trkpt>
      <trkpt lat="43.6542" lon="1.38876">
        <ele>136</ele>
        <time>2025-04-10T16:23:30Z</time>
      </trkpt>
      <trkpt lat="43.65421" lon="1.3888">
        <ele>136</ele>
        <time>2025-04-10T16:23:31Z</time>
      </trkpt>
      <trkpt lat="43.65422" lon="1.38885">
        <ele>135</ele>
        <time>2025-04-10T16:23:32Z</time>
      </trkpt>
      <trkpt lat="43.65424" lon="1.38889">
        <ele>134</ele>
        <time>2025-04-10T16:23:33Z</time>
      </trkpt>
      <trkpt lat="43.65425" lon="1.38893">
        <ele>134</ele>
        <time>2025-04-10T16:23:34Z</time>
      </trkpt>
      <trkpt lat="43.65427" lon="1.38898">
        <ele>134</ele>
        <time>2025-04-10T16:23:35Z</time>
      </trkpt>
      <trkpt lat="43.65429" lon="1.38901">
        <ele>134</ele>
        <time>2025-04-10T16:23:36Z</time>
      </trkpt>
      <trkpt lat="43.65431" lon="1.38904">
        <ele>134</ele>
        <time>2025-04-10T16:23:37Z</time>
      </trkpt>
      <trkpt lat="43.65433" lon="1.38908">
        <ele>134</ele>
        <time>2025-04-10T16:23:38Z</time>
      </trkpt>
      <trkpt lat="43.65438" lon="1.38915">
        <ele>134</ele>
        <time>2025-04-10T16:23:39Z</time>
      </trkpt>
      <trkpt lat="43.65439" lon="1.38917">
        <ele>134</ele>
        <time>2025-04-10T16:23:40Z</time>
      </trkpt>
      <trkpt lat="43.65441" lon="1.3892">
        <ele>134</ele>
        <time>2025-04-10T16:23:41Z</time>
      </trkpt>
      <trkpt lat="43.65443" lon="1.38923">
        <ele>134</ele>
        <time>2025-04-10T16:23:42Z</time>
      </trkpt>
      <trkpt lat="43.65445" lon="1.38926">
        <ele>134</ele>
        <time>2025-04-10T16:23:43Z</time>
      </trkpt>
      <trkpt lat="43.65448" lon="1.38929">
        <ele>133</ele>
        <time>2025-04-10T16:23:44Z</time>
      </trkpt>
      <trkpt lat="43.6545" lon="1.38933">
        <ele>132</ele>
        <time>2025-04-10T16:23:45Z</time>
      </trkpt>
      <trkpt lat="43.65452" lon="1.38936">
        <ele>132</ele>
        <time>2025-04-10T16:23:46Z</time>
      </trkpt>
      <trkpt lat="43.65454" lon="1.3894">
        <ele>131</ele>
        <time>2025-04-10T16:23:47Z</time>
      </trkpt>
      <trkpt lat="43.65456" lon="1.38944">
        <ele>130</ele>
        <time>2025-04-10T16:23:48Z</time>
      </trkpt>
      <trkpt lat="43.65459" lon="1.38949">
        <ele>129</ele>
        <time>2025-04-10T16:23:49Z</time>
      </trkpt>
      <trkpt lat="43.65461" lon="1.38954">
        <ele>128</ele>
        <time>2025-04-10T16:23:50Z</time>
      </trkpt>
      <trkpt lat="43.65463" lon="1.38959">
        <ele>128</ele>
        <time>2025-04-10T16:23:51Z</time>
      </trkpt>
      <trkpt lat="43.65465" lon="1.38964">
        <ele>127</ele>
        <time>2025-04-10T16:23:52Z</time>
      </trkpt>
      <trkpt lat="43.65467" lon="1.38969">
        <ele>127</ele>
        <time>2025-04-10T16:23:53Z</time>
      </trkpt>
      <trkpt lat="43.65468" lon="1.38973">
        <ele>127</ele>
        <time>2025-04-10T16:23:54Z</time>
      </trkpt>
      <trkpt lat="43.6547" lon="1.38978">
        <ele>127</ele>
        <time>2025-04-10T16:23:55Z</time>
      </trkpt>
      <trkpt lat="43.65471" lon="1.38982">
        <ele>127</ele>
        <time>2025-04-10T16:23:56Z</time>
      </trkpt>
      <trkpt lat="43.65472" lon="1.38986">
        <ele>127</ele>
        <time>2025-04-10T16:23:57Z</time>
      </trkpt>
      <trkpt lat="43.65473" lon="1.38989">
        <ele>127</ele>
        <time>2025-04-10T16:23:58Z</time>
      </trkpt>
      <trkpt lat="43.65475" lon="1.38992">
        <ele>127</ele>
        <time>2025-04-10T16:23:59Z</time>
      </trkpt>
      <trkpt lat="43.65475" lon="1.38992">
        <ele>127</ele>
        <time>2025-04-10T16:24:00Z</time>
      </trkpt>
      <trkpt lat="43.65477" lon="1.38996">
        <ele>127</ele>
        <time>2025-04-10T16:24:01Z</time>
      </trkpt>
      <trkpt lat="43.65477" lon="1.38996">
        <ele>127</ele>
        <time>2025-04-10T16:24:02Z</time>
      </trkpt>
      <trkpt lat="43.65482" lon="1.39002">
        <ele>127</ele>
        <time>2025-04-10T16:24:03Z</time>
      </trkpt>
      <trkpt lat="43.65483" lon="1.39004">
        <ele>127</ele>
        <time>2025-04-10T16:24:04Z</time>
      </trkpt>
      <trkpt lat="43.65486" lon="1.39006">
        <ele>127</ele>
        <time>2025-04-10T16:24:05Z</time>
      </trkpt>
      <trkpt lat="43.65488" lon="1.39008">
        <ele>127</ele>
        <time>2025-04-10T16:24:06Z</time>
      </trkpt>
      <trkpt lat="43.6549" lon="1.3901">
        <ele>126</ele>
        <time>2025-04-10T16:24:07Z</time>
      </trkpt>
      <trkpt lat="43.65492" lon="1.39013">
        <ele>126</ele>
        <time>2025-04-10T16:24:08Z</time>
      </trkpt>
      <trkpt lat="43.65495" lon="1.39015">
        <ele>126</ele>
        <time>2025-04-10T16:24:09Z</time>
      </trkpt>
      <trkpt lat="43.65497" lon="1.39016">
        <ele>126</ele>
        <time>2025-04-10T16:24:10Z</time>
      </trkpt>
      <trkpt lat="43.65499" lon="1.39018">
        <ele>126</ele>
        <time>2025-04-10T16:24:11Z</time>
      </trkpt>
      <trkpt lat="43.65502" lon="1.39019">
        <ele>125</ele>
        <time>2025-04-10T16:24:12Z</time>
      </trkpt>
      <trkpt lat="43.65504" lon="1.3902">
        <ele>126</ele>
        <time>2025-04-10T16:24:13Z</time>
      </trkpt>
      <trkpt lat="43.65507" lon="1.39021">
        <ele>126</ele>
        <time>2025-04-10T16:24:14Z</time>
      </trkpt>
      <trkpt lat="43.6551" lon="1.39022">
        <ele>126</ele>
        <time>2025-04-10T16:24:15Z</time>
      </trkpt>
      <trkpt lat="43.65512" lon="1.39023">
        <ele>126</ele>
        <time>2025-04-10T16:24:16Z</time>
      </trkpt>
      <trkpt lat="43.65515" lon="1.39025">
        <ele>126</ele>
        <time>2025-04-10T16:24:17Z</time>
      </trkpt>
      <trkpt lat="43.65518" lon="1.39027">
        <ele>126</ele>
        <time>2025-04-10T16:24:18Z</time>
      </trkpt>
      <trkpt lat="43.65521" lon="1.39028">
        <ele>125</ele>
        <time>2025-04-10T16:24:19Z</time>
      </trkpt>
      <trkpt lat="43.65523" lon="1.3903">
        <ele>125</ele>
        <time>2025-04-10T16:24:20Z</time>
      </trkpt>
      <trkpt lat="43.65526" lon="1.39031">
        <ele>125</ele>
        <time>2025-04-10T16:24:21Z</time>
      </trkpt>
      <trkpt lat="43.65529" lon="1.39032">
        <ele>125</ele>
        <time>2025-04-10T16:24:22Z</time>
      </trkpt>
      <trkpt lat="43.65532" lon="1.39033">
        <ele>125</ele>
        <time>2025-04-10T16:24:23Z</time>
      </trkpt>
      <trkpt lat="43.65535" lon="1.39034">
        <ele>125</ele>
        <time>2025-04-10T16:24:24Z</time>
      </trkpt>
      <trkpt lat="43.65538" lon="1.39035">
        <ele>125</ele>
        <time>2025-04-10T16:24:25Z</time>
      </trkpt>
      <trkpt lat="43.65541" lon="1.39036">
        <ele>125</ele>
        <time>2025-04-10T16:24:26Z</time>
      </trkpt>
      <trkpt lat="43.65543" lon="1.39038">
        <ele>125</ele>
        <time>2025-04-10T16:24:27Z</time>
      </trkpt>
      <trkpt lat="43.65546" lon="1.3904">
        <ele>124</ele>
        <time>2025-04-10T16:24:28Z</time>
      </trkpt>
      <trkpt lat="43.65548" lon="1.39042">
        <ele>125</ele>
        <time>2025-04-10T16:24:29Z</time>
      </trkpt>
      <trkpt lat="43.65551" lon="1.39044">
        <ele>125</ele>
        <time>2025-04-10T16:24:30Z</time>
      </trkpt>
      <trkpt lat="43.65554" lon="1.39045">
        <ele>125</ele>
        <time>2025-04-10T16:24:31Z</time>
      </trkpt>
      <trkpt lat="43.65556" lon="1.39048">
        <ele>125</ele>
        <time>2025-04-10T16:24:32Z</time>
      </trkpt>
      <trkpt lat="43.65559" lon="1.39049">
        <ele>125</ele>
        <time>2025-04-10T16:24:33Z</time>
      </trkpt>
      <trkpt lat="43.65561" lon="1.39051">
        <ele>125</ele>
        <time>2025-04-10T16:24:34Z</time>
      </trkpt>
      <trkpt lat="43.65563" lon="1.39053">
        <ele>125</ele>
        <time>2025-04-10T16:24:35Z</time>
      </trkpt>
      <trkpt lat="43.65565" lon="1.39055">
        <ele>125</ele>
        <time>2025-04-10T16:24:36Z</time>
      </trkpt>
      <trkpt lat="43.65567" lon="1.39057">
        <ele>125</ele>
        <time>2025-04-10T16:24:37Z</time>
      </trkpt>
      <trkpt lat="43.6557" lon="1.3906">
        <ele>125</ele>
        <time>2025-04-10T16:24:38Z</time>
      </trkpt>
      <trkpt lat="43.65572" lon="1.39062">
        <ele>125</ele>
        <time>2025-04-10T16:24:39Z</time>
      </trkpt>
      <trkpt lat="43.65575" lon="1.39064">
        <ele>125</ele>
        <time>2025-04-10T16:24:40Z</time>
      </trkpt>
      <trkpt lat="43.65577" lon="1.39065">
        <ele>125</ele>
        <time>2025-04-10T16:24:41Z</time>
      </trkpt>
      <trkpt lat="43.6558" lon="1.39067">
        <ele>124</ele>
        <time>2025-04-10T16:24:42Z</time>
      </trkpt>
      <trkpt lat="43.65582" lon="1.39068">
        <ele>124</ele>
        <time>2025-04-10T16:24:43Z</time>
      </trkpt>
      <trkpt lat="43.65585" lon="1.3907">
        <ele>124</ele>
        <time>2025-04-10T16:24:44Z</time>
      </trkpt>
      <trkpt lat="43.65588" lon="1.39071">
        <ele>124</ele>
        <time>2025-04-10T16:24:45Z</time>
      </trkpt>
      <trkpt lat="43.6559" lon="1.39073">
        <ele>124</ele>
        <time>2025-04-10T16:24:46Z</time>
      </trkpt>
      <trkpt lat="43.65593" lon="1.39074">
        <ele>125</ele>
        <time>2025-04-10T16:24:47Z</time>
      </trkpt>
      <trkpt lat="43.65596" lon="1.39075">
        <ele>125</ele>
        <time>2025-04-10T16:24:48Z</time>
      </trkpt>
      <trkpt lat="43.65598" lon="1.39076">
        <ele>125</ele>
        <time>2025-04-10T16:24:49Z</time>
      </trkpt>
      <trkpt lat="43.65601" lon="1.39077">
        <ele>125</ele>
        <time>2025-04-10T16:24:50Z</time>
      </trkpt>
      <trkpt lat="43.65604" lon="1.39078">
        <ele>125</ele>
        <time>2025-04-10T16:24:51Z</time>
      </trkpt>
      <trkpt lat="43.65606" lon="1.3908">
        <ele>125</ele>
        <time>2025-04-10T16:24:52Z</time>
      </trkpt>
      <trkpt lat="43.65609" lon="1.39082">
        <ele>124</ele>
        <time>2025-04-10T16:24:53Z</time>
      </trkpt>
      <trkpt lat="43.65611" lon="1.39083">
        <ele>124</ele>
        <time>2025-04-10T16:24:54Z</time>
      </trkpt>
      <trkpt lat="43.65613" lon="1.39085">
        <ele>124</ele>
        <time>2025-04-10T16:24:55Z</time>
      </trkpt>
      <trkpt lat="43.65615" lon="1.39086">
        <ele>124</ele>
        <time>2025-04-10T16:24:56Z</time>
      </trkpt>
      <trkpt lat="43.65618" lon="1.39088">
        <ele>124</ele>
        <time>2025-04-10T16:24:57Z</time>
      </trkpt>
      <trkpt lat="43.6562" lon="1.3909">
        <ele>124</ele>
        <time>2025-04-10T16:24:58Z</time>
      </trkpt>
      <trkpt lat="43.65623" lon="1.39092">
        <ele>124</ele>
        <time>2025-04-10T16:24:59Z</time>
      </trkpt>
      <trkpt lat="43.65626" lon="1.39094">
        <ele>124</ele>
        <time>2025-04-10T16:25:00Z</time>
      </trkpt>
      <trkpt lat="43.65629" lon="1.39095">
        <ele>124</ele>
        <time>2025-04-10T16:25:01Z</time>
      </trkpt>
      <trkpt lat="43.65632" lon="1.39097">
        <ele>124</ele>
        <time>2025-04-10T16:25:02Z</time>
      </trkpt>
      <trkpt lat="43.65635" lon="1.39098">
        <ele>124</ele>
        <time>2025-04-10T16:25:03Z</time>
      </trkpt>
      <trkpt lat="43.65637" lon="1.39099">
        <ele>124</ele>
        <time>2025-04-10T16:25:04Z</time>
      </trkpt>
      <trkpt lat="43.6564" lon="1.391">
        <ele>124</ele>
        <time>2025-04-10T16:25:05Z</time>
      </trkpt>
      <trkpt lat="43.65643" lon="1.39102">
        <ele>124</ele>
        <time>2025-04-10T16:25:06Z</time>
      </trkpt>
      <trkpt lat="43.65646" lon="1.39104">
        <ele>124</ele>
        <time>2025-04-10T16:25:07Z</time>
      </trkpt>
      <trkpt lat="43.65649" lon="1.39107">
        <ele>124</ele>
        <time>2025-04-10T16:25:08Z</time>
      </trkpt>
      <trkpt lat="43.65652" lon="1.39109">
        <ele>124</ele>
        <time>2025-04-10T16:25:09Z</time>
      </trkpt>
      <trkpt lat="43.65656" lon="1.39111">
        <ele>124</ele>
        <time>2025-04-10T16:25:10Z</time>
      </trkpt>
      <trkpt lat="43.65659" lon="1.39113">
        <ele>124</ele>
        <time>2025-04-10T16:25:11Z</time>
      </trkpt>
      <trkpt lat="43.65661" lon="1.39115">
        <ele>124</ele>
        <time>2025-04-10T16:25:12Z</time>
      </trkpt>
      <trkpt lat="43.65664" lon="1.39117">
        <ele>124</ele>
        <time>2025-04-10T16:25:13Z</time>
      </trkpt>
      <trkpt lat="43.65667" lon="1.39119">
        <ele>124</ele>
        <time>2025-04-10T16:25:14Z</time>
      </trkpt>
      <trkpt lat="43.6567" lon="1.39121">
        <ele>124</ele>
        <time>2025-04-10T16:25:15Z</time>
      </trkpt>
      <trkpt lat="43.65672" lon="1.39122">
        <ele>124</ele>
        <time>2025-04-10T16:25:16Z</time>
      </trkpt>
      <trkpt lat="43.65675" lon="1.39124">
        <ele>124</ele>
        <time>2025-04-10T16:25:17Z</time>
      </trkpt>
      <trkpt lat="43.65677" lon="1.39125">
        <ele>124</ele>
        <time>2025-04-10T16:25:18Z</time>
      </trkpt>
      <trkpt lat="43.6568" lon="1.39127">
        <ele>124</ele>
        <time>2025-04-10T16:25:19Z</time>
      </trkpt>
      <trkpt lat="43.65682" lon="1.39129">
        <ele>124</ele>
        <time>2025-04-10T16:25:20Z</time>
      </trkpt>
      <trkpt lat="43.65684" lon="1.39131">
        <ele>124</ele>
        <time>2025-04-10T16:25:21Z</time>
      </trkpt>
      <trkpt lat="43.65686" lon="1.39132">
        <ele>124</ele>
        <time>2025-04-10T16:25:22Z</time>
      </trkpt>
      <trkpt lat="43.65688" lon="1.39134">
        <ele>124</ele>
        <time>2025-04-10T16:25:23Z</time>
      </trkpt>
      <trkpt lat="43.6569" lon="1.39135">
        <ele>124</ele>
        <time>2025-04-10T16:25:24Z</time>
      </trkpt>
      <trkpt lat="43.65693" lon="1.39137">
        <ele>124</ele>
        <time>2025-04-10T16:25:25Z</time>
      </trkpt>
      <trkpt lat="43.65696" lon="1.39139">
        <ele>124</ele>
        <time>2025-04-10T16:25:26Z</time>
      </trkpt>
      <trkpt lat="43.65698" lon="1.39141">
        <ele>124</ele>
        <time>2025-04-10T16:25:27Z</time>
      </trkpt>
      <trkpt lat="43.65702" lon="1.39143">
        <ele>124</ele>
        <time>2025-04-10T16:25:28Z</time>
      </trkpt>
      <trkpt lat="43.65704" lon="1.39145">
        <ele>124</ele>
        <time>2025-04-10T16:25:29Z</time>
      </trkpt>
      <trkpt lat="43.65707" lon="1.39147">
        <ele>124</ele>
        <time>2025-04-10T16:25:30Z</time>
      </trkpt>
      <trkpt lat="43.65709" lon="1.39149">
        <ele>124</ele>
        <time>2025-04-10T16:25:31Z</time>
      </trkpt>
      <trkpt lat="43.65711" lon="1.39151">
        <ele>124</ele>
        <time>2025-04-10T16:25:32Z</time>
      </trkpt>
      <trkpt lat="43.65713" lon="1.39152">
        <ele>124</ele>
        <time>2025-04-10T16:25:33Z</time>
      </trkpt>
      <trkpt lat="43.65715" lon="1.39154">
        <ele>124</ele>
        <time>2025-04-10T16:25:34Z</time>
      </trkpt>
      <trkpt lat="43.65717" lon="1.39157">
        <ele>124</ele>
        <time>2025-04-10T16:25:35Z</time>
      </trkpt>
      <trkpt lat="43.65719" lon="1.39159">
        <ele>124</ele>
        <time>2025-04-10T16:25:36Z</time>
      </trkpt>
      <trkpt lat="43.65722" lon="1.39161">
        <ele>124</ele>
        <time>2025-04-10T16:25:37Z</time>
      </trkpt>
      <trkpt lat="43.65724" lon="1.39163">
        <ele>124</ele>
        <time>2025-04-10T16:25:38Z</time>
      </trkpt>
      <trkpt lat="43.65727" lon="1.39165">
        <ele>124</ele>
        <time>2025-04-10T16:25:39Z</time>
      </trkpt>
      <trkpt lat="43.65729" lon="1.39167">
        <ele>124</ele>
        <time>2025-04-10T16:25:40Z</time>
      </trkpt>
      <trkpt lat="43.65731" lon="1.39168">
        <ele>124</ele>
        <time>2025-04-10T16:25:41Z</time>
      </trkpt>
      <trkpt lat="43.65734" lon="1.3917">
        <ele>124</ele>
        <time>2025-04-10T16:25:42Z</time>
      </trkpt>
      <trkpt lat="43.65737" lon="1.39171">
        <ele>124</ele>
        <time>2025-04-10T16:25:43Z</time>
      </trkpt>
      <trkpt lat="43.6574" lon="1.39173">
        <ele>124</ele>
        <time>2025-04-10T16:25:44Z</time>
      </trkpt>
      <trkpt lat="43.65743" lon="1.39174">
        <ele>124</ele>
        <time>2025-04-10T16:25:45Z</time>
      </trkpt>
      <trkpt lat="43.65745" lon="1.39176">
        <ele>124</ele>
        <time>2025-04-10T16:25:46Z</time>
      </trkpt>
      <trkpt lat="43.65748" lon="1.39177">
        <ele>124</ele>
        <time>2025-04-10T16:25:47Z</time>
      </trkpt>
      <trkpt lat="43.65751" lon="1.39178">
        <ele>125</ele>
        <time>2025-04-10T16:25:48Z</time>
      </trkpt>
      <trkpt lat="43.65754" lon="1.3918">
        <ele>125</ele>
        <time>2025-04-10T16:25:49Z</time>
      </trkpt>
      <trkpt lat="43.65757" lon="1.39183">
        <ele>125</ele>
        <time>2025-04-10T16:25:50Z</time>
      </trkpt>
      <trkpt lat="43.6576" lon="1.39185">
        <ele>125</ele>
        <time>2025-04-10T16:25:51Z</time>
      </trkpt>
      <trkpt lat="43.65763" lon="1.39187">
        <ele>125</ele>
        <time>2025-04-10T16:25:52Z</time>
      </trkpt>
      <trkpt lat="43.65766" lon="1.3919">
        <ele>125</ele>
        <time>2025-04-10T16:25:53Z</time>
      </trkpt>
      <trkpt lat="43.65769" lon="1.39193">
        <ele>125</ele>
        <time>2025-04-10T16:25:54Z</time>
      </trkpt>
      <trkpt lat="43.65771" lon="1.39197">
        <ele>125</ele>
        <time>2025-04-10T16:25:55Z</time>
      </trkpt>
      <trkpt lat="43.65774" lon="1.392">
        <ele>125</ele>
        <time>2025-04-10T16:25:56Z</time>
      </trkpt>
      <trkpt lat="43.65776" lon="1.39202">
        <ele>125</ele>
        <time>2025-04-10T16:25:57Z</time>
      </trkpt>
      <trkpt lat="43.65779" lon="1.39205">
        <ele>125</ele>
        <time>2025-04-10T16:25:58Z</time>
      </trkpt>
      <trkpt lat="43.65781" lon="1.39207">
        <ele>125</ele>
        <time>2025-04-10T16:25:59Z</time>
      </trkpt>
      <trkpt lat="43.65784" lon="1.39209">
        <ele>125</ele>
        <time>2025-04-10T16:26:00Z</time>
      </trkpt>
      <trkpt lat="43.65787" lon="1.3921">
        <ele>125</ele>
        <time>2025-04-10T16:26:01Z</time>
      </trkpt>
      <trkpt lat="43.6579" lon="1.39211">
        <ele>125</ele>
        <time>2025-04-10T16:26:02Z</time>
      </trkpt>
      <trkpt lat="43.65793" lon="1.39212">
        <ele>125</ele>
        <time>2025-04-10T16:26:03Z</time>
      </trkpt>
      <trkpt lat="43.65796" lon="1.39213">
        <ele>124</ele>
        <time>2025-04-10T16:26:04Z</time>
      </trkpt>
      <trkpt lat="43.65799" lon="1.39213">
        <ele>124</ele>
        <time>2025-04-10T16:26:05Z</time>
      </trkpt>
      <trkpt lat="43.65802" lon="1.39214">
        <ele>123</ele>
        <time>2025-04-10T16:26:06Z</time>
      </trkpt>
      <trkpt lat="43.65804" lon="1.39215">
        <ele>123</ele>
        <time>2025-04-10T16:26:07Z</time>
      </trkpt>
      <trkpt lat="43.65807" lon="1.39218">
        <ele>124</ele>
        <time>2025-04-10T16:26:08Z</time>
      </trkpt>
      <trkpt lat="43.65809" lon="1.39219">
        <ele>124</ele>
        <time>2025-04-10T16:26:09Z</time>
      </trkpt>
      <trkpt lat="43.65812" lon="1.3922">
        <ele>124</ele>
        <time>2025-04-10T16:26:10Z</time>
      </trkpt>
      <trkpt lat="43.65814" lon="1.39222">
        <ele>123</ele>
        <time>2025-04-10T16:26:11Z</time>
      </trkpt>
      <trkpt lat="43.65817" lon="1.39222">
        <ele>123</ele>
        <time>2025-04-10T16:26:12Z</time>
      </trkpt>
      <trkpt lat="43.65819" lon="1.39222">
        <ele>123</ele>
        <time>2025-04-10T16:26:13Z</time>
      </trkpt>
      <trkpt lat="43.65822" lon="1.39222">
        <ele>123</ele>
        <time>2025-04-10T16:26:14Z</time>
      </trkpt>
      <trkpt lat="43.65824" lon="1.39223">
        <ele>123</ele>
        <time>2025-04-10T16:26:15Z</time>
      </trkpt>
      <trkpt lat="43.65827" lon="1.39223">
        <ele>123</ele>
        <time>2025-04-10T16:26:16Z</time>
      </trkpt>
      <trkpt lat="43.6583" lon="1.39224">
        <ele>124</ele>
        <time>2025-04-10T16:26:17Z</time>
      </trkpt>
      <trkpt lat="43.65832" lon="1.39226">
        <ele>124</ele>
        <time>2025-04-10T16:26:18Z</time>
      </trkpt>
      <trkpt lat="43.65835" lon="1.39228">
        <ele>123</ele>
        <time>2025-04-10T16:26:19Z</time>
      </trkpt>
      <trkpt lat="43.65838" lon="1.3923">
        <ele>123</ele>
        <time>2025-04-10T16:26:20Z</time>
      </trkpt>
      <trkpt lat="43.65841" lon="1.39232">
        <ele>123</ele>
        <time>2025-04-10T16:26:21Z</time>
      </trkpt>
      <trkpt lat="43.65843" lon="1.39234">
        <ele>123</ele>
        <time>2025-04-10T16:26:22Z</time>
      </trkpt>
      <trkpt lat="43.65846" lon="1.39236">
        <ele>123</ele>
        <time>2025-04-10T16:26:23Z</time>
      </trkpt>
      <trkpt lat="43.65848" lon="1.39238">
        <ele>123</ele>
        <time>2025-04-10T16:26:24Z</time>
      </trkpt>
      <trkpt lat="43.6585" lon="1.3924">
        <ele>123</ele>
        <time>2025-04-10T16:26:25Z</time>
      </trkpt>
      <trkpt lat="43.65853" lon="1.39242">
        <ele>122</ele>
        <time>2025-04-10T16:26:26Z</time>
      </trkpt>
      <trkpt lat="43.65855" lon="1.39243">
        <ele>122</ele>
        <time>2025-04-10T16:26:27Z</time>
      </trkpt>
      <trkpt lat="43.65858" lon="1.39245">
        <ele>122</ele>
        <time>2025-04-10T16:26:28Z</time>
      </trkpt>
      <trkpt lat="43.6586" lon="1.39246">
        <ele>122</ele>
        <time>2025-04-10T16:26:29Z</time>
      </trkpt>
      <trkpt lat="43.65863" lon="1.39247">
        <ele>123</ele>
        <time>2025-04-10T16:26:30Z</time>
      </trkpt>
      <trkpt lat="43.65865" lon="1.39248">
        <ele>123</ele>
        <time>2025-04-10T16:26:31Z</time>
      </trkpt>
      <trkpt lat="43.65867" lon="1.39247">
        <ele>123</ele>
        <time>2025-04-10T16:26:32Z</time>
      </trkpt>
      <trkpt lat="43.6587" lon="1.39247">
        <ele>123</ele>
        <time>2025-04-10T16:26:33Z</time>
      </trkpt>
      <trkpt lat="43.65873" lon="1.39247">
        <ele>123</ele>
        <time>2025-04-10T16:26:34Z</time>
      </trkpt>
      <trkpt lat="43.65877" lon="1.39248">
        <ele>122</ele>
        <time>2025-04-10T16:26:35Z</time>
      </trkpt>
      <trkpt lat="43.6588" lon="1.39248">
        <ele>123</ele>
        <time>2025-04-10T16:26:36Z</time>
      </trkpt>
      <trkpt lat="43.65883" lon="1.39249">
        <ele>123</ele>
        <time>2025-04-10T16:26:37Z</time>
      </trkpt>
      <trkpt lat="43.65885" lon="1.39251">
        <ele>123</ele>
        <time>2025-04-10T16:26:38Z</time>
      </trkpt>
      <trkpt lat="43.65888" lon="1.39252">
        <ele>123</ele>
        <time>2025-04-10T16:26:39Z</time>
      </trkpt>
      <trkpt lat="43.65891" lon="1.39254">
        <ele>123</ele>
        <time>2025-04-10T16:26:40Z</time>
      </trkpt>
      <trkpt lat="43.65895" lon="1.39255">
        <ele>123</ele>
        <time>2025-04-10T16:26:41Z</time>
      </trkpt>
      <trkpt lat="43.65898" lon="1.39255">
        <ele>123</ele>
        <time>2025-04-10T16:26:42Z</time>
      </trkpt>
      <trkpt lat="43.659" lon="1.39255">
        <ele>123</ele>
        <time>2025-04-10T16:26:43Z</time>
      </trkpt>
      <trkpt lat="43.65903" lon="1.39256">
        <ele>123</ele>
        <time>2025-04-10T16:26:44Z</time>
      </trkpt>
      <trkpt lat="43.65906" lon="1.39256">
        <ele>123</ele>
        <time>2025-04-10T16:26:45Z</time>
      </trkpt>
      <trkpt lat="43.65909" lon="1.39257">
        <ele>123</ele>
        <time>2025-04-10T16:26:46Z</time>
      </trkpt>
      <trkpt lat="43.65912" lon="1.39256">
        <ele>123</ele>
        <time>2025-04-10T16:26:47Z</time>
      </trkpt>
      <trkpt lat="43.65915" lon="1.39255">
        <ele>123</ele>
        <time>2025-04-10T16:26:48Z</time>
      </trkpt>
      <trkpt lat="43.65919" lon="1.39255">
        <ele>123</ele>
        <time>2025-04-10T16:26:49Z</time>
      </trkpt>
      <trkpt lat="43.65922" lon="1.39254">
        <ele>123</ele>
        <time>2025-04-10T16:26:50Z</time>
      </trkpt>
      <trkpt lat="43.65924" lon="1.39253">
        <ele>123</ele>
        <time>2025-04-10T16:26:51Z</time>
      </trkpt>
      <trkpt lat="43.65927" lon="1.39253">
        <ele>123</ele>
        <time>2025-04-10T16:26:52Z</time>
      </trkpt>
      <trkpt lat="43.6593" lon="1.39252">
        <ele>123</ele>
        <time>2025-04-10T16:26:53Z</time>
      </trkpt>
      <trkpt lat="43.65933" lon="1.39252">
        <ele>123</ele>
        <time>2025-04-10T16:26:54Z</time>
      </trkpt>
      <trkpt lat="43.65936" lon="1.39252">
        <ele>123</ele>
        <time>2025-04-10T16:26:55Z</time>
      </trkpt>
      <trkpt lat="43.65939" lon="1.39252">
        <ele>123</ele>
        <time>2025-04-10T16:26:56Z</time>
      </trkpt>
      <trkpt lat="43.65942" lon="1.39252">
        <ele>123</ele>
        <time>2025-04-10T16:26:57Z</time>
      </trkpt>
      <trkpt lat="43.65945" lon="1.39251">
        <ele>123</ele>
        <time>2025-04-10T16:26:58Z</time>
      </trkpt>
      <trkpt lat="43.65947" lon="1.39251">
        <ele>123</ele>
        <time>2025-04-10T16:26:59Z</time>
      </trkpt>
      <trkpt lat="43.6595" lon="1.39251">
        <ele>123</ele>
        <time>2025-04-10T16:27:00Z</time>
      </trkpt>
      <trkpt lat="43.65953" lon="1.3925">
        <ele>123</ele>
        <time>2025-04-10T16:27:01Z</time>
      </trkpt>
      <trkpt lat="43.65956" lon="1.39249">
        <ele>123</ele>
        <time>2025-04-10T16:27:02Z</time>
      </trkpt>
      <trkpt lat="43.65959" lon="1.39247">
        <ele>122</ele>
        <time>2025-04-10T16:27:03Z</time>
      </trkpt>
      <trkpt lat="43.65961" lon="1.39246">
        <ele>123</ele>
        <time>2025-04-10T16:27:04Z</time>
      </trkpt>
      <trkpt lat="43.65964" lon="1.39244">
        <ele>123</ele>
        <time>2025-04-10T16:27:05Z</time>
      </trkpt>
      <trkpt lat="43.65967" lon="1.39242">
        <ele>123</ele>
        <time>2025-04-10T16:27:06Z</time>
      </trkpt>
      <trkpt lat="43.6597" lon="1.39242">
        <ele>123</ele>
        <time>2025-04-10T16:27:07Z</time>
      </trkpt>
      <trkpt lat="43.65972" lon="1.39242">
        <ele>123</ele>
        <time>2025-04-10T16:27:08Z</time>
      </trkpt>
      <trkpt lat="43.65975" lon="1.39243">
        <ele>123</ele>
        <time>2025-04-10T16:27:09Z</time>
      </trkpt>
      <trkpt lat="43.65977" lon="1.39242">
        <ele>122</ele>
        <time>2025-04-10T16:27:10Z</time>
      </trkpt>
      <trkpt lat="43.6598" lon="1.39242">
        <ele>122</ele>
        <time>2025-04-10T16:27:11Z</time>
      </trkpt>
      <trkpt lat="43.65982" lon="1.39242">
        <ele>122</ele>
        <time>2025-04-10T16:27:12Z</time>
      </trkpt>
      <trkpt lat="43.65985" lon="1.39241">
        <ele>122</ele>
        <time>2025-04-10T16:27:13Z</time>
      </trkpt>
      <trkpt lat="43.65987" lon="1.39239">
        <ele>122</ele>
        <time>2025-04-10T16:27:14Z</time>
      </trkpt>
      <trkpt lat="43.6599" lon="1.39237">
        <ele>122</ele>
        <time>2025-04-10T16:27:15Z</time>
      </trkpt>
      <trkpt lat="43.65992" lon="1.39235">
        <ele>122</ele>
        <time>2025-04-10T16:27:16Z</time>
      </trkpt>
      <trkpt lat="43.65994" lon="1.39234">
        <ele>122</ele>
        <time>2025-04-10T16:27:17Z</time>
      </trkpt>
      <trkpt lat="43.65996" lon="1.39233">
        <ele>122</ele>
        <time>2025-04-10T16:27:18Z</time>
      </trkpt>
      <trkpt lat="43.65999" lon="1.39231">
        <ele>122</ele>
        <time>2025-04-10T16:27:19Z</time>
      </trkpt>
      <trkpt lat="43.66002" lon="1.3923">
        <ele>122</ele>
        <time>2025-04-10T16:27:20Z</time>
      </trkpt>
      <trkpt lat="43.66005" lon="1.39229">
        <ele>122</ele>
        <time>2025-04-10T16:27:21Z</time>
      </trkpt>
      <trkpt lat="43.66007" lon="1.39228">
        <ele>122</ele>
        <time>2025-04-10T16:27:22Z</time>
      </trkpt>
      <trkpt lat="43.66011" lon="1.39227">
        <ele>122</ele>
        <time>2025-04-10T16:27:23Z</time>
      </trkpt>
      <trkpt lat="43.66014" lon="1.39226">
        <ele>122</ele>
        <time>2025-04-10T16:27:24Z</time>
      </trkpt>
      <trkpt lat="43.66017" lon="1.39224">
        <ele>122</ele>
        <time>2025-04-10T16:27:25Z</time>
      </trkpt>
      <trkpt lat="43.6602" lon="1.39223">
        <ele>122</ele>
        <time>2025-04-10T16:27:26Z</time>
      </trkpt>
      <trkpt lat="43.66023" lon="1.39221">
        <ele>122</ele>
        <time>2025-04-10T16:27:27Z</time>
      </trkpt>
      <trkpt lat="43.66027" lon="1.3922">
        <ele>122</ele>
        <time>2025-04-10T16:27:28Z</time>
      </trkpt>
      <trkpt lat="43.6603" lon="1.3922">
        <ele>122</ele>
        <time>2025-04-10T16:27:29Z</time>
      </trkpt>
      <trkpt lat="43.66033" lon="1.39218">
        <ele>122</ele>
        <time>2025-04-10T16:27:30Z</time>
      </trkpt>
      <trkpt lat="43.66036" lon="1.39217">
        <ele>122</ele>
        <time>2025-04-10T16:27:31Z</time>
      </trkpt>
      <trkpt lat="43.66039" lon="1.39217">
        <ele>122</ele>
        <time>2025-04-10T16:27:32Z</time>
      </trkpt>
      <trkpt lat="43.66042" lon="1.39215">
        <ele>122</ele>
        <time>2025-04-10T16:27:33Z</time>
      </trkpt>
      <trkpt lat="43.66044" lon="1.39214">
        <ele>122</ele>
        <time>2025-04-10T16:27:34Z</time>
      </trkpt>
      <trkpt lat="43.66048" lon="1.39213">
        <ele>122</ele>
        <time>2025-04-10T16:27:35Z</time>
      </trkpt>
      <trkpt lat="43.66051" lon="1.39213">
        <ele>122</ele>
        <time>2025-04-10T16:27:36Z</time>
      </trkpt>
      <trkpt lat="43.66054" lon="1.39212">
        <ele>122</ele>
        <time>2025-04-10T16:27:37Z</time>
      </trkpt>
      <trkpt lat="43.66058" lon="1.39212">
        <ele>122</ele>
        <time>2025-04-10T16:27:38Z</time>
      </trkpt>
      <trkpt lat="43.66061" lon="1.39212">
        <ele>122</ele>
        <time>2025-04-10T16:27:39Z</time>
      </trkpt>
      <trkpt lat="43.66064" lon="1.39211">
        <ele>122</ele>
        <time>2025-04-10T16:27:40Z</time>
      </trkpt>
      <trkpt lat="43.66066" lon="1.39211">
        <ele>122</ele>
        <time>2025-04-10T16:27:41Z</time>
      </trkpt>
      <trkpt lat="43.66069" lon="1.39211">
        <ele>122</ele>
        <time>2025-04-10T16:27:42Z</time>
      </trkpt>
      <trkpt lat="43.66071" lon="1.39209">
        <ele>122</ele>
        <time>2025-04-10T16:27:43Z</time>
      </trkpt>
      <trkpt lat="43.66073" lon="1.39207">
        <ele>122</ele>
        <time>2025-04-10T16:27:44Z</time>
      </trkpt>
      <trkpt lat="43.66075" lon="1.39204">
        <ele>122</ele>
        <time>2025-04-10T16:27:45Z</time>
      </trkpt>
      <trkpt lat="43.66078" lon="1.39203">
        <ele>122</ele>
        <time>2025-04-10T16:27:46Z</time>
      </trkpt>
      <trkpt lat="43.6608" lon="1.39202">
        <ele>122</ele>
        <time>2025-04-10T16:27:47Z</time>
      </trkpt>
      <trkpt lat="43.66082" lon="1.39201">
        <ele>122</ele>
        <time>2025-04-10T16:27:48Z</time>
      </trkpt>
      <trkpt lat="43.66084" lon="1.39199">
        <ele>122</ele>
        <time>2025-04-10T16:27:49Z</time>
      </trkpt>
      <trkpt lat="43.66086" lon="1.39198">
        <ele>122</ele>
        <time>2025-04-10T16:27:50Z</time>
      </trkpt>
      <trkpt lat="43.66088" lon="1.39195">
        <ele>122</ele>
        <time>2025-04-10T16:27:51Z</time>
      </trkpt>
      <trkpt lat="43.66091" lon="1.39193">
        <ele>122</ele>
        <time>2025-04-10T16:27:52Z</time>
      </trkpt>
      <trkpt lat="43.66093" lon="1.39192">
        <ele>122</ele>
        <time>2025-04-10T16:27:53Z</time>
      </trkpt>
      <trkpt lat="43.66096" lon="1.39192">
        <ele>122</ele>
        <time>2025-04-10T16:27:54Z</time>
      </trkpt>
      <trkpt lat="43.66099" lon="1.39191">
        <ele>122</ele>
        <time>2025-04-10T16:27:55Z</time>
      </trkpt>
      <trkpt lat="43.66101" lon="1.39191">
        <ele>122</ele>
        <time>2025-04-10T16:27:56Z</time>
      </trkpt>
      <trkpt lat="43.66104" lon="1.39191">
        <ele>122</ele>
        <time>2025-04-10T16:27:57Z</time>
      </trkpt>
      <trkpt lat="43.66107" lon="1.39191">
        <ele>122</ele>
        <time>2025-04-10T16:27:58Z</time>
      </trkpt>
      <trkpt lat="43.6611" lon="1.3919">
        <ele>122</ele>
        <time>2025-04-10T16:27:59Z</time>
      </trkpt>
      <trkpt lat="43.66113" lon="1.39189">
        <ele>122</ele>
        <time>2025-04-10T16:28:00Z</time>
      </trkpt>
      <trkpt lat="43.66116" lon="1.39189">
        <ele>122</ele>
        <time>2025-04-10T16:28:01Z</time>
      </trkpt>
      <trkpt lat="43.66119" lon="1.39189">
        <ele>122</ele>
        <time>2025-04-10T16:28:02Z</time>
      </trkpt>
      <trkpt lat="43.66122" lon="1.39189">
        <ele>122</ele>
        <time>2025-04-10T16:28:03Z</time>
      </trkpt>
      <trkpt lat="43.66125" lon="1.39188">
        <ele>122</ele>
        <time>2025-04-10T16:28:04Z</time>
      </trkpt>
      <trkpt lat="43.66128" lon="1.39187">
        <ele>122</ele>
        <time>2025-04-10T16:28:05Z</time>
      </trkpt>
      <trkpt lat="43.6613" lon="1.39187">
        <ele>122</ele>
        <time>2025-04-10T16:28:06Z</time>
      </trkpt>
      <trkpt lat="43.66133" lon="1.39186">
        <ele>122</ele>
        <time>2025-04-10T16:28:07Z</time>
      </trkpt>
      <trkpt lat="43.66135" lon="1.39185">
        <ele>122</ele>
        <time>2025-04-10T16:28:08Z</time>
      </trkpt>
      <trkpt lat="43.66138" lon="1.39182">
        <ele>122</ele>
        <time>2025-04-10T16:28:09Z</time>
      </trkpt>
      <trkpt lat="43.6614" lon="1.3918">
        <ele>122</ele>
        <time>2025-04-10T16:28:10Z</time>
      </trkpt>
      <trkpt lat="43.66143" lon="1.39177">
        <ele>122</ele>
        <time>2025-04-10T16:28:11Z</time>
      </trkpt>
      <trkpt lat="43.66146" lon="1.39175">
        <ele>122</ele>
        <time>2025-04-10T16:28:12Z</time>
      </trkpt>
      <trkpt lat="43.66148" lon="1.39174">
        <ele>122</ele>
        <time>2025-04-10T16:28:13Z</time>
      </trkpt>
      <trkpt lat="43.66151" lon="1.39173">
        <ele>122</ele>
        <time>2025-04-10T16:28:14Z</time>
      </trkpt>
      <trkpt lat="43.66154" lon="1.39171">
        <ele>122</ele>
        <time>2025-04-10T16:28:15Z</time>
      </trkpt>
      <trkpt lat="43.66157" lon="1.39169">
        <ele>122</ele>
        <time>2025-04-10T16:28:16Z</time>
      </trkpt>
      <trkpt lat="43.6616" lon="1.39166">
        <ele>122</ele>
        <time>2025-04-10T16:28:17Z</time>
      </trkpt>
      <trkpt lat="43.66162" lon="1.39165">
        <ele>122</ele>
        <time>2025-04-10T16:28:18Z</time>
      </trkpt>
      <trkpt lat="43.66165" lon="1.39163">
        <ele>122</ele>
        <time>2025-04-10T16:28:19Z</time>
      </trkpt>
      <trkpt lat="43.66168" lon="1.39161">
        <ele>122</ele>
        <time>2025-04-10T16:28:20Z</time>
      </trkpt>
      <trkpt lat="43.66171" lon="1.39158">
        <ele>122</ele>
        <time>2025-04-10T16:28:21Z</time>
      </trkpt>
      <trkpt lat="43.66174" lon="1.39156">
        <ele>122</ele>
        <time>2025-04-10T16:28:22Z</time>
      </trkpt>
      <trkpt lat="43.66177" lon="1.39153">
        <ele>122</ele>
        <time>2025-04-10T16:28:23Z</time>
      </trkpt>
      <trkpt lat="43.66179" lon="1.3915">
        <ele>122</ele>
        <time>2025-04-10T16:28:24Z</time>
      </trkpt>
      <trkpt lat="43.66182" lon="1.39147">
        <ele>122</ele>
        <time>2025-04-10T16:28:25Z</time>
      </trkpt>
      <trkpt lat="43.66185" lon="1.39144">
        <ele>122</ele>
        <time>2025-04-10T16:28:26Z</time>
      </trkpt>
      <trkpt lat="43.66188" lon="1.39142">
        <ele>122</ele>
        <time>2025-04-10T16:28:27Z</time>
      </trkpt>
      <trkpt lat="43.66191" lon="1.3914">
        <ele>122</ele>
        <time>2025-04-10T16:28:28Z</time>
      </trkpt>
      <trkpt lat="43.66193" lon="1.39137">
        <ele>122</ele>
        <time>2025-04-10T16:28:29Z</time>
      </trkpt>
      <trkpt lat="43.66196" lon="1.39135">
        <ele>122</ele>
        <time>2025-04-10T16:28:30Z</time>
      </trkpt>
      <trkpt lat="43.66199" lon="1.39132">
        <ele>122</ele>
        <time>2025-04-10T16:28:31Z</time>
      </trkpt>
      <trkpt lat="43.66201" lon="1.39131">
        <ele>122</ele>
        <time>2025-04-10T16:28:32Z</time>
      </trkpt>
      <trkpt lat="43.66204" lon="1.39129">
        <ele>122</ele>
        <time>2025-04-10T16:28:33Z</time>
      </trkpt>
      <trkpt lat="43.66207" lon="1.39129">
        <ele>122</ele>
        <time>2025-04-10T16:28:34Z</time>
      </trkpt>
      <trkpt lat="43.6621" lon="1.39133">
        <ele>122</ele>
        <time>2025-04-10T16:28:35Z</time>
      </trkpt>
      <trkpt lat="43.66213" lon="1.39137">
        <ele>122</ele>
        <time>2025-04-10T16:28:36Z</time>
      </trkpt>
      <trkpt lat="43.66217" lon="1.3914">
        <ele>122</ele>
        <time>2025-04-10T16:28:37Z</time>
      </trkpt>
      <trkpt lat="43.6622" lon="1.39144">
        <ele>122</ele>
        <time>2025-04-10T16:28:38Z</time>
      </trkpt>
      <trkpt lat="43.66223" lon="1.39147">
        <ele>122</ele>
        <time>2025-04-10T16:28:39Z</time>
      </trkpt>
      <trkpt lat="43.66226" lon="1.39151">
        <ele>122</ele>
        <time>2025-04-10T16:28:40Z</time>
      </trkpt>
      <trkpt lat="43.66229" lon="1.39154">
        <ele>122</ele>
        <time>2025-04-10T16:28:41Z</time>
      </trkpt>
      <trkpt lat="43.66231" lon="1.39157">
        <ele>122</ele>
        <time>2025-04-10T16:28:42Z</time>
      </trkpt>
      <trkpt lat="43.66234" lon="1.3916">
        <ele>122</ele>
        <time>2025-04-10T16:28:43Z</time>
      </trkpt>
      <trkpt lat="43.66236" lon="1.39162">
        <ele>122</ele>
        <time>2025-04-10T16:28:44Z</time>
      </trkpt>
      <trkpt lat="43.66239" lon="1.39164">
        <ele>122</ele>
        <time>2025-04-10T16:28:45Z</time>
      </trkpt>
      <trkpt lat="43.66241" lon="1.39165">
        <ele>122</ele>
        <time>2025-04-10T16:28:46Z</time>
      </trkpt>
      <trkpt lat="43.66244" lon="1.39165">
        <ele>122</ele>
        <time>2025-04-10T16:28:47Z</time>
      </trkpt>
      <trkpt lat="43.66247" lon="1.39162">
        <ele>122</ele>
        <time>2025-04-10T16:28:48Z</time>
      </trkpt>
      <trkpt lat="43.6625" lon="1.39159">
        <ele>122</ele>
        <time>2025-04-10T16:28:49Z</time>
      </trkpt>
      <trkpt lat="43.66254" lon="1.39158">
        <ele>122</ele>
        <time>2025-04-10T16:28:50Z</time>
      </trkpt>
      <trkpt lat="43.66257" lon="1.39157">
        <ele>122</ele>
        <time>2025-04-10T16:28:51Z</time>
      </trkpt>
      <trkpt lat="43.6626" lon="1.39157">
        <ele>122</ele>
        <time>2025-04-10T16:28:52Z</time>
      </trkpt>
      <trkpt lat="43.66262" lon="1.39158">
        <ele>122</ele>
        <time>2025-04-10T16:28:53Z</time>
      </trkpt>
      <trkpt lat="43.66264" lon="1.3916">
        <ele>122</ele>
        <time>2025-04-10T16:28:54Z</time>
      </trkpt>
      <trkpt lat="43.66267" lon="1.39162">
        <ele>122</ele>
        <time>2025-04-10T16:28:55Z</time>
      </trkpt>
      <trkpt lat="43.6627" lon="1.39166">
        <ele>122</ele>
        <time>2025-04-10T16:28:56Z</time>
      </trkpt>
      <trkpt lat="43.66272" lon="1.39168">
        <ele>122</ele>
        <time>2025-04-10T16:28:57Z</time>
      </trkpt>
      <trkpt lat="43.66274" lon="1.39172">
        <ele>122</ele>
        <time>2025-04-10T16:28:58Z</time>
      </trkpt>
      <trkpt lat="43.66275" lon="1.39175">
        <ele>122</ele>
        <time>2025-04-10T16:28:59Z</time>
      </trkpt>
      <trkpt lat="43.66276" lon="1.39179">
        <ele>122</ele>
        <time>2025-04-10T16:29:00Z</time>
      </trkpt>
      <trkpt lat="43.66278" lon="1.39183">
        <ele>122</ele>
        <time>2025-04-10T16:29:01Z</time>
      </trkpt>
      <trkpt lat="43.66279" lon="1.39187">
        <ele>122</ele>
        <time>2025-04-10T16:29:02Z</time>
      </trkpt>
      <trkpt lat="43.6628" lon="1.39191">
        <ele>122</ele>
        <time>2025-04-10T16:29:03Z</time>
      </trkpt>
      <trkpt lat="43.66282" lon="1.39195">
        <ele>122</ele>
        <time>2025-04-10T16:29:04Z</time>
      </trkpt>
      <trkpt lat="43.66284" lon="1.392">
        <ele>122</ele>
        <time>2025-04-10T16:29:05Z</time>
      </trkpt>
      <trkpt lat="43.66285" lon="1.39204">
        <ele>122</ele>
        <time>2025-04-10T16:29:06Z</time>
      </trkpt>
      <trkpt lat="43.66286" lon="1.39208">
        <ele>121</ele>
        <time>2025-04-10T16:29:07Z</time>
      </trkpt>
      <trkpt lat="43.66287" lon="1.39211">
        <ele>121</ele>
        <time>2025-04-10T16:29:08Z</time>
      </trkpt>
      <trkpt lat="43.66288" lon="1.39215">
        <ele>122</ele>
        <time>2025-04-10T16:29:09Z</time>
      </trkpt>
      <trkpt lat="43.66289" lon="1.39218">
        <ele>122</ele>
        <time>2025-04-10T16:29:10Z</time>
      </trkpt>
      <trkpt lat="43.6629" lon="1.39222">
        <ele>122</ele>
        <time>2025-04-10T16:29:11Z</time>
      </trkpt>
      <trkpt lat="43.66291" lon="1.39227">
        <ele>122</ele>
        <time>2025-04-10T16:29:12Z</time>
      </trkpt>
      <trkpt lat="43.66292" lon="1.39232">
        <ele>122</ele>
        <time>2025-04-10T16:29:13Z</time>
      </trkpt>
      <trkpt lat="43.66294" lon="1.39237">
        <ele>122</ele>
        <time>2025-04-10T16:29:14Z</time>
      </trkpt>
      <trkpt lat="43.66295" lon="1.39241">
        <ele>122</ele>
        <time>2025-04-10T16:29:15Z</time>
      </trkpt>
      <trkpt lat="43.66297" lon="1.39244">
        <ele>122</ele>
        <time>2025-04-10T16:29:16Z</time>
      </trkpt>
      <trkpt lat="43.66299" lon="1.39248">
        <ele>122</ele>
        <time>2025-04-10T16:29:17Z</time>
      </trkpt>
      <trkpt lat="43.663" lon="1.39252">
        <ele>122</ele>
        <time>2025-04-10T16:29:18Z</time>
      </trkpt>
      <trkpt lat="43.66302" lon="1.39256">
        <ele>122</ele>
        <time>2025-04-10T16:29:19Z</time>
      </trkpt>
      <trkpt lat="43.66304" lon="1.39259">
        <ele>122</ele>
        <time>2025-04-10T16:29:20Z</time>
      </trkpt>
      <trkpt lat="43.66306" lon="1.39262">
        <ele>122</ele>
        <time>2025-04-10T16:29:21Z</time>
      </trkpt>
      <trkpt lat="43.66308" lon="1.39266">
        <ele>122</ele>
        <time>2025-04-10T16:29:22Z</time>
      </trkpt>
      <trkpt lat="43.6631" lon="1.39269">
        <ele>122</ele>
        <time>2025-04-10T16:29:23Z</time>
      </trkpt>
      <trkpt lat="43.66312" lon="1.39272">
        <ele>122</ele>
        <time>2025-04-10T16:29:24Z</time>
      </trkpt>
      <trkpt lat="43.66315" lon="1.39275">
        <ele>122</ele>
        <time>2025-04-10T16:29:25Z</time>
      </trkpt>
      <trkpt lat="43.66317" lon="1.39278">
        <ele>122</ele>
        <time>2025-04-10T16:29:26Z</time>
      </trkpt>
      <trkpt lat="43.66319" lon="1.3928">
        <ele>122</ele>
        <time>2025-04-10T16:29:27Z</time>
      </trkpt>
      <trkpt lat="43.66322" lon="1.39281">
        <ele>122</ele>
        <time>2025-04-10T16:29:28Z</time>
      </trkpt>
      <trkpt lat="43.66324" lon="1.39283">
        <ele>122</ele>
        <time>2025-04-10T16:29:29Z</time>
      </trkpt>
      <trkpt lat="43.66327" lon="1.39284">
        <ele>122</ele>
        <time>2025-04-10T16:29:30Z</time>
      </trkpt>
      <trkpt lat="43.6633" lon="1.39284">
        <ele>122</ele>
        <time>2025-04-10T16:29:31Z</time>
      </trkpt>
      <trkpt lat="43.66332" lon="1.39283">
        <ele>122</ele>
        <time>2025-04-10T16:29:32Z</time>
      </trkpt>
      <trkpt lat="43.66334" lon="1.39281">
        <ele>122</ele>
        <time>2025-04-10T16:29:33Z</time>
      </trkpt>
      <trkpt lat="43.66336" lon="1.3928">
        <ele>122</ele>
        <time>2025-04-10T16:29:34Z</time>
      </trkpt>
      <trkpt lat="43.66338" lon="1.39278">
        <ele>122</ele>
        <time>2025-04-10T16:29:35Z</time>
      </trkpt>
      <trkpt lat="43.6634" lon="1.39277">
        <ele>122</ele>
        <time>2025-04-10T16:29:36Z</time>
      </trkpt>
      <trkpt lat="43.66342" lon="1.39276">
        <ele>122</ele>
        <time>2025-04-10T16:29:37Z</time>
      </trkpt>
      <trkpt lat="43.66345" lon="1.39274">
        <ele>121</ele>
        <time>2025-04-10T16:29:38Z</time>
      </trkpt>
      <trkpt lat="43.66347" lon="1.39272">
        <ele>121</ele>
        <time>2025-04-10T16:29:39Z</time>
      </trkpt>
      <trkpt lat="43.66349" lon="1.3927">
        <ele>122</ele>
        <time>2025-04-10T16:29:40Z</time>
      </trkpt>
      <trkpt lat="43.66352" lon="1.39269">
        <ele>122</ele>
        <time>2025-04-10T16:29:41Z</time>
      </trkpt>
      <trkpt lat="43.66355" lon="1.39269">
        <ele>122</ele>
        <time>2025-04-10T16:29:42Z</time>
      </trkpt>
      <trkpt lat="43.66359" lon="1.39269">
        <ele>122</ele>
        <time>2025-04-10T16:29:43Z</time>
      </trkpt>
      <trkpt lat="43.66362" lon="1.3927">
        <ele>122</ele>
        <time>2025-04-10T16:29:44Z</time>
      </trkpt>
      <trkpt lat="43.66365" lon="1.39272">
        <ele>122</ele>
        <time>2025-04-10T16:29:45Z</time>
      </trkpt>
      <trkpt lat="43.66368" lon="1.39274">
        <ele>122</ele>
        <time>2025-04-10T16:29:46Z</time>
      </trkpt>
      <trkpt lat="43.66371" lon="1.39276">
        <ele>122</ele>
        <time>2025-04-10T16:29:47Z</time>
      </trkpt>
      <trkpt lat="43.66373" lon="1.39279">
        <ele>122</ele>
        <time>2025-04-10T16:29:48Z</time>
      </trkpt>
      <trkpt lat="43.66376" lon="1.39281">
        <ele>122</ele>
        <time>2025-04-10T16:29:49Z</time>
      </trkpt>
      <trkpt lat="43.66379" lon="1.39284">
        <ele>122</ele>
        <time>2025-04-10T16:29:50Z</time>
      </trkpt>
      <trkpt lat="43.66381" lon="1.39286">
        <ele>122</ele>
        <time>2025-04-10T16:29:51Z</time>
      </trkpt>
      <trkpt lat="43.66384" lon="1.39287">
        <ele>122</ele>
        <time>2025-04-10T16:29:52Z</time>
      </trkpt>
      <trkpt lat="43.66386" lon="1.39289">
        <ele>122</ele>
        <time>2025-04-10T16:29:53Z</time>
      </trkpt>
      <trkpt lat="43.66389" lon="1.39292">
        <ele>122</ele>
        <time>2025-04-10T16:29:54Z</time>
      </trkpt>
      <trkpt lat="43.66392" lon="1.39294">
        <ele>122</ele>
        <time>2025-04-10T16:29:55Z</time>
      </trkpt>
      <trkpt lat="43.66395" lon="1.39298">
        <ele>122</ele>
        <time>2025-04-10T16:29:56Z</time>
      </trkpt>
      <trkpt lat="43.66398" lon="1.393">
        <ele>122</ele>
        <time>2025-04-10T16:29:57Z</time>
      </trkpt>
      <trkpt lat="43.664" lon="1.39303">
        <ele>122</ele>
        <time>2025-04-10T16:29:58Z</time>
      </trkpt>
      <trkpt lat="43.66403" lon="1.39305">
        <ele>122</ele>
        <time>2025-04-10T16:29:59Z</time>
      </trkpt>
      <trkpt lat="43.66406" lon="1.39308">
        <ele>122</ele>
        <time>2025-04-10T16:30:00Z</time>
      </trkpt>
      <trkpt lat="43.66409" lon="1.39309">
        <ele>122</ele>
        <time>2025-04-10T16:30:01Z</time>
      </trkpt>
      <trkpt lat="43.66411" lon="1.39311">
        <ele>122</ele>
        <time>2025-04-10T16:30:02Z</time>
      </trkpt>
      <trkpt lat="43.66414" lon="1.39313">
        <ele>122</ele>
        <time>2025-04-10T16:30:03Z</time>
      </trkpt>
      <trkpt lat="43.66417" lon="1.39314">
        <ele>122</ele>
        <time>2025-04-10T16:30:04Z</time>
      </trkpt>
      <trkpt lat="43.6642" lon="1.39315">
        <ele>122</ele>
        <time>2025-04-10T16:30:05Z</time>
      </trkpt>
      <trkpt lat="43.66422" lon="1.39316">
        <ele>122</ele>
        <time>2025-04-10T16:30:06Z</time>
      </trkpt>
      <trkpt lat="43.66425" lon="1.39317">
        <ele>122</ele>
        <time>2025-04-10T16:30:07Z</time>
      </trkpt>
      <trkpt lat="43.66428" lon="1.39318">
        <ele>122</ele>
        <time>2025-04-10T16:30:08Z</time>
      </trkpt>
      <trkpt lat="43.66431" lon="1.39318">
        <ele>122</ele>
        <time>2025-04-10T16:30:09Z</time>
      </trkpt>
      <trkpt lat="43.66433" lon="1.39319">
        <ele>122</ele>
        <time>2025-04-10T16:30:10Z</time>
      </trkpt>
      <trkpt lat="43.66436" lon="1.39319">
        <ele>122</ele>
        <time>2025-04-10T16:30:11Z</time>
      </trkpt>
      <trkpt lat="43.66439" lon="1.39318">
        <ele>122</ele>
        <time>2025-04-10T16:30:12Z</time>
      </trkpt>
      <trkpt lat="43.66442" lon="1.39318">
        <ele>122</ele>
        <time>2025-04-10T16:30:13Z</time>
      </trkpt>
      <trkpt lat="43.66445" lon="1.39318">
        <ele>122</ele>
        <time>2025-04-10T16:30:14Z</time>
      </trkpt>
      <trkpt lat="43.66448" lon="1.39318">
        <ele>122</ele>
        <time>2025-04-10T16:30:15Z</time>
      </trkpt>
      <trkpt lat="43.66451" lon="1.39319">
        <ele>122</ele>
        <time>2025-04-10T16:30:16Z</time>
      </trkpt>
      <trkpt lat="43.66454" lon="1.39319">
        <ele>122</ele>
        <time>2025-04-10T16:30:17Z</time>
      </trkpt>
      <trkpt lat="43.66457" lon="1.39319">
        <ele>122</ele>
        <time>2025-04-10T16:30:18Z</time>
      </trkpt>
      <trkpt lat="43.6646" lon="1.39319">
        <ele>122</ele>
        <time>2025-04-10T16:30:19Z</time>
      </trkpt>
      <trkpt lat="43.66463" lon="1.39319">
        <ele>122</ele>
        <time>2025-04-10T16:30:20Z</time>
      </trkpt>
      <trkpt lat="43.66466" lon="1.39318">
        <ele>122</ele>
        <time>2025-04-10T16:30:21Z</time>
      </trkpt>
      <trkpt lat="43.66469" lon="1.39317">
        <ele>122</ele>
        <time>2025-04-10T16:30:22Z</time>
      </trkpt>
      <trkpt lat="43.66471" lon="1.39316">
        <ele>122</ele>
        <time>2025-04-10T16:30:23Z</time>
      </trkpt>
      <trkpt lat="43.66474" lon="1.39315">
        <ele>122</ele>
        <time>2025-04-10T16:30:24Z</time>
      </trkpt>
      <trkpt lat="43.66477" lon="1.39313">
        <ele>122</ele>
        <time>2025-04-10T16:30:25Z</time>
      </trkpt>
      <trkpt lat="43.6648" lon="1.39312">
        <ele>122</ele>
        <time>2025-04-10T16:30:26Z</time>
      </trkpt>
      <trkpt lat="43.66482" lon="1.3931">
        <ele>122</ele>
        <time>2025-04-10T16:30:27Z</time>
      </trkpt>
      <trkpt lat="43.66485" lon="1.39308">
        <ele>122</ele>
        <time>2025-04-10T16:30:28Z</time>
      </trkpt>
      <trkpt lat="43.66487" lon="1.39306">
        <ele>122</ele>
        <time>2025-04-10T16:30:29Z</time>
      </trkpt>
      <trkpt lat="43.6649" lon="1.39304">
        <ele>122</ele>
        <time>2025-04-10T16:30:30Z</time>
      </trkpt>
      <trkpt lat="43.66492" lon="1.39302">
        <ele>122</ele>
        <time>2025-04-10T16:30:31Z</time>
      </trkpt>
      <trkpt lat="43.66493" lon="1.39299">
        <ele>122</ele>
        <time>2025-04-10T16:30:32Z</time>
      </trkpt>
      <trkpt lat="43.66495" lon="1.39296">
        <ele>121</ele>
        <time>2025-04-10T16:30:33Z</time>
      </trkpt>
      <trkpt lat="43.66496" lon="1.39293">
        <ele>121</ele>
        <time>2025-04-10T16:30:34Z</time>
      </trkpt>
      <trkpt lat="43.66497" lon="1.3929">
        <ele>121</ele>
        <time>2025-04-10T16:30:35Z</time>
      </trkpt>
      <trkpt lat="43.66498" lon="1.39288">
        <ele>121</ele>
        <time>2025-04-10T16:30:36Z</time>
      </trkpt>
      <trkpt lat="43.66499" lon="1.39285">
        <ele>121</ele>
        <time>2025-04-10T16:30:37Z</time>
      </trkpt>
      <trkpt lat="43.665" lon="1.39281">
        <ele>121</ele>
        <time>2025-04-10T16:30:38Z</time>
      </trkpt>
      <trkpt lat="43.66502" lon="1.39278">
        <ele>121</ele>
        <time>2025-04-10T16:30:39Z</time>
      </trkpt>
      <trkpt lat="43.66503" lon="1.39274">
        <ele>121</ele>
        <time>2025-04-10T16:30:40Z</time>
      </trkpt>
      <trkpt lat="43.66504" lon="1.39271">
        <ele>121</ele>
        <time>2025-04-10T16:30:41Z</time>
      </trkpt>
      <trkpt lat="43.66506" lon="1.39268">
        <ele>121</ele>
        <time>2025-04-10T16:30:42Z</time>
      </trkpt>
      <trkpt lat="43.66507" lon="1.39265">
        <ele>120</ele>
        <time>2025-04-10T16:30:43Z</time>
      </trkpt>
      <trkpt lat="43.66509" lon="1.39263">
        <ele>120</ele>
        <time>2025-04-10T16:30:44Z</time>
      </trkpt>
      <trkpt lat="43.66545" lon="1.39245">
        <ele>122</ele>
        <time>2025-04-10T16:35:43Z</time>
      </trkpt>
      <trkpt lat="43.66546" lon="1.39245">
        <ele>122</ele>
        <time>2025-04-10T16:35:44Z</time>
      </trkpt>
      <trkpt lat="43.66548" lon="1.39242">
        <ele>122</ele>
        <time>2025-04-10T16:35:45Z</time>
      </trkpt>
      <trkpt lat="43.66548" lon="1.39242">
        <ele>122</ele>
        <time>2025-04-10T16:35:46Z</time>
      </trkpt>
      <trkpt lat="43.66549" lon="1.39238">
        <ele>122</ele>
        <time>2025-04-10T16:35:47Z</time>
      </trkpt>
      <trkpt lat="43.6655" lon="1.39235">
        <ele>121</ele>
        <time>2025-04-10T16:35:48Z</time>
      </trkpt>
      <trkpt lat="43.66551" lon="1.39233">
        <ele>121</ele>
        <time>2025-04-10T16:35:49Z</time>
      </trkpt>
      <trkpt lat="43.66552" lon="1.3923">
        <ele>121</ele>
        <time>2025-04-10T16:35:50Z</time>
      </trkpt>
      <trkpt lat="43.66552" lon="1.39227">
        <ele>121</ele>
        <time>2025-04-10T16:35:51Z</time>
      </trkpt>
      <trkpt lat="43.66553" lon="1.39224">
        <ele>121</ele>
        <time>2025-04-10T16:35:52Z</time>
      </trkpt>
      <trkpt lat="43.66554" lon="1.39221">
        <ele>121</ele>
        <time>2025-04-10T16:35:53Z</time>
      </trkpt>
      <trkpt lat="43.66555" lon="1.39219">
        <ele>121</ele>
        <time>2025-04-10T16:35:54Z</time>
      </trkpt>
      <trkpt lat="43.66555" lon="1.39216">
        <ele>121</ele>
        <time>2025-04-10T16:35:55Z</time>
      </trkpt>
      <trkpt lat="43.66556" lon="1.39213">
        <ele>121</ele>
        <time>2025-04-10T16:35:56Z</time>
      </trkpt>
      <trkpt lat="43.66557" lon="1.3921">
        <ele>121</ele>
        <time>2025-04-10T16:35:57Z</time>
      </trkpt>
      <trkpt lat="43.66558" lon="1.39208">
        <ele>121</ele>
        <time>2025-04-10T16:35:58Z</time>
      </trkpt>
      <trkpt lat="43.66559" lon="1.39205">
        <ele>121</ele>
        <time>2025-04-10T16:35:59Z</time>
      </trkpt>
      <trkpt lat="43.6656" lon="1.39203">
        <ele>122</ele>
        <time>2025-04-10T16:36:00Z</time>
      </trkpt>
      <trkpt lat="43.66562" lon="1.39201">
        <ele>122</ele>
        <time>2025-04-10T16:36:01Z</time>
      </trkpt>
      <trkpt lat="43.66562" lon="1.39198">
        <ele>122</ele>
        <time>2025-04-10T16:36:02Z</time>
      </trkpt>
      <trkpt lat="43.66563" lon="1.39196">
        <ele>122</ele>
        <time>2025-04-10T16:36:03Z</time>
      </trkpt>
      <trkpt lat="43.66564" lon="1.39193">
        <ele>122</ele>
        <time>2025-04-10T16:36:04Z</time>
      </trkpt>
      <trkpt lat="43.66564" lon="1.3919">
        <ele>122</ele>
        <time>2025-04-10T16:36:05Z</time>
      </trkpt>
      <trkpt lat="43.66565" lon="1.39187">
        <ele>122</ele>
        <time>2025-04-10T16:36:06Z</time>
      </trkpt>
      <trkpt lat="43.66565" lon="1.39184">
        <ele>122</ele>
        <time>2025-04-10T16:36:07Z</time>
      </trkpt>
      <trkpt lat="43.66565" lon="1.3918">
        <ele>122</ele>
        <time>2025-04-10T16:36:08Z</time>
      </trkpt>
      <trkpt lat="43.66565" lon="1.39177">
        <ele>122</ele>
        <time>2025-04-10T16:36:09Z</time>
      </trkpt>
      <trkpt lat="43.66565" lon="1.39174">
        <ele>122</ele>
        <time>2025-04-10T16:36:10Z</time>
      </trkpt>
      <trkpt lat="43.66566" lon="1.39171">
        <ele>122</ele>
        <time>2025-04-10T16:36:11Z</time>
      </trkpt>
      <trkpt lat="43.66566" lon="1.39168">
        <ele>122</ele>
        <time>2025-04-10T16:36:12Z</time>
      </trkpt>
      <trkpt lat="43.66566" lon="1.39165">
        <ele>122</ele>
        <time>2025-04-10T16:36:13Z</time>
      </trkpt>
      <trkpt lat="43.66566" lon="1.39162">
        <ele>122</ele>
        <time>2025-04-10T16:36:14Z</time>
      </trkpt>
      <trkpt lat="43.66566" lon="1.39159">
        <ele>122</ele>
        <time>2025-04-10T16:36:15Z</time>
      </trkpt>
      <trkpt lat="43.66567" lon="1.39155">
        <ele>122</ele>
        <time>2025-04-10T16:36:16Z</time>
      </trkpt>
      <trkpt lat="43.66567" lon="1.39152">
        <ele>122</ele>
        <time>2025-04-10T16:36:17Z</time>
      </trkpt>
      <trkpt lat="43.66568" lon="1.39149">
        <ele>122</ele>
        <time>2025-04-10T16:36:18Z</time>
      </trkpt>
      <trkpt lat="43.66568" lon="1.39146">
        <ele>122</ele>
        <time>2025-04-10T16:36:19Z</time>
      </trkpt>
      <trkpt lat="43.66568" lon="1.39142">
        <ele>122</ele>
        <time>2025-04-10T16:36:20Z</time>
      </trkpt>
      <trkpt lat="43.66568" lon="1.39139">
        <ele>122</ele>
        <time>2025-04-10T16:36:21Z</time>
      </trkpt>
      <trkpt lat="43.66569" lon="1.39136">
        <ele>122</ele>
        <time>2025-04-10T16:36:22Z</time>
      </trkpt>
      <trkpt lat="43.6657" lon="1.39134">
        <ele>122</ele>
        <time>2025-04-10T16:36:23Z</time>
      </trkpt>
      <trkpt lat="43.66571" lon="1.39131">
        <ele>122</ele>
        <time>2025-04-10T16:36:24Z</time>
      </trkpt>
      <trkpt lat="43.66571" lon="1.39128">
        <ele>122</ele>
        <time>2025-04-10T16:36:25Z</time>
      </trkpt>
      <trkpt lat="43.66572" lon="1.39126">
        <ele>122</ele>
        <time>2025-04-10T16:36:26Z</time>
      </trkpt>
      <trkpt lat="43.66572" lon="1.39123">
        <ele>123</ele>
        <time>2025-04-10T16:36:27Z</time>
      </trkpt>
      <trkpt lat="43.66573" lon="1.39121">
        <ele>123</ele>
        <time>2025-04-10T16:36:28Z</time>
      </trkpt>
      <trkpt lat="43.66574" lon="1.39118">
        <ele>123</ele>
        <time>2025-04-10T16:36:29Z</time>
      </trkpt>
      <trkpt lat="43.66574" lon="1.39115">
        <ele>122</ele>
        <time>2025-04-10T16:36:30Z</time>
      </trkpt>
      <trkpt lat="43.66574" lon="1.39112">
        <ele>122</ele>
        <time>2025-04-10T16:36:31Z</time>
      </trkpt>
      <trkpt lat="43.66574" lon="1.39108">
        <ele>122</ele>
        <time>2025-04-10T16:36:32Z</time>
      </trkpt>
      <trkpt lat="43.66574" lon="1.39105">
        <ele>122</ele>
        <time>2025-04-10T16:36:33Z</time>
      </trkpt>
      <trkpt lat="43.66574" lon="1.39101">
        <ele>122</ele>
        <time>2025-04-10T16:36:34Z</time>
      </trkpt>
      <trkpt lat="43.66575" lon="1.39098">
        <ele>122</ele>
        <time>2025-04-10T16:36:35Z</time>
      </trkpt>
      <trkpt lat="43.66575" lon="1.39095">
        <ele>122</ele>
        <time>2025-04-10T16:36:36Z</time>
      </trkpt>
      <trkpt lat="43.66576" lon="1.39091">
        <ele>122</ele>
        <time>2025-04-10T16:36:37Z</time>
      </trkpt>
      <trkpt lat="43.66577" lon="1.39087">
        <ele>122</ele>
        <time>2025-04-10T16:36:38Z</time>
      </trkpt>
      <trkpt lat="43.66578" lon="1.39082">
        <ele>123</ele>
        <time>2025-04-10T16:36:39Z</time>
      </trkpt>
      <trkpt lat="43.66579" lon="1.39078">
        <ele>123</ele>
        <time>2025-04-10T16:36:40Z</time>
      </trkpt>
      <trkpt lat="43.6658" lon="1.39075">
        <ele>123</ele>
        <time>2025-04-10T16:36:41Z</time>
      </trkpt>
      <trkpt lat="43.66581" lon="1.39072">
        <ele>123</ele>
        <time>2025-04-10T16:36:42Z</time>
      </trkpt>
      <trkpt lat="43.66582" lon="1.39069">
        <ele>123</ele>
        <time>2025-04-10T16:36:43Z</time>
      </trkpt>
      <trkpt lat="43.66583" lon="1.39066">
        <ele>122</ele>
        <time>2025-04-10T16:36:44Z</time>
      </trkpt>
      <trkpt lat="43.66584" lon="1.39063">
        <ele>121</ele>
        <time>2025-04-10T16:36:45Z</time>
      </trkpt>
      <trkpt lat="43.66584" lon="1.3906">
        <ele>122</ele>
        <time>2025-04-10T16:36:46Z</time>
      </trkpt>
      <trkpt lat="43.66585" lon="1.39057">
        <ele>122</ele>
        <time>2025-04-10T16:36:47Z</time>
      </trkpt>
      <trkpt lat="43.66586" lon="1.39054">
        <ele>122</ele>
        <time>2025-04-10T16:36:48Z</time>
      </trkpt>
      <trkpt lat="43.66587" lon="1.39051">
        <ele>122</ele>
        <time>2025-04-10T16:36:49Z</time>
      </trkpt>
      <trkpt lat="43.66588" lon="1.39048">
        <ele>122</ele>
        <time>2025-04-10T16:36:50Z</time>
      </trkpt>
      <trkpt lat="43.66589" lon="1.39044">
        <ele>122</ele>
        <time>2025-04-10T16:36:51Z</time>
      </trkpt>
      <trkpt lat="43.6659" lon="1.39042">
        <ele>122</ele>
        <time>2025-04-10T16:36:52Z</time>
      </trkpt>
      <trkpt lat="43.66591" lon="1.39039">
        <ele>122</ele>
        <time>2025-04-10T16:36:53Z</time>
      </trkpt>
      <trkpt lat="43.66592" lon="1.39037">
        <ele>122</ele>
        <time>2025-04-10T16:36:54Z</time>
      </trkpt>
      <trkpt lat="43.66592" lon="1.39034">
        <ele>122</ele>
        <time>2025-04-10T16:36:55Z</time>
      </trkpt>
      <trkpt lat="43.66592" lon="1.39034">
        <ele>122</ele>
        <time>2025-04-10T16:36:56Z</time>
      </trkpt>
      <trkpt lat="43.66594" lon="1.39029">
        <ele>121</ele>
        <time>2025-04-10T16:36:57Z</time>
      </trkpt>
      <trkpt lat="43.66594" lon="1.39026">
        <ele>122</ele>
        <time>2025-04-10T16:36:58Z</time>
      </trkpt>
      <trkpt lat="43.66595" lon="1.39023">
        <ele>122</ele>
        <time>2025-04-10T16:36:59Z</time>
      </trkpt>
      <trkpt lat="43.66595" lon="1.3902">
        <ele>122</ele>
        <time>2025-04-10T16:37:00Z</time>
      </trkpt>
      <trkpt lat="43.66595" lon="1.39017">
        <ele>122</ele>
        <time>2025-04-10T16:37:01Z</time>
      </trkpt>
      <trkpt lat="43.66596" lon="1.39014">
        <ele>122</ele>
        <time>2025-04-10T16:37:02Z</time>
      </trkpt>
      <trkpt lat="43.66597" lon="1.3901">
        <ele>122</ele>
        <time>2025-04-10T16:37:03Z</time>
      </trkpt>
      <trkpt lat="43.66598" lon="1.39007">
        <ele>122</ele>
        <time>2025-04-10T16:37:04Z</time>
      </trkpt>
      <trkpt lat="43.66598" lon="1.39004">
        <ele>122</ele>
        <time>2025-04-10T16:37:05Z</time>
      </trkpt>
      <trkpt lat="43.66599" lon="1.39002">
        <ele>122</ele>
        <time>2025-04-10T16:37:06Z</time>
      </trkpt>
      <trkpt lat="43.66599" lon="1.39002">
        <ele>122</ele>
        <time>2025-04-10T16:37:07Z</time>
      </trkpt>
      <trkpt lat="43.666" lon="1.38995">
        <ele>122</ele>
        <time>2025-04-10T16:37:08Z</time>
      </trkpt>
      <trkpt lat="43.666" lon="1.38994">
        <ele>122</ele>
        <time>2025-04-10T16:37:09Z</time>
      </trkpt>
      <trkpt lat="43.66601" lon="1.38991">
        <ele>121</ele>
        <time>2025-04-10T16:37:10Z</time>
      </trkpt>
      <trkpt lat="43.66601" lon="1.38987">
        <ele>121</ele>
        <time>2025-04-10T16:37:11Z</time>
      </trkpt>
      <trkpt lat="43.66601" lon="1.38984">
        <ele>121</ele>
        <time>2025-04-10T16:37:12Z</time>
      </trkpt>
      <trkpt lat="43.66601" lon="1.38981">
        <ele>121</ele>
        <time>2025-04-10T16:37:13Z</time>
      </trkpt>
      <trkpt lat="43.66602" lon="1.38977">
        <ele>121</ele>
        <time>2025-04-10T16:37:14Z</time>
      </trkpt>
      <trkpt lat="43.66602" lon="1.38974">
        <ele>121</ele>
        <time>2025-04-10T16:37:15Z</time>
      </trkpt>
      <trkpt lat="43.66602" lon="1.38971">
        <ele>121</ele>
        <time>2025-04-10T16:37:16Z</time>
      </trkpt>
      <trkpt lat="43.66601" lon="1.38967">
        <ele>121</ele>
        <time>2025-04-10T16:37:17Z</time>
      </trkpt>
      <trkpt lat="43.66602" lon="1.38964">
        <ele>121</ele>
        <time>2025-04-10T16:37:18Z</time>
      </trkpt>
      <trkpt lat="43.66602" lon="1.38964">
        <ele>121</ele>
        <time>2025-04-10T16:37:19Z</time>
      </trkpt>
      <trkpt lat="43.66602" lon="1.38956">
        <ele>121</ele>
        <time>2025-04-10T16:37:20Z</time>
      </trkpt>
      <trkpt lat="43.66602" lon="1.38954">
        <ele>121</ele>
        <time>2025-04-10T16:37:21Z</time>
      </trkpt>
      <trkpt lat="43.66602" lon="1.38952">
        <ele>121</ele>
        <time>2025-04-10T16:37:22Z</time>
      </trkpt>
      <trkpt lat="43.66603" lon="1.38949">
        <ele>121</ele>
        <time>2025-04-10T16:37:23Z</time>
      </trkpt>
      <trkpt lat="43.66603" lon="1.38946">
        <ele>121</ele>
        <time>2025-04-10T16:37:24Z</time>
      </trkpt>
      <trkpt lat="43.66603" lon="1.38942">
        <ele>121</ele>
        <time>2025-04-10T16:37:25Z</time>
      </trkpt>
      <trkpt lat="43.66603" lon="1.38939">
        <ele>121</ele>
        <time>2025-04-10T16:37:26Z</time>
      </trkpt>
      <trkpt lat="43.66603" lon="1.38935">
        <ele>121</ele>
        <time>2025-04-10T16:37:27Z</time>
      </trkpt>
      <trkpt lat="43.66603" lon="1.38932">
        <ele>121</ele>
        <time>2025-04-10T16:37:28Z</time>
      </trkpt>
      <trkpt lat="43.66603" lon="1.38928">
        <ele>121</ele>
        <time>2025-04-10T16:37:29Z</time>
      </trkpt>
      <trkpt lat="43.66603" lon="1.38925">
        <ele>121</ele>
        <time>2025-04-10T16:37:30Z</time>
      </trkpt>
      <trkpt lat="43.66603" lon="1.38921">
        <ele>121</ele>
        <time>2025-04-10T16:37:31Z</time>
      </trkpt>
      <trkpt lat="43.66604" lon="1.38917">
        <ele>121</ele>
        <time>2025-04-10T16:37:32Z</time>
      </trkpt>
      <trkpt lat="43.66604" lon="1.38914">
        <ele>121</ele>
        <time>2025-04-10T16:37:33Z</time>
      </trkpt>
      <trkpt lat="43.66604" lon="1.3891">
        <ele>121</ele>
        <time>2025-04-10T16:37:34Z</time>
      </trkpt>
      <trkpt lat="43.66605" lon="1.38906">
        <ele>121</ele>
        <time>2025-04-10T16:37:35Z</time>
      </trkpt>
      <trkpt lat="43.66605" lon="1.38902">
        <ele>121</ele>
        <time>2025-04-10T16:37:36Z</time>
      </trkpt>
      <trkpt lat="43.66606" lon="1.38899">
        <ele>121</ele>
        <time>2025-04-10T16:37:37Z</time>
      </trkpt>
      <trkpt lat="43.66606" lon="1.38895">
        <ele>121</ele>
        <time>2025-04-10T16:37:38Z</time>
      </trkpt>
      <trkpt lat="43.66606" lon="1.38892">
        <ele>121</ele>
        <time>2025-04-10T16:37:39Z</time>
      </trkpt>
      <trkpt lat="43.66606" lon="1.38888">
        <ele>121</ele>
        <time>2025-04-10T16:37:40Z</time>
      </trkpt>
      <trkpt lat="43.66606" lon="1.38885">
        <ele>121</ele>
        <time>2025-04-10T16:37:41Z</time>
      </trkpt>
      <trkpt lat="43.66607" lon="1.38881">
        <ele>121</ele>
        <time>2025-04-10T16:37:42Z</time>
      </trkpt>
      <trkpt lat="43.66607" lon="1.38878">
        <ele>121</ele>
        <time>2025-04-10T16:37:43Z</time>
      </trkpt>
      <trkpt lat="43.66607" lon="1.38874">
        <ele>121</ele>
        <time>2025-04-10T16:37:44Z</time>
      </trkpt>
      <trkpt lat="43.66608" lon="1.38872">
        <ele>121</ele>
        <time>2025-04-10T16:37:45Z</time>
      </trkpt>
      <trkpt lat="43.66608" lon="1.38869">
        <ele>121</ele>
        <time>2025-04-10T16:37:46Z</time>
      </trkpt>
      <trkpt lat="43.66608" lon="1.38866">
        <ele>121</ele>
        <time>2025-04-10T16:37:47Z</time>
      </trkpt>
      <trkpt lat="43.66608" lon="1.38863">
        <ele>122</ele>
        <time>2025-04-10T16:37:48Z</time>
      </trkpt>
      <trkpt lat="43.66608" lon="1.3886">
        <ele>122</ele>
        <time>2025-04-10T16:37:49Z</time>
      </trkpt>
      <trkpt lat="43.66608" lon="1.38856">
        <ele>122</ele>
        <time>2025-04-10T16:37:50Z</time>
      </trkpt>
      <trkpt lat="43.66608" lon="1.38853">
        <ele>122</ele>
        <time>2025-04-10T16:37:51Z</time>
      </trkpt>
      <trkpt lat="43.66608" lon="1.38849">
        <ele>121</ele>
        <time>2025-04-10T16:37:52Z</time>
      </trkpt>
      <trkpt lat="43.66608" lon="1.38846">
        <ele>121</ele>
        <time>2025-04-10T16:37:53Z</time>
      </trkpt>
      <trkpt lat="43.66607" lon="1.38842">
        <ele>121</ele>
        <time>2025-04-10T16:37:54Z</time>
      </trkpt>
      <trkpt lat="43.66606" lon="1.38838">
        <ele>121</ele>
        <time>2025-04-10T16:37:55Z</time>
      </trkpt>
      <trkpt lat="43.66605" lon="1.38835">
        <ele>121</ele>
        <time>2025-04-10T16:37:56Z</time>
      </trkpt>
      <trkpt lat="43.66605" lon="1.38831">
        <ele>121</ele>
        <time>2025-04-10T16:37:57Z</time>
      </trkpt>
      <trkpt lat="43.66604" lon="1.38828">
        <ele>121</ele>
        <time>2025-04-10T16:37:58Z</time>
      </trkpt>
      <trkpt lat="43.66604" lon="1.38825">
        <ele>121</ele>
        <time>2025-04-10T16:37:59Z</time>
      </trkpt>
      <trkpt lat="43.66604" lon="1.38822">
        <ele>122</ele>
        <time>2025-04-10T16:38:00Z</time>
      </trkpt>
      <trkpt lat="43.66603" lon="1.38818">
        <ele>122</ele>
        <time>2025-04-10T16:38:01Z</time>
      </trkpt>
      <trkpt lat="43.66603" lon="1.38815">
        <ele>122</ele>
        <time>2025-04-10T16:38:02Z</time>
      </trkpt>
      <trkpt lat="43.66602" lon="1.38811">
        <ele>122</ele>
        <time>2025-04-10T16:38:03Z</time>
      </trkpt>
      <trkpt lat="43.66601" lon="1.38808">
        <ele>121</ele>
        <time>2025-04-10T16:38:04Z</time>
      </trkpt>
      <trkpt lat="43.66601" lon="1.38805">
        <ele>121</ele>
        <time>2025-04-10T16:38:05Z</time>
      </trkpt>
      <trkpt lat="43.666" lon="1.38801">
        <ele>121</ele>
        <time>2025-04-10T16:38:06Z</time>
      </trkpt>
      <trkpt lat="43.66599" lon="1.38798">
        <ele>121</ele>
        <time>2025-04-10T16:38:07Z</time>
      </trkpt>
      <trkpt lat="43.66598" lon="1.38794">
        <ele>121</ele>
        <time>2025-04-10T16:38:08Z</time>
      </trkpt>
      <trkpt lat="43.66597" lon="1.38791">
        <ele>121</ele>
        <time>2025-04-10T16:38:09Z</time>
      </trkpt>
      <trkpt lat="43.66596" lon="1.38788">
        <ele>121</ele>
        <time>2025-04-10T16:38:10Z</time>
      </trkpt>
      <trkpt lat="43.66595" lon="1.38785">
        <ele>121</ele>
        <time>2025-04-10T16:38:11Z</time>
      </trkpt>
      <trkpt lat="43.66594" lon="1.38782">
        <ele>121</ele>
        <time>2025-04-10T16:38:12Z</time>
      </trkpt>
      <trkpt lat="43.66593" lon="1.38779">
        <ele>121</ele>
        <time>2025-04-10T16:38:13Z</time>
      </trkpt>
      <trkpt lat="43.66591" lon="1.38777">
        <ele>121</ele>
        <time>2025-04-10T16:38:14Z</time>
      </trkpt>
      <trkpt lat="43.6659" lon="1.38775">
        <ele>121</ele>
        <time>2025-04-10T16:38:15Z</time>
      </trkpt>
      <trkpt lat="43.66589" lon="1.38772">
        <ele>121</ele>
        <time>2025-04-10T16:38:16Z</time>
      </trkpt>
      <trkpt lat="43.66587" lon="1.3877">
        <ele>121</ele>
        <time>2025-04-10T16:38:17Z</time>
      </trkpt>
      <trkpt lat="43.66586" lon="1.38767">
        <ele>121</ele>
        <time>2025-04-10T16:38:18Z</time>
      </trkpt>
      <trkpt lat="43.66585" lon="1.38763">
        <ele>121</ele>
        <time>2025-04-10T16:38:19Z</time>
      </trkpt>
      <trkpt lat="43.66583" lon="1.3876">
        <ele>121</ele>
        <time>2025-04-10T16:38:20Z</time>
      </trkpt>
      <trkpt lat="43.66582" lon="1.38757">
        <ele>121</ele>
        <time>2025-04-10T16:38:21Z</time>
      </trkpt>
      <trkpt lat="43.6658" lon="1.38755">
        <ele>121</ele>
        <time>2025-04-10T16:38:22Z</time>
      </trkpt>
      <trkpt lat="43.66578" lon="1.38753">
        <ele>121</ele>
        <time>2025-04-10T16:38:23Z</time>
      </trkpt>
      <trkpt lat="43.66576" lon="1.38751">
        <ele>121</ele>
        <time>2025-04-10T16:38:24Z</time>
      </trkpt>
      <trkpt lat="43.66574" lon="1.38749">
        <ele>121</ele>
        <time>2025-04-10T16:38:25Z</time>
      </trkpt>
      <trkpt lat="43.66573" lon="1.38746">
        <ele>120</ele>
        <time>2025-04-10T16:38:26Z</time>
      </trkpt>
      <trkpt lat="43.66571" lon="1.38744">
        <ele>120</ele>
        <time>2025-04-10T16:38:27Z</time>
      </trkpt>
      <trkpt lat="43.6657" lon="1.3874">
        <ele>120</ele>
        <time>2025-04-10T16:38:28Z</time>
      </trkpt>
      <trkpt lat="43.66568" lon="1.38737">
        <ele>120</ele>
        <time>2025-04-10T16:38:29Z</time>
      </trkpt>
      <trkpt lat="43.66567" lon="1.38734">
        <ele>120</ele>
        <time>2025-04-10T16:38:30Z</time>
      </trkpt>
      <trkpt lat="43.66565" lon="1.38732">
        <ele>120</ele>
        <time>2025-04-10T16:38:31Z</time>
      </trkpt>
      <trkpt lat="43.66563" lon="1.3873">
        <ele>120</ele>
        <time>2025-04-10T16:38:32Z</time>
      </trkpt>
      <trkpt lat="43.6656" lon="1.38729">
        <ele>120</ele>
        <time>2025-04-10T16:38:33Z</time>
      </trkpt>
      <trkpt lat="43.66558" lon="1.38729">
        <ele>120</ele>
        <time>2025-04-10T16:38:34Z</time>
      </trkpt>
      <trkpt lat="43.66556" lon="1.38729">
        <ele>120</ele>
        <time>2025-04-10T16:38:35Z</time>
      </trkpt>
      <trkpt lat="43.66553" lon="1.38729">
        <ele>120</ele>
        <time>2025-04-10T16:38:36Z</time>
      </trkpt>
      <trkpt lat="43.66551" lon="1.38729">
        <ele>120</ele>
        <time>2025-04-10T16:38:37Z</time>
      </trkpt>
      <trkpt lat="43.66549" lon="1.38728">
        <ele>120</ele>
        <time>2025-04-10T16:38:38Z</time>
      </trkpt>
      <trkpt lat="43.66547" lon="1.38728">
        <ele>120</ele>
        <time>2025-04-10T16:38:39Z</time>
      </trkpt>
      <trkpt lat="43.66547" lon="1.38728">
        <ele>120</ele>
        <time>2025-04-10T16:38:40Z</time>
      </trkpt>
      <trkpt lat="43.66543" lon="1.38729">
        <ele>121</ele>
        <time>2025-04-10T16:38:41Z</time>
      </trkpt>
      <trkpt lat="43.66541" lon="1.3873">
        <ele>121</ele>
        <time>2025-04-10T16:38:42Z</time>
      </trkpt>
      <trkpt lat="43.66541" lon="1.3873">
        <ele>121</ele>
        <time>2025-04-10T16:38:43Z</time>
      </trkpt>
      <trkpt lat="43.66539" lon="1.38733">
        <ele>121</ele>
        <time>2025-04-10T16:38:44Z</time>
      </trkpt>
      <trkpt lat="43.66539" lon="1.38733">
        <ele>121</ele>
        <time>2025-04-10T16:38:45Z</time>
      </trkpt>
      <trkpt lat="43.66536" lon="1.38736">
        <ele>121</ele>
        <time>2025-04-10T16:38:46Z</time>
      </trkpt>
      <trkpt lat="43.66535" lon="1.38738">
        <ele>120</ele>
        <time>2025-04-10T16:38:47Z</time>
      </trkpt>
      <trkpt lat="43.66535" lon="1.38738">
        <ele>120</ele>
        <time>2025-04-10T16:38:48Z</time>
      </trkpt>
      <trkpt lat="43.66533" lon="1.38741">
        <ele>120</ele>
        <time>2025-04-10T16:38:49Z</time>
      </trkpt>
      <trkpt lat="43.66531" lon="1.38742">
        <ele>120</ele>
        <time>2025-04-10T16:38:50Z</time>
      </trkpt>
      <trkpt lat="43.66529" lon="1.38744">
        <ele>120</ele>
        <time>2025-04-10T16:38:51Z</time>
      </trkpt>
      <trkpt lat="43.66528" lon="1.38746">
        <ele>120</ele>
        <time>2025-04-10T16:38:52Z</time>
      </trkpt>
      <trkpt lat="43.66526" lon="1.38748">
        <ele>120</ele>
        <time>2025-04-10T16:38:53Z</time>
      </trkpt>
      <trkpt lat="43.66524" lon="1.3875">
        <ele>120</ele>
        <time>2025-04-10T16:38:54Z</time>
      </trkpt>
      <trkpt lat="43.66522" lon="1.38753">
        <ele>120</ele>
        <time>2025-04-10T16:38:55Z</time>
      </trkpt>
      <trkpt lat="43.6652" lon="1.38756">
        <ele>120</ele>
        <time>2025-04-10T16:38:56Z</time>
      </trkpt>
      <trkpt lat="43.66518" lon="1.38758">
        <ele>121</ele>
        <time>2025-04-10T16:38:57Z</time>
      </trkpt>
      <trkpt lat="43.66516" lon="1.3876">
        <ele>121</ele>
        <time>2025-04-10T16:38:58Z</time>
      </trkpt>
      <trkpt lat="43.66514" lon="1.38762">
        <ele>121</ele>
        <time>2025-04-10T16:38:59Z</time>
      </trkpt>
      <trkpt lat="43.66512" lon="1.38763">
        <ele>121</ele>
        <time>2025-04-10T16:39:00Z</time>
      </trkpt>
      <trkpt lat="43.6651" lon="1.38765">
        <ele>120</ele>
        <time>2025-04-10T16:39:01Z</time>
      </trkpt>
      <trkpt lat="43.66509" lon="1.38766">
        <ele>120</ele>
        <time>2025-04-10T16:39:02Z</time>
      </trkpt>
      <trkpt lat="43.66506" lon="1.38768">
        <ele>121</ele>
        <time>2025-04-10T16:39:03Z</time>
      </trkpt>
      <trkpt lat="43.66505" lon="1.3877">
        <ele>121</ele>
        <time>2025-04-10T16:39:04Z</time>
      </trkpt>
      <trkpt lat="43.66503" lon="1.38772">
        <ele>121</ele>
        <time>2025-04-10T16:39:05Z</time>
      </trkpt>
      <trkpt lat="43.66501" lon="1.38775">
        <ele>121</ele>
        <time>2025-04-10T16:39:06Z</time>
      </trkpt>
      <trkpt lat="43.665" lon="1.38778">
        <ele>120</ele>
        <time>2025-04-10T16:39:07Z</time>
      </trkpt>
      <trkpt lat="43.66499" lon="1.3878">
        <ele>120</ele>
        <time>2025-04-10T16:39:08Z</time>
      </trkpt>
      <trkpt lat="43.66497" lon="1.38783">
        <ele>120</ele>
        <time>2025-04-10T16:39:09Z</time>
      </trkpt>
      <trkpt lat="43.66496" lon="1.38785">
        <ele>120</ele>
        <time>2025-04-10T16:39:10Z</time>
      </trkpt>
      <trkpt lat="43.66494" lon="1.38786">
        <ele>121</ele>
        <time>2025-04-10T16:39:11Z</time>
      </trkpt>
      <trkpt lat="43.66492" lon="1.38788">
        <ele>121</ele>
        <time>2025-04-10T16:39:12Z</time>
      </trkpt>
      <trkpt lat="43.66491" lon="1.38789">
        <ele>121</ele>
        <time>2025-04-10T16:39:13Z</time>
      </trkpt>
      <trkpt lat="43.66489" lon="1.38791">
        <ele>121</ele>
        <time>2025-04-10T16:39:14Z</time>
      </trkpt>
      <trkpt lat="43.66487" lon="1.38792">
        <ele>121</ele>
        <time>2025-04-10T16:39:15Z</time>
      </trkpt>
      <trkpt lat="43.66485" lon="1.38793">
        <ele>122</ele>
        <time>2025-04-10T16:39:16Z</time>
      </trkpt>
      <trkpt lat="43.66483" lon="1.38795">
        <ele>122</ele>
        <time>2025-04-10T16:39:17Z</time>
      </trkpt>
      <trkpt lat="43.66482" lon="1.38797">
        <ele>122</ele>
        <time>2025-04-10T16:39:18Z</time>
      </trkpt>
      <trkpt lat="43.66482" lon="1.38797">
        <ele>122</ele>
        <time>2025-04-10T16:39:19Z</time>
      </trkpt>
      <trkpt lat="43.66479" lon="1.388">
        <ele>121</ele>
        <time>2025-04-10T16:39:20Z</time>
      </trkpt>
      <trkpt lat="43.66477" lon="1.38802">
        <ele>121</ele>
        <time>2025-04-10T16:39:21Z</time>
      </trkpt>
      <trkpt lat="43.66475" lon="1.38803">
        <ele>121</ele>
        <time>2025-04-10T16:39:22Z</time>
      </trkpt>
      <trkpt lat="43.66475" lon="1.38803">
        <ele>121</ele>
        <time>2025-04-10T16:39:23Z</time>
      </trkpt>
      <trkpt lat="43.66473" lon="1.38806">
        <ele>121</ele>
        <time>2025-04-10T16:39:24Z</time>
      </trkpt>
      <trkpt lat="43.66471" lon="1.38808">
        <ele>121</ele>
        <time>2025-04-10T16:39:25Z</time>
      </trkpt>
      <trkpt lat="43.66469" lon="1.38809">
        <ele>121</ele>
        <time>2025-04-10T16:39:26Z</time>
      </trkpt>
      <trkpt lat="43.66466" lon="1.38811">
        <ele>121</ele>
        <time>2025-04-10T16:39:27Z</time>
      </trkpt>
      <trkpt lat="43.66463" lon="1.38812">
        <ele>121</ele>
        <time>2025-04-10T16:39:28Z</time>
      </trkpt>
      <trkpt lat="43.66461" lon="1.38814">
        <ele>121</ele>
        <time>2025-04-10T16:39:29Z</time>
      </trkpt>
      <trkpt lat="43.66458" lon="1.38816">
        <ele>121</ele>
        <time>2025-04-10T16:39:30Z</time>
      </trkpt>
      <trkpt lat="43.66455" lon="1.38817">
        <ele>121</ele>
        <time>2025-04-10T16:39:31Z</time>
      </trkpt>
      <trkpt lat="43.66453" lon="1.38818">
        <ele>121</ele>
        <time>2025-04-10T16:39:32Z</time>
      </trkpt>
      <trkpt lat="43.66451" lon="1.3882">
        <ele>121</ele>
        <time>2025-04-10T16:39:33Z</time>
      </trkpt>
      <trkpt lat="43.66449" lon="1.3882">
        <ele>121</ele>
        <time>2025-04-10T16:39:34Z</time>
      </trkpt>
      <trkpt lat="43.66446" lon="1.38821">
        <ele>121</ele>
        <time>2025-04-10T16:39:35Z</time>
      </trkpt>
      <trkpt lat="43.66443" lon="1.38823">
        <ele>121</ele>
        <time>2025-04-10T16:39:36Z</time>
      </trkpt>
      <trkpt lat="43.6644" lon="1.38824">
        <ele>121</ele>
        <time>2025-04-10T16:39:37Z</time>
      </trkpt>
      <trkpt lat="43.6644" lon="1.38824">
        <ele>121</ele>
        <time>2025-04-10T16:39:38Z</time>
      </trkpt>
      <trkpt lat="43.66437" lon="1.38827">
        <ele>121</ele>
        <time>2025-04-10T16:39:39Z</time>
      </trkpt>
      <trkpt lat="43.66433" lon="1.3883">
        <ele>121</ele>
        <time>2025-04-10T16:39:40Z</time>
      </trkpt>
      <trkpt lat="43.6643" lon="1.38832">
        <ele>121</ele>
        <time>2025-04-10T16:39:41Z</time>
      </trkpt>
      <trkpt lat="43.66428" lon="1.38834">
        <ele>121</ele>
        <time>2025-04-10T16:39:42Z</time>
      </trkpt>
      <trkpt lat="43.66426" lon="1.38836">
        <ele>120</ele>
        <time>2025-04-10T16:39:43Z</time>
      </trkpt>
      <trkpt lat="43.66423" lon="1.38838">
        <ele>120</ele>
        <time>2025-04-10T16:39:44Z</time>
      </trkpt>
      <trkpt lat="43.66421" lon="1.3884">
        <ele>121</ele>
        <time>2025-04-10T16:39:45Z</time>
      </trkpt>
      <trkpt lat="43.66419" lon="1.38842">
        <ele>121</ele>
        <time>2025-04-10T16:39:46Z</time>
      </trkpt>
      <trkpt lat="43.66417" lon="1.38844">
        <ele>121</ele>
        <time>2025-04-10T16:39:47Z</time>
      </trkpt>
      <trkpt lat="43.66414" lon="1.38845">
        <ele>121</ele>
        <time>2025-04-10T16:39:48Z</time>
      </trkpt>
      <trkpt lat="43.66411" lon="1.38847">
        <ele>121</ele>
        <time>2025-04-10T16:39:49Z</time>
      </trkpt>
      <trkpt lat="43.66409" lon="1.38848">
        <ele>121</ele>
        <time>2025-04-10T16:39:50Z</time>
      </trkpt>
      <trkpt lat="43.66406" lon="1.3885">
        <ele>121</ele>
        <time>2025-04-10T16:39:51Z</time>
      </trkpt>
      <trkpt lat="43.66404" lon="1.38852">
        <ele>121</ele>
        <time>2025-04-10T16:39:52Z</time>
      </trkpt>
      <trkpt lat="43.66401" lon="1.38853">
        <ele>121</ele>
        <time>2025-04-10T16:39:53Z</time>
      </trkpt>
      <trkpt lat="43.66399" lon="1.38856">
        <ele>120</ele>
        <time>2025-04-10T16:39:54Z</time>
      </trkpt>
      <trkpt lat="43.66397" lon="1.38858">
        <ele>119</ele>
        <time>2025-04-10T16:39:55Z</time>
      </trkpt>
      <trkpt lat="43.66394" lon="1.3886">
        <ele>120</ele>
        <time>2025-04-10T16:39:56Z</time>
      </trkpt>
      <trkpt lat="43.66392" lon="1.38862">
        <ele>120</ele>
        <time>2025-04-10T16:39:57Z</time>
      </trkpt>
      <trkpt lat="43.6639" lon="1.38864">
        <ele>120</ele>
        <time>2025-04-10T16:39:58Z</time>
      </trkpt>
      <trkpt lat="43.66388" lon="1.38866">
        <ele>120</ele>
        <time>2025-04-10T16:39:59Z</time>
      </trkpt>
      <trkpt lat="43.66386" lon="1.38868">
        <ele>120</ele>
        <time>2025-04-10T16:40:00Z</time>
      </trkpt>
      <trkpt lat="43.66384" lon="1.3887">
        <ele>120</ele>
        <time>2025-04-10T16:40:01Z</time>
      </trkpt>
      <trkpt lat="43.66382" lon="1.38873">
        <ele>120</ele>
        <time>2025-04-10T16:40:02Z</time>
      </trkpt>
      <trkpt lat="43.6638" lon="1.38875">
        <ele>119</ele>
        <time>2025-04-10T16:40:03Z</time>
      </trkpt>
      <trkpt lat="43.66379" lon="1.38877">
        <ele>119</ele>
        <time>2025-04-10T16:40:04Z</time>
      </trkpt>
      <trkpt lat="43.66377" lon="1.3888">
        <ele>120</ele>
        <time>2025-04-10T16:40:05Z</time>
      </trkpt>
      <trkpt lat="43.66376" lon="1.38882">
        <ele>120</ele>
        <time>2025-04-10T16:40:06Z</time>
      </trkpt>
      <trkpt lat="43.66375" lon="1.38884">
        <ele>120</ele>
        <time>2025-04-10T16:40:07Z</time>
      </trkpt>
      <trkpt lat="43.66374" lon="1.38887">
        <ele>120</ele>
        <time>2025-04-10T16:40:08Z</time>
      </trkpt>
      <trkpt lat="43.66372" lon="1.38889">
        <ele>120</ele>
        <time>2025-04-10T16:40:09Z</time>
      </trkpt>
      <trkpt lat="43.66371" lon="1.38892">
        <ele>120</ele>
        <time>2025-04-10T16:40:10Z</time>
      </trkpt>
      <trkpt lat="43.66371" lon="1.38895">
        <ele>120</ele>
        <time>2025-04-10T16:40:11Z</time>
      </trkpt>
      <trkpt lat="43.66369" lon="1.38897">
        <ele>120</ele>
        <time>2025-04-10T16:40:12Z</time>
      </trkpt>
      <trkpt lat="43.66367" lon="1.389">
        <ele>120</ele>
        <time>2025-04-10T16:40:13Z</time>
      </trkpt>
      <trkpt lat="43.66365" lon="1.38902">
        <ele>119</ele>
        <time>2025-04-10T16:40:14Z</time>
      </trkpt>
      <trkpt lat="43.66363" lon="1.38905">
        <ele>120</ele>
        <time>2025-04-10T16:40:15Z</time>
      </trkpt>
      <trkpt lat="43.66362" lon="1.38908">
        <ele>120</ele>
        <time>2025-04-10T16:40:16Z</time>
      </trkpt>
      <trkpt lat="43.6636" lon="1.3891">
        <ele>121</ele>
        <time>2025-04-10T16:40:17Z</time>
      </trkpt>
      <trkpt lat="43.66359" lon="1.38913">
        <ele>121</ele>
        <time>2025-04-10T16:40:18Z</time>
      </trkpt>
      <trkpt lat="43.66358" lon="1.38915">
        <ele>121</ele>
        <time>2025-04-10T16:40:19Z</time>
      </trkpt>
      <trkpt lat="43.66358" lon="1.38915">
        <ele>121</ele>
        <time>2025-04-10T16:40:20Z</time>
      </trkpt>
      <trkpt lat="43.66355" lon="1.38919">
        <ele>121</ele>
        <time>2025-04-10T16:40:21Z</time>
      </trkpt>
      <trkpt lat="43.66353" lon="1.38921">
        <ele>120</ele>
        <time>2025-04-10T16:40:22Z</time>
      </trkpt>
      <trkpt lat="43.66351" lon="1.38924">
        <ele>120</ele>
        <time>2025-04-10T16:40:23Z</time>
      </trkpt>
      <trkpt lat="43.6635" lon="1.38926">
        <ele>120</ele>
        <time>2025-04-10T16:40:24Z</time>
      </trkpt>
      <trkpt lat="43.66348" lon="1.38929">
        <ele>120</ele>
        <time>2025-04-10T16:40:25Z</time>
      </trkpt>
      <trkpt lat="43.66347" lon="1.38932">
        <ele>120</ele>
        <time>2025-04-10T16:40:26Z</time>
      </trkpt>
      <trkpt lat="43.66345" lon="1.38934">
        <ele>120</ele>
        <time>2025-04-10T16:40:27Z</time>
      </trkpt>
      <trkpt lat="43.66343" lon="1.38936">
        <ele>120</ele>
        <time>2025-04-10T16:40:28Z</time>
      </trkpt>
      <trkpt lat="43.66341" lon="1.38938">
        <ele>120</ele>
        <time>2025-04-10T16:40:29Z</time>
      </trkpt>
      <trkpt lat="43.6634" lon="1.3894">
        <ele>120</ele>
        <time>2025-04-10T16:40:30Z</time>
      </trkpt>
      <trkpt lat="43.66338" lon="1.38943">
        <ele>120</ele>
        <time>2025-04-10T16:40:31Z</time>
      </trkpt>
      <trkpt lat="43.66337" lon="1.38945">
        <ele>120</ele>
        <time>2025-04-10T16:40:32Z</time>
      </trkpt>
      <trkpt lat="43.66336" lon="1.38948">
        <ele>120</ele>
        <time>2025-04-10T16:40:33Z</time>
      </trkpt>
      <trkpt lat="43.66334" lon="1.38949">
        <ele>120</ele>
        <time>2025-04-10T16:40:34Z</time>
      </trkpt>
      <trkpt lat="43.66331" lon="1.38951">
        <ele>121</ele>
        <time>2025-04-10T16:40:35Z</time>
      </trkpt>
      <trkpt lat="43.66328" lon="1.38953">
        <ele>121</ele>
        <time>2025-04-10T16:40:36Z</time>
      </trkpt>
      <trkpt lat="43.66326" lon="1.38954">
        <ele>121</ele>
        <time>2025-04-10T16:40:37Z</time>
      </trkpt>
      <trkpt lat="43.66323" lon="1.38954">
        <ele>121</ele>
        <time>2025-04-10T16:40:38Z</time>
      </trkpt>
      <trkpt lat="43.66322" lon="1.38954">
        <ele>121</ele>
        <time>2025-04-10T16:40:39Z</time>
      </trkpt>
      <trkpt lat="43.6632" lon="1.38956">
        <ele>120</ele>
        <time>2025-04-10T16:40:40Z</time>
      </trkpt>
      <trkpt lat="43.66319" lon="1.38958">
        <ele>120</ele>
        <time>2025-04-10T16:40:41Z</time>
      </trkpt>
      <trkpt lat="43.66318" lon="1.38961">
        <ele>120</ele>
        <time>2025-04-10T16:40:42Z</time>
      </trkpt>
      <trkpt lat="43.66316" lon="1.38965">
        <ele>120</ele>
        <time>2025-04-10T16:40:43Z</time>
      </trkpt>
      <trkpt lat="43.66315" lon="1.38968">
        <ele>120</ele>
        <time>2025-04-10T16:40:44Z</time>
      </trkpt>
      <trkpt lat="43.66313" lon="1.38971">
        <ele>120</ele>
        <time>2025-04-10T16:40:45Z</time>
      </trkpt>
      <trkpt lat="43.66311" lon="1.38973">
        <ele>120</ele>
        <time>2025-04-10T16:40:46Z</time>
      </trkpt>
      <trkpt lat="43.6631" lon="1.38976">
        <ele>121</ele>
        <time>2025-04-10T16:40:47Z</time>
      </trkpt>
      <trkpt lat="43.66308" lon="1.38978">
        <ele>121</ele>
        <time>2025-04-10T16:40:48Z</time>
      </trkpt>
      <trkpt lat="43.66306" lon="1.38981">
        <ele>121</ele>
        <time>2025-04-10T16:40:49Z</time>
      </trkpt>
      <trkpt lat="43.66304" lon="1.38984">
        <ele>121</ele>
        <time>2025-04-10T16:40:50Z</time>
      </trkpt>
      <trkpt lat="43.66303" lon="1.38987">
        <ele>121</ele>
        <time>2025-04-10T16:40:51Z</time>
      </trkpt>
      <trkpt lat="43.663" lon="1.3899">
        <ele>121</ele>
        <time>2025-04-10T16:40:52Z</time>
      </trkpt>
      <trkpt lat="43.66299" lon="1.38993">
        <ele>121</ele>
        <time>2025-04-10T16:40:53Z</time>
      </trkpt>
      <trkpt lat="43.66298" lon="1.38996">
        <ele>121</ele>
        <time>2025-04-10T16:40:54Z</time>
      </trkpt>
      <trkpt lat="43.66296" lon="1.38998">
        <ele>121</ele>
        <time>2025-04-10T16:40:55Z</time>
      </trkpt>
      <trkpt lat="43.66295" lon="1.39001">
        <ele>121</ele>
        <time>2025-04-10T16:40:56Z</time>
      </trkpt>
      <trkpt lat="43.66294" lon="1.39005">
        <ele>121</ele>
        <time>2025-04-10T16:40:57Z</time>
      </trkpt>
      <trkpt lat="43.66293" lon="1.39009">
        <ele>120</ele>
        <time>2025-04-10T16:40:58Z</time>
      </trkpt>
      <trkpt lat="43.66293" lon="1.39012">
        <ele>120</ele>
        <time>2025-04-10T16:40:59Z</time>
      </trkpt>
      <trkpt lat="43.66292" lon="1.39015">
        <ele>120</ele>
        <time>2025-04-10T16:41:00Z</time>
      </trkpt>
      <trkpt lat="43.66291" lon="1.39018">
        <ele>120</ele>
        <time>2025-04-10T16:41:01Z</time>
      </trkpt>
      <trkpt lat="43.66289" lon="1.3902">
        <ele>120</ele>
        <time>2025-04-10T16:41:02Z</time>
      </trkpt>
      <trkpt lat="43.66288" lon="1.39022">
        <ele>120</ele>
        <time>2025-04-10T16:41:03Z</time>
      </trkpt>
      <trkpt lat="43.66287" lon="1.39024">
        <ele>120</ele>
        <time>2025-04-10T16:41:04Z</time>
      </trkpt>
      <trkpt lat="43.66286" lon="1.39027">
        <ele>120</ele>
        <time>2025-04-10T16:41:05Z</time>
      </trkpt>
      <trkpt lat="43.66284" lon="1.3903">
        <ele>120</ele>
        <time>2025-04-10T16:41:06Z</time>
      </trkpt>
      <trkpt lat="43.66283" lon="1.39033">
        <ele>120</ele>
        <time>2025-04-10T16:41:07Z</time>
      </trkpt>
      <trkpt lat="43.66283" lon="1.39033">
        <ele>120</ele>
        <time>2025-04-10T16:41:08Z</time>
      </trkpt>
      <trkpt lat="43.66283" lon="1.39037">
        <ele>120</ele>
        <time>2025-04-10T16:41:09Z</time>
      </trkpt>
      <trkpt lat="43.66283" lon="1.39037">
        <ele>121</ele>
        <time>2025-04-10T16:41:10Z</time>
      </trkpt>
      <trkpt lat="43.66282" lon="1.39042">
        <ele>121</ele>
        <time>2025-04-10T16:41:11Z</time>
      </trkpt>
      <trkpt lat="43.66281" lon="1.39045">
        <ele>121</ele>
        <time>2025-04-10T16:41:12Z</time>
      </trkpt>
      <trkpt lat="43.66281" lon="1.39049">
        <ele>121</ele>
        <time>2025-04-10T16:41:13Z</time>
      </trkpt>
      <trkpt lat="43.6628" lon="1.39052">
        <ele>120</ele>
        <time>2025-04-10T16:41:14Z</time>
      </trkpt>
      <trkpt lat="43.6628" lon="1.39055">
        <ele>120</ele>
        <time>2025-04-10T16:41:15Z</time>
      </trkpt>
      <trkpt lat="43.66279" lon="1.39059">
        <ele>120</ele>
        <time>2025-04-10T16:41:16Z</time>
      </trkpt>
      <trkpt lat="43.66279" lon="1.39062">
        <ele>120</ele>
        <time>2025-04-10T16:41:17Z</time>
      </trkpt>
      <trkpt lat="43.66278" lon="1.39065">
        <ele>120</ele>
        <time>2025-04-10T16:41:18Z</time>
      </trkpt>
      <trkpt lat="43.66277" lon="1.39068">
        <ele>120</ele>
        <time>2025-04-10T16:41:19Z</time>
      </trkpt>
      <trkpt lat="43.66277" lon="1.39072">
        <ele>120</ele>
        <time>2025-04-10T16:41:20Z</time>
      </trkpt>
      <trkpt lat="43.66275" lon="1.39075">
        <ele>120</ele>
        <time>2025-04-10T16:41:21Z</time>
      </trkpt>
      <trkpt lat="43.66275" lon="1.39079">
        <ele>121</ele>
        <time>2025-04-10T16:41:22Z</time>
      </trkpt>
      <trkpt lat="43.66274" lon="1.39082">
        <ele>121</ele>
        <time>2025-04-10T16:41:23Z</time>
      </trkpt>
      <trkpt lat="43.66273" lon="1.39086">
        <ele>121</ele>
        <time>2025-04-10T16:41:24Z</time>
      </trkpt>
      <trkpt lat="43.66271" lon="1.39089">
        <ele>121</ele>
        <time>2025-04-10T16:41:25Z</time>
      </trkpt>
      <trkpt lat="43.6627" lon="1.39091">
        <ele>121</ele>
        <time>2025-04-10T16:41:26Z</time>
      </trkpt>
      <trkpt lat="43.66268" lon="1.39094">
        <ele>121</ele>
        <time>2025-04-10T16:41:27Z</time>
      </trkpt>
      <trkpt lat="43.66266" lon="1.39098">
        <ele>121</ele>
        <time>2025-04-10T16:41:28Z</time>
      </trkpt>
      <trkpt lat="43.66264" lon="1.39101">
        <ele>121</ele>
        <time>2025-04-10T16:41:29Z</time>
      </trkpt>
      <trkpt lat="43.66263" lon="1.39105">
        <ele>121</ele>
        <time>2025-04-10T16:41:30Z</time>
      </trkpt>
      <trkpt lat="43.66261" lon="1.39108">
        <ele>121</ele>
        <time>2025-04-10T16:41:31Z</time>
      </trkpt>
      <trkpt lat="43.66261" lon="1.39108">
        <ele>121</ele>
        <time>2025-04-10T16:41:32Z</time>
      </trkpt>
      <trkpt lat="43.66261" lon="1.39113">
        <ele>121</ele>
        <time>2025-04-10T16:41:33Z</time>
      </trkpt>
      <trkpt lat="43.66261" lon="1.39113">
        <ele>121</ele>
        <time>2025-04-10T16:41:34Z</time>
      </trkpt>
      <trkpt lat="43.6626" lon="1.39118">
        <ele>122</ele>
        <time>2025-04-10T16:41:35Z</time>
      </trkpt>
      <trkpt lat="43.66261" lon="1.39121">
        <ele>122</ele>
        <time>2025-04-10T16:41:36Z</time>
      </trkpt>
      <trkpt lat="43.66261" lon="1.39124">
        <ele>122</ele>
        <time>2025-04-10T16:41:37Z</time>
      </trkpt>
      <trkpt lat="43.66261" lon="1.39127">
        <ele>122</ele>
        <time>2025-04-10T16:41:38Z</time>
      </trkpt>
      <trkpt lat="43.66261" lon="1.3913">
        <ele>122</ele>
        <time>2025-04-10T16:41:39Z</time>
      </trkpt>
      <trkpt lat="43.66261" lon="1.39133">
        <ele>122</ele>
        <time>2025-04-10T16:41:40Z</time>
      </trkpt>
      <trkpt lat="43.66261" lon="1.39135">
        <ele>123</ele>
        <time>2025-04-10T16:41:41Z</time>
      </trkpt>
      <trkpt lat="43.66262" lon="1.39138">
        <ele>123</ele>
        <time>2025-04-10T16:41:42Z</time>
      </trkpt>
      <trkpt lat="43.66262" lon="1.3914">
        <ele>123</ele>
        <time>2025-04-10T16:41:43Z</time>
      </trkpt>
      <trkpt lat="43.66262" lon="1.3914">
        <ele>123</ele>
        <time>2025-04-10T16:41:44Z</time>
      </trkpt>
      <trkpt lat="43.66264" lon="1.39144">
        <ele>123</ele>
        <time>2025-04-10T16:41:45Z</time>
      </trkpt>
      <trkpt lat="43.66265" lon="1.39146">
        <ele>123</ele>
        <time>2025-04-10T16:41:46Z</time>
      </trkpt>
      <trkpt lat="43.66266" lon="1.39149">
        <ele>123</ele>
        <time>2025-04-10T16:41:47Z</time>
      </trkpt>
      <trkpt lat="43.66266" lon="1.39149">
        <ele>123</ele>
        <time>2025-04-10T16:41:48Z</time>
      </trkpt>
      <trkpt lat="43.66268" lon="1.39153">
        <ele>123</ele>
        <time>2025-04-10T16:41:49Z</time>
      </trkpt>
      <trkpt lat="43.66268" lon="1.39153">
        <ele>123</ele>
        <time>2025-04-10T16:41:50Z</time>
      </trkpt>
      <trkpt lat="43.66271" lon="1.39157">
        <ele>123</ele>
        <time>2025-04-10T16:41:51Z</time>
      </trkpt>
      <trkpt lat="43.66273" lon="1.39159">
        <ele>123</ele>
        <time>2025-04-10T16:41:52Z</time>
      </trkpt>
      <trkpt lat="43.66275" lon="1.3916">
        <ele>123</ele>
        <time>2025-04-10T16:41:53Z</time>
      </trkpt>
      <trkpt lat="43.66276" lon="1.39162">
        <ele>122</ele>
        <time>2025-04-10T16:41:54Z</time>
      </trkpt>
      <trkpt lat="43.66278" lon="1.39165">
        <ele>122</ele>
        <time>2025-04-10T16:41:55Z</time>
      </trkpt>
      <trkpt lat="43.6628" lon="1.39167">
        <ele>122</ele>
        <time>2025-04-10T16:41:56Z</time>
      </trkpt>
      <trkpt lat="43.66281" lon="1.3917">
        <ele>122</ele>
        <time>2025-04-10T16:41:57Z</time>
      </trkpt>
      <trkpt lat="43.66282" lon="1.39173">
        <ele>122</ele>
        <time>2025-04-10T16:41:58Z</time>
      </trkpt>
      <trkpt lat="43.66283" lon="1.39175">
        <ele>122</ele>
        <time>2025-04-10T16:41:59Z</time>
      </trkpt>
      <trkpt lat="43.66284" lon="1.39178">
        <ele>122</ele>
        <time>2025-04-10T16:42:00Z</time>
      </trkpt>
      <trkpt lat="43.66284" lon="1.39181">
        <ele>122</ele>
        <time>2025-04-10T16:42:01Z</time>
      </trkpt>
      <trkpt lat="43.66284" lon="1.39184">
        <ele>122</ele>
        <time>2025-04-10T16:42:02Z</time>
      </trkpt>
      <trkpt lat="43.66284" lon="1.39187">
        <ele>122</ele>
        <time>2025-04-10T16:42:03Z</time>
      </trkpt>
      <trkpt lat="43.66284" lon="1.3919">
        <ele>122</ele>
        <time>2025-04-10T16:42:04Z</time>
      </trkpt>
      <trkpt lat="43.66284" lon="1.39193">
        <ele>122</ele>
        <time>2025-04-10T16:42:05Z</time>
      </trkpt>
      <trkpt lat="43.66285" lon="1.39196">
        <ele>122</ele>
        <time>2025-04-10T16:42:06Z</time>
      </trkpt>
      <trkpt lat="43.66285" lon="1.39199">
        <ele>122</ele>
        <time>2025-04-10T16:42:07Z</time>
      </trkpt>
      <trkpt lat="43.66285" lon="1.39199">
        <ele>122</ele>
        <time>2025-04-10T16:42:08Z</time>
      </trkpt>
      <trkpt lat="43.66286" lon="1.39203">
        <ele>123</ele>
        <time>2025-04-10T16:42:09Z</time>
      </trkpt>
      <trkpt lat="43.66286" lon="1.39203">
        <ele>123</ele>
        <time>2025-04-10T16:42:10Z</time>
      </trkpt>
      <trkpt lat="43.66286" lon="1.39208">
        <ele>123</ele>
        <time>2025-04-10T16:42:11Z</time>
      </trkpt>
      <trkpt lat="43.66287" lon="1.3921">
        <ele>123</ele>
        <time>2025-04-10T16:42:12Z</time>
      </trkpt>
      <trkpt lat="43.66287" lon="1.39213">
        <ele>123</ele>
        <time>2025-04-10T16:42:13Z</time>
      </trkpt>
      <trkpt lat="43.66288" lon="1.39216">
        <ele>123</ele>
        <time>2025-04-10T16:42:14Z</time>
      </trkpt>
      <trkpt lat="43.66289" lon="1.39218">
        <ele>123</ele>
        <time>2025-04-10T16:42:15Z</time>
      </trkpt>
      <trkpt lat="43.66289" lon="1.39218">
        <ele>123</ele>
        <time>2025-04-10T16:42:16Z</time>
      </trkpt>
      <trkpt lat="43.66292" lon="1.39229">
        <ele>123</ele>
        <time>2025-04-10T16:42:17Z</time>
      </trkpt>
      <trkpt lat="43.66292" lon="1.39231">
        <ele>123</ele>
        <time>2025-04-10T16:42:18Z</time>
      </trkpt>
      <trkpt lat="43.66294" lon="1.39235">
        <ele>123</ele>
        <time>2025-04-10T16:42:19Z</time>
      </trkpt>
      <trkpt lat="43.66295" lon="1.39238">
        <ele>123</ele>
        <time>2025-04-10T16:42:20Z</time>
      </trkpt>
      <trkpt lat="43.66296" lon="1.39242">
        <ele>123</ele>
        <time>2025-04-10T16:42:21Z</time>
      </trkpt>
      <trkpt lat="43.66297" lon="1.39245">
        <ele>123</ele>
        <time>2025-04-10T16:42:22Z</time>
      </trkpt>
      <trkpt lat="43.66298" lon="1.39249">
        <ele>124</ele>
        <time>2025-04-10T16:42:23Z</time>
      </trkpt>
      <trkpt lat="43.663" lon="1.39251">
        <ele>124</ele>
        <time>2025-04-10T16:42:24Z</time>
      </trkpt>
      <trkpt lat="43.66301" lon="1.39254">
        <ele>124</ele>
        <time>2025-04-10T16:42:25Z</time>
      </trkpt>
      <trkpt lat="43.66302" lon="1.39257">
        <ele>124</ele>
        <time>2025-04-10T16:42:26Z</time>
      </trkpt>
      <trkpt lat="43.66303" lon="1.39259">
        <ele>124</ele>
        <time>2025-04-10T16:42:27Z</time>
      </trkpt>
      <trkpt lat="43.66305" lon="1.39262">
        <ele>124</ele>
        <time>2025-04-10T16:42:28Z</time>
      </trkpt>
      <trkpt lat="43.66307" lon="1.39264">
        <ele>123</ele>
        <time>2025-04-10T16:42:29Z</time>
      </trkpt>
      <trkpt lat="43.66308" lon="1.39266">
        <ele>123</ele>
        <time>2025-04-10T16:42:30Z</time>
      </trkpt>
      <trkpt lat="43.6631" lon="1.39268">
        <ele>124</ele>
        <time>2025-04-10T16:42:31Z</time>
      </trkpt>
      <trkpt lat="43.66311" lon="1.3927">
        <ele>124</ele>
        <time>2025-04-10T16:42:32Z</time>
      </trkpt>
      <trkpt lat="43.66312" lon="1.39272">
        <ele>124</ele>
        <time>2025-04-10T16:42:33Z</time>
      </trkpt>
      <trkpt lat="43.66313" lon="1.39274">
        <ele>124</ele>
        <time>2025-04-10T16:42:34Z</time>
      </trkpt>
      <trkpt lat="43.66315" lon="1.39276">
        <ele>124</ele>
        <time>2025-04-10T16:42:35Z</time>
      </trkpt>
      <trkpt lat="43.66317" lon="1.39278">
        <ele>124</ele>
        <time>2025-04-10T16:42:36Z</time>
      </trkpt>
      <trkpt lat="43.66319" lon="1.3928">
        <ele>124</ele>
        <time>2025-04-10T16:42:37Z</time>
      </trkpt>
      <trkpt lat="43.66321" lon="1.3928">
        <ele>124</ele>
        <time>2025-04-10T16:42:38Z</time>
      </trkpt>
      <trkpt lat="43.66323" lon="1.39281">
        <ele>124</ele>
        <time>2025-04-10T16:42:39Z</time>
      </trkpt>
      <trkpt lat="43.66325" lon="1.39281">
        <ele>124</ele>
        <time>2025-04-10T16:42:40Z</time>
      </trkpt>
      <trkpt lat="43.66325" lon="1.39281">
        <ele>123</ele>
        <time>2025-04-10T16:42:41Z</time>
      </trkpt>
      <trkpt lat="43.66329" lon="1.39283">
        <ele>123</ele>
        <time>2025-04-10T16:42:42Z</time>
      </trkpt>
      <trkpt lat="43.66331" lon="1.39283">
        <ele>123</ele>
        <time>2025-04-10T16:42:43Z</time>
      </trkpt>
      <trkpt lat="43.66331" lon="1.39283">
        <ele>123</ele>
        <time>2025-04-10T16:42:44Z</time>
      </trkpt>
      <trkpt lat="43.66333" lon="1.3928">
        <ele>122</ele>
        <time>2025-04-10T16:42:45Z</time>
      </trkpt>
      <trkpt lat="43.66333" lon="1.3928">
        <ele>121</ele>
        <time>2025-04-10T16:42:46Z</time>
      </trkpt>
      <trkpt lat="43.66336" lon="1.39277">
        <ele>122</ele>
        <time>2025-04-10T16:42:47Z</time>
      </trkpt>
      <trkpt lat="43.66336" lon="1.39277">
        <ele>122</ele>
        <time>2025-04-10T16:42:48Z</time>
      </trkpt>
      <trkpt lat="43.66339" lon="1.39276">
        <ele>122</ele>
        <time>2025-04-10T16:42:49Z</time>
      </trkpt>
      <trkpt lat="43.66339" lon="1.39276">
        <ele>122</ele>
        <time>2025-04-10T16:42:50Z</time>
      </trkpt>
      <trkpt lat="43.66341" lon="1.39273">
        <ele>122</ele>
        <time>2025-04-10T16:42:51Z</time>
      </trkpt>
      <trkpt lat="43.66343" lon="1.39272">
        <ele>122</ele>
        <time>2025-04-10T16:42:52Z</time>
      </trkpt>
      <trkpt lat="43.66345" lon="1.39271">
        <ele>123</ele>
        <time>2025-04-10T16:42:53Z</time>
      </trkpt>
      <trkpt lat="43.66348" lon="1.3927">
        <ele>123</ele>
        <time>2025-04-10T16:42:54Z</time>
      </trkpt>
      <trkpt lat="43.6635" lon="1.3927">
        <ele>123</ele>
        <time>2025-04-10T16:42:55Z</time>
      </trkpt>
      <trkpt lat="43.66353" lon="1.3927">
        <ele>123</ele>
        <time>2025-04-10T16:42:56Z</time>
      </trkpt>
      <trkpt lat="43.66355" lon="1.3927">
        <ele>123</ele>
        <time>2025-04-10T16:42:57Z</time>
      </trkpt>
      <trkpt lat="43.66358" lon="1.3927">
        <ele>123</ele>
        <time>2025-04-10T16:42:58Z</time>
      </trkpt>
      <trkpt lat="43.66361" lon="1.39272">
        <ele>123</ele>
        <time>2025-04-10T16:42:59Z</time>
      </trkpt>
      <trkpt lat="43.66364" lon="1.39273">
        <ele>123</ele>
        <time>2025-04-10T16:43:00Z</time>
      </trkpt>
      <trkpt lat="43.66366" lon="1.39274">
        <ele>123</ele>
        <time>2025-04-10T16:43:01Z</time>
      </trkpt>
      <trkpt lat="43.66369" lon="1.39275">
        <ele>123</ele>
        <time>2025-04-10T16:43:02Z</time>
      </trkpt>
      <trkpt lat="43.66371" lon="1.39277">
        <ele>123</ele>
        <time>2025-04-10T16:43:03Z</time>
      </trkpt>
      <trkpt lat="43.66374" lon="1.39279">
        <ele>123</ele>
        <time>2025-04-10T16:43:04Z</time>
      </trkpt>
      <trkpt lat="43.66376" lon="1.39281">
        <ele>123</ele>
        <time>2025-04-10T16:43:05Z</time>
      </trkpt>
      <trkpt lat="43.66378" lon="1.39284">
        <ele>123</ele>
        <time>2025-04-10T16:43:06Z</time>
      </trkpt>
      <trkpt lat="43.6638" lon="1.39286">
        <ele>123</ele>
        <time>2025-04-10T16:43:07Z</time>
      </trkpt>
      <trkpt lat="43.66382" lon="1.39287">
        <ele>123</ele>
        <time>2025-04-10T16:43:08Z</time>
      </trkpt>
      <trkpt lat="43.66384" lon="1.39288">
        <ele>123</ele>
        <time>2025-04-10T16:43:09Z</time>
      </trkpt>
      <trkpt lat="43.66386" lon="1.3929">
        <ele>123</ele>
        <time>2025-04-10T16:43:10Z</time>
      </trkpt>
      <trkpt lat="43.66388" lon="1.39291">
        <ele>123</ele>
        <time>2025-04-10T16:43:11Z</time>
      </trkpt>
      <trkpt lat="43.6639" lon="1.39293">
        <ele>123</ele>
        <time>2025-04-10T16:43:12Z</time>
      </trkpt>
      <trkpt lat="43.66392" lon="1.39294">
        <ele>123</ele>
        <time>2025-04-10T16:43:13Z</time>
      </trkpt>
      <trkpt lat="43.66394" lon="1.39296">
        <ele>123</ele>
        <time>2025-04-10T16:43:14Z</time>
      </trkpt>
      <trkpt lat="43.66396" lon="1.39298">
        <ele>123</ele>
        <time>2025-04-10T16:43:15Z</time>
      </trkpt>
      <trkpt lat="43.66398" lon="1.393">
        <ele>123</ele>
        <time>2025-04-10T16:43:16Z</time>
      </trkpt>
      <trkpt lat="43.664" lon="1.39301">
        <ele>123</ele>
        <time>2025-04-10T16:43:17Z</time>
      </trkpt>
      <trkpt lat="43.66402" lon="1.39303">
        <ele>123</ele>
        <time>2025-04-10T16:43:18Z</time>
      </trkpt>
      <trkpt lat="43.66404" lon="1.39305">
        <ele>123</ele>
        <time>2025-04-10T16:43:19Z</time>
      </trkpt>
      <trkpt lat="43.66406" lon="1.39306">
        <ele>123</ele>
        <time>2025-04-10T16:43:20Z</time>
      </trkpt>
      <trkpt lat="43.66408" lon="1.39308">
        <ele>123</ele>
        <time>2025-04-10T16:43:21Z</time>
      </trkpt>
      <trkpt lat="43.66409" lon="1.39309">
        <ele>123</ele>
        <time>2025-04-10T16:43:22Z</time>
      </trkpt>
      <trkpt lat="43.66409" lon="1.39309">
        <ele>123</ele>
        <time>2025-04-10T16:43:23Z</time>
      </trkpt>
      <trkpt lat="43.66412" lon="1.39312">
        <ele>123</ele>
        <time>2025-04-10T16:43:24Z</time>
      </trkpt>
      <trkpt lat="43.66414" lon="1.39313">
        <ele>123</ele>
        <time>2025-04-10T16:43:25Z</time>
      </trkpt>
      <trkpt lat="43.66416" lon="1.39314">
        <ele>123</ele>
        <time>2025-04-10T16:43:26Z</time>
      </trkpt>
      <trkpt lat="43.66418" lon="1.39314">
        <ele>124</ele>
        <time>2025-04-10T16:43:27Z</time>
      </trkpt>
      <trkpt lat="43.6642" lon="1.39314">
        <ele>124</ele>
        <time>2025-04-10T16:43:28Z</time>
      </trkpt>
      <trkpt lat="43.66423" lon="1.39315">
        <ele>124</ele>
        <time>2025-04-10T16:43:29Z</time>
      </trkpt>
      <trkpt lat="43.66425" lon="1.39316">
        <ele>124</ele>
        <time>2025-04-10T16:43:30Z</time>
      </trkpt>
      <trkpt lat="43.66427" lon="1.39317">
        <ele>124</ele>
        <time>2025-04-10T16:43:31Z</time>
      </trkpt>
      <trkpt lat="43.66429" lon="1.39317">
        <ele>124</ele>
        <time>2025-04-10T16:43:32Z</time>
      </trkpt>
      <trkpt lat="43.66429" lon="1.39317">
        <ele>124</ele>
        <time>2025-04-10T16:43:33Z</time>
      </trkpt>
      <trkpt lat="43.66433" lon="1.39317">
        <ele>124</ele>
        <time>2025-04-10T16:43:34Z</time>
      </trkpt>
      <trkpt lat="43.66435" lon="1.39317">
        <ele>124</ele>
        <time>2025-04-10T16:43:35Z</time>
      </trkpt>
      <trkpt lat="43.66437" lon="1.39316">
        <ele>124</ele>
        <time>2025-04-10T16:43:36Z</time>
      </trkpt>
      <trkpt lat="43.66439" lon="1.39316">
        <ele>124</ele>
        <time>2025-04-10T16:43:37Z</time>
      </trkpt>
      <trkpt lat="43.66441" lon="1.39316">
        <ele>124</ele>
        <time>2025-04-10T16:43:38Z</time>
      </trkpt>
      <trkpt lat="43.66444" lon="1.39317">
        <ele>124</ele>
        <time>2025-04-10T16:43:39Z</time>
      </trkpt>
      <trkpt lat="43.66446" lon="1.39318">
        <ele>124</ele>
        <time>2025-04-10T16:43:40Z</time>
      </trkpt>
      <trkpt lat="43.66448" lon="1.39318">
        <ele>124</ele>
        <time>2025-04-10T16:43:41Z</time>
      </trkpt>
      <trkpt lat="43.66451" lon="1.39318">
        <ele>124</ele>
        <time>2025-04-10T16:43:42Z</time>
      </trkpt>
      <trkpt lat="43.66453" lon="1.39318">
        <ele>124</ele>
        <time>2025-04-10T16:43:43Z</time>
      </trkpt>
      <trkpt lat="43.66455" lon="1.39317">
        <ele>124</ele>
        <time>2025-04-10T16:43:44Z</time>
      </trkpt>
      <trkpt lat="43.66458" lon="1.39317">
        <ele>124</ele>
        <time>2025-04-10T16:43:45Z</time>
      </trkpt>
      <trkpt lat="43.6646" lon="1.39317">
        <ele>124</ele>
        <time>2025-04-10T16:43:46Z</time>
      </trkpt>
      <trkpt lat="43.66463" lon="1.39317">
        <ele>124</ele>
        <time>2025-04-10T16:43:47Z</time>
      </trkpt>
      <trkpt lat="43.66465" lon="1.39316">
        <ele>124</ele>
        <time>2025-04-10T16:43:48Z</time>
      </trkpt>
      <trkpt lat="43.66468" lon="1.39316">
        <ele>124</ele>
        <time>2025-04-10T16:43:49Z</time>
      </trkpt>
      <trkpt lat="43.6647" lon="1.39315">
        <ele>124</ele>
        <time>2025-04-10T16:43:50Z</time>
      </trkpt>
      <trkpt lat="43.66472" lon="1.39314">
        <ele>124</ele>
        <time>2025-04-10T16:43:51Z</time>
      </trkpt>
      <trkpt lat="43.66474" lon="1.39314">
        <ele>123</ele>
        <time>2025-04-10T16:43:52Z</time>
      </trkpt>
      <trkpt lat="43.66476" lon="1.39313">
        <ele>123</ele>
        <time>2025-04-10T16:43:53Z</time>
      </trkpt>
      <trkpt lat="43.66478" lon="1.39312">
        <ele>123</ele>
        <time>2025-04-10T16:43:54Z</time>
      </trkpt>
      <trkpt lat="43.6648" lon="1.3931">
        <ele>123</ele>
        <time>2025-04-10T16:43:55Z</time>
      </trkpt>
      <trkpt lat="43.66482" lon="1.39309">
        <ele>123</ele>
        <time>2025-04-10T16:43:56Z</time>
      </trkpt>
      <trkpt lat="43.66485" lon="1.39308">
        <ele>123</ele>
        <time>2025-04-10T16:43:57Z</time>
      </trkpt>
      <trkpt lat="43.66486" lon="1.39307">
        <ele>123</ele>
        <time>2025-04-10T16:43:58Z</time>
      </trkpt>
      <trkpt lat="43.66488" lon="1.39305">
        <ele>123</ele>
        <time>2025-04-10T16:43:59Z</time>
      </trkpt>
      <trkpt lat="43.66491" lon="1.39304">
        <ele>123</ele>
        <time>2025-04-10T16:44:00Z</time>
      </trkpt>
      <trkpt lat="43.66492" lon="1.39302">
        <ele>122</ele>
        <time>2025-04-10T16:44:01Z</time>
      </trkpt>
      <trkpt lat="43.66493" lon="1.393">
        <ele>122</ele>
        <time>2025-04-10T16:44:02Z</time>
      </trkpt>
      <trkpt lat="43.66495" lon="1.39297">
        <ele>122</ele>
        <time>2025-04-10T16:44:03Z</time>
      </trkpt>
      <trkpt lat="43.66496" lon="1.39295">
        <ele>122</ele>
        <time>2025-04-10T16:44:04Z</time>
      </trkpt>
      <trkpt lat="43.66497" lon="1.39292">
        <ele>122</ele>
        <time>2025-04-10T16:44:05Z</time>
      </trkpt>
      <trkpt lat="43.66499" lon="1.39288">
        <ele>122</ele>
        <time>2025-04-10T16:44:06Z</time>
      </trkpt>
      <trkpt lat="43.665" lon="1.39285">
        <ele>122</ele>
        <time>2025-04-10T16:44:07Z</time>
      </trkpt>
      <trkpt lat="43.665" lon="1.39283">
        <ele>122</ele>
        <time>2025-04-10T16:44:08Z</time>
      </trkpt>
      <trkpt lat="43.66502" lon="1.3928">
        <ele>122</ele>
        <time>2025-04-10T16:44:09Z</time>
      </trkpt>
      <trkpt lat="43.66502" lon="1.39277">
        <ele>122</ele>
        <time>2025-04-10T16:44:10Z</time>
      </trkpt>
      <trkpt lat="43.66503" lon="1.39274">
        <ele>122</ele>
        <time>2025-04-10T16:44:11Z</time>
      </trkpt>
      <trkpt lat="43.66504" lon="1.39271">
        <ele>122</ele>
        <time>2025-04-10T16:44:12Z</time>
      </trkpt>
      <trkpt lat="43.66506" lon="1.39268">
        <ele>122</ele>
        <time>2025-04-10T16:44:13Z</time>
      </trkpt>
      <trkpt lat="43.66508" lon="1.39265">
        <ele>122</ele>
        <time>2025-04-10T16:44:14Z</time>
      </trkpt>
      <trkpt lat="43.66509" lon="1.39262">
        <ele>122</ele>
        <time>2025-04-10T16:44:15Z</time>
      </trkpt>
      <trkpt lat="43.66512" lon="1.3926">
        <ele>122</ele>
        <time>2025-04-10T16:44:16Z</time>
      </trkpt>
      <trkpt lat="43.66514" lon="1.39259">
        <ele>122</ele>
        <time>2025-04-10T16:44:17Z</time>
      </trkpt>
      <trkpt lat="43.66517" lon="1.39258">
        <ele>122</ele>
        <time>2025-04-10T16:44:18Z</time>
      </trkpt>
      <trkpt lat="43.6652" lon="1.39259">
        <ele>122</ele>
        <time>2025-04-10T16:44:19Z</time>
      </trkpt>
      <trkpt lat="43.66523" lon="1.39261">
        <ele>123</ele>
        <time>2025-04-10T16:44:20Z</time>
      </trkpt>
      <trkpt lat="43.66525" lon="1.39263">
        <ele>123</ele>
        <time>2025-04-10T16:44:21Z</time>
      </trkpt>
      <trkpt lat="43.66528" lon="1.39264">
        <ele>123</ele>
        <time>2025-04-10T16:44:22Z</time>
      </trkpt>
      <trkpt lat="43.6653" lon="1.39265">
        <ele>123</ele>
        <time>2025-04-10T16:44:23Z</time>
      </trkpt>
      <trkpt lat="43.66532" lon="1.39267">
        <ele>123</ele>
        <time>2025-04-10T16:44:24Z</time>
      </trkpt>
      <trkpt lat="43.66534" lon="1.39269">
        <ele>123</ele>
        <time>2025-04-10T16:44:25Z</time>
      </trkpt>
      <trkpt lat="43.66536" lon="1.3927">
        <ele>123</ele>
        <time>2025-04-10T16:44:26Z</time>
      </trkpt>
      <trkpt lat="43.66536" lon="1.3927">
        <ele>122</ele>
        <time>2025-04-10T16:44:27Z</time>
      </trkpt>
      <trkpt lat="43.66538" lon="1.3927">
        <ele>123</ele>
        <time>2025-04-10T16:44:28Z</time>
      </trkpt>
      <trkpt lat="43.6654" lon="1.39269">
        <ele>123</ele>
        <time>2025-04-10T16:44:29Z</time>
      </trkpt>
      <trkpt lat="43.66542" lon="1.39268">
        <ele>123</ele>
        <time>2025-04-10T16:44:30Z</time>
      </trkpt>
      <trkpt lat="43.66544" lon="1.39267">
        <ele>123</ele>
        <time>2025-04-10T16:44:31Z</time>
      </trkpt>
      <trkpt lat="43.66546" lon="1.39266">
        <ele>123</ele>
        <time>2025-04-10T16:44:32Z</time>
      </trkpt>
      <trkpt lat="43.66546" lon="1.39266">
        <ele>123</ele>
        <time>2025-04-10T16:44:33Z</time>
      </trkpt>
      <trkpt lat="43.66551" lon="1.39263">
        <ele>123</ele>
        <time>2025-04-10T16:44:34Z</time>
      </trkpt>
      <trkpt lat="43.66553" lon="1.39263">
        <ele>123</ele>
        <time>2025-04-10T16:44:35Z</time>
      </trkpt>
      <trkpt lat="43.66555" lon="1.39263">
        <ele>123</ele>
        <time>2025-04-10T16:44:36Z</time>
      </trkpt>
      <trkpt lat="43.66558" lon="1.39263">
        <ele>123</ele>
        <time>2025-04-10T16:44:37Z</time>
      </trkpt>
      <trkpt lat="43.6656" lon="1.39264">
        <ele>123</ele>
        <time>2025-04-10T16:44:38Z</time>
      </trkpt>
      <trkpt lat="43.66562" lon="1.39265">
        <ele>123</ele>
        <time>2025-04-10T16:44:39Z</time>
      </trkpt>
      <trkpt lat="43.66564" lon="1.39268">
        <ele>123</ele>
        <time>2025-04-10T16:44:40Z</time>
      </trkpt>
      <trkpt lat="43.66567" lon="1.3927">
        <ele>123</ele>
        <time>2025-04-10T16:44:41Z</time>
      </trkpt>
      <trkpt lat="43.66568" lon="1.39273">
        <ele>123</ele>
        <time>2025-04-10T16:44:42Z</time>
      </trkpt>
      <trkpt lat="43.66569" lon="1.39276">
        <ele>123</ele>
        <time>2025-04-10T16:44:43Z</time>
      </trkpt>
      <trkpt lat="43.66571" lon="1.39279">
        <ele>123</ele>
        <time>2025-04-10T16:44:44Z</time>
      </trkpt>
      <trkpt lat="43.66572" lon="1.39282">
        <ele>123</ele>
        <time>2025-04-10T16:44:45Z</time>
      </trkpt>
      <trkpt lat="43.66574" lon="1.39285">
        <ele>123</ele>
        <time>2025-04-10T16:44:46Z</time>
      </trkpt>
      <trkpt lat="43.66574" lon="1.39289">
        <ele>123</ele>
        <time>2025-04-10T16:44:47Z</time>
      </trkpt>
      <trkpt lat="43.66574" lon="1.39292">
        <ele>123</ele>
        <time>2025-04-10T16:44:48Z</time>
      </trkpt>
      <trkpt lat="43.66574" lon="1.39295">
        <ele>123</ele>
        <time>2025-04-10T16:44:49Z</time>
      </trkpt>
      <trkpt lat="43.66574" lon="1.39298">
        <ele>123</ele>
        <time>2025-04-10T16:44:50Z</time>
      </trkpt>
      <trkpt lat="43.66574" lon="1.39301">
        <ele>123</ele>
        <time>2025-04-10T16:44:51Z</time>
      </trkpt>
      <trkpt lat="43.66573" lon="1.39304">
        <ele>123</ele>
        <time>2025-04-10T16:44:52Z</time>
      </trkpt>
      <trkpt lat="43.66574" lon="1.39307">
        <ele>123</ele>
        <time>2025-04-10T16:44:53Z</time>
      </trkpt>
      <trkpt lat="43.66575" lon="1.3931">
        <ele>123</ele>
        <time>2025-04-10T16:44:54Z</time>
      </trkpt>
      <trkpt lat="43.66575" lon="1.39313">
        <ele>123</ele>
        <time>2025-04-10T16:44:55Z</time>
      </trkpt>
      <trkpt lat="43.66575" lon="1.39316">
        <ele>123</ele>
        <time>2025-04-10T16:44:56Z</time>
      </trkpt>
      <trkpt lat="43.66576" lon="1.3932">
        <ele>123</ele>
        <time>2025-04-10T16:44:57Z</time>
      </trkpt>
      <trkpt lat="43.66576" lon="1.39323">
        <ele>123</ele>
        <time>2025-04-10T16:44:58Z</time>
      </trkpt>
      <trkpt lat="43.66577" lon="1.39327">
        <ele>123</ele>
        <time>2025-04-10T16:44:59Z</time>
      </trkpt>
      <trkpt lat="43.66577" lon="1.39329">
        <ele>123</ele>
        <time>2025-04-10T16:45:00Z</time>
      </trkpt>
      <trkpt lat="43.66578" lon="1.39332">
        <ele>123</ele>
        <time>2025-04-10T16:45:01Z</time>
      </trkpt>
      <trkpt lat="43.66578" lon="1.39336">
        <ele>123</ele>
        <time>2025-04-10T16:45:02Z</time>
      </trkpt>
      <trkpt lat="43.66579" lon="1.39339">
        <ele>123</ele>
        <time>2025-04-10T16:45:03Z</time>
      </trkpt>
      <trkpt lat="43.66579" lon="1.39342">
        <ele>123</ele>
        <time>2025-04-10T16:45:04Z</time>
      </trkpt>
      <trkpt lat="43.66579" lon="1.39345">
        <ele>123</ele>
        <time>2025-04-10T16:45:05Z</time>
      </trkpt>
      <trkpt lat="43.66581" lon="1.39349">
        <ele>123</ele>
        <time>2025-04-10T16:45:06Z</time>
      </trkpt>
      <trkpt lat="43.66581" lon="1.39352">
        <ele>123</ele>
        <time>2025-04-10T16:45:07Z</time>
      </trkpt>
      <trkpt lat="43.66581" lon="1.39355">
        <ele>123</ele>
        <time>2025-04-10T16:45:08Z</time>
      </trkpt>
      <trkpt lat="43.66582" lon="1.39359">
        <ele>123</ele>
        <time>2025-04-10T16:45:09Z</time>
      </trkpt>
      <trkpt lat="43.66583" lon="1.39362">
        <ele>123</ele>
        <time>2025-04-10T16:45:10Z</time>
      </trkpt>
      <trkpt lat="43.66584" lon="1.39366">
        <ele>123</ele>
        <time>2025-04-10T16:45:11Z</time>
      </trkpt>
      <trkpt lat="43.66583" lon="1.39369">
        <ele>123</ele>
        <time>2025-04-10T16:45:12Z</time>
      </trkpt>
      <trkpt lat="43.66584" lon="1.39372">
        <ele>123</ele>
        <time>2025-04-10T16:45:13Z</time>
      </trkpt>
      <trkpt lat="43.66584" lon="1.39375">
        <ele>123</ele>
        <time>2025-04-10T16:45:14Z</time>
      </trkpt>
      <trkpt lat="43.66584" lon="1.39378">
        <ele>123</ele>
        <time>2025-04-10T16:45:15Z</time>
      </trkpt>
      <trkpt lat="43.66584" lon="1.39381">
        <ele>123</ele>
        <time>2025-04-10T16:45:16Z</time>
      </trkpt>
      <trkpt lat="43.66585" lon="1.39385">
        <ele>123</ele>
        <time>2025-04-10T16:45:17Z</time>
      </trkpt>
      <trkpt lat="43.66585" lon="1.39388">
        <ele>123</ele>
        <time>2025-04-10T16:45:18Z</time>
      </trkpt>
      <trkpt lat="43.66585" lon="1.39392">
        <ele>123</ele>
        <time>2025-04-10T16:45:19Z</time>
      </trkpt>
      <trkpt lat="43.66586" lon="1.39396">
        <ele>123</ele>
        <time>2025-04-10T16:45:20Z</time>
      </trkpt>
      <trkpt lat="43.66587" lon="1.394">
        <ele>123</ele>
        <time>2025-04-10T16:45:21Z</time>
      </trkpt>
      <trkpt lat="43.66588" lon="1.39405">
        <ele>123</ele>
        <time>2025-04-10T16:45:22Z</time>
      </trkpt>
      <trkpt lat="43.66588" lon="1.39408">
        <ele>123</ele>
        <time>2025-04-10T16:45:23Z</time>
      </trkpt>
      <trkpt lat="43.66588" lon="1.39411">
        <ele>123</ele>
        <time>2025-04-10T16:45:24Z</time>
      </trkpt>
      <trkpt lat="43.66589" lon="1.39415">
        <ele>123</ele>
        <time>2025-04-10T16:45:25Z</time>
      </trkpt>
      <trkpt lat="43.6659" lon="1.39419">
        <ele>123</ele>
        <time>2025-04-10T16:45:26Z</time>
      </trkpt>
      <trkpt lat="43.66591" lon="1.39424">
        <ele>123</ele>
        <time>2025-04-10T16:45:27Z</time>
      </trkpt>
      <trkpt lat="43.66592" lon="1.39429">
        <ele>123</ele>
        <time>2025-04-10T16:45:28Z</time>
      </trkpt>
      <trkpt lat="43.66593" lon="1.39433">
        <ele>123</ele>
        <time>2025-04-10T16:45:29Z</time>
      </trkpt>
      <trkpt lat="43.66594" lon="1.39437">
        <ele>123</ele>
        <time>2025-04-10T16:45:30Z</time>
      </trkpt>
      <trkpt lat="43.66595" lon="1.39441">
        <ele>123</ele>
        <time>2025-04-10T16:45:31Z</time>
      </trkpt>
      <trkpt lat="43.66596" lon="1.39445">
        <ele>123</ele>
        <time>2025-04-10T16:45:32Z</time>
      </trkpt>
      <trkpt lat="43.66597" lon="1.39449">
        <ele>123</ele>
        <time>2025-04-10T16:45:33Z</time>
      </trkpt>
      <trkpt lat="43.66598" lon="1.39453">
        <ele>123</ele>
        <time>2025-04-10T16:45:34Z</time>
      </trkpt>
      <trkpt lat="43.66599" lon="1.39457">
        <ele>123</ele>
        <time>2025-04-10T16:45:35Z</time>
      </trkpt>
      <trkpt lat="43.666" lon="1.39461">
        <ele>123</ele>
        <time>2025-04-10T16:45:36Z</time>
      </trkpt>
      <trkpt lat="43.66602" lon="1.39464">
        <ele>123</ele>
        <time>2025-04-10T16:45:37Z</time>
      </trkpt>
      <trkpt lat="43.66603" lon="1.39468">
        <ele>123</ele>
        <time>2025-04-10T16:45:38Z</time>
      </trkpt>
      <trkpt lat="43.66604" lon="1.39472">
        <ele>123</ele>
        <time>2025-04-10T16:45:39Z</time>
      </trkpt>
      <trkpt lat="43.66605" lon="1.39474">
        <ele>122</ele>
        <time>2025-04-10T16:45:40Z</time>
      </trkpt>
      <trkpt lat="43.66606" lon="1.39478">
        <ele>122</ele>
        <time>2025-04-10T16:45:41Z</time>
      </trkpt>
      <trkpt lat="43.66606" lon="1.39481">
        <ele>122</ele>
        <time>2025-04-10T16:45:42Z</time>
      </trkpt>
      <trkpt lat="43.66607" lon="1.39484">
        <ele>122</ele>
        <time>2025-04-10T16:45:43Z</time>
      </trkpt>
      <trkpt lat="43.66607" lon="1.39488">
        <ele>122</ele>
        <time>2025-04-10T16:45:44Z</time>
      </trkpt>
      <trkpt lat="43.66606" lon="1.39492">
        <ele>122</ele>
        <time>2025-04-10T16:45:45Z</time>
      </trkpt>
      <trkpt lat="43.66606" lon="1.39495">
        <ele>123</ele>
        <time>2025-04-10T16:45:46Z</time>
      </trkpt>
      <trkpt lat="43.66606" lon="1.39498">
        <ele>123</ele>
        <time>2025-04-10T16:45:47Z</time>
      </trkpt>
      <trkpt lat="43.66605" lon="1.39501">
        <ele>123</ele>
        <time>2025-04-10T16:45:48Z</time>
      </trkpt>
      <trkpt lat="43.66604" lon="1.39504">
        <ele>122</ele>
        <time>2025-04-10T16:45:49Z</time>
      </trkpt>
      <trkpt lat="43.66604" lon="1.39507">
        <ele>122</ele>
        <time>2025-04-10T16:45:50Z</time>
      </trkpt>
      <trkpt lat="43.66604" lon="1.3951">
        <ele>122</ele>
        <time>2025-04-10T16:45:51Z</time>
      </trkpt>
      <trkpt lat="43.66603" lon="1.39513">
        <ele>122</ele>
        <time>2025-04-10T16:45:52Z</time>
      </trkpt>
      <trkpt lat="43.66603" lon="1.39516">
        <ele>122</ele>
        <time>2025-04-10T16:45:53Z</time>
      </trkpt>
      <trkpt lat="43.66604" lon="1.3952">
        <ele>122</ele>
        <time>2025-04-10T16:45:54Z</time>
      </trkpt>
      <trkpt lat="43.66604" lon="1.39524">
        <ele>122</ele>
        <time>2025-04-10T16:45:55Z</time>
      </trkpt>
      <trkpt lat="43.66605" lon="1.39528">
        <ele>122</ele>
        <time>2025-04-10T16:45:56Z</time>
      </trkpt>
      <trkpt lat="43.66607" lon="1.39531">
        <ele>122</ele>
        <time>2025-04-10T16:45:57Z</time>
      </trkpt>
      <trkpt lat="43.66608" lon="1.39534">
        <ele>123</ele>
        <time>2025-04-10T16:45:58Z</time>
      </trkpt>
      <trkpt lat="43.66609" lon="1.39537">
        <ele>123</ele>
        <time>2025-04-10T16:45:59Z</time>
      </trkpt>
      <trkpt lat="43.6661" lon="1.39541">
        <ele>123</ele>
        <time>2025-04-10T16:46:00Z</time>
      </trkpt>
      <trkpt lat="43.66611" lon="1.39544">
        <ele>123</ele>
        <time>2025-04-10T16:46:01Z</time>
      </trkpt>
      <trkpt lat="43.66612" lon="1.39548">
        <ele>123</ele>
        <time>2025-04-10T16:46:02Z</time>
      </trkpt>
      <trkpt lat="43.66612" lon="1.39551">
        <ele>123</ele>
        <time>2025-04-10T16:46:03Z</time>
      </trkpt>
      <trkpt lat="43.66614" lon="1.39555">
        <ele>123</ele>
        <time>2025-04-10T16:46:04Z</time>
      </trkpt>
      <trkpt lat="43.66614" lon="1.39558">
        <ele>123</ele>
        <time>2025-04-10T16:46:05Z</time>
      </trkpt>
      <trkpt lat="43.66615" lon="1.39562">
        <ele>123</ele>
        <time>2025-04-10T16:46:06Z</time>
      </trkpt>
      <trkpt lat="43.66615" lon="1.39565">
        <ele>123</ele>
        <time>2025-04-10T16:46:07Z</time>
      </trkpt>
      <trkpt lat="43.66616" lon="1.39569">
        <ele>123</ele>
        <time>2025-04-10T16:46:08Z</time>
      </trkpt>
      <trkpt lat="43.66617" lon="1.39572">
        <ele>123</ele>
        <time>2025-04-10T16:46:09Z</time>
      </trkpt>
      <trkpt lat="43.66617" lon="1.39576">
        <ele>123</ele>
        <time>2025-04-10T16:46:10Z</time>
      </trkpt>
      <trkpt lat="43.66617" lon="1.3958">
        <ele>123</ele>
        <time>2025-04-10T16:46:11Z</time>
      </trkpt>
      <trkpt lat="43.66617" lon="1.39583">
        <ele>123</ele>
        <time>2025-04-10T16:46:12Z</time>
      </trkpt>
      <trkpt lat="43.66617" lon="1.39583">
        <ele>123</ele>
        <time>2025-04-10T16:46:13Z</time>
      </trkpt>
      <trkpt lat="43.66618" lon="1.39587">
        <ele>123</ele>
        <time>2025-04-10T16:46:14Z</time>
      </trkpt>
      <trkpt lat="43.66619" lon="1.39591">
        <ele>123</ele>
        <time>2025-04-10T16:46:15Z</time>
      </trkpt>
      <trkpt lat="43.6662" lon="1.39594">
        <ele>123</ele>
        <time>2025-04-10T16:46:16Z</time>
      </trkpt>
      <trkpt lat="43.66621" lon="1.39598">
        <ele>123</ele>
        <time>2025-04-10T16:46:17Z</time>
      </trkpt>
      <trkpt lat="43.66622" lon="1.39603">
        <ele>123</ele>
        <time>2025-04-10T16:46:18Z</time>
      </trkpt>
      <trkpt lat="43.66624" lon="1.39608">
        <ele>123</ele>
        <time>2025-04-10T16:46:19Z</time>
      </trkpt>
      <trkpt lat="43.66625" lon="1.39613">
        <ele>123</ele>
        <time>2025-04-10T16:46:20Z</time>
      </trkpt>
      <trkpt lat="43.66626" lon="1.39616">
        <ele>123</ele>
        <time>2025-04-10T16:46:21Z</time>
      </trkpt>
      <trkpt lat="43.66627" lon="1.39619">
        <ele>123</ele>
        <time>2025-04-10T16:46:22Z</time>
      </trkpt>
      <trkpt lat="43.66627" lon="1.39622">
        <ele>123</ele>
        <time>2025-04-10T16:46:23Z</time>
      </trkpt>
      <trkpt lat="43.66627" lon="1.39622">
        <ele>123</ele>
        <time>2025-04-10T16:46:24Z</time>
      </trkpt>
      <trkpt lat="43.66627" lon="1.39627">
        <ele>123</ele>
        <time>2025-04-10T16:46:25Z</time>
      </trkpt>
      <trkpt lat="43.66628" lon="1.39631">
        <ele>123</ele>
        <time>2025-04-10T16:46:26Z</time>
      </trkpt>
      <trkpt lat="43.66628" lon="1.39635">
        <ele>123</ele>
        <time>2025-04-10T16:46:27Z</time>
      </trkpt>
      <trkpt lat="43.66628" lon="1.3964">
        <ele>123</ele>
        <time>2025-04-10T16:46:28Z</time>
      </trkpt>
      <trkpt lat="43.66628" lon="1.39645">
        <ele>123</ele>
        <time>2025-04-10T16:46:29Z</time>
      </trkpt>
      <trkpt lat="43.66627" lon="1.3965">
        <ele>123</ele>
        <time>2025-04-10T16:46:30Z</time>
      </trkpt>
      <trkpt lat="43.66628" lon="1.39654">
        <ele>123</ele>
        <time>2025-04-10T16:46:31Z</time>
      </trkpt>
      <trkpt lat="43.66629" lon="1.39658">
        <ele>123</ele>
        <time>2025-04-10T16:46:32Z</time>
      </trkpt>
      <trkpt lat="43.6663" lon="1.39662">
        <ele>123</ele>
        <time>2025-04-10T16:46:33Z</time>
      </trkpt>
      <trkpt lat="43.66631" lon="1.39666">
        <ele>123</ele>
        <time>2025-04-10T16:46:34Z</time>
      </trkpt>
      <trkpt lat="43.66631" lon="1.39669">
        <ele>123</ele>
        <time>2025-04-10T16:46:35Z</time>
      </trkpt>
      <trkpt lat="43.66632" lon="1.39673">
        <ele>123</ele>
        <time>2025-04-10T16:46:36Z</time>
      </trkpt>
      <trkpt lat="43.66633" lon="1.39676">
        <ele>123</ele>
        <time>2025-04-10T16:46:37Z</time>
      </trkpt>
      <trkpt lat="43.66633" lon="1.3968">
        <ele>123</ele>
        <time>2025-04-10T16:46:38Z</time>
      </trkpt>
      <trkpt lat="43.66634" lon="1.39684">
        <ele>123</ele>
        <time>2025-04-10T16:46:39Z</time>
      </trkpt>
      <trkpt lat="43.66635" lon="1.39687">
        <ele>123</ele>
        <time>2025-04-10T16:46:40Z</time>
      </trkpt>
      <trkpt lat="43.66635" lon="1.39691">
        <ele>123</ele>
        <time>2025-04-10T16:46:41Z</time>
      </trkpt>
      <trkpt lat="43.66635" lon="1.39694">
        <ele>123</ele>
        <time>2025-04-10T16:46:42Z</time>
      </trkpt>
      <trkpt lat="43.66635" lon="1.39698">
        <ele>123</ele>
        <time>2025-04-10T16:46:43Z</time>
      </trkpt>
      <trkpt lat="43.66635" lon="1.39701">
        <ele>123</ele>
        <time>2025-04-10T16:46:44Z</time>
      </trkpt>
      <trkpt lat="43.66636" lon="1.39704">
        <ele>123</ele>
        <time>2025-04-10T16:46:45Z</time>
      </trkpt>
      <trkpt lat="43.66636" lon="1.39708">
        <ele>123</ele>
        <time>2025-04-10T16:46:46Z</time>
      </trkpt>
      <trkpt lat="43.66636" lon="1.39711">
        <ele>123</ele>
        <time>2025-04-10T16:46:47Z</time>
      </trkpt>
      <trkpt lat="43.66636" lon="1.39714">
        <ele>122</ele>
        <time>2025-04-10T16:46:48Z</time>
      </trkpt>
      <trkpt lat="43.66636" lon="1.39718">
        <ele>122</ele>
        <time>2025-04-10T16:46:49Z</time>
      </trkpt>
      <trkpt lat="43.66637" lon="1.39721">
        <ele>123</ele>
        <time>2025-04-10T16:46:50Z</time>
      </trkpt>
      <trkpt lat="43.66637" lon="1.39725">
        <ele>123</ele>
        <time>2025-04-10T16:46:51Z</time>
      </trkpt>
      <trkpt lat="43.66638" lon="1.39728">
        <ele>123</ele>
        <time>2025-04-10T16:46:52Z</time>
      </trkpt>
      <trkpt lat="43.66639" lon="1.39732">
        <ele>123</ele>
        <time>2025-04-10T16:46:53Z</time>
      </trkpt>
      <trkpt lat="43.66638" lon="1.39735">
        <ele>124</ele>
        <time>2025-04-10T16:46:54Z</time>
      </trkpt>
      <trkpt lat="43.66639" lon="1.39739">
        <ele>124</ele>
        <time>2025-04-10T16:46:55Z</time>
      </trkpt>
      <trkpt lat="43.66639" lon="1.39742">
        <ele>124</ele>
        <time>2025-04-10T16:46:56Z</time>
      </trkpt>
      <trkpt lat="43.6664" lon="1.39746">
        <ele>124</ele>
        <time>2025-04-10T16:46:57Z</time>
      </trkpt>
      <trkpt lat="43.66639" lon="1.39749">
        <ele>124</ele>
        <time>2025-04-10T16:46:58Z</time>
      </trkpt>
      <trkpt lat="43.66639" lon="1.39753">
        <ele>124</ele>
        <time>2025-04-10T16:46:59Z</time>
      </trkpt>
      <trkpt lat="43.6664" lon="1.39757">
        <ele>124</ele>
        <time>2025-04-10T16:47:00Z</time>
      </trkpt>
      <trkpt lat="43.66639" lon="1.3976">
        <ele>124</ele>
        <time>2025-04-10T16:47:01Z</time>
      </trkpt>
      <trkpt lat="43.66638" lon="1.39763">
        <ele>124</ele>
        <time>2025-04-10T16:47:02Z</time>
      </trkpt>
      <trkpt lat="43.66638" lon="1.39766">
        <ele>124</ele>
        <time>2025-04-10T16:47:03Z</time>
      </trkpt>
      <trkpt lat="43.66639" lon="1.39769">
        <ele>124</ele>
        <time>2025-04-10T16:47:04Z</time>
      </trkpt>
      <trkpt lat="43.6664" lon="1.39772">
        <ele>124</ele>
        <time>2025-04-10T16:47:05Z</time>
      </trkpt>
      <trkpt lat="43.6664" lon="1.39775">
        <ele>124</ele>
        <time>2025-04-10T16:47:06Z</time>
      </trkpt>
      <trkpt lat="43.6664" lon="1.39779">
        <ele>124</ele>
        <time>2025-04-10T16:47:07Z</time>
      </trkpt>
      <trkpt lat="43.66639" lon="1.39783">
        <ele>124</ele>
        <time>2025-04-10T16:47:08Z</time>
      </trkpt>
      <trkpt lat="43.66638" lon="1.39786">
        <ele>124</ele>
        <time>2025-04-10T16:47:09Z</time>
      </trkpt>
      <trkpt lat="43.66636" lon="1.39788">
        <ele>124</ele>
        <time>2025-04-10T16:47:10Z</time>
      </trkpt>
      <trkpt lat="43.66634" lon="1.39791">
        <ele>124</ele>
        <time>2025-04-10T16:47:11Z</time>
      </trkpt>
      <trkpt lat="43.66633" lon="1.39794">
        <ele>124</ele>
        <time>2025-04-10T16:47:12Z</time>
      </trkpt>
      <trkpt lat="43.66633" lon="1.39797">
        <ele>124</ele>
        <time>2025-04-10T16:47:13Z</time>
      </trkpt>
      <trkpt lat="43.66634" lon="1.39801">
        <ele>124</ele>
        <time>2025-04-10T16:47:14Z</time>
      </trkpt>
      <trkpt lat="43.66635" lon="1.39805">
        <ele>124</ele>
        <time>2025-04-10T16:47:15Z</time>
      </trkpt>
      <trkpt lat="43.66636" lon="1.39809">
        <ele>124</ele>
        <time>2025-04-10T16:47:16Z</time>
      </trkpt>
      <trkpt lat="43.66635" lon="1.39813">
        <ele>124</ele>
        <time>2025-04-10T16:47:17Z</time>
      </trkpt>
      <trkpt lat="43.66635" lon="1.39816">
        <ele>124</ele>
        <time>2025-04-10T16:47:18Z</time>
      </trkpt>
      <trkpt lat="43.66634" lon="1.39819">
        <ele>124</ele>
        <time>2025-04-10T16:47:19Z</time>
      </trkpt>
      <trkpt lat="43.66635" lon="1.39823">
        <ele>124</ele>
        <time>2025-04-10T16:47:20Z</time>
      </trkpt>
      <trkpt lat="43.66636" lon="1.39826">
        <ele>124</ele>
        <time>2025-04-10T16:47:21Z</time>
      </trkpt>
      <trkpt lat="43.66637" lon="1.3983">
        <ele>124</ele>
        <time>2025-04-10T16:47:22Z</time>
      </trkpt>
      <trkpt lat="43.66637" lon="1.39834">
        <ele>124</ele>
        <time>2025-04-10T16:47:23Z</time>
      </trkpt>
      <trkpt lat="43.66638" lon="1.39837">
        <ele>124</ele>
        <time>2025-04-10T16:47:24Z</time>
      </trkpt>
      <trkpt lat="43.66638" lon="1.39841">
        <ele>124</ele>
        <time>2025-04-10T16:47:25Z</time>
      </trkpt>
      <trkpt lat="43.66638" lon="1.39845">
        <ele>124</ele>
        <time>2025-04-10T16:47:26Z</time>
      </trkpt>
      <trkpt lat="43.66638" lon="1.39849">
        <ele>124</ele>
        <time>2025-04-10T16:47:27Z</time>
      </trkpt>
      <trkpt lat="43.66638" lon="1.39853">
        <ele>124</ele>
        <time>2025-04-10T16:47:28Z</time>
      </trkpt>
      <trkpt lat="43.66638" lon="1.39856">
        <ele>124</ele>
        <time>2025-04-10T16:47:29Z</time>
      </trkpt>
      <trkpt lat="43.66639" lon="1.39861">
        <ele>124</ele>
        <time>2025-04-10T16:47:30Z</time>
      </trkpt>
      <trkpt lat="43.66638" lon="1.39864">
        <ele>124</ele>
        <time>2025-04-10T16:47:31Z</time>
      </trkpt>
      <trkpt lat="43.66638" lon="1.39868">
        <ele>124</ele>
        <time>2025-04-10T16:47:32Z</time>
      </trkpt>
      <trkpt lat="43.66637" lon="1.39871">
        <ele>124</ele>
        <time>2025-04-10T16:47:33Z</time>
      </trkpt>
      <trkpt lat="43.66636" lon="1.39875">
        <ele>124</ele>
        <time>2025-04-10T16:47:34Z</time>
      </trkpt>
      <trkpt lat="43.66635" lon="1.39879">
        <ele>124</ele>
        <time>2025-04-10T16:47:35Z</time>
      </trkpt>
      <trkpt lat="43.66634" lon="1.39883">
        <ele>124</ele>
        <time>2025-04-10T16:47:36Z</time>
      </trkpt>
      <trkpt lat="43.66634" lon="1.39887">
        <ele>124</ele>
        <time>2025-04-10T16:47:37Z</time>
      </trkpt>
      <trkpt lat="43.66632" lon="1.39891">
        <ele>124</ele>
        <time>2025-04-10T16:47:38Z</time>
      </trkpt>
      <trkpt lat="43.66631" lon="1.39894">
        <ele>124</ele>
        <time>2025-04-10T16:47:39Z</time>
      </trkpt>
      <trkpt lat="43.66629" lon="1.39897">
        <ele>124</ele>
        <time>2025-04-10T16:47:40Z</time>
      </trkpt>
      <trkpt lat="43.66628" lon="1.39901">
        <ele>124</ele>
        <time>2025-04-10T16:47:41Z</time>
      </trkpt>
      <trkpt lat="43.66626" lon="1.39904">
        <ele>124</ele>
        <time>2025-04-10T16:47:42Z</time>
      </trkpt>
      <trkpt lat="43.66625" lon="1.39907">
        <ele>124</ele>
        <time>2025-04-10T16:47:43Z</time>
      </trkpt>
      <trkpt lat="43.66623" lon="1.39911">
        <ele>124</ele>
        <time>2025-04-10T16:47:44Z</time>
      </trkpt>
      <trkpt lat="43.66622" lon="1.39914">
        <ele>124</ele>
        <time>2025-04-10T16:47:45Z</time>
      </trkpt>
      <trkpt lat="43.66621" lon="1.39917">
        <ele>124</ele>
        <time>2025-04-10T16:47:46Z</time>
      </trkpt>
      <trkpt lat="43.6662" lon="1.3992">
        <ele>124</ele>
        <time>2025-04-10T16:47:47Z</time>
      </trkpt>
      <trkpt lat="43.6662" lon="1.3992">
        <ele>124</ele>
        <time>2025-04-10T16:47:48Z</time>
      </trkpt>
      <trkpt lat="43.66619" lon="1.39925">
        <ele>124</ele>
        <time>2025-04-10T16:47:49Z</time>
      </trkpt>
      <trkpt lat="43.66618" lon="1.39928">
        <ele>124</ele>
        <time>2025-04-10T16:47:50Z</time>
      </trkpt>
      <trkpt lat="43.66617" lon="1.39931">
        <ele>124</ele>
        <time>2025-04-10T16:47:51Z</time>
      </trkpt>
      <trkpt lat="43.66616" lon="1.39935">
        <ele>124</ele>
        <time>2025-04-10T16:47:52Z</time>
      </trkpt>
      <trkpt lat="43.66615" lon="1.3994">
        <ele>124</ele>
        <time>2025-04-10T16:47:53Z</time>
      </trkpt>
      <trkpt lat="43.66614" lon="1.39944">
        <ele>124</ele>
        <time>2025-04-10T16:47:54Z</time>
      </trkpt>
      <trkpt lat="43.66613" lon="1.39948">
        <ele>124</ele>
        <time>2025-04-10T16:47:55Z</time>
      </trkpt>
      <trkpt lat="43.66613" lon="1.39952">
        <ele>124</ele>
        <time>2025-04-10T16:47:56Z</time>
      </trkpt>
      <trkpt lat="43.66612" lon="1.39955">
        <ele>125</ele>
        <time>2025-04-10T16:47:57Z</time>
      </trkpt>
      <trkpt lat="43.66611" lon="1.39959">
        <ele>125</ele>
        <time>2025-04-10T16:47:58Z</time>
      </trkpt>
      <trkpt lat="43.66611" lon="1.39962">
        <ele>125</ele>
        <time>2025-04-10T16:47:59Z</time>
      </trkpt>
      <trkpt lat="43.6661" lon="1.39965">
        <ele>125</ele>
        <time>2025-04-10T16:48:00Z</time>
      </trkpt>
      <trkpt lat="43.6661" lon="1.39969">
        <ele>125</ele>
        <time>2025-04-10T16:48:01Z</time>
      </trkpt>
      <trkpt lat="43.66608" lon="1.39973">
        <ele>125</ele>
        <time>2025-04-10T16:48:02Z</time>
      </trkpt>
      <trkpt lat="43.66606" lon="1.39976">
        <ele>125</ele>
        <time>2025-04-10T16:48:03Z</time>
      </trkpt>
      <trkpt lat="43.66604" lon="1.3998">
        <ele>125</ele>
        <time>2025-04-10T16:48:04Z</time>
      </trkpt>
      <trkpt lat="43.66602" lon="1.39983">
        <ele>125</ele>
        <time>2025-04-10T16:48:05Z</time>
      </trkpt>
      <trkpt lat="43.66601" lon="1.39986">
        <ele>125</ele>
        <time>2025-04-10T16:48:06Z</time>
      </trkpt>
      <trkpt lat="43.666" lon="1.39989">
        <ele>125</ele>
        <time>2025-04-10T16:48:07Z</time>
      </trkpt>
      <trkpt lat="43.66599" lon="1.39992">
        <ele>125</ele>
        <time>2025-04-10T16:48:08Z</time>
      </trkpt>
      <trkpt lat="43.66598" lon="1.39995">
        <ele>125</ele>
        <time>2025-04-10T16:48:09Z</time>
      </trkpt>
      <trkpt lat="43.66598" lon="1.39999">
        <ele>125</ele>
        <time>2025-04-10T16:48:10Z</time>
      </trkpt>
      <trkpt lat="43.66598" lon="1.40002">
        <ele>125</ele>
        <time>2025-04-10T16:48:11Z</time>
      </trkpt>
      <trkpt lat="43.66597" lon="1.40005">
        <ele>125</ele>
        <time>2025-04-10T16:48:12Z</time>
      </trkpt>
      <trkpt lat="43.66597" lon="1.40009">
        <ele>125</ele>
        <time>2025-04-10T16:48:13Z</time>
      </trkpt>
      <trkpt lat="43.66596" lon="1.40012">
        <ele>125</ele>
        <time>2025-04-10T16:48:14Z</time>
      </trkpt>
      <trkpt lat="43.66596" lon="1.40016">
        <ele>125</ele>
        <time>2025-04-10T16:48:15Z</time>
      </trkpt>
      <trkpt lat="43.66594" lon="1.40019">
        <ele>125</ele>
        <time>2025-04-10T16:48:16Z</time>
      </trkpt>
      <trkpt lat="43.66594" lon="1.40022">
        <ele>125</ele>
        <time>2025-04-10T16:48:17Z</time>
      </trkpt>
      <trkpt lat="43.66593" lon="1.40026">
        <ele>125</ele>
        <time>2025-04-10T16:48:18Z</time>
      </trkpt>
      <trkpt lat="43.66591" lon="1.40028">
        <ele>125</ele>
        <time>2025-04-10T16:48:19Z</time>
      </trkpt>
      <trkpt lat="43.66591" lon="1.40028">
        <ele>125</ele>
        <time>2025-04-10T16:48:20Z</time>
      </trkpt>
      <trkpt lat="43.66586" lon="1.40037">
        <ele>125</ele>
        <time>2025-04-10T16:48:21Z</time>
      </trkpt>
      <trkpt lat="43.66585" lon="1.40039">
        <ele>125</ele>
        <time>2025-04-10T16:48:22Z</time>
      </trkpt>
      <trkpt lat="43.66583" lon="1.40042">
        <ele>125</ele>
        <time>2025-04-10T16:48:23Z</time>
      </trkpt>
      <trkpt lat="43.66582" lon="1.40045">
        <ele>125</ele>
        <time>2025-04-10T16:48:24Z</time>
      </trkpt>
      <trkpt lat="43.66582" lon="1.40048">
        <ele>125</ele>
        <time>2025-04-10T16:48:25Z</time>
      </trkpt>
      <trkpt lat="43.66581" lon="1.40051">
        <ele>125</ele>
        <time>2025-04-10T16:48:26Z</time>
      </trkpt>
      <trkpt lat="43.66579" lon="1.40054">
        <ele>125</ele>
        <time>2025-04-10T16:48:27Z</time>
      </trkpt>
      <trkpt lat="43.66577" lon="1.40057">
        <ele>125</ele>
        <time>2025-04-10T16:48:28Z</time>
      </trkpt>
      <trkpt lat="43.66577" lon="1.40057">
        <ele>125</ele>
        <time>2025-04-10T16:48:29Z</time>
      </trkpt>
      <trkpt lat="43.66576" lon="1.40061">
        <ele>125</ele>
        <time>2025-04-10T16:48:30Z</time>
      </trkpt>
      <trkpt lat="43.66574" lon="1.40065">
        <ele>125</ele>
        <time>2025-04-10T16:48:31Z</time>
      </trkpt>
      <trkpt lat="43.66572" lon="1.40069">
        <ele>125</ele>
        <time>2025-04-10T16:48:32Z</time>
      </trkpt>
      <trkpt lat="43.6657" lon="1.40073">
        <ele>125</ele>
        <time>2025-04-10T16:48:33Z</time>
      </trkpt>
      <trkpt lat="43.66568" lon="1.40076">
        <ele>125</ele>
        <time>2025-04-10T16:48:34Z</time>
      </trkpt>
      <trkpt lat="43.66565" lon="1.40078">
        <ele>125</ele>
        <time>2025-04-10T16:48:35Z</time>
      </trkpt>
      <trkpt lat="43.66563" lon="1.40081">
        <ele>125</ele>
        <time>2025-04-10T16:48:36Z</time>
      </trkpt>
      <trkpt lat="43.66561" lon="1.40083">
        <ele>125</ele>
        <time>2025-04-10T16:48:37Z</time>
      </trkpt>
      <trkpt lat="43.66559" lon="1.40085">
        <ele>125</ele>
        <time>2025-04-10T16:48:38Z</time>
      </trkpt>
      <trkpt lat="43.66557" lon="1.40087">
        <ele>125</ele>
        <time>2025-04-10T16:48:39Z</time>
      </trkpt>
      <trkpt lat="43.66554" lon="1.40089">
        <ele>125</ele>
        <time>2025-04-10T16:48:40Z</time>
      </trkpt>
      <trkpt lat="43.66552" lon="1.40091">
        <ele>125</ele>
        <time>2025-04-10T16:48:41Z</time>
      </trkpt>
      <trkpt lat="43.6655" lon="1.40095">
        <ele>125</ele>
        <time>2025-04-10T16:48:42Z</time>
      </trkpt>
      <trkpt lat="43.66548" lon="1.40098">
        <ele>125</ele>
        <time>2025-04-10T16:48:43Z</time>
      </trkpt>
      <trkpt lat="43.66547" lon="1.40101">
        <ele>125</ele>
        <time>2025-04-10T16:48:44Z</time>
      </trkpt>
      <trkpt lat="43.66546" lon="1.40104">
        <ele>125</ele>
        <time>2025-04-10T16:48:45Z</time>
      </trkpt>
      <trkpt lat="43.66545" lon="1.40107">
        <ele>125</ele>
        <time>2025-04-10T16:48:46Z</time>
      </trkpt>
      <trkpt lat="43.66545" lon="1.4011">
        <ele>125</ele>
        <time>2025-04-10T16:48:47Z</time>
      </trkpt>
      <trkpt lat="43.66545" lon="1.40114">
        <ele>125</ele>
        <time>2025-04-10T16:48:48Z</time>
      </trkpt>
      <trkpt lat="43.66545" lon="1.40117">
        <ele>125</ele>
        <time>2025-04-10T16:48:49Z</time>
      </trkpt>
      <trkpt lat="43.66544" lon="1.4012">
        <ele>125</ele>
        <time>2025-04-10T16:48:50Z</time>
      </trkpt>
      <trkpt lat="43.66543" lon="1.40123">
        <ele>125</ele>
        <time>2025-04-10T16:48:51Z</time>
      </trkpt>
      <trkpt lat="43.66541" lon="1.40126">
        <ele>125</ele>
        <time>2025-04-10T16:48:52Z</time>
      </trkpt>
      <trkpt lat="43.66539" lon="1.40128">
        <ele>125</ele>
        <time>2025-04-10T16:48:53Z</time>
      </trkpt>
      <trkpt lat="43.66537" lon="1.40131">
        <ele>125</ele>
        <time>2025-04-10T16:48:54Z</time>
      </trkpt>
      <trkpt lat="43.66534" lon="1.40133">
        <ele>125</ele>
        <time>2025-04-10T16:48:55Z</time>
      </trkpt>
      <trkpt lat="43.66531" lon="1.40136">
        <ele>125</ele>
        <time>2025-04-10T16:48:56Z</time>
      </trkpt>
      <trkpt lat="43.66529" lon="1.40139">
        <ele>125</ele>
        <time>2025-04-10T16:48:57Z</time>
      </trkpt>
      <trkpt lat="43.66528" lon="1.40141">
        <ele>125</ele>
        <time>2025-04-10T16:48:58Z</time>
      </trkpt>
      <trkpt lat="43.66526" lon="1.40144">
        <ele>125</ele>
        <time>2025-04-10T16:48:59Z</time>
      </trkpt>
      <trkpt lat="43.66524" lon="1.40147">
        <ele>125</ele>
        <time>2025-04-10T16:49:00Z</time>
      </trkpt>
      <trkpt lat="43.66523" lon="1.4015">
        <ele>125</ele>
        <time>2025-04-10T16:49:01Z</time>
      </trkpt>
      <trkpt lat="43.66521" lon="1.40153">
        <ele>125</ele>
        <time>2025-04-10T16:49:02Z</time>
      </trkpt>
      <trkpt lat="43.6652" lon="1.40157">
        <ele>125</ele>
        <time>2025-04-10T16:49:03Z</time>
      </trkpt>
      <trkpt lat="43.66519" lon="1.40159">
        <ele>125</ele>
        <time>2025-04-10T16:49:04Z</time>
      </trkpt>
      <trkpt lat="43.66518" lon="1.40162">
        <ele>125</ele>
        <time>2025-04-10T16:49:05Z</time>
      </trkpt>
      <trkpt lat="43.66516" lon="1.40164">
        <ele>125</ele>
        <time>2025-04-10T16:49:06Z</time>
      </trkpt>
      <trkpt lat="43.66514" lon="1.40166">
        <ele>125</ele>
        <time>2025-04-10T16:49:07Z</time>
      </trkpt>
      <trkpt lat="43.66511" lon="1.40168">
        <ele>125</ele>
        <time>2025-04-10T16:49:08Z</time>
      </trkpt>
      <trkpt lat="43.66511" lon="1.40168">
        <ele>125</ele>
        <time>2025-04-10T16:49:09Z</time>
      </trkpt>
      <trkpt lat="43.66509" lon="1.4017">
        <ele>125</ele>
        <time>2025-04-10T16:49:10Z</time>
      </trkpt>
      <trkpt lat="43.66507" lon="1.40173">
        <ele>125</ele>
        <time>2025-04-10T16:49:11Z</time>
      </trkpt>
      <trkpt lat="43.66505" lon="1.40176">
        <ele>125</ele>
        <time>2025-04-10T16:49:12Z</time>
      </trkpt>
      <trkpt lat="43.66503" lon="1.40178">
        <ele>125</ele>
        <time>2025-04-10T16:49:13Z</time>
      </trkpt>
      <trkpt lat="43.66501" lon="1.40181">
        <ele>125</ele>
        <time>2025-04-10T16:49:14Z</time>
      </trkpt>
      <trkpt lat="43.66498" lon="1.40184">
        <ele>125</ele>
        <time>2025-04-10T16:49:15Z</time>
      </trkpt>
      <trkpt lat="43.66496" lon="1.40186">
        <ele>125</ele>
        <time>2025-04-10T16:49:16Z</time>
      </trkpt>
      <trkpt lat="43.6649" lon="1.40191">
        <ele>125</ele>
        <time>2025-04-10T16:49:17Z</time>
      </trkpt>
      <trkpt lat="43.66488" lon="1.40192">
        <ele>125</ele>
        <time>2025-04-10T16:49:18Z</time>
      </trkpt>
      <trkpt lat="43.66486" lon="1.40194">
        <ele>125</ele>
        <time>2025-04-10T16:49:19Z</time>
      </trkpt>
      <trkpt lat="43.66483" lon="1.40195">
        <ele>125</ele>
        <time>2025-04-10T16:49:20Z</time>
      </trkpt>
      <trkpt lat="43.66481" lon="1.40195">
        <ele>125</ele>
        <time>2025-04-10T16:49:21Z</time>
      </trkpt>
      <trkpt lat="43.66481" lon="1.40195">
        <ele>125</ele>
        <time>2025-04-10T16:49:22Z</time>
      </trkpt>
      <trkpt lat="43.66477" lon="1.40194">
        <ele>125</ele>
        <time>2025-04-10T16:49:23Z</time>
      </trkpt>
      <trkpt lat="43.66475" lon="1.40192">
        <ele>125</ele>
        <time>2025-04-10T16:49:26Z</time>
      </trkpt>
      <trkpt lat="43.66476" lon="1.40191">
        <ele>124</ele>
        <time>2025-04-10T16:49:27Z</time>
      </trkpt>
      <trkpt lat="43.66476" lon="1.40191">
        <ele>125</ele>
        <time>2025-04-10T16:49:28Z</time>
      </trkpt>
      <trkpt lat="43.66478" lon="1.40187">
        <ele>125</ele>
        <time>2025-04-10T16:49:29Z</time>
      </trkpt>
      <trkpt lat="43.66479" lon="1.40184">
        <ele>124</ele>
        <time>2025-04-10T16:49:30Z</time>
      </trkpt>
      <trkpt lat="43.6648" lon="1.40182">
        <ele>124</ele>
        <time>2025-04-10T16:49:31Z</time>
      </trkpt>
      <trkpt lat="43.66481" lon="1.40179">
        <ele>124</ele>
        <time>2025-04-10T16:49:32Z</time>
      </trkpt>
      <trkpt lat="43.66482" lon="1.40175">
        <ele>124</ele>
        <time>2025-04-10T16:49:33Z</time>
      </trkpt>
      <trkpt lat="43.66483" lon="1.40171">
        <ele>124</ele>
        <time>2025-04-10T16:49:34Z</time>
      </trkpt>
      <trkpt lat="43.66484" lon="1.40168">
        <ele>124</ele>
        <time>2025-04-10T16:49:35Z</time>
      </trkpt>
      <trkpt lat="43.66485" lon="1.40165">
        <ele>124</ele>
        <time>2025-04-10T16:49:36Z</time>
      </trkpt>
      <trkpt lat="43.66486" lon="1.40163">
        <ele>124</ele>
        <time>2025-04-10T16:49:37Z</time>
      </trkpt>
      <trkpt lat="43.66487" lon="1.4016">
        <ele>125</ele>
        <time>2025-04-10T16:49:38Z</time>
      </trkpt>
      <trkpt lat="43.66489" lon="1.40158">
        <ele>125</ele>
        <time>2025-04-10T16:49:39Z</time>
      </trkpt>
      <trkpt lat="43.66491" lon="1.40156">
        <ele>125</ele>
        <time>2025-04-10T16:49:40Z</time>
      </trkpt>
      <trkpt lat="43.66492" lon="1.40155">
        <ele>125</ele>
        <time>2025-04-10T16:49:41Z</time>
      </trkpt>
      <trkpt lat="43.66492" lon="1.40155">
        <ele>125</ele>
        <time>2025-04-10T16:49:42Z</time>
      </trkpt>
      <trkpt lat="43.66495" lon="1.40152">
        <ele>124</ele>
        <time>2025-04-10T16:49:43Z</time>
      </trkpt>
      <trkpt lat="43.66495" lon="1.40152">
        <ele>124</ele>
        <time>2025-04-10T16:49:44Z</time>
      </trkpt>
      <trkpt lat="43.66496" lon="1.40148">
        <ele>124</ele>
        <time>2025-04-10T16:49:45Z</time>
      </trkpt>
      <trkpt lat="43.66497" lon="1.40145">
        <ele>124</ele>
        <time>2025-04-10T16:49:46Z</time>
      </trkpt>
      <trkpt lat="43.66499" lon="1.40143">
        <ele>124</ele>
        <time>2025-04-10T16:49:47Z</time>
      </trkpt>
      <trkpt lat="43.66501" lon="1.4014">
        <ele>124</ele>
        <time>2025-04-10T16:49:48Z</time>
      </trkpt>
      <trkpt lat="43.66502" lon="1.40136">
        <ele>124</ele>
        <time>2025-04-10T16:49:49Z</time>
      </trkpt>
      <trkpt lat="43.66504" lon="1.40133">
        <ele>124</ele>
        <time>2025-04-10T16:49:50Z</time>
      </trkpt>
      <trkpt lat="43.66505" lon="1.4013">
        <ele>124</ele>
        <time>2025-04-10T16:49:51Z</time>
      </trkpt>
      <trkpt lat="43.66506" lon="1.40128">
        <ele>124</ele>
        <time>2025-04-10T16:49:52Z</time>
      </trkpt>
      <trkpt lat="43.66506" lon="1.40128">
        <ele>124</ele>
        <time>2025-04-10T16:49:53Z</time>
      </trkpt>
      <trkpt lat="43.66509" lon="1.40122">
        <ele>125</ele>
        <time>2025-04-10T16:49:54Z</time>
      </trkpt>
      <trkpt lat="43.6651" lon="1.4012">
        <ele>125</ele>
        <time>2025-04-10T16:49:55Z</time>
      </trkpt>
      <trkpt lat="43.66512" lon="1.40118">
        <ele>125</ele>
        <time>2025-04-10T16:49:56Z</time>
      </trkpt>
      <trkpt lat="43.66513" lon="1.40115">
        <ele>125</ele>
        <time>2025-04-10T16:49:57Z</time>
      </trkpt>
      <trkpt lat="43.66515" lon="1.40112">
        <ele>125</ele>
        <time>2025-04-10T16:49:58Z</time>
      </trkpt>
      <trkpt lat="43.66516" lon="1.40109">
        <ele>125</ele>
        <time>2025-04-10T16:49:59Z</time>
      </trkpt>
      <trkpt lat="43.66518" lon="1.40106">
        <ele>125</ele>
        <time>2025-04-10T16:50:00Z</time>
      </trkpt>
      <trkpt lat="43.6652" lon="1.40103">
        <ele>125</ele>
        <time>2025-04-10T16:50:01Z</time>
      </trkpt>
      <trkpt lat="43.66522" lon="1.40101">
        <ele>124</ele>
        <time>2025-04-10T16:50:02Z</time>
      </trkpt>
      <trkpt lat="43.66525" lon="1.40099">
        <ele>124</ele>
        <time>2025-04-10T16:50:03Z</time>
      </trkpt>
      <trkpt lat="43.66526" lon="1.40098">
        <ele>124</ele>
        <time>2025-04-10T16:50:04Z</time>
      </trkpt>
      <trkpt lat="43.66526" lon="1.40098">
        <ele>124</ele>
        <time>2025-04-10T16:50:05Z</time>
      </trkpt>
      <trkpt lat="43.66528" lon="1.40096">
        <ele>124</ele>
        <time>2025-04-10T16:50:06Z</time>
      </trkpt>
      <trkpt lat="43.66528" lon="1.40096">
        <ele>124</ele>
        <time>2025-04-10T16:50:07Z</time>
      </trkpt>
      <trkpt lat="43.66529" lon="1.40093">
        <ele>124</ele>
        <time>2025-04-10T16:50:08Z</time>
      </trkpt>
      <trkpt lat="43.6653" lon="1.4009">
        <ele>125</ele>
        <time>2025-04-10T16:50:09Z</time>
      </trkpt>
      <trkpt lat="43.66531" lon="1.40088">
        <ele>125</ele>
        <time>2025-04-10T16:50:10Z</time>
      </trkpt>
      <trkpt lat="43.66532" lon="1.40085">
        <ele>124</ele>
        <time>2025-04-10T16:50:11Z</time>
      </trkpt>
      <trkpt lat="43.66533" lon="1.40082">
        <ele>124</ele>
        <time>2025-04-10T16:50:12Z</time>
      </trkpt>
      <trkpt lat="43.66535" lon="1.40079">
        <ele>125</ele>
        <time>2025-04-10T16:50:13Z</time>
      </trkpt>
      <trkpt lat="43.66536" lon="1.40075">
        <ele>125</ele>
        <time>2025-04-10T16:50:14Z</time>
      </trkpt>
      <trkpt lat="43.66538" lon="1.40073">
        <ele>125</ele>
        <time>2025-04-10T16:50:15Z</time>
      </trkpt>
      <trkpt lat="43.66539" lon="1.4007">
        <ele>125</ele>
        <time>2025-04-10T16:50:16Z</time>
      </trkpt>
      <trkpt lat="43.66539" lon="1.4007">
        <ele>125</ele>
        <time>2025-04-10T16:50:17Z</time>
      </trkpt>
      <trkpt lat="43.66543" lon="1.40067">
        <ele>125</ele>
        <time>2025-04-10T16:50:18Z</time>
      </trkpt>
      <trkpt lat="43.66543" lon="1.40067">
        <ele>125</ele>
        <time>2025-04-10T16:50:19Z</time>
      </trkpt>
      <trkpt lat="43.66544" lon="1.40063">
        <ele>125</ele>
        <time>2025-04-10T16:50:20Z</time>
      </trkpt>
      <trkpt lat="43.66544" lon="1.40063">
        <ele>125</ele>
        <time>2025-04-10T16:50:21Z</time>
      </trkpt>
      <trkpt lat="43.66543" lon="1.40058">
        <ele>125</ele>
        <time>2025-04-10T16:50:22Z</time>
      </trkpt>
      <trkpt lat="43.66542" lon="1.40056">
        <ele>125</ele>
        <time>2025-04-10T16:50:23Z</time>
      </trkpt>
      <trkpt lat="43.66541" lon="1.40053">
        <ele>125</ele>
        <time>2025-04-10T16:50:24Z</time>
      </trkpt>
      <trkpt lat="43.6654" lon="1.40051">
        <ele>125</ele>
        <time>2025-04-10T16:50:25Z</time>
      </trkpt>
      <trkpt lat="43.66539" lon="1.40048">
        <ele>125</ele>
        <time>2025-04-10T16:50:26Z</time>
      </trkpt>
      <trkpt lat="43.66538" lon="1.40045">
        <ele>125</ele>
        <time>2025-04-10T16:50:27Z</time>
      </trkpt>
      <trkpt lat="43.66537" lon="1.40043">
        <ele>125</ele>
        <time>2025-04-10T16:50:28Z</time>
      </trkpt>
      <trkpt lat="43.66535" lon="1.4004">
        <ele>125</ele>
        <time>2025-04-10T16:50:29Z</time>
      </trkpt>
      <trkpt lat="43.66534" lon="1.40037">
        <ele>125</ele>
        <time>2025-04-10T16:50:30Z</time>
      </trkpt>
      <trkpt lat="43.66532" lon="1.40034">
        <ele>125</ele>
        <time>2025-04-10T16:50:31Z</time>
      </trkpt>
      <trkpt lat="43.6653" lon="1.40031">
        <ele>125</ele>
        <time>2025-04-10T16:50:32Z</time>
      </trkpt>
      <trkpt lat="43.6653" lon="1.40027">
        <ele>125</ele>
        <time>2025-04-10T16:50:33Z</time>
      </trkpt>
      <trkpt lat="43.66531" lon="1.40023">
        <ele>124</ele>
        <time>2025-04-10T16:50:34Z</time>
      </trkpt>
      <trkpt lat="43.66532" lon="1.4002">
        <ele>124</ele>
        <time>2025-04-10T16:50:35Z</time>
      </trkpt>
      <trkpt lat="43.66532" lon="1.4002">
        <ele>124</ele>
        <time>2025-04-10T16:50:36Z</time>
      </trkpt>
      <trkpt lat="43.6653" lon="1.40017">
        <ele>124</ele>
        <time>2025-04-10T16:50:37Z</time>
      </trkpt>
      <trkpt lat="43.66528" lon="1.40016">
        <ele>124</ele>
        <time>2025-04-10T16:50:38Z</time>
      </trkpt>
      <trkpt lat="43.66526" lon="1.40016">
        <ele>125</ele>
        <time>2025-04-10T16:50:39Z</time>
      </trkpt>
      <trkpt lat="43.66524" lon="1.40015">
        <ele>125</ele>
        <time>2025-04-10T16:50:40Z</time>
      </trkpt>
      <trkpt lat="43.66522" lon="1.40014">
        <ele>125</ele>
        <time>2025-04-10T16:50:41Z</time>
      </trkpt>
      <trkpt lat="43.6652" lon="1.40013">
        <ele>125</ele>
        <time>2025-04-10T16:50:42Z</time>
      </trkpt>
      <trkpt lat="43.66518" lon="1.40012">
        <ele>125</ele>
        <time>2025-04-10T16:50:43Z</time>
      </trkpt>
      <trkpt lat="43.66516" lon="1.40012">
        <ele>125</ele>
        <time>2025-04-10T16:50:44Z</time>
      </trkpt>
      <trkpt lat="43.66516" lon="1.40012">
        <ele>125</ele>
        <time>2025-04-10T16:50:45Z</time>
      </trkpt>
      <trkpt lat="43.66513" lon="1.40011">
        <ele>125</ele>
        <time>2025-04-10T16:50:46Z</time>
      </trkpt>
      <trkpt lat="43.66513" lon="1.40011">
        <ele>125</ele>
        <time>2025-04-10T16:50:47Z</time>
      </trkpt>
      <trkpt lat="43.66512" lon="1.40009">
        <ele>125</ele>
        <time>2025-04-10T16:50:48Z</time>
      </trkpt>
      <trkpt lat="43.66512" lon="1.40009">
        <ele>125</ele>
        <time>2025-04-10T16:50:49Z</time>
      </trkpt>
      <trkpt lat="43.66512" lon="1.40009">
        <ele>125</ele>
        <time>2025-04-10T16:50:50Z</time>
      </trkpt>
      <trkpt lat="43.6651" lon="1.40006">
        <ele>125</ele>
        <time>2025-04-10T16:50:51Z</time>
      </trkpt>
      <trkpt lat="43.6651" lon="1.40006">
        <ele>124</ele>
        <time>2025-04-10T16:50:52Z</time>
      </trkpt>
      <trkpt lat="43.66507" lon="1.40005">
        <ele>124</ele>
        <time>2025-04-10T16:50:53Z</time>
      </trkpt>
      <trkpt lat="43.66504" lon="1.40005">
        <ele>125</ele>
        <time>2025-04-10T16:50:54Z</time>
      </trkpt>
      <trkpt lat="43.66502" lon="1.40004">
        <ele>125</ele>
        <time>2025-04-10T16:50:55Z</time>
      </trkpt>
      <trkpt lat="43.66499" lon="1.40004">
        <ele>125</ele>
        <time>2025-04-10T16:50:56Z</time>
      </trkpt>
      <trkpt lat="43.66497" lon="1.40003">
        <ele>125</ele>
        <time>2025-04-10T16:50:57Z</time>
      </trkpt>
      <trkpt lat="43.66495" lon="1.40002">
        <ele>125</ele>
        <time>2025-04-10T16:50:58Z</time>
      </trkpt>
      <trkpt lat="43.66493" lon="1.40001">
        <ele>124</ele>
        <time>2025-04-10T16:50:59Z</time>
      </trkpt>
      <trkpt lat="43.6649" lon="1.4">
        <ele>124</ele>
        <time>2025-04-10T16:51:00Z</time>
      </trkpt>
      <trkpt lat="43.66488" lon="1.39998">
        <ele>125</ele>
        <time>2025-04-10T16:51:01Z</time>
      </trkpt>
      <trkpt lat="43.66485" lon="1.39997">
        <ele>125</ele>
        <time>2025-04-10T16:51:02Z</time>
      </trkpt>
      <trkpt lat="43.66483" lon="1.39996">
        <ele>125</ele>
        <time>2025-04-10T16:51:03Z</time>
      </trkpt>
      <trkpt lat="43.66481" lon="1.39995">
        <ele>125</ele>
        <time>2025-04-10T16:51:04Z</time>
      </trkpt>
      <trkpt lat="43.66481" lon="1.39995">
        <ele>125</ele>
        <time>2025-04-10T16:51:05Z</time>
      </trkpt>
      <trkpt lat="43.66479" lon="1.39991">
        <ele>125</ele>
        <time>2025-04-10T16:51:06Z</time>
      </trkpt>
      <trkpt lat="43.66477" lon="1.39989">
        <ele>125</ele>
        <time>2025-04-10T16:51:07Z</time>
      </trkpt>
      <trkpt lat="43.66476" lon="1.39986">
        <ele>125</ele>
        <time>2025-04-10T16:51:08Z</time>
      </trkpt>
      <trkpt lat="43.66474" lon="1.39983">
        <ele>125</ele>
        <time>2025-04-10T16:51:09Z</time>
      </trkpt>
      <trkpt lat="43.66472" lon="1.39979">
        <ele>125</ele>
        <time>2025-04-10T16:51:10Z</time>
      </trkpt>
      <trkpt lat="43.66471" lon="1.39976">
        <ele>125</ele>
        <time>2025-04-10T16:51:11Z</time>
      </trkpt>
      <trkpt lat="43.6647" lon="1.39973">
        <ele>125</ele>
        <time>2025-04-10T16:51:12Z</time>
      </trkpt>
      <trkpt lat="43.66468" lon="1.3997">
        <ele>125</ele>
        <time>2025-04-10T16:51:13Z</time>
      </trkpt>
      <trkpt lat="43.66466" lon="1.39967">
        <ele>124</ele>
        <time>2025-04-10T16:51:14Z</time>
      </trkpt>
      <trkpt lat="43.66464" lon="1.39964">
        <ele>124</ele>
        <time>2025-04-10T16:51:15Z</time>
      </trkpt>
      <trkpt lat="43.66462" lon="1.39962">
        <ele>124</ele>
        <time>2025-04-10T16:51:16Z</time>
      </trkpt>
      <trkpt lat="43.66461" lon="1.39958">
        <ele>124</ele>
        <time>2025-04-10T16:51:17Z</time>
      </trkpt>
      <trkpt lat="43.6646" lon="1.39955">
        <ele>124</ele>
        <time>2025-04-10T16:51:18Z</time>
      </trkpt>
      <trkpt lat="43.66458" lon="1.39952">
        <ele>124</ele>
        <time>2025-04-10T16:51:19Z</time>
      </trkpt>
      <trkpt lat="43.66456" lon="1.3995">
        <ele>124</ele>
        <time>2025-04-10T16:51:20Z</time>
      </trkpt>
      <trkpt lat="43.66454" lon="1.39946">
        <ele>124</ele>
        <time>2025-04-10T16:51:21Z</time>
      </trkpt>
      <trkpt lat="43.66452" lon="1.39943">
        <ele>124</ele>
        <time>2025-04-10T16:51:22Z</time>
      </trkpt>
      <trkpt lat="43.66451" lon="1.3994">
        <ele>124</ele>
        <time>2025-04-10T16:51:23Z</time>
      </trkpt>
      <trkpt lat="43.66449" lon="1.39936">
        <ele>124</ele>
        <time>2025-04-10T16:51:24Z</time>
      </trkpt>
      <trkpt lat="43.66447" lon="1.39932">
        <ele>124</ele>
        <time>2025-04-10T16:51:25Z</time>
      </trkpt>
      <trkpt lat="43.66445" lon="1.39928">
        <ele>124</ele>
        <time>2025-04-10T16:51:26Z</time>
      </trkpt>
      <trkpt lat="43.66443" lon="1.39925">
        <ele>124</ele>
        <time>2025-04-10T16:51:27Z</time>
      </trkpt>
      <trkpt lat="43.66442" lon="1.39921">
        <ele>124</ele>
        <time>2025-04-10T16:51:28Z</time>
      </trkpt>
      <trkpt lat="43.6644" lon="1.39917">
        <ele>124</ele>
        <time>2025-04-10T16:51:29Z</time>
      </trkpt>
      <trkpt lat="43.66439" lon="1.39914">
        <ele>124</ele>
        <time>2025-04-10T16:51:30Z</time>
      </trkpt>
      <trkpt lat="43.66438" lon="1.3991">
        <ele>124</ele>
        <time>2025-04-10T16:51:31Z</time>
      </trkpt>
      <trkpt lat="43.66436" lon="1.39908">
        <ele>124</ele>
        <time>2025-04-10T16:51:32Z</time>
      </trkpt>
      <trkpt lat="43.66435" lon="1.39905">
        <ele>124</ele>
        <time>2025-04-10T16:51:33Z</time>
      </trkpt>
      <trkpt lat="43.66433" lon="1.39901">
        <ele>124</ele>
        <time>2025-04-10T16:51:34Z</time>
      </trkpt>
      <trkpt lat="43.66432" lon="1.39898">
        <ele>124</ele>
        <time>2025-04-10T16:51:35Z</time>
      </trkpt>
      <trkpt lat="43.66431" lon="1.39895">
        <ele>124</ele>
        <time>2025-04-10T16:51:36Z</time>
      </trkpt>
      <trkpt lat="43.66429" lon="1.39892">
        <ele>124</ele>
        <time>2025-04-10T16:51:37Z</time>
      </trkpt>
      <trkpt lat="43.66427" lon="1.39889">
        <ele>123</ele>
        <time>2025-04-10T16:51:38Z</time>
      </trkpt>
      <trkpt lat="43.66426" lon="1.39886">
        <ele>123</ele>
        <time>2025-04-10T16:51:39Z</time>
      </trkpt>
      <trkpt lat="43.66424" lon="1.39884">
        <ele>123</ele>
        <time>2025-04-10T16:51:40Z</time>
      </trkpt>
      <trkpt lat="43.66423" lon="1.3988">
        <ele>123</ele>
        <time>2025-04-10T16:51:41Z</time>
      </trkpt>
      <trkpt lat="43.66421" lon="1.39877">
        <ele>123</ele>
        <time>2025-04-10T16:51:42Z</time>
      </trkpt>
      <trkpt lat="43.6642" lon="1.39874">
        <ele>123</ele>
        <time>2025-04-10T16:51:43Z</time>
      </trkpt>
      <trkpt lat="43.66418" lon="1.39871">
        <ele>123</ele>
        <time>2025-04-10T16:51:44Z</time>
      </trkpt>
      <trkpt lat="43.66417" lon="1.39868">
        <ele>124</ele>
        <time>2025-04-10T16:51:45Z</time>
      </trkpt>
      <trkpt lat="43.66415" lon="1.39865">
        <ele>124</ele>
        <time>2025-04-10T16:51:46Z</time>
      </trkpt>
      <trkpt lat="43.66414" lon="1.39861">
        <ele>124</ele>
        <time>2025-04-10T16:51:47Z</time>
      </trkpt>
      <trkpt lat="43.66414" lon="1.39857">
        <ele>124</ele>
        <time>2025-04-10T16:51:48Z</time>
      </trkpt>
      <trkpt lat="43.66413" lon="1.39853">
        <ele>124</ele>
        <time>2025-04-10T16:51:49Z</time>
      </trkpt>
      <trkpt lat="43.66412" lon="1.39849">
        <ele>124</ele>
        <time>2025-04-10T16:51:50Z</time>
      </trkpt>
      <trkpt lat="43.66411" lon="1.39845">
        <ele>124</ele>
        <time>2025-04-10T16:51:51Z</time>
      </trkpt>
      <trkpt lat="43.6641" lon="1.39842">
        <ele>124</ele>
        <time>2025-04-10T16:51:52Z</time>
      </trkpt>
      <trkpt lat="43.66409" lon="1.39838">
        <ele>124</ele>
        <time>2025-04-10T16:51:53Z</time>
      </trkpt>
      <trkpt lat="43.66409" lon="1.39834">
        <ele>124</ele>
        <time>2025-04-10T16:51:54Z</time>
      </trkpt>
      <trkpt lat="43.66408" lon="1.3983">
        <ele>124</ele>
        <time>2025-04-10T16:51:55Z</time>
      </trkpt>
      <trkpt lat="43.66407" lon="1.39827">
        <ele>124</ele>
        <time>2025-04-10T16:51:56Z</time>
      </trkpt>
      <trkpt lat="43.66405" lon="1.39824">
        <ele>124</ele>
        <time>2025-04-10T16:51:57Z</time>
      </trkpt>
      <trkpt lat="43.66403" lon="1.39821">
        <ele>124</ele>
        <time>2025-04-10T16:51:58Z</time>
      </trkpt>
      <trkpt lat="43.66402" lon="1.39818">
        <ele>124</ele>
        <time>2025-04-10T16:51:59Z</time>
      </trkpt>
      <trkpt lat="43.66401" lon="1.39815">
        <ele>124</ele>
        <time>2025-04-10T16:52:00Z</time>
      </trkpt>
      <trkpt lat="43.66399" lon="1.39811">
        <ele>124</ele>
        <time>2025-04-10T16:52:01Z</time>
      </trkpt>
      <trkpt lat="43.66397" lon="1.39809">
        <ele>124</ele>
        <time>2025-04-10T16:52:02Z</time>
      </trkpt>
      <trkpt lat="43.66395" lon="1.39807">
        <ele>124</ele>
        <time>2025-04-10T16:52:03Z</time>
      </trkpt>
      <trkpt lat="43.66393" lon="1.39804">
        <ele>124</ele>
        <time>2025-04-10T16:52:04Z</time>
      </trkpt>
      <trkpt lat="43.66391" lon="1.39803">
        <ele>124</ele>
        <time>2025-04-10T16:52:05Z</time>
      </trkpt>
      <trkpt lat="43.66389" lon="1.39801">
        <ele>124</ele>
        <time>2025-04-10T16:52:06Z</time>
      </trkpt>
      <trkpt lat="43.66387" lon="1.39798">
        <ele>124</ele>
        <time>2025-04-10T16:52:07Z</time>
      </trkpt>
      <trkpt lat="43.66385" lon="1.39795">
        <ele>124</ele>
        <time>2025-04-10T16:52:08Z</time>
      </trkpt>
      <trkpt lat="43.66383" lon="1.39793">
        <ele>124</ele>
        <time>2025-04-10T16:52:09Z</time>
      </trkpt>
      <trkpt lat="43.66381" lon="1.39792">
        <ele>125</ele>
        <time>2025-04-10T16:52:10Z</time>
      </trkpt>
      <trkpt lat="43.66379" lon="1.39791">
        <ele>125</ele>
        <time>2025-04-10T16:52:11Z</time>
      </trkpt>
      <trkpt lat="43.66376" lon="1.39792">
        <ele>125</ele>
        <time>2025-04-10T16:52:12Z</time>
      </trkpt>
      <trkpt lat="43.66374" lon="1.39791">
        <ele>125</ele>
        <time>2025-04-10T16:52:13Z</time>
      </trkpt>
      <trkpt lat="43.66371" lon="1.39791">
        <ele>125</ele>
        <time>2025-04-10T16:52:14Z</time>
      </trkpt>
      <trkpt lat="43.66369" lon="1.39792">
        <ele>125</ele>
        <time>2025-04-10T16:52:15Z</time>
      </trkpt>
      <trkpt lat="43.66366" lon="1.39793">
        <ele>125</ele>
        <time>2025-04-10T16:52:16Z</time>
      </trkpt>
      <trkpt lat="43.66364" lon="1.39793">
        <ele>125</ele>
        <time>2025-04-10T16:52:17Z</time>
      </trkpt>
      <trkpt lat="43.66362" lon="1.39793">
        <ele>125</ele>
        <time>2025-04-10T16:52:18Z</time>
      </trkpt>
      <trkpt lat="43.66359" lon="1.39794">
        <ele>125</ele>
        <time>2025-04-10T16:52:19Z</time>
      </trkpt>
      <trkpt lat="43.66357" lon="1.39794">
        <ele>125</ele>
        <time>2025-04-10T16:52:20Z</time>
      </trkpt>
      <trkpt lat="43.66354" lon="1.39793">
        <ele>125</ele>
        <time>2025-04-10T16:52:21Z</time>
      </trkpt>
      <trkpt lat="43.66351" lon="1.39792">
        <ele>125</ele>
        <time>2025-04-10T16:52:22Z</time>
      </trkpt>
      <trkpt lat="43.66349" lon="1.3979">
        <ele>125</ele>
        <time>2025-04-10T16:52:23Z</time>
      </trkpt>
      <trkpt lat="43.66346" lon="1.39787">
        <ele>125</ele>
        <time>2025-04-10T16:52:24Z</time>
      </trkpt>
      <trkpt lat="43.66344" lon="1.39785">
        <ele>125</ele>
        <time>2025-04-10T16:52:25Z</time>
      </trkpt>
      <trkpt lat="43.66342" lon="1.39782">
        <ele>125</ele>
        <time>2025-04-10T16:52:26Z</time>
      </trkpt>
      <trkpt lat="43.66341" lon="1.39779">
        <ele>125</ele>
        <time>2025-04-10T16:52:27Z</time>
      </trkpt>
      <trkpt lat="43.6634" lon="1.39776">
        <ele>125</ele>
        <time>2025-04-10T16:52:28Z</time>
      </trkpt>
      <trkpt lat="43.6634" lon="1.39772">
        <ele>124</ele>
        <time>2025-04-10T16:52:29Z</time>
      </trkpt>
      <trkpt lat="43.66339" lon="1.39768">
        <ele>124</ele>
        <time>2025-04-10T16:52:30Z</time>
      </trkpt>
      <trkpt lat="43.66338" lon="1.39765">
        <ele>124</ele>
        <time>2025-04-10T16:52:31Z</time>
      </trkpt>
      <trkpt lat="43.66338" lon="1.39761">
        <ele>124</ele>
        <time>2025-04-10T16:52:32Z</time>
      </trkpt>
      <trkpt lat="43.66337" lon="1.39757">
        <ele>124</ele>
        <time>2025-04-10T16:52:33Z</time>
      </trkpt>
      <trkpt lat="43.66337" lon="1.39753">
        <ele>124</ele>
        <time>2025-04-10T16:52:34Z</time>
      </trkpt>
      <trkpt lat="43.66336" lon="1.39749">
        <ele>124</ele>
        <time>2025-04-10T16:52:35Z</time>
      </trkpt>
      <trkpt lat="43.66336" lon="1.39746">
        <ele>124</ele>
        <time>2025-04-10T16:52:36Z</time>
      </trkpt>
      <trkpt lat="43.66335" lon="1.39743">
        <ele>124</ele>
        <time>2025-04-10T16:52:37Z</time>
      </trkpt>
      <trkpt lat="43.66334" lon="1.3974">
        <ele>124</ele>
        <time>2025-04-10T16:52:38Z</time>
      </trkpt>
      <trkpt lat="43.66333" lon="1.39736">
        <ele>124</ele>
        <time>2025-04-10T16:52:39Z</time>
      </trkpt>
      <trkpt lat="43.66332" lon="1.39733">
        <ele>125</ele>
        <time>2025-04-10T16:52:40Z</time>
      </trkpt>
      <trkpt lat="43.66331" lon="1.39729">
        <ele>125</ele>
        <time>2025-04-10T16:52:41Z</time>
      </trkpt>
      <trkpt lat="43.66331" lon="1.39725">
        <ele>125</ele>
        <time>2025-04-10T16:52:42Z</time>
      </trkpt>
      <trkpt lat="43.6633" lon="1.39722">
        <ele>125</ele>
        <time>2025-04-10T16:52:43Z</time>
      </trkpt>
      <trkpt lat="43.66328" lon="1.39718">
        <ele>125</ele>
        <time>2025-04-10T16:52:44Z</time>
      </trkpt>
      <trkpt lat="43.66327" lon="1.39714">
        <ele>125</ele>
        <time>2025-04-10T16:52:45Z</time>
      </trkpt>
      <trkpt lat="43.66327" lon="1.3971">
        <ele>125</ele>
        <time>2025-04-10T16:52:46Z</time>
      </trkpt>
      <trkpt lat="43.66327" lon="1.39707">
        <ele>125</ele>
        <time>2025-04-10T16:52:47Z</time>
      </trkpt>
      <trkpt lat="43.66326" lon="1.39703">
        <ele>125</ele>
        <time>2025-04-10T16:52:48Z</time>
      </trkpt>
      <trkpt lat="43.66326" lon="1.397">
        <ele>125</ele>
        <time>2025-04-10T16:52:49Z</time>
      </trkpt>
      <trkpt lat="43.66325" lon="1.39696">
        <ele>125</ele>
        <time>2025-04-10T16:52:50Z</time>
      </trkpt>
      <trkpt lat="43.66324" lon="1.39692">
        <ele>125</ele>
        <time>2025-04-10T16:52:51Z</time>
      </trkpt>
      <trkpt lat="43.66323" lon="1.39689">
        <ele>125</ele>
        <time>2025-04-10T16:52:52Z</time>
      </trkpt>
      <trkpt lat="43.66322" lon="1.39686">
        <ele>125</ele>
        <time>2025-04-10T16:52:53Z</time>
      </trkpt>
      <trkpt lat="43.66322" lon="1.39682">
        <ele>125</ele>
        <time>2025-04-10T16:52:54Z</time>
      </trkpt>
      <trkpt lat="43.6632" lon="1.39679">
        <ele>125</ele>
        <time>2025-04-10T16:52:55Z</time>
      </trkpt>
      <trkpt lat="43.66319" lon="1.39675">
        <ele>125</ele>
        <time>2025-04-10T16:52:56Z</time>
      </trkpt>
      <trkpt lat="43.66318" lon="1.39671">
        <ele>125</ele>
        <time>2025-04-10T16:52:57Z</time>
      </trkpt>
      <trkpt lat="43.66317" lon="1.39667">
        <ele>125</ele>
        <time>2025-04-10T16:52:58Z</time>
      </trkpt>
      <trkpt lat="43.66316" lon="1.39664">
        <ele>124</ele>
        <time>2025-04-10T16:52:59Z</time>
      </trkpt>
      <trkpt lat="43.66315" lon="1.3966">
        <ele>124</ele>
        <time>2025-04-10T16:53:00Z</time>
      </trkpt>
      <trkpt lat="43.66314" lon="1.39656">
        <ele>124</ele>
        <time>2025-04-10T16:53:01Z</time>
      </trkpt>
      <trkpt lat="43.66313" lon="1.39653">
        <ele>124</ele>
        <time>2025-04-10T16:53:02Z</time>
      </trkpt>
      <trkpt lat="43.66312" lon="1.39649">
        <ele>124</ele>
        <time>2025-04-10T16:53:03Z</time>
      </trkpt>
      <trkpt lat="43.66311" lon="1.39645">
        <ele>124</ele>
        <time>2025-04-10T16:53:04Z</time>
      </trkpt>
      <trkpt lat="43.6631" lon="1.39641">
        <ele>124</ele>
        <time>2025-04-10T16:53:05Z</time>
      </trkpt>
      <trkpt lat="43.6631" lon="1.39638">
        <ele>125</ele>
        <time>2025-04-10T16:53:06Z</time>
      </trkpt>
      <trkpt lat="43.66309" lon="1.39634">
        <ele>125</ele>
        <time>2025-04-10T16:53:07Z</time>
      </trkpt>
      <trkpt lat="43.66308" lon="1.3963">
        <ele>125</ele>
        <time>2025-04-10T16:53:08Z</time>
      </trkpt>
      <trkpt lat="43.66308" lon="1.39626">
        <ele>125</ele>
        <time>2025-04-10T16:53:09Z</time>
      </trkpt>
      <trkpt lat="43.66307" lon="1.39622">
        <ele>126</ele>
        <time>2025-04-10T16:53:10Z</time>
      </trkpt>
      <trkpt lat="43.66306" lon="1.39618">
        <ele>126</ele>
        <time>2025-04-10T16:53:11Z</time>
      </trkpt>
      <trkpt lat="43.66305" lon="1.39614">
        <ele>126</ele>
        <time>2025-04-10T16:53:12Z</time>
      </trkpt>
      <trkpt lat="43.66304" lon="1.3961">
        <ele>126</ele>
        <time>2025-04-10T16:53:13Z</time>
      </trkpt>
      <trkpt lat="43.66302" lon="1.39607">
        <ele>126</ele>
        <time>2025-04-10T16:53:14Z</time>
      </trkpt>
      <trkpt lat="43.66301" lon="1.39603">
        <ele>126</ele>
        <time>2025-04-10T16:53:15Z</time>
      </trkpt>
      <trkpt lat="43.66299" lon="1.396">
        <ele>126</ele>
        <time>2025-04-10T16:53:16Z</time>
      </trkpt>
      <trkpt lat="43.66298" lon="1.39598">
        <ele>126</ele>
        <time>2025-04-10T16:53:17Z</time>
      </trkpt>
      <trkpt lat="43.66296" lon="1.39596">
        <ele>125</ele>
        <time>2025-04-10T16:53:18Z</time>
      </trkpt>
      <trkpt lat="43.66294" lon="1.39593">
        <ele>125</ele>
        <time>2025-04-10T16:53:19Z</time>
      </trkpt>
      <trkpt lat="43.66291" lon="1.39591">
        <ele>125</ele>
        <time>2025-04-10T16:53:20Z</time>
      </trkpt>
      <trkpt lat="43.66289" lon="1.39589">
        <ele>125</ele>
        <time>2025-04-10T16:53:21Z</time>
      </trkpt>
      <trkpt lat="43.66287" lon="1.39587">
        <ele>125</ele>
        <time>2025-04-10T16:53:22Z</time>
      </trkpt>
      <trkpt lat="43.66285" lon="1.39584">
        <ele>124</ele>
        <time>2025-04-10T16:53:23Z</time>
      </trkpt>
      <trkpt lat="43.66282" lon="1.39582">
        <ele>124</ele>
        <time>2025-04-10T16:53:24Z</time>
      </trkpt>
      <trkpt lat="43.6628" lon="1.3958">
        <ele>124</ele>
        <time>2025-04-10T16:53:25Z</time>
      </trkpt>
      <trkpt lat="43.66277" lon="1.39577">
        <ele>124</ele>
        <time>2025-04-10T16:53:26Z</time>
      </trkpt>
      <trkpt lat="43.66276" lon="1.39574">
        <ele>124</ele>
        <time>2025-04-10T16:53:27Z</time>
      </trkpt>
      <trkpt lat="43.66274" lon="1.39571">
        <ele>124</ele>
        <time>2025-04-10T16:53:28Z</time>
      </trkpt>
      <trkpt lat="43.66273" lon="1.39568">
        <ele>124</ele>
        <time>2025-04-10T16:53:29Z</time>
      </trkpt>
      <trkpt lat="43.66271" lon="1.39564">
        <ele>124</ele>
        <time>2025-04-10T16:53:30Z</time>
      </trkpt>
      <trkpt lat="43.6627" lon="1.39561">
        <ele>124</ele>
        <time>2025-04-10T16:53:31Z</time>
      </trkpt>
      <trkpt lat="43.66269" lon="1.39557">
        <ele>124</ele>
        <time>2025-04-10T16:53:32Z</time>
      </trkpt>
      <trkpt lat="43.66268" lon="1.39553">
        <ele>124</ele>
        <time>2025-04-10T16:53:33Z</time>
      </trkpt>
      <trkpt lat="43.66269" lon="1.39548">
        <ele>124</ele>
        <time>2025-04-10T16:53:34Z</time>
      </trkpt>
      <trkpt lat="43.6627" lon="1.39544">
        <ele>124</ele>
        <time>2025-04-10T16:53:35Z</time>
      </trkpt>
      <trkpt lat="43.66271" lon="1.3954">
        <ele>124</ele>
        <time>2025-04-10T16:53:36Z</time>
      </trkpt>
      <trkpt lat="43.66273" lon="1.39536">
        <ele>124</ele>
        <time>2025-04-10T16:53:37Z</time>
      </trkpt>
      <trkpt lat="43.66274" lon="1.39533">
        <ele>124</ele>
        <time>2025-04-10T16:53:38Z</time>
      </trkpt>
      <trkpt lat="43.66276" lon="1.3953">
        <ele>124</ele>
        <time>2025-04-10T16:53:39Z</time>
      </trkpt>
      <trkpt lat="43.66278" lon="1.39527">
        <ele>124</ele>
        <time>2025-04-10T16:53:40Z</time>
      </trkpt>
      <trkpt lat="43.6628" lon="1.39524">
        <ele>124</ele>
        <time>2025-04-10T16:53:41Z</time>
      </trkpt>
      <trkpt lat="43.66281" lon="1.3952">
        <ele>124</ele>
        <time>2025-04-10T16:53:42Z</time>
      </trkpt>
      <trkpt lat="43.66284" lon="1.39517">
        <ele>124</ele>
        <time>2025-04-10T16:53:43Z</time>
      </trkpt>
      <trkpt lat="43.66286" lon="1.39515">
        <ele>124</ele>
        <time>2025-04-10T16:53:44Z</time>
      </trkpt>
      <trkpt lat="43.66289" lon="1.39513">
        <ele>124</ele>
        <time>2025-04-10T16:53:45Z</time>
      </trkpt>
      <trkpt lat="43.66291" lon="1.39513">
        <ele>124</ele>
        <time>2025-04-10T16:53:46Z</time>
      </trkpt>
      <trkpt lat="43.66293" lon="1.39513">
        <ele>124</ele>
        <time>2025-04-10T16:53:47Z</time>
      </trkpt>
      <trkpt lat="43.66288" lon="1.39518">
        <ele>124</ele>
        <time>2025-04-10T16:57:47Z</time>
      </trkpt>
      <trkpt lat="43.66288" lon="1.39516">
        <ele>124</ele>
        <time>2025-04-10T16:57:48Z</time>
      </trkpt>
      <trkpt lat="43.66288" lon="1.39516">
        <ele>124</ele>
        <time>2025-04-10T16:57:49Z</time>
      </trkpt>
      <trkpt lat="43.66289" lon="1.39512">
        <ele>124</ele>
        <time>2025-04-10T16:57:50Z</time>
      </trkpt>
      <trkpt lat="43.66289" lon="1.3951">
        <ele>124</ele>
        <time>2025-04-10T16:57:51Z</time>
      </trkpt>
      <trkpt lat="43.6629" lon="1.39507">
        <ele>124</ele>
        <time>2025-04-10T16:57:52Z</time>
      </trkpt>
      <trkpt lat="43.66291" lon="1.39504">
        <ele>124</ele>
        <time>2025-04-10T16:57:53Z</time>
      </trkpt>
      <trkpt lat="43.66292" lon="1.39501">
        <ele>124</ele>
        <time>2025-04-10T16:57:54Z</time>
      </trkpt>
      <trkpt lat="43.66293" lon="1.39498">
        <ele>124</ele>
        <time>2025-04-10T16:57:55Z</time>
      </trkpt>
      <trkpt lat="43.66294" lon="1.39495">
        <ele>124</ele>
        <time>2025-04-10T16:57:56Z</time>
      </trkpt>
      <trkpt lat="43.66294" lon="1.39492">
        <ele>124</ele>
        <time>2025-04-10T16:57:57Z</time>
      </trkpt>
      <trkpt lat="43.66295" lon="1.39489">
        <ele>124</ele>
        <time>2025-04-10T16:57:58Z</time>
      </trkpt>
      <trkpt lat="43.66296" lon="1.39485">
        <ele>124</ele>
        <time>2025-04-10T16:57:59Z</time>
      </trkpt>
      <trkpt lat="43.66296" lon="1.39481">
        <ele>124</ele>
        <time>2025-04-10T16:58:00Z</time>
      </trkpt>
      <trkpt lat="43.66297" lon="1.39477">
        <ele>124</ele>
        <time>2025-04-10T16:58:01Z</time>
      </trkpt>
      <trkpt lat="43.66298" lon="1.39473">
        <ele>124</ele>
        <time>2025-04-10T16:58:02Z</time>
      </trkpt>
      <trkpt lat="43.66299" lon="1.3947">
        <ele>124</ele>
        <time>2025-04-10T16:58:03Z</time>
      </trkpt>
      <trkpt lat="43.663" lon="1.39467">
        <ele>124</ele>
        <time>2025-04-10T16:58:04Z</time>
      </trkpt>
      <trkpt lat="43.66302" lon="1.39463">
        <ele>124</ele>
        <time>2025-04-10T16:58:05Z</time>
      </trkpt>
      <trkpt lat="43.66303" lon="1.39461">
        <ele>124</ele>
        <time>2025-04-10T16:58:06Z</time>
      </trkpt>
      <trkpt lat="43.66304" lon="1.39458">
        <ele>124</ele>
        <time>2025-04-10T16:58:07Z</time>
      </trkpt>
      <trkpt lat="43.66305" lon="1.39455">
        <ele>124</ele>
        <time>2025-04-10T16:58:08Z</time>
      </trkpt>
      <trkpt lat="43.66306" lon="1.39452">
        <ele>124</ele>
        <time>2025-04-10T16:58:09Z</time>
      </trkpt>
      <trkpt lat="43.66307" lon="1.39449">
        <ele>125</ele>
        <time>2025-04-10T16:58:10Z</time>
      </trkpt>
      <trkpt lat="43.66308" lon="1.39445">
        <ele>125</ele>
        <time>2025-04-10T16:58:11Z</time>
      </trkpt>
      <trkpt lat="43.66309" lon="1.39441">
        <ele>124</ele>
        <time>2025-04-10T16:58:12Z</time>
      </trkpt>
      <trkpt lat="43.6631" lon="1.39438">
        <ele>124</ele>
        <time>2025-04-10T16:58:13Z</time>
      </trkpt>
      <trkpt lat="43.66311" lon="1.39435">
        <ele>125</ele>
        <time>2025-04-10T16:58:14Z</time>
      </trkpt>
      <trkpt lat="43.66311" lon="1.39432">
        <ele>125</ele>
        <time>2025-04-10T16:58:15Z</time>
      </trkpt>
      <trkpt lat="43.66312" lon="1.39428">
        <ele>124</ele>
        <time>2025-04-10T16:58:16Z</time>
      </trkpt>
      <trkpt lat="43.66313" lon="1.39425">
        <ele>124</ele>
        <time>2025-04-10T16:58:17Z</time>
      </trkpt>
      <trkpt lat="43.66314" lon="1.39421">
        <ele>124</ele>
        <time>2025-04-10T16:58:18Z</time>
      </trkpt>
      <trkpt lat="43.66315" lon="1.39418">
        <ele>125</ele>
        <time>2025-04-10T16:58:19Z</time>
      </trkpt>
      <trkpt lat="43.66316" lon="1.39414">
        <ele>125</ele>
        <time>2025-04-10T16:58:20Z</time>
      </trkpt>
      <trkpt lat="43.66317" lon="1.3941">
        <ele>125</ele>
        <time>2025-04-10T16:58:21Z</time>
      </trkpt>
      <trkpt lat="43.66317" lon="1.39406">
        <ele>125</ele>
        <time>2025-04-10T16:58:22Z</time>
      </trkpt>
      <trkpt lat="43.66318" lon="1.39403">
        <ele>125</ele>
        <time>2025-04-10T16:58:23Z</time>
      </trkpt>
      <trkpt lat="43.66319" lon="1.39399">
        <ele>125</ele>
        <time>2025-04-10T16:58:24Z</time>
      </trkpt>
      <trkpt lat="43.66319" lon="1.39395">
        <ele>125</ele>
        <time>2025-04-10T16:58:25Z</time>
      </trkpt>
      <trkpt lat="43.6632" lon="1.39392">
        <ele>125</ele>
        <time>2025-04-10T16:58:26Z</time>
      </trkpt>
      <trkpt lat="43.6632" lon="1.39388">
        <ele>125</ele>
        <time>2025-04-10T16:58:27Z</time>
      </trkpt>
      <trkpt lat="43.6632" lon="1.39385">
        <ele>125</ele>
        <time>2025-04-10T16:58:28Z</time>
      </trkpt>
      <trkpt lat="43.6632" lon="1.39382">
        <ele>125</ele>
        <time>2025-04-10T16:58:29Z</time>
      </trkpt>
      <trkpt lat="43.6632" lon="1.39378">
        <ele>125</ele>
        <time>2025-04-10T16:58:30Z</time>
      </trkpt>
      <trkpt lat="43.66319" lon="1.39375">
        <ele>125</ele>
        <time>2025-04-10T16:58:31Z</time>
      </trkpt>
      <trkpt lat="43.66319" lon="1.39372">
        <ele>125</ele>
        <time>2025-04-10T16:58:32Z</time>
      </trkpt>
      <trkpt lat="43.66318" lon="1.39369">
        <ele>125</ele>
        <time>2025-04-10T16:58:33Z</time>
      </trkpt>
      <trkpt lat="43.66318" lon="1.39365">
        <ele>125</ele>
        <time>2025-04-10T16:58:34Z</time>
      </trkpt>
      <trkpt lat="43.66317" lon="1.39362">
        <ele>125</ele>
        <time>2025-04-10T16:58:35Z</time>
      </trkpt>
      <trkpt lat="43.66316" lon="1.39359">
        <ele>125</ele>
        <time>2025-04-10T16:58:36Z</time>
      </trkpt>
      <trkpt lat="43.66316" lon="1.39355">
        <ele>125</ele>
        <time>2025-04-10T16:58:37Z</time>
      </trkpt>
      <trkpt lat="43.66315" lon="1.39352">
        <ele>125</ele>
        <time>2025-04-10T16:58:38Z</time>
      </trkpt>
      <trkpt lat="43.66315" lon="1.39349">
        <ele>125</ele>
        <time>2025-04-10T16:58:39Z</time>
      </trkpt>
      <trkpt lat="43.66315" lon="1.39346">
        <ele>125</ele>
        <time>2025-04-10T16:58:40Z</time>
      </trkpt>
      <trkpt lat="43.66315" lon="1.39343">
        <ele>125</ele>
        <time>2025-04-10T16:58:41Z</time>
      </trkpt>
      <trkpt lat="43.66315" lon="1.3934">
        <ele>125</ele>
        <time>2025-04-10T16:58:42Z</time>
      </trkpt>
      <trkpt lat="43.66315" lon="1.39337">
        <ele>125</ele>
        <time>2025-04-10T16:58:43Z</time>
      </trkpt>
      <trkpt lat="43.66314" lon="1.39334">
        <ele>125</ele>
        <time>2025-04-10T16:58:44Z</time>
      </trkpt>
      <trkpt lat="43.66313" lon="1.39331">
        <ele>125</ele>
        <time>2025-04-10T16:58:45Z</time>
      </trkpt>
      <trkpt lat="43.66313" lon="1.39328">
        <ele>125</ele>
        <time>2025-04-10T16:58:46Z</time>
      </trkpt>
      <trkpt lat="43.66312" lon="1.39325">
        <ele>125</ele>
        <time>2025-04-10T16:58:47Z</time>
      </trkpt>
      <trkpt lat="43.66311" lon="1.39323">
        <ele>125</ele>
        <time>2025-04-10T16:58:48Z</time>
      </trkpt>
      <trkpt lat="43.66309" lon="1.39321">
        <ele>125</ele>
        <time>2025-04-10T16:58:49Z</time>
      </trkpt>
      <trkpt lat="43.66307" lon="1.39318">
        <ele>125</ele>
        <time>2025-04-10T16:58:50Z</time>
      </trkpt>
      <trkpt lat="43.66306" lon="1.39316">
        <ele>125</ele>
        <time>2025-04-10T16:58:51Z</time>
      </trkpt>
      <trkpt lat="43.66304" lon="1.39313">
        <ele>125</ele>
        <time>2025-04-10T16:58:52Z</time>
      </trkpt>
      <trkpt lat="43.66303" lon="1.3931">
        <ele>125</ele>
        <time>2025-04-10T16:58:53Z</time>
      </trkpt>
      <trkpt lat="43.66301" lon="1.39308">
        <ele>125</ele>
        <time>2025-04-10T16:58:54Z</time>
      </trkpt>
      <trkpt lat="43.663" lon="1.39305">
        <ele>125</ele>
        <time>2025-04-10T16:58:55Z</time>
      </trkpt>
      <trkpt lat="43.66298" lon="1.39303">
        <ele>125</ele>
        <time>2025-04-10T16:58:56Z</time>
      </trkpt>
      <trkpt lat="43.66297" lon="1.393">
        <ele>125</ele>
        <time>2025-04-10T16:58:57Z</time>
      </trkpt>
      <trkpt lat="43.66296" lon="1.39298">
        <ele>125</ele>
        <time>2025-04-10T16:58:58Z</time>
      </trkpt>
      <trkpt lat="43.66294" lon="1.39295">
        <ele>126</ele>
        <time>2025-04-10T16:58:59Z</time>
      </trkpt>
      <trkpt lat="43.66293" lon="1.39292">
        <ele>126</ele>
        <time>2025-04-10T16:59:00Z</time>
      </trkpt>
      <trkpt lat="43.66291" lon="1.39289">
        <ele>126</ele>
        <time>2025-04-10T16:59:01Z</time>
      </trkpt>
      <trkpt lat="43.6629" lon="1.39286">
        <ele>126</ele>
        <time>2025-04-10T16:59:02Z</time>
      </trkpt>
      <trkpt lat="43.66288" lon="1.39284">
        <ele>126</ele>
        <time>2025-04-10T16:59:03Z</time>
      </trkpt>
      <trkpt lat="43.66287" lon="1.39281">
        <ele>126</ele>
        <time>2025-04-10T16:59:04Z</time>
      </trkpt>
      <trkpt lat="43.66285" lon="1.39278">
        <ele>126</ele>
        <time>2025-04-10T16:59:05Z</time>
      </trkpt>
      <trkpt lat="43.66283" lon="1.39276">
        <ele>126</ele>
        <time>2025-04-10T16:59:06Z</time>
      </trkpt>
      <trkpt lat="43.66282" lon="1.39273">
        <ele>126</ele>
        <time>2025-04-10T16:59:07Z</time>
      </trkpt>
      <trkpt lat="43.66281" lon="1.3927">
        <ele>126</ele>
        <time>2025-04-10T16:59:08Z</time>
      </trkpt>
      <trkpt lat="43.6628" lon="1.39267">
        <ele>126</ele>
        <time>2025-04-10T16:59:09Z</time>
      </trkpt>
      <trkpt lat="43.66278" lon="1.39264">
        <ele>126</ele>
        <time>2025-04-10T16:59:10Z</time>
      </trkpt>
      <trkpt lat="43.66277" lon="1.39262">
        <ele>126</ele>
        <time>2025-04-10T16:59:11Z</time>
      </trkpt>
      <trkpt lat="43.66275" lon="1.39259">
        <ele>126</ele>
        <time>2025-04-10T16:59:12Z</time>
      </trkpt>
      <trkpt lat="43.66274" lon="1.39256">
        <ele>126</ele>
        <time>2025-04-10T16:59:13Z</time>
      </trkpt>
      <trkpt lat="43.66273" lon="1.39253">
        <ele>126</ele>
        <time>2025-04-10T16:59:14Z</time>
      </trkpt>
      <trkpt lat="43.66271" lon="1.39251">
        <ele>126</ele>
        <time>2025-04-10T16:59:15Z</time>
      </trkpt>
      <trkpt lat="43.6627" lon="1.39247">
        <ele>125</ele>
        <time>2025-04-10T16:59:16Z</time>
      </trkpt>
      <trkpt lat="43.66268" lon="1.39243">
        <ele>126</ele>
        <time>2025-04-10T16:59:17Z</time>
      </trkpt>
      <trkpt lat="43.66267" lon="1.39239">
        <ele>126</ele>
        <time>2025-04-10T16:59:18Z</time>
      </trkpt>
      <trkpt lat="43.66266" lon="1.39235">
        <ele>125</ele>
        <time>2025-04-10T16:59:19Z</time>
      </trkpt>
      <trkpt lat="43.66265" lon="1.3923">
        <ele>125</ele>
        <time>2025-04-10T16:59:20Z</time>
      </trkpt>
      <trkpt lat="43.66265" lon="1.39226">
        <ele>125</ele>
        <time>2025-04-10T16:59:21Z</time>
      </trkpt>
      <trkpt lat="43.66265" lon="1.39222">
        <ele>125</ele>
        <time>2025-04-10T16:59:22Z</time>
      </trkpt>
      <trkpt lat="43.66265" lon="1.39218">
        <ele>125</ele>
        <time>2025-04-10T16:59:23Z</time>
      </trkpt>
      <trkpt lat="43.66265" lon="1.39213">
        <ele>125</ele>
        <time>2025-04-10T16:59:24Z</time>
      </trkpt>
      <trkpt lat="43.66265" lon="1.39209">
        <ele>125</ele>
        <time>2025-04-10T16:59:25Z</time>
      </trkpt>
      <trkpt lat="43.66264" lon="1.39206">
        <ele>125</ele>
        <time>2025-04-10T16:59:26Z</time>
      </trkpt>
      <trkpt lat="43.66264" lon="1.39201">
        <ele>125</ele>
        <time>2025-04-10T16:59:27Z</time>
      </trkpt>
      <trkpt lat="43.66263" lon="1.39198">
        <ele>125</ele>
        <time>2025-04-10T16:59:28Z</time>
      </trkpt>
      <trkpt lat="43.66261" lon="1.39195">
        <ele>125</ele>
        <time>2025-04-10T16:59:29Z</time>
      </trkpt>
      <trkpt lat="43.66259" lon="1.39193">
        <ele>125</ele>
        <time>2025-04-10T16:59:30Z</time>
      </trkpt>
      <trkpt lat="43.66256" lon="1.39191">
        <ele>125</ele>
        <time>2025-04-10T16:59:31Z</time>
      </trkpt>
      <trkpt lat="43.66254" lon="1.3919">
        <ele>126</ele>
        <time>2025-04-10T16:59:32Z</time>
      </trkpt>
      <trkpt lat="43.66251" lon="1.39188">
        <ele>126</ele>
        <time>2025-04-10T16:59:33Z</time>
      </trkpt>
      <trkpt lat="43.66249" lon="1.39187">
        <ele>126</ele>
        <time>2025-04-10T16:59:34Z</time>
      </trkpt>
      <trkpt lat="43.66246" lon="1.39185">
        <ele>126</ele>
        <time>2025-04-10T16:59:35Z</time>
      </trkpt>
      <trkpt lat="43.66243" lon="1.39184">
        <ele>126</ele>
        <time>2025-04-10T16:59:36Z</time>
      </trkpt>
      <trkpt lat="43.66241" lon="1.39183">
        <ele>126</ele>
        <time>2025-04-10T16:59:37Z</time>
      </trkpt>
      <trkpt lat="43.66238" lon="1.39181">
        <ele>126</ele>
        <time>2025-04-10T16:59:38Z</time>
      </trkpt>
      <trkpt lat="43.66235" lon="1.39179">
        <ele>126</ele>
        <time>2025-04-10T16:59:39Z</time>
      </trkpt>
      <trkpt lat="43.66233" lon="1.39176">
        <ele>125</ele>
        <time>2025-04-10T16:59:40Z</time>
      </trkpt>
      <trkpt lat="43.66231" lon="1.39175">
        <ele>125</ele>
        <time>2025-04-10T16:59:41Z</time>
      </trkpt>
      <trkpt lat="43.66229" lon="1.39173">
        <ele>125</ele>
        <time>2025-04-10T16:59:42Z</time>
      </trkpt>
      <trkpt lat="43.66227" lon="1.3917">
        <ele>125</ele>
        <time>2025-04-10T16:59:43Z</time>
      </trkpt>
      <trkpt lat="43.66225" lon="1.39168">
        <ele>125</ele>
        <time>2025-04-10T16:59:44Z</time>
      </trkpt>
      <trkpt lat="43.66222" lon="1.39165">
        <ele>126</ele>
        <time>2025-04-10T16:59:45Z</time>
      </trkpt>
      <trkpt lat="43.6622" lon="1.39162">
        <ele>126</ele>
        <time>2025-04-10T16:59:46Z</time>
      </trkpt>
      <trkpt lat="43.66218" lon="1.39159">
        <ele>126</ele>
        <time>2025-04-10T16:59:47Z</time>
      </trkpt>
      <trkpt lat="43.66216" lon="1.39156">
        <ele>126</ele>
        <time>2025-04-10T16:59:48Z</time>
      </trkpt>
      <trkpt lat="43.66215" lon="1.39153">
        <ele>126</ele>
        <time>2025-04-10T16:59:49Z</time>
      </trkpt>
      <trkpt lat="43.66213" lon="1.3915">
        <ele>126</ele>
        <time>2025-04-10T16:59:50Z</time>
      </trkpt>
      <trkpt lat="43.66211" lon="1.39149">
        <ele>126</ele>
        <time>2025-04-10T16:59:51Z</time>
      </trkpt>
      <trkpt lat="43.66209" lon="1.39149">
        <ele>126</ele>
        <time>2025-04-10T16:59:52Z</time>
      </trkpt>
      <trkpt lat="43.66207" lon="1.3915">
        <ele>126</ele>
        <time>2025-04-10T16:59:53Z</time>
      </trkpt>
      <trkpt lat="43.66205" lon="1.39152">
        <ele>126</ele>
        <time>2025-04-10T16:59:54Z</time>
      </trkpt>
      <trkpt lat="43.66205" lon="1.39152">
        <ele>125</ele>
        <time>2025-04-10T16:59:55Z</time>
      </trkpt>
      <trkpt lat="43.66202" lon="1.39154">
        <ele>125</ele>
        <time>2025-04-10T16:59:56Z</time>
      </trkpt>
      <trkpt lat="43.662" lon="1.39155">
        <ele>125</ele>
        <time>2025-04-10T16:59:57Z</time>
      </trkpt>
      <trkpt lat="43.66198" lon="1.39157">
        <ele>125</ele>
        <time>2025-04-10T16:59:58Z</time>
      </trkpt>
      <trkpt lat="43.66198" lon="1.39157">
        <ele>125</ele>
        <time>2025-04-10T16:59:59Z</time>
      </trkpt>
      <trkpt lat="43.66195" lon="1.3916">
        <ele>125</ele>
        <time>2025-04-10T17:00:00Z</time>
      </trkpt>
      <trkpt lat="43.66194" lon="1.39162">
        <ele>125</ele>
        <time>2025-04-10T17:00:01Z</time>
      </trkpt>
      <trkpt lat="43.66192" lon="1.39164">
        <ele>125</ele>
        <time>2025-04-10T17:00:02Z</time>
      </trkpt>
      <trkpt lat="43.6619" lon="1.39166">
        <ele>125</ele>
        <time>2025-04-10T17:00:03Z</time>
      </trkpt>
      <trkpt lat="43.66188" lon="1.39168">
        <ele>125</ele>
        <time>2025-04-10T17:00:04Z</time>
      </trkpt>
      <trkpt lat="43.66186" lon="1.3917">
        <ele>125</ele>
        <time>2025-04-10T17:00:05Z</time>
      </trkpt>
      <trkpt lat="43.66184" lon="1.39172">
        <ele>125</ele>
        <time>2025-04-10T17:00:06Z</time>
      </trkpt>
      <trkpt lat="43.66183" lon="1.39172">
        <ele>125</ele>
        <time>2025-04-10T17:00:07Z</time>
      </trkpt>
      <trkpt lat="43.6618" lon="1.39174">
        <ele>125</ele>
        <time>2025-04-10T17:00:08Z</time>
      </trkpt>
      <trkpt lat="43.66178" lon="1.39175">
        <ele>126</ele>
        <time>2025-04-10T17:00:09Z</time>
      </trkpt>
      <trkpt lat="43.66176" lon="1.39176">
        <ele>126</ele>
        <time>2025-04-10T17:00:10Z</time>
      </trkpt>
      <trkpt lat="43.66174" lon="1.39177">
        <ele>126</ele>
        <time>2025-04-10T17:00:11Z</time>
      </trkpt>
      <trkpt lat="43.66172" lon="1.39178">
        <ele>125</ele>
        <time>2025-04-10T17:00:12Z</time>
      </trkpt>
      <trkpt lat="43.66172" lon="1.39178">
        <ele>125</ele>
        <time>2025-04-10T17:00:13Z</time>
      </trkpt>
      <trkpt lat="43.66169" lon="1.39179">
        <ele>125</ele>
        <time>2025-04-10T17:00:14Z</time>
      </trkpt>
      <trkpt lat="43.66167" lon="1.39181">
        <ele>125</ele>
        <time>2025-04-10T17:00:15Z</time>
      </trkpt>
      <trkpt lat="43.66165" lon="1.39182">
        <ele>126</ele>
        <time>2025-04-10T17:00:16Z</time>
      </trkpt>
      <trkpt lat="43.66163" lon="1.39183">
        <ele>126</ele>
        <time>2025-04-10T17:00:17Z</time>
      </trkpt>
      <trkpt lat="43.6616" lon="1.39185">
        <ele>126</ele>
        <time>2025-04-10T17:00:18Z</time>
      </trkpt>
      <trkpt lat="43.66157" lon="1.39187">
        <ele>126</ele>
        <time>2025-04-10T17:00:19Z</time>
      </trkpt>
      <trkpt lat="43.66154" lon="1.39189">
        <ele>126</ele>
        <time>2025-04-10T17:00:20Z</time>
      </trkpt>
      <trkpt lat="43.66151" lon="1.39191">
        <ele>126</ele>
        <time>2025-04-10T17:00:21Z</time>
      </trkpt>
      <trkpt lat="43.66148" lon="1.39192">
        <ele>126</ele>
        <time>2025-04-10T17:00:22Z</time>
      </trkpt>
      <trkpt lat="43.66145" lon="1.39193">
        <ele>126</ele>
        <time>2025-04-10T17:00:23Z</time>
      </trkpt>
      <trkpt lat="43.66143" lon="1.39194">
        <ele>126</ele>
        <time>2025-04-10T17:00:24Z</time>
      </trkpt>
      <trkpt lat="43.6614" lon="1.39195">
        <ele>126</ele>
        <time>2025-04-10T17:00:25Z</time>
      </trkpt>
      <trkpt lat="43.66137" lon="1.39196">
        <ele>126</ele>
        <time>2025-04-10T17:00:26Z</time>
      </trkpt>
      <trkpt lat="43.6613" lon="1.39198">
        <ele>126</ele>
        <time>2025-04-10T17:00:27Z</time>
      </trkpt>
      <trkpt lat="43.66129" lon="1.39198">
        <ele>125</ele>
        <time>2025-04-10T17:00:28Z</time>
      </trkpt>
      <trkpt lat="43.66127" lon="1.39199">
        <ele>126</ele>
        <time>2025-04-10T17:00:29Z</time>
      </trkpt>
      <trkpt lat="43.66124" lon="1.392">
        <ele>126</ele>
        <time>2025-04-10T17:00:30Z</time>
      </trkpt>
      <trkpt lat="43.66122" lon="1.392">
        <ele>126</ele>
        <time>2025-04-10T17:00:31Z</time>
      </trkpt>
      <trkpt lat="43.66122" lon="1.392">
        <ele>126</ele>
        <time>2025-04-10T17:00:32Z</time>
      </trkpt>
      <trkpt lat="43.66119" lon="1.39201">
        <ele>126</ele>
        <time>2025-04-10T17:00:33Z</time>
      </trkpt>
      <trkpt lat="43.66116" lon="1.39202">
        <ele>126</ele>
        <time>2025-04-10T17:00:34Z</time>
      </trkpt>
      <trkpt lat="43.66113" lon="1.39202">
        <ele>126</ele>
        <time>2025-04-10T17:00:35Z</time>
      </trkpt>
      <trkpt lat="43.66111" lon="1.39203">
        <ele>126</ele>
        <time>2025-04-10T17:00:36Z</time>
      </trkpt>
      <trkpt lat="43.66109" lon="1.39205">
        <ele>126</ele>
        <time>2025-04-10T17:00:37Z</time>
      </trkpt>
      <trkpt lat="43.66107" lon="1.39206">
        <ele>126</ele>
        <time>2025-04-10T17:00:38Z</time>
      </trkpt>
      <trkpt lat="43.66105" lon="1.39208">
        <ele>126</ele>
        <time>2025-04-10T17:00:39Z</time>
      </trkpt>
      <trkpt lat="43.66103" lon="1.3921">
        <ele>126</ele>
        <time>2025-04-10T17:00:40Z</time>
      </trkpt>
      <trkpt lat="43.66101" lon="1.39212">
        <ele>126</ele>
        <time>2025-04-10T17:00:41Z</time>
      </trkpt>
      <trkpt lat="43.66099" lon="1.39214">
        <ele>125</ele>
        <time>2025-04-10T17:00:42Z</time>
      </trkpt>
      <trkpt lat="43.66097" lon="1.39216">
        <ele>125</ele>
        <time>2025-04-10T17:00:43Z</time>
      </trkpt>
      <trkpt lat="43.66095" lon="1.39219">
        <ele>125</ele>
        <time>2025-04-10T17:00:44Z</time>
      </trkpt>
      <trkpt lat="43.66092" lon="1.3922">
        <ele>125</ele>
        <time>2025-04-10T17:00:45Z</time>
      </trkpt>
      <trkpt lat="43.66089" lon="1.39221">
        <ele>125</ele>
        <time>2025-04-10T17:00:46Z</time>
      </trkpt>
      <trkpt lat="43.66086" lon="1.39221">
        <ele>125</ele>
        <time>2025-04-10T17:00:47Z</time>
      </trkpt>
      <trkpt lat="43.66084" lon="1.39221">
        <ele>125</ele>
        <time>2025-04-10T17:00:48Z</time>
      </trkpt>
      <trkpt lat="43.66081" lon="1.39221">
        <ele>125</ele>
        <time>2025-04-10T17:00:49Z</time>
      </trkpt>
      <trkpt lat="43.66078" lon="1.39221">
        <ele>125</ele>
        <time>2025-04-10T17:00:50Z</time>
      </trkpt>
      <trkpt lat="43.66074" lon="1.39221">
        <ele>125</ele>
        <time>2025-04-10T17:00:51Z</time>
      </trkpt>
      <trkpt lat="43.6607" lon="1.3922">
        <ele>125</ele>
        <time>2025-04-10T17:00:52Z</time>
      </trkpt>
      <trkpt lat="43.66067" lon="1.39221">
        <ele>125</ele>
        <time>2025-04-10T17:00:53Z</time>
      </trkpt>
      <trkpt lat="43.66063" lon="1.39221">
        <ele>125</ele>
        <time>2025-04-10T17:00:54Z</time>
      </trkpt>
      <trkpt lat="43.6606" lon="1.39221">
        <ele>125</ele>
        <time>2025-04-10T17:00:55Z</time>
      </trkpt>
      <trkpt lat="43.66056" lon="1.39221">
        <ele>125</ele>
        <time>2025-04-10T17:00:56Z</time>
      </trkpt>
      <trkpt lat="43.66053" lon="1.39221">
        <ele>125</ele>
        <time>2025-04-10T17:00:57Z</time>
      </trkpt>
      <trkpt lat="43.66053" lon="1.39221">
        <ele>125</ele>
        <time>2025-04-10T17:00:58Z</time>
      </trkpt>
      <trkpt lat="43.66046" lon="1.39222">
        <ele>125</ele>
        <time>2025-04-10T17:00:59Z</time>
      </trkpt>
      <trkpt lat="43.66045" lon="1.39222">
        <ele>125</ele>
        <time>2025-04-10T17:01:00Z</time>
      </trkpt>
      <trkpt lat="43.66042" lon="1.39222">
        <ele>125</ele>
        <time>2025-04-10T17:01:01Z</time>
      </trkpt>
      <trkpt lat="43.66039" lon="1.39223">
        <ele>125</ele>
        <time>2025-04-10T17:01:02Z</time>
      </trkpt>
      <trkpt lat="43.66037" lon="1.39223">
        <ele>125</ele>
        <time>2025-04-10T17:01:03Z</time>
      </trkpt>
      <trkpt lat="43.66034" lon="1.39223">
        <ele>125</ele>
        <time>2025-04-10T17:01:04Z</time>
      </trkpt>
      <trkpt lat="43.66031" lon="1.39224">
        <ele>125</ele>
        <time>2025-04-10T17:01:05Z</time>
      </trkpt>
      <trkpt lat="43.66029" lon="1.39225">
        <ele>125</ele>
        <time>2025-04-10T17:01:06Z</time>
      </trkpt>
      <trkpt lat="43.66027" lon="1.39226">
        <ele>126</ele>
        <time>2025-04-10T17:01:07Z</time>
      </trkpt>
      <trkpt lat="43.66024" lon="1.39227">
        <ele>126</ele>
        <time>2025-04-10T17:01:08Z</time>
      </trkpt>
      <trkpt lat="43.66024" lon="1.39227">
        <ele>126</ele>
        <time>2025-04-10T17:01:09Z</time>
      </trkpt>
      <trkpt lat="43.66022" lon="1.39229">
        <ele>126</ele>
        <time>2025-04-10T17:01:10Z</time>
      </trkpt>
      <trkpt lat="43.66022" lon="1.39229">
        <ele>126</ele>
        <time>2025-04-10T17:01:11Z</time>
      </trkpt>
      <trkpt lat="43.6602" lon="1.3923">
        <ele>126</ele>
        <time>2025-04-10T17:01:12Z</time>
      </trkpt>
      <trkpt lat="43.66018" lon="1.39232">
        <ele>126</ele>
        <time>2025-04-10T17:01:13Z</time>
      </trkpt>
      <trkpt lat="43.66015" lon="1.39233">
        <ele>126</ele>
        <time>2025-04-10T17:01:14Z</time>
      </trkpt>
      <trkpt lat="43.66013" lon="1.39235">
        <ele>126</ele>
        <time>2025-04-10T17:01:15Z</time>
      </trkpt>
      <trkpt lat="43.66011" lon="1.39237">
        <ele>126</ele>
        <time>2025-04-10T17:01:16Z</time>
      </trkpt>
      <trkpt lat="43.66008" lon="1.39239">
        <ele>126</ele>
        <time>2025-04-10T17:01:17Z</time>
      </trkpt>
      <trkpt lat="43.66006" lon="1.3924">
        <ele>126</ele>
        <time>2025-04-10T17:01:18Z</time>
      </trkpt>
      <trkpt lat="43.66004" lon="1.39242">
        <ele>126</ele>
        <time>2025-04-10T17:01:19Z</time>
      </trkpt>
      <trkpt lat="43.66002" lon="1.39243">
        <ele>126</ele>
        <time>2025-04-10T17:01:20Z</time>
      </trkpt>
      <trkpt lat="43.65999" lon="1.39244">
        <ele>125</ele>
        <time>2025-04-10T17:01:21Z</time>
      </trkpt>
      <trkpt lat="43.65996" lon="1.39245">
        <ele>126</ele>
        <time>2025-04-10T17:01:22Z</time>
      </trkpt>
      <trkpt lat="43.65993" lon="1.39246">
        <ele>126</ele>
        <time>2025-04-10T17:01:23Z</time>
      </trkpt>
      <trkpt lat="43.6599" lon="1.39246">
        <ele>126</ele>
        <time>2025-04-10T17:01:24Z</time>
      </trkpt>
      <trkpt lat="43.65987" lon="1.39247">
        <ele>126</ele>
        <time>2025-04-10T17:01:25Z</time>
      </trkpt>
      <trkpt lat="43.65985" lon="1.39247">
        <ele>126</ele>
        <time>2025-04-10T17:01:26Z</time>
      </trkpt>
      <trkpt lat="43.65982" lon="1.39248">
        <ele>126</ele>
        <time>2025-04-10T17:01:27Z</time>
      </trkpt>
      <trkpt lat="43.6598" lon="1.39249">
        <ele>126</ele>
        <time>2025-04-10T17:01:28Z</time>
      </trkpt>
      <trkpt lat="43.65977" lon="1.3925">
        <ele>126</ele>
        <time>2025-04-10T17:01:29Z</time>
      </trkpt>
      <trkpt lat="43.65974" lon="1.39251">
        <ele>126</ele>
        <time>2025-04-10T17:01:30Z</time>
      </trkpt>
      <trkpt lat="43.65971" lon="1.39252">
        <ele>126</ele>
        <time>2025-04-10T17:01:31Z</time>
      </trkpt>
      <trkpt lat="43.65967" lon="1.39253">
        <ele>125</ele>
        <time>2025-04-10T17:01:32Z</time>
      </trkpt>
      <trkpt lat="43.65964" lon="1.39253">
        <ele>125</ele>
        <time>2025-04-10T17:01:33Z</time>
      </trkpt>
      <trkpt lat="43.65962" lon="1.39252">
        <ele>125</ele>
        <time>2025-04-10T17:01:34Z</time>
      </trkpt>
      <trkpt lat="43.6596" lon="1.39253">
        <ele>126</ele>
        <time>2025-04-10T17:01:35Z</time>
      </trkpt>
      <trkpt lat="43.65957" lon="1.39253">
        <ele>126</ele>
        <time>2025-04-10T17:01:36Z</time>
      </trkpt>
      <trkpt lat="43.65954" lon="1.39254">
        <ele>126</ele>
        <time>2025-04-10T17:01:37Z</time>
      </trkpt>
      <trkpt lat="43.65951" lon="1.39254">
        <ele>126</ele>
        <time>2025-04-10T17:01:38Z</time>
      </trkpt>
      <trkpt lat="43.65949" lon="1.39254">
        <ele>126</ele>
        <time>2025-04-10T17:01:39Z</time>
      </trkpt>
      <trkpt lat="43.65946" lon="1.39254">
        <ele>126</ele>
        <time>2025-04-10T17:01:40Z</time>
      </trkpt>
      <trkpt lat="43.65944" lon="1.39255">
        <ele>125</ele>
        <time>2025-04-10T17:01:41Z</time>
      </trkpt>
      <trkpt lat="43.65941" lon="1.39255">
        <ele>125</ele>
        <time>2025-04-10T17:01:42Z</time>
      </trkpt>
      <trkpt lat="43.65939" lon="1.39254">
        <ele>125</ele>
        <time>2025-04-10T17:01:43Z</time>
      </trkpt>
      <trkpt lat="43.65936" lon="1.39253">
        <ele>125</ele>
        <time>2025-04-10T17:01:44Z</time>
      </trkpt>
      <trkpt lat="43.65934" lon="1.39253">
        <ele>125</ele>
        <time>2025-04-10T17:01:45Z</time>
      </trkpt>
      <trkpt lat="43.65931" lon="1.39254">
        <ele>125</ele>
        <time>2025-04-10T17:01:46Z</time>
      </trkpt>
      <trkpt lat="43.65928" lon="1.39254">
        <ele>125</ele>
        <time>2025-04-10T17:01:47Z</time>
      </trkpt>
      <trkpt lat="43.65926" lon="1.39254">
        <ele>125</ele>
        <time>2025-04-10T17:01:48Z</time>
      </trkpt>
      <trkpt lat="43.65923" lon="1.39255">
        <ele>125</ele>
        <time>2025-04-10T17:01:49Z</time>
      </trkpt>
      <trkpt lat="43.65921" lon="1.39255">
        <ele>125</ele>
        <time>2025-04-10T17:01:50Z</time>
      </trkpt>
      <trkpt lat="43.65918" lon="1.39254">
        <ele>126</ele>
        <time>2025-04-10T17:01:51Z</time>
      </trkpt>
      <trkpt lat="43.65916" lon="1.39254">
        <ele>126</ele>
        <time>2025-04-10T17:01:52Z</time>
      </trkpt>
      <trkpt lat="43.65914" lon="1.39253">
        <ele>126</ele>
        <time>2025-04-10T17:01:53Z</time>
      </trkpt>
      <trkpt lat="43.65914" lon="1.39253">
        <ele>126</ele>
        <time>2025-04-10T17:01:54Z</time>
      </trkpt>
      <trkpt lat="43.65909" lon="1.39253">
        <ele>126</ele>
        <time>2025-04-10T17:01:55Z</time>
      </trkpt>
      <trkpt lat="43.65909" lon="1.39253">
        <ele>126</ele>
        <time>2025-04-10T17:01:56Z</time>
      </trkpt>
      <trkpt lat="43.65906" lon="1.39253">
        <ele>126</ele>
        <time>2025-04-10T17:01:57Z</time>
      </trkpt>
      <trkpt lat="43.65903" lon="1.39252">
        <ele>126</ele>
        <time>2025-04-10T17:01:58Z</time>
      </trkpt>
      <trkpt lat="43.659" lon="1.39252">
        <ele>126</ele>
        <time>2025-04-10T17:01:59Z</time>
      </trkpt>
      <trkpt lat="43.65897" lon="1.39252">
        <ele>126</ele>
        <time>2025-04-10T17:02:00Z</time>
      </trkpt>
      <trkpt lat="43.65894" lon="1.39252">
        <ele>126</ele>
        <time>2025-04-10T17:02:01Z</time>
      </trkpt>
      <trkpt lat="43.65891" lon="1.39252">
        <ele>126</ele>
        <time>2025-04-10T17:02:02Z</time>
      </trkpt>
      <trkpt lat="43.65887" lon="1.39252">
        <ele>126</ele>
        <time>2025-04-10T17:02:03Z</time>
      </trkpt>
      <trkpt lat="43.6588" lon="1.39254">
        <ele>126</ele>
        <time>2025-04-10T17:02:04Z</time>
      </trkpt>
      <trkpt lat="43.65878" lon="1.39254">
        <ele>126</ele>
        <time>2025-04-10T17:02:05Z</time>
      </trkpt>
      <trkpt lat="43.65875" lon="1.39254">
        <ele>126</ele>
        <time>2025-04-10T17:02:06Z</time>
      </trkpt>
      <trkpt lat="43.65873" lon="1.39254">
        <ele>126</ele>
        <time>2025-04-10T17:02:07Z</time>
      </trkpt>
      <trkpt lat="43.6587" lon="1.39254">
        <ele>126</ele>
        <time>2025-04-10T17:02:08Z</time>
      </trkpt>
      <trkpt lat="43.65868" lon="1.39253">
        <ele>126</ele>
        <time>2025-04-10T17:02:09Z</time>
      </trkpt>
      <trkpt lat="43.65865" lon="1.39252">
        <ele>126</ele>
        <time>2025-04-10T17:02:10Z</time>
      </trkpt>
      <trkpt lat="43.65863" lon="1.39251">
        <ele>126</ele>
        <time>2025-04-10T17:02:11Z</time>
      </trkpt>
      <trkpt lat="43.6586" lon="1.3925">
        <ele>126</ele>
        <time>2025-04-10T17:02:12Z</time>
      </trkpt>
      <trkpt lat="43.65857" lon="1.39249">
        <ele>126</ele>
        <time>2025-04-10T17:02:13Z</time>
      </trkpt>
      <trkpt lat="43.65855" lon="1.39248">
        <ele>125</ele>
        <time>2025-04-10T17:02:14Z</time>
      </trkpt>
      <trkpt lat="43.65853" lon="1.39247">
        <ele>125</ele>
        <time>2025-04-10T17:02:15Z</time>
      </trkpt>
      <trkpt lat="43.6585" lon="1.39246">
        <ele>125</ele>
        <time>2025-04-10T17:02:16Z</time>
      </trkpt>
      <trkpt lat="43.65847" lon="1.39244">
        <ele>125</ele>
        <time>2025-04-10T17:02:17Z</time>
      </trkpt>
      <trkpt lat="43.65845" lon="1.39243">
        <ele>125</ele>
        <time>2025-04-10T17:02:18Z</time>
      </trkpt>
      <trkpt lat="43.65843" lon="1.39241">
        <ele>126</ele>
        <time>2025-04-10T17:02:19Z</time>
      </trkpt>
      <trkpt lat="43.6584" lon="1.3924">
        <ele>126</ele>
        <time>2025-04-10T17:02:20Z</time>
      </trkpt>
      <trkpt lat="43.65838" lon="1.39239">
        <ele>126</ele>
        <time>2025-04-10T17:02:21Z</time>
      </trkpt>
      <trkpt lat="43.65836" lon="1.39237">
        <ele>126</ele>
        <time>2025-04-10T17:02:22Z</time>
      </trkpt>
      <trkpt lat="43.65833" lon="1.39237">
        <ele>126</ele>
        <time>2025-04-10T17:02:23Z</time>
      </trkpt>
      <trkpt lat="43.6583" lon="1.39236">
        <ele>126</ele>
        <time>2025-04-10T17:02:24Z</time>
      </trkpt>
      <trkpt lat="43.65827" lon="1.39236">
        <ele>126</ele>
        <time>2025-04-10T17:02:25Z</time>
      </trkpt>
      <trkpt lat="43.65825" lon="1.39234">
        <ele>126</ele>
        <time>2025-04-10T17:02:26Z</time>
      </trkpt>
      <trkpt lat="43.65822" lon="1.39233">
        <ele>126</ele>
        <time>2025-04-10T17:02:27Z</time>
      </trkpt>
      <trkpt lat="43.65819" lon="1.39232">
        <ele>126</ele>
        <time>2025-04-10T17:02:28Z</time>
      </trkpt>
      <trkpt lat="43.65817" lon="1.39231">
        <ele>127</ele>
        <time>2025-04-10T17:02:29Z</time>
      </trkpt>
      <trkpt lat="43.65813" lon="1.39229">
        <ele>127</ele>
        <time>2025-04-10T17:02:30Z</time>
      </trkpt>
      <trkpt lat="43.65811" lon="1.39228">
        <ele>127</ele>
        <time>2025-04-10T17:02:31Z</time>
      </trkpt>
      <trkpt lat="43.65807" lon="1.39227">
        <ele>127</ele>
        <time>2025-04-10T17:02:32Z</time>
      </trkpt>
      <trkpt lat="43.65804" lon="1.39227">
        <ele>127</ele>
        <time>2025-04-10T17:02:33Z</time>
      </trkpt>
      <trkpt lat="43.65801" lon="1.39226">
        <ele>127</ele>
        <time>2025-04-10T17:02:34Z</time>
      </trkpt>
      <trkpt lat="43.65798" lon="1.39225">
        <ele>127</ele>
        <time>2025-04-10T17:02:35Z</time>
      </trkpt>
      <trkpt lat="43.65795" lon="1.39224">
        <ele>127</ele>
        <time>2025-04-10T17:02:36Z</time>
      </trkpt>
      <trkpt lat="43.65792" lon="1.39223">
        <ele>127</ele>
        <time>2025-04-10T17:02:37Z</time>
      </trkpt>
      <trkpt lat="43.6579" lon="1.39222">
        <ele>127</ele>
        <time>2025-04-10T17:02:38Z</time>
      </trkpt>
      <trkpt lat="43.6579" lon="1.39222">
        <ele>127</ele>
        <time>2025-04-10T17:02:39Z</time>
      </trkpt>
      <trkpt lat="43.65785" lon="1.39217">
        <ele>126</ele>
        <time>2025-04-10T17:02:40Z</time>
      </trkpt>
      <trkpt lat="43.65783" lon="1.39217">
        <ele>127</ele>
        <time>2025-04-10T17:02:41Z</time>
      </trkpt>
      <trkpt lat="43.65781" lon="1.39215">
        <ele>127</ele>
        <time>2025-04-10T17:02:42Z</time>
      </trkpt>
      <trkpt lat="43.65779" lon="1.39212">
        <ele>127</ele>
        <time>2025-04-10T17:02:43Z</time>
      </trkpt>
      <trkpt lat="43.65777" lon="1.3921">
        <ele>127</ele>
        <time>2025-04-10T17:02:44Z</time>
      </trkpt>
      <trkpt lat="43.65774" lon="1.39207">
        <ele>127</ele>
        <time>2025-04-10T17:02:45Z</time>
      </trkpt>
      <trkpt lat="43.65772" lon="1.39204">
        <ele>127</ele>
        <time>2025-04-10T17:02:46Z</time>
      </trkpt>
      <trkpt lat="43.65769" lon="1.39202">
        <ele>127</ele>
        <time>2025-04-10T17:02:47Z</time>
      </trkpt>
      <trkpt lat="43.65767" lon="1.392">
        <ele>127</ele>
        <time>2025-04-10T17:02:48Z</time>
      </trkpt>
      <trkpt lat="43.65764" lon="1.39199">
        <ele>127</ele>
        <time>2025-04-10T17:02:49Z</time>
      </trkpt>
      <trkpt lat="43.65762" lon="1.39197">
        <ele>127</ele>
        <time>2025-04-10T17:02:50Z</time>
      </trkpt>
      <trkpt lat="43.6576" lon="1.39196">
        <ele>127</ele>
        <time>2025-04-10T17:02:51Z</time>
      </trkpt>
      <trkpt lat="43.65758" lon="1.39194">
        <ele>127</ele>
        <time>2025-04-10T17:02:52Z</time>
      </trkpt>
      <trkpt lat="43.65755" lon="1.39192">
        <ele>127</ele>
        <time>2025-04-10T17:02:53Z</time>
      </trkpt>
      <trkpt lat="43.65753" lon="1.3919">
        <ele>128</ele>
        <time>2025-04-10T17:02:54Z</time>
      </trkpt>
      <trkpt lat="43.65751" lon="1.39188">
        <ele>128</ele>
        <time>2025-04-10T17:02:55Z</time>
      </trkpt>
      <trkpt lat="43.65749" lon="1.39187">
        <ele>128</ele>
        <time>2025-04-10T17:02:56Z</time>
      </trkpt>
      <trkpt lat="43.65746" lon="1.39186">
        <ele>128</ele>
        <time>2025-04-10T17:02:57Z</time>
      </trkpt>
      <trkpt lat="43.65744" lon="1.39184">
        <ele>128</ele>
        <time>2025-04-10T17:02:58Z</time>
      </trkpt>
      <trkpt lat="43.65741" lon="1.39183">
        <ele>128</ele>
        <time>2025-04-10T17:02:59Z</time>
      </trkpt>
      <trkpt lat="43.65739" lon="1.39181">
        <ele>128</ele>
        <time>2025-04-10T17:03:00Z</time>
      </trkpt>
      <trkpt lat="43.65736" lon="1.39179">
        <ele>127</ele>
        <time>2025-04-10T17:03:01Z</time>
      </trkpt>
      <trkpt lat="43.65734" lon="1.39177">
        <ele>127</ele>
        <time>2025-04-10T17:03:02Z</time>
      </trkpt>
      <trkpt lat="43.65731" lon="1.39176">
        <ele>126</ele>
        <time>2025-04-10T17:03:03Z</time>
      </trkpt>
      <trkpt lat="43.65729" lon="1.39174">
        <ele>126</ele>
        <time>2025-04-10T17:03:04Z</time>
      </trkpt>
      <trkpt lat="43.65727" lon="1.39173">
        <ele>126</ele>
        <time>2025-04-10T17:03:05Z</time>
      </trkpt>
      <trkpt lat="43.65725" lon="1.3917">
        <ele>126</ele>
        <time>2025-04-10T17:03:06Z</time>
      </trkpt>
      <trkpt lat="43.65723" lon="1.39169">
        <ele>126</ele>
        <time>2025-04-10T17:03:07Z</time>
      </trkpt>
      <trkpt lat="43.65721" lon="1.39167">
        <ele>126</ele>
        <time>2025-04-10T17:03:08Z</time>
      </trkpt>
      <trkpt lat="43.65719" lon="1.39165">
        <ele>126</ele>
        <time>2025-04-10T17:03:09Z</time>
      </trkpt>
      <trkpt lat="43.65717" lon="1.39163">
        <ele>126</ele>
        <time>2025-04-10T17:03:10Z</time>
      </trkpt>
      <trkpt lat="43.65715" lon="1.39161">
        <ele>126</ele>
        <time>2025-04-10T17:03:11Z</time>
      </trkpt>
      <trkpt lat="43.65713" lon="1.39159">
        <ele>127</ele>
        <time>2025-04-10T17:03:12Z</time>
      </trkpt>
      <trkpt lat="43.65711" lon="1.39157">
        <ele>127</ele>
        <time>2025-04-10T17:03:13Z</time>
      </trkpt>
      <trkpt lat="43.65708" lon="1.39154">
        <ele>126</ele>
        <time>2025-04-10T17:03:14Z</time>
      </trkpt>
      <trkpt lat="43.65705" lon="1.39151">
        <ele>126</ele>
        <time>2025-04-10T17:03:15Z</time>
      </trkpt>
      <trkpt lat="43.65703" lon="1.39149">
        <ele>126</ele>
        <time>2025-04-10T17:03:16Z</time>
      </trkpt>
      <trkpt lat="43.657" lon="1.39147">
        <ele>126</ele>
        <time>2025-04-10T17:03:17Z</time>
      </trkpt>
      <trkpt lat="43.65698" lon="1.39145">
        <ele>126</ele>
        <time>2025-04-10T17:03:18Z</time>
      </trkpt>
      <trkpt lat="43.65695" lon="1.39143">
        <ele>126</ele>
        <time>2025-04-10T17:03:19Z</time>
      </trkpt>
      <trkpt lat="43.65692" lon="1.39142">
        <ele>126</ele>
        <time>2025-04-10T17:03:20Z</time>
      </trkpt>
      <trkpt lat="43.6569" lon="1.3914">
        <ele>126</ele>
        <time>2025-04-10T17:03:21Z</time>
      </trkpt>
      <trkpt lat="43.65687" lon="1.39137">
        <ele>126</ele>
        <time>2025-04-10T17:03:22Z</time>
      </trkpt>
      <trkpt lat="43.65685" lon="1.39135">
        <ele>126</ele>
        <time>2025-04-10T17:03:23Z</time>
      </trkpt>
      <trkpt lat="43.65682" lon="1.39134">
        <ele>126</ele>
        <time>2025-04-10T17:03:24Z</time>
      </trkpt>
      <trkpt lat="43.65679" lon="1.39132">
        <ele>126</ele>
        <time>2025-04-10T17:03:25Z</time>
      </trkpt>
      <trkpt lat="43.65677" lon="1.3913">
        <ele>126</ele>
        <time>2025-04-10T17:03:26Z</time>
      </trkpt>
      <trkpt lat="43.65674" lon="1.39129">
        <ele>126</ele>
        <time>2025-04-10T17:03:27Z</time>
      </trkpt>
      <trkpt lat="43.65671" lon="1.39128">
        <ele>126</ele>
        <time>2025-04-10T17:03:28Z</time>
      </trkpt>
      <trkpt lat="43.65669" lon="1.39126">
        <ele>126</ele>
        <time>2025-04-10T17:03:29Z</time>
      </trkpt>
      <trkpt lat="43.65666" lon="1.39125">
        <ele>126</ele>
        <time>2025-04-10T17:03:30Z</time>
      </trkpt>
      <trkpt lat="43.65664" lon="1.39124">
        <ele>126</ele>
        <time>2025-04-10T17:03:31Z</time>
      </trkpt>
      <trkpt lat="43.65661" lon="1.39123">
        <ele>126</ele>
        <time>2025-04-10T17:03:32Z</time>
      </trkpt>
      <trkpt lat="43.65658" lon="1.39121">
        <ele>126</ele>
        <time>2025-04-10T17:03:33Z</time>
      </trkpt>
      <trkpt lat="43.65656" lon="1.39119">
        <ele>126</ele>
        <time>2025-04-10T17:03:34Z</time>
      </trkpt>
      <trkpt lat="43.65653" lon="1.39117">
        <ele>126</ele>
        <time>2025-04-10T17:03:35Z</time>
      </trkpt>
      <trkpt lat="43.65651" lon="1.39115">
        <ele>126</ele>
        <time>2025-04-10T17:03:36Z</time>
      </trkpt>
      <trkpt lat="43.65649" lon="1.39113">
        <ele>126</ele>
        <time>2025-04-10T17:03:37Z</time>
      </trkpt>
      <trkpt lat="43.65646" lon="1.39111">
        <ele>127</ele>
        <time>2025-04-10T17:03:38Z</time>
      </trkpt>
      <trkpt lat="43.65644" lon="1.3911">
        <ele>127</ele>
        <time>2025-04-10T17:03:39Z</time>
      </trkpt>
      <trkpt lat="43.65642" lon="1.39109">
        <ele>127</ele>
        <time>2025-04-10T17:03:40Z</time>
      </trkpt>
      <trkpt lat="43.65639" lon="1.39107">
        <ele>127</ele>
        <time>2025-04-10T17:03:41Z</time>
      </trkpt>
      <trkpt lat="43.65637" lon="1.39106">
        <ele>127</ele>
        <time>2025-04-10T17:03:42Z</time>
      </trkpt>
      <trkpt lat="43.65634" lon="1.39104">
        <ele>127</ele>
        <time>2025-04-10T17:03:43Z</time>
      </trkpt>
      <trkpt lat="43.65632" lon="1.39103">
        <ele>127</ele>
        <time>2025-04-10T17:03:44Z</time>
      </trkpt>
      <trkpt lat="43.65629" lon="1.39101">
        <ele>127</ele>
        <time>2025-04-10T17:03:45Z</time>
      </trkpt>
      <trkpt lat="43.65627" lon="1.39098">
        <ele>127</ele>
        <time>2025-04-10T17:03:46Z</time>
      </trkpt>
      <trkpt lat="43.65625" lon="1.39096">
        <ele>127</ele>
        <time>2025-04-10T17:03:47Z</time>
      </trkpt>
      <trkpt lat="43.65622" lon="1.39093">
        <ele>127</ele>
        <time>2025-04-10T17:03:48Z</time>
      </trkpt>
      <trkpt lat="43.6562" lon="1.39091">
        <ele>127</ele>
        <time>2025-04-10T17:03:49Z</time>
      </trkpt>
      <trkpt lat="43.65617" lon="1.3909">
        <ele>127</ele>
        <time>2025-04-10T17:03:50Z</time>
      </trkpt>
      <trkpt lat="43.65615" lon="1.39088">
        <ele>127</ele>
        <time>2025-04-10T17:03:51Z</time>
      </trkpt>
      <trkpt lat="43.65612" lon="1.39087">
        <ele>127</ele>
        <time>2025-04-10T17:03:52Z</time>
      </trkpt>
      <trkpt lat="43.6561" lon="1.39085">
        <ele>127</ele>
        <time>2025-04-10T17:03:53Z</time>
      </trkpt>
      <trkpt lat="43.65607" lon="1.39084">
        <ele>127</ele>
        <time>2025-04-10T17:03:54Z</time>
      </trkpt>
      <trkpt lat="43.65605" lon="1.39082">
        <ele>127</ele>
        <time>2025-04-10T17:03:55Z</time>
      </trkpt>
      <trkpt lat="43.65602" lon="1.39081">
        <ele>127</ele>
        <time>2025-04-10T17:03:56Z</time>
      </trkpt>
      <trkpt lat="43.656" lon="1.39079">
        <ele>127</ele>
        <time>2025-04-10T17:03:57Z</time>
      </trkpt>
      <trkpt lat="43.65597" lon="1.39078">
        <ele>127</ele>
        <time>2025-04-10T17:03:58Z</time>
      </trkpt>
      <trkpt lat="43.65595" lon="1.39077">
        <ele>128</ele>
        <time>2025-04-10T17:03:59Z</time>
      </trkpt>
      <trkpt lat="43.65592" lon="1.39075">
        <ele>128</ele>
        <time>2025-04-10T17:04:00Z</time>
      </trkpt>
      <trkpt lat="43.65589" lon="1.39074">
        <ele>127</ele>
        <time>2025-04-10T17:04:01Z</time>
      </trkpt>
      <trkpt lat="43.65586" lon="1.39073">
        <ele>127</ele>
        <time>2025-04-10T17:04:02Z</time>
      </trkpt>
      <trkpt lat="43.65584" lon="1.39071">
        <ele>127</ele>
        <time>2025-04-10T17:04:03Z</time>
      </trkpt>
      <trkpt lat="43.65581" lon="1.39069">
        <ele>127</ele>
        <time>2025-04-10T17:04:04Z</time>
      </trkpt>
      <trkpt lat="43.65579" lon="1.39067">
        <ele>127</ele>
        <time>2025-04-10T17:04:05Z</time>
      </trkpt>
      <trkpt lat="43.65576" lon="1.39065">
        <ele>127</ele>
        <time>2025-04-10T17:04:06Z</time>
      </trkpt>
      <trkpt lat="43.65573" lon="1.39064">
        <ele>127</ele>
        <time>2025-04-10T17:04:07Z</time>
      </trkpt>
      <trkpt lat="43.65571" lon="1.39062">
        <ele>127</ele>
        <time>2025-04-10T17:04:08Z</time>
      </trkpt>
      <trkpt lat="43.65568" lon="1.39059">
        <ele>127</ele>
        <time>2025-04-10T17:04:09Z</time>
      </trkpt>
      <trkpt lat="43.65566" lon="1.39057">
        <ele>127</ele>
        <time>2025-04-10T17:04:10Z</time>
      </trkpt>
      <trkpt lat="43.65563" lon="1.39055">
        <ele>127</ele>
        <time>2025-04-10T17:04:11Z</time>
      </trkpt>
      <trkpt lat="43.65561" lon="1.39054">
        <ele>127</ele>
        <time>2025-04-10T17:04:12Z</time>
      </trkpt>
      <trkpt lat="43.65558" lon="1.39052">
        <ele>127</ele>
        <time>2025-04-10T17:04:13Z</time>
      </trkpt>
      <trkpt lat="43.65555" lon="1.3905">
        <ele>127</ele>
        <time>2025-04-10T17:04:14Z</time>
      </trkpt>
      <trkpt lat="43.65553" lon="1.39049">
        <ele>127</ele>
        <time>2025-04-10T17:04:15Z</time>
      </trkpt>
      <trkpt lat="43.6555" lon="1.39047">
        <ele>127</ele>
        <time>2025-04-10T17:04:16Z</time>
      </trkpt>
      <trkpt lat="43.65548" lon="1.39045">
        <ele>127</ele>
        <time>2025-04-10T17:04:17Z</time>
      </trkpt>
      <trkpt lat="43.65545" lon="1.39044">
        <ele>127</ele>
        <time>2025-04-10T17:04:18Z</time>
      </trkpt>
      <trkpt lat="43.65543" lon="1.39042">
        <ele>127</ele>
        <time>2025-04-10T17:04:19Z</time>
      </trkpt>
      <trkpt lat="43.6554" lon="1.3904">
        <ele>127</ele>
        <time>2025-04-10T17:04:20Z</time>
      </trkpt>
      <trkpt lat="43.65538" lon="1.39039">
        <ele>128</ele>
        <time>2025-04-10T17:04:21Z</time>
      </trkpt>
      <trkpt lat="43.65535" lon="1.39037">
        <ele>128</ele>
        <time>2025-04-10T17:04:22Z</time>
      </trkpt>
      <trkpt lat="43.65533" lon="1.39035">
        <ele>127</ele>
        <time>2025-04-10T17:04:23Z</time>
      </trkpt>
      <trkpt lat="43.65531" lon="1.39034">
        <ele>127</ele>
        <time>2025-04-10T17:04:24Z</time>
      </trkpt>
      <trkpt lat="43.65528" lon="1.39032">
        <ele>128</ele>
        <time>2025-04-10T17:04:25Z</time>
      </trkpt>
      <trkpt lat="43.65526" lon="1.3903">
        <ele>128</ele>
        <time>2025-04-10T17:04:26Z</time>
      </trkpt>
      <trkpt lat="43.65524" lon="1.39028">
        <ele>128</ele>
        <time>2025-04-10T17:04:27Z</time>
      </trkpt>
      <trkpt lat="43.65522" lon="1.39026">
        <ele>128</ele>
        <time>2025-04-10T17:04:28Z</time>
      </trkpt>
      <trkpt lat="43.6552" lon="1.39024">
        <ele>128</ele>
        <time>2025-04-10T17:04:29Z</time>
      </trkpt>
      <trkpt lat="43.65518" lon="1.39024">
        <ele>128</ele>
        <time>2025-04-10T17:04:30Z</time>
      </trkpt>
      <trkpt lat="43.65515" lon="1.39023">
        <ele>128</ele>
        <time>2025-04-10T17:04:31Z</time>
      </trkpt>
      <trkpt lat="43.65513" lon="1.39023">
        <ele>128</ele>
        <time>2025-04-10T17:04:32Z</time>
      </trkpt>
      <trkpt lat="43.65511" lon="1.39023">
        <ele>128</ele>
        <time>2025-04-10T17:04:33Z</time>
      </trkpt>
      <trkpt lat="43.65509" lon="1.39023">
        <ele>128</ele>
        <time>2025-04-10T17:04:34Z</time>
      </trkpt>
      <trkpt lat="43.65506" lon="1.39022">
        <ele>128</ele>
        <time>2025-04-10T17:04:35Z</time>
      </trkpt>
      <trkpt lat="43.65504" lon="1.39021">
        <ele>128</ele>
        <time>2025-04-10T17:04:36Z</time>
      </trkpt>
      <trkpt lat="43.65502" lon="1.3902">
        <ele>128</ele>
        <time>2025-04-10T17:04:37Z</time>
      </trkpt>
      <trkpt lat="43.65499" lon="1.39019">
        <ele>128</ele>
        <time>2025-04-10T17:04:38Z</time>
      </trkpt>
      <trkpt lat="43.65497" lon="1.39018">
        <ele>128</ele>
        <time>2025-04-10T17:04:39Z</time>
      </trkpt>
      <trkpt lat="43.65495" lon="1.39017">
        <ele>128</ele>
        <time>2025-04-10T17:04:40Z</time>
      </trkpt>
      <trkpt lat="43.65492" lon="1.39015">
        <ele>128</ele>
        <time>2025-04-10T17:04:41Z</time>
      </trkpt>
      <trkpt lat="43.6549" lon="1.39014">
        <ele>128</ele>
        <time>2025-04-10T17:04:42Z</time>
      </trkpt>
      <trkpt lat="43.65489" lon="1.39012">
        <ele>128</ele>
        <time>2025-04-10T17:04:43Z</time>
      </trkpt>
      <trkpt lat="43.65487" lon="1.39011">
        <ele>128</ele>
        <time>2025-04-10T17:04:44Z</time>
      </trkpt>
      <trkpt lat="43.65455" lon="1.38973">
        <ele>128</ele>
        <time>2025-04-10T17:17:07Z</time>
      </trkpt>
      <trkpt lat="43.65455" lon="1.38973">
        <ele>128</ele>
        <time>2025-04-10T17:17:08Z</time>
      </trkpt>
      <trkpt lat="43.65455" lon="1.38973">
        <ele>128</ele>
        <time>2025-04-10T17:17:09Z</time>
      </trkpt>
      <trkpt lat="43.65455" lon="1.38973">
        <ele>128</ele>
        <time>2025-04-10T17:17:10Z</time>
      </trkpt>
      <trkpt lat="43.65455" lon="1.38973">
        <ele>128</ele>
        <time>2025-04-10T17:17:11Z</time>
      </trkpt>
      <trkpt lat="43.65455" lon="1.38973">
        <ele>128</ele>
        <time>2025-04-10T17:17:12Z</time>
      </trkpt>
      <trkpt lat="43.65455" lon="1.38973">
        <ele>128</ele>
        <time>2025-04-10T17:17:13Z</time>
      </trkpt>
      <trkpt lat="43.65455" lon="1.38973">
        <ele>128</ele>
        <time>2025-04-10T17:17:14Z</time>
      </trkpt>
      <trkpt lat="43.65455" lon="1.38973">
        <ele>128</ele>
        <time>2025-04-10T17:17:15Z</time>
      </trkpt>
      <trkpt lat="43.65455" lon="1.38973">
        <ele>128</ele>
        <time>2025-04-10T17:17:16Z</time>
      </trkpt>
      <trkpt lat="43.65456" lon="1.3897">
        <ele>128</ele>
        <time>2025-04-10T17:17:17Z</time>
      </trkpt>
      <trkpt lat="43.65456" lon="1.3897">
        <ele>128</ele>
        <time>2025-04-10T17:17:18Z</time>
      </trkpt>
      <trkpt lat="43.65456" lon="1.3897">
        <ele>128</ele>
        <time>2025-04-10T17:17:19Z</time>
      </trkpt>
      <trkpt lat="43.65454" lon="1.38968">
        <ele>127</ele>
        <time>2025-04-10T17:17:20Z</time>
      </trkpt>
      <trkpt lat="43.65453" lon="1.38966">
        <ele>127</ele>
        <time>2025-04-10T17:17:21Z</time>
      </trkpt>
      <trkpt lat="43.65452" lon="1.38961">
        <ele>127</ele>
        <time>2025-04-10T17:17:22Z</time>
      </trkpt>
      <trkpt lat="43.65451" lon="1.38956">
        <ele>127</ele>
        <time>2025-04-10T17:17:23Z</time>
      </trkpt>
      <trkpt lat="43.65449" lon="1.38952">
        <ele>128</ele>
        <time>2025-04-10T17:17:24Z</time>
      </trkpt>
      <trkpt lat="43.65447" lon="1.38948">
        <ele>128</ele>
        <time>2025-04-10T17:17:25Z</time>
      </trkpt>
      <trkpt lat="43.65444" lon="1.38944">
        <ele>129</ele>
        <time>2025-04-10T17:17:26Z</time>
      </trkpt>
      <trkpt lat="43.65442" lon="1.38941">
        <ele>130</ele>
        <time>2025-04-10T17:17:27Z</time>
      </trkpt>
      <trkpt lat="43.65441" lon="1.38938">
        <ele>131</ele>
        <time>2025-04-10T17:17:28Z</time>
      </trkpt>
      <trkpt lat="43.65439" lon="1.38935">
        <ele>131</ele>
        <time>2025-04-10T17:17:29Z</time>
      </trkpt>
      <trkpt lat="43.65437" lon="1.38933">
        <ele>132</ele>
        <time>2025-04-10T17:17:30Z</time>
      </trkpt>
      <trkpt lat="43.65435" lon="1.3893">
        <ele>132</ele>
        <time>2025-04-10T17:17:31Z</time>
      </trkpt>
      <trkpt lat="43.65433" lon="1.38927">
        <ele>133</ele>
        <time>2025-04-10T17:17:32Z</time>
      </trkpt>
      <trkpt lat="43.6543" lon="1.38924">
        <ele>133</ele>
        <time>2025-04-10T17:17:33Z</time>
      </trkpt>
      <trkpt lat="43.65428" lon="1.3892">
        <ele>134</ele>
        <time>2025-04-10T17:17:34Z</time>
      </trkpt>
      <trkpt lat="43.65425" lon="1.38915">
        <ele>135</ele>
        <time>2025-04-10T17:17:35Z</time>
      </trkpt>
      <trkpt lat="43.65423" lon="1.3891">
        <ele>135</ele>
        <time>2025-04-10T17:17:36Z</time>
      </trkpt>
      <trkpt lat="43.65421" lon="1.38905">
        <ele>135</ele>
        <time>2025-04-10T17:17:37Z</time>
      </trkpt>
      <trkpt lat="43.6542" lon="1.38899">
        <ele>136</ele>
        <time>2025-04-10T17:17:38Z</time>
      </trkpt>
      <trkpt lat="43.65418" lon="1.38893">
        <ele>136</ele>
        <time>2025-04-10T17:17:39Z</time>
      </trkpt>
      <trkpt lat="43.65417" lon="1.38887">
        <ele>137</ele>
        <time>2025-04-10T17:17:40Z</time>
      </trkpt>
      <trkpt lat="43.65416" lon="1.38883">
        <ele>137</ele>
        <time>2025-04-10T17:17:41Z</time>
      </trkpt>
      <trkpt lat="43.65415" lon="1.38878">
        <ele>137</ele>
        <time>2025-04-10T17:17:42Z</time>
      </trkpt>
      <trkpt lat="43.65415" lon="1.38873">
        <ele>137</ele>
        <time>2025-04-10T17:17:43Z</time>
      </trkpt>
      <trkpt lat="43.65415" lon="1.38867">
        <ele>138</ele>
        <time>2025-04-10T17:17:44Z</time>
      </trkpt>
      <trkpt lat="43.65416" lon="1.38863">
        <ele>138</ele>
        <time>2025-04-10T17:17:45Z</time>
      </trkpt>
      <trkpt lat="43.65418" lon="1.38859">
        <ele>138</ele>
        <time>2025-04-10T17:17:46Z</time>
      </trkpt>
      <trkpt lat="43.6542" lon="1.38856">
        <ele>139</ele>
        <time>2025-04-10T17:17:47Z</time>
      </trkpt>
      <trkpt lat="43.65423" lon="1.38854">
        <ele>139</ele>
        <time>2025-04-10T17:17:48Z</time>
      </trkpt>
      <trkpt lat="43.65425" lon="1.38852">
        <ele>139</ele>
        <time>2025-04-10T17:17:49Z</time>
      </trkpt>
      <trkpt lat="43.65427" lon="1.38851">
        <ele>140</ele>
        <time>2025-04-10T17:17:50Z</time>
      </trkpt>
      <trkpt lat="43.65429" lon="1.38849">
        <ele>140</ele>
        <time>2025-04-10T17:17:51Z</time>
      </trkpt>
      <trkpt lat="43.65429" lon="1.38849">
        <ele>140</ele>
        <time>2025-04-10T17:17:52Z</time>
      </trkpt>
      <trkpt lat="43.65431" lon="1.38851">
        <ele>140</ele>
        <time>2025-04-10T17:17:53Z</time>
      </trkpt>
      <trkpt lat="43.65431" lon="1.38851">
        <ele>141</ele>
        <time>2025-04-10T17:17:54Z</time>
      </trkpt>
      <trkpt lat="43.65432" lon="1.38854">
        <ele>141</ele>
        <time>2025-04-10T17:17:55Z</time>
      </trkpt>
      <trkpt lat="43.65433" lon="1.38857">
        <ele>141</ele>
        <time>2025-04-10T17:17:56Z</time>
      </trkpt>
      <trkpt lat="43.65434" lon="1.38859">
        <ele>141</ele>
        <time>2025-04-10T17:17:57Z</time>
      </trkpt>
      <trkpt lat="43.65435" lon="1.38861">
        <ele>141</ele>
        <time>2025-04-10T17:17:58Z</time>
      </trkpt>
      <trkpt lat="43.65435" lon="1.38861">
        <ele>141</ele>
        <time>2025-04-10T17:17:59Z</time>
      </trkpt>
      <trkpt lat="43.65436" lon="1.38865">
        <ele>140</ele>
        <time>2025-04-10T17:18:00Z</time>
      </trkpt>
      <trkpt lat="43.65437" lon="1.38867">
        <ele>139</ele>
        <time>2025-04-10T17:18:01Z</time>
      </trkpt>
      <trkpt lat="43.65437" lon="1.38867">
        <ele>139</ele>
        <time>2025-04-10T17:18:02Z</time>
      </trkpt>
      <trkpt lat="43.65439" lon="1.38871">
        <ele>139</ele>
        <time>2025-04-10T17:18:03Z</time>
      </trkpt>
      <trkpt lat="43.65439" lon="1.38871">
        <ele>139</ele>
        <time>2025-04-10T17:18:04Z</time>
      </trkpt>
      <trkpt lat="43.65441" lon="1.38875">
        <ele>139</ele>
        <time>2025-04-10T17:18:05Z</time>
      </trkpt>
      <trkpt lat="43.65441" lon="1.38875">
        <ele>139</ele>
        <time>2025-04-10T17:18:06Z</time>
      </trkpt>
      <trkpt lat="43.65442" lon="1.38879">
        <ele>139</ele>
        <time>2025-04-10T17:18:07Z</time>
      </trkpt>
      <trkpt lat="43.65443" lon="1.38882">
        <ele>139</ele>
        <time>2025-04-10T17:18:08Z</time>
      </trkpt>
      <trkpt lat="43.65443" lon="1.38884">
        <ele>139</ele>
        <time>2025-04-10T17:18:09Z</time>
      </trkpt>
      <trkpt lat="43.65443" lon="1.38884">
        <ele>139</ele>
        <time>2025-04-10T17:18:10Z</time>
      </trkpt>
      <trkpt lat="43.65445" lon="1.38888">
        <ele>139</ele>
        <time>2025-04-10T17:18:11Z</time>
      </trkpt>
      <trkpt lat="43.65445" lon="1.38888">
        <ele>139</ele>
        <time>2025-04-10T17:18:12Z</time>
      </trkpt>
      <trkpt lat="43.65445" lon="1.38892">
        <ele>139</ele>
        <time>2025-04-10T17:18:13Z</time>
      </trkpt>
      <trkpt lat="43.65445" lon="1.38892">
        <ele>139</ele>
        <time>2025-04-10T17:18:14Z</time>
      </trkpt>
      <trkpt lat="43.65446" lon="1.38896">
        <ele>139</ele>
        <time>2025-04-10T17:18:15Z</time>
      </trkpt>
      <trkpt lat="43.65446" lon="1.38896">
        <ele>138</ele>
        <time>2025-04-10T17:18:16Z</time>
      </trkpt>
      <trkpt lat="43.65448" lon="1.389">
        <ele>138</ele>
        <time>2025-04-10T17:18:17Z</time>
      </trkpt>
      <trkpt lat="43.65449" lon="1.38902">
        <ele>138</ele>
        <time>2025-04-10T17:18:18Z</time>
      </trkpt>
      <trkpt lat="43.6545" lon="1.38904">
        <ele>138</ele>
        <time>2025-04-10T17:18:19Z</time>
      </trkpt>
      <trkpt lat="43.65451" lon="1.38906">
        <ele>138</ele>
        <time>2025-04-10T17:18:20Z</time>
      </trkpt>
      <trkpt lat="43.65453" lon="1.38909">
        <ele>138</ele>
        <time>2025-04-10T17:18:21Z</time>
      </trkpt>
      <trkpt lat="43.65455" lon="1.38911">
        <ele>138</ele>
        <time>2025-04-10T17:18:22Z</time>
      </trkpt>
      <trkpt lat="43.65455" lon="1.38911">
        <ele>138</ele>
        <time>2025-04-10T17:18:23Z</time>
      </trkpt>
      <trkpt lat="43.65457" lon="1.38914">
        <ele>138</ele>
        <time>2025-04-10T17:18:24Z</time>
      </trkpt>
      <trkpt lat="43.65458" lon="1.38916">
        <ele>138</ele>
        <time>2025-04-10T17:18:25Z</time>
      </trkpt>
      <trkpt lat="43.65458" lon="1.38916">
        <ele>138</ele>
        <time>2025-04-10T17:18:26Z</time>
      </trkpt>
      <trkpt lat="43.6546" lon="1.3892">
        <ele>138</ele>
        <time>2025-04-10T17:18:27Z</time>
      </trkpt>
      <trkpt lat="43.6546" lon="1.3892">
        <ele>138</ele>
        <time>2025-04-10T17:18:28Z</time>
      </trkpt>
      <trkpt lat="43.65462" lon="1.38925">
        <ele>138</ele>
        <time>2025-04-10T17:18:29Z</time>
      </trkpt>
      <trkpt lat="43.65463" lon="1.38928">
        <ele>137</ele>
        <time>2025-04-10T17:18:30Z</time>
      </trkpt>
      <trkpt lat="43.65463" lon="1.38931">
        <ele>137</ele>
        <time>2025-04-10T17:18:31Z</time>
      </trkpt>
      <trkpt lat="43.65464" lon="1.38935">
        <ele>137</ele>
        <time>2025-04-10T17:18:32Z</time>
      </trkpt>
      <trkpt lat="43.65465" lon="1.38939">
        <ele>136</ele>
        <time>2025-04-10T17:18:33Z</time>
      </trkpt>
      <trkpt lat="43.65465" lon="1.38943">
        <ele>136</ele>
        <time>2025-04-10T17:18:34Z</time>
      </trkpt>
      <trkpt lat="43.65466" lon="1.38947">
        <ele>136</ele>
        <time>2025-04-10T17:18:35Z</time>
      </trkpt>
      <trkpt lat="43.65467" lon="1.38952">
        <ele>135</ele>
        <time>2025-04-10T17:18:36Z</time>
      </trkpt>
      <trkpt lat="43.65468" lon="1.38958">
        <ele>134</ele>
        <time>2025-04-10T17:18:37Z</time>
      </trkpt>
      <trkpt lat="43.6547" lon="1.38964">
        <ele>133</ele>
        <time>2025-04-10T17:18:38Z</time>
      </trkpt>
      <trkpt lat="43.65471" lon="1.38969">
        <ele>133</ele>
        <time>2025-04-10T17:18:39Z</time>
      </trkpt>
      <trkpt lat="43.65473" lon="1.38975">
        <ele>132</ele>
        <time>2025-04-10T17:18:40Z</time>
      </trkpt>
      <trkpt lat="43.65473" lon="1.3898">
        <ele>132</ele>
        <time>2025-04-10T17:18:41Z</time>
      </trkpt>
      <trkpt lat="43.65474" lon="1.38985">
        <ele>131</ele>
        <time>2025-04-10T17:18:42Z</time>
      </trkpt>
      <trkpt lat="43.65475" lon="1.38989">
        <ele>131</ele>
        <time>2025-04-10T17:18:43Z</time>
      </trkpt>
      <trkpt lat="43.65473" lon="1.38993">
        <ele>131</ele>
        <time>2025-04-10T17:18:44Z</time>
      </trkpt>
      <trkpt lat="43.6547" lon="1.38994">
        <ele>131</ele>
        <time>2025-04-10T17:18:45Z</time>
      </trkpt>
      <trkpt lat="43.65468" lon="1.38994">
        <ele>130</ele>
        <time>2025-04-10T17:18:46Z</time>
      </trkpt>
      <trkpt lat="43.65466" lon="1.38993">
        <ele>129</ele>
        <time>2025-04-10T17:18:47Z</time>
      </trkpt>
      <trkpt lat="43.65466" lon="1.38993">
        <ele>128</ele>
        <time>2025-04-10T17:18:48Z</time>
      </trkpt>
      <trkpt lat="43.65463" lon="1.38991">
        <ele>128</ele>
        <time>2025-04-10T17:18:49Z</time>
      </trkpt>
      <trkpt lat="43.65463" lon="1.38991">
        <ele>128</ele>
        <time>2025-04-10T17:18:50Z</time>
      </trkpt>
      <trkpt lat="43.65461" lon="1.38988">
        <ele>128</ele>
        <time>2025-04-10T17:18:51Z</time>
      </trkpt>
      <trkpt lat="43.65461" lon="1.38988">
        <ele>127</ele>
        <time>2025-04-10T17:18:52Z</time>
      </trkpt>
      <trkpt lat="43.6546" lon="1.38984">
        <ele>127</ele>
        <time>2025-04-10T17:18:53Z</time>
      </trkpt>
      <trkpt lat="43.6546" lon="1.38984">
        <ele>127</ele>
        <time>2025-04-10T17:18:54Z</time>
      </trkpt>
      <trkpt lat="43.65458" lon="1.38979">
        <ele>127</ele>
        <time>2025-04-10T17:18:55Z</time>
      </trkpt>
      <trkpt lat="43.65458" lon="1.38979">
        <ele>127</ele>
        <time>2025-04-10T17:18:56Z</time>
      </trkpt>
      <trkpt lat="43.65457" lon="1.38976">
        <ele>128</ele>
        <time>2025-04-10T17:18:57Z</time>
      </trkpt>
      <trkpt lat="43.65457" lon="1.38976">
        <ele>128</ele>
        <time>2025-04-10T17:18:58Z</time>
      </trkpt>
      <trkpt lat="43.65456" lon="1.38973">
        <ele>128</ele>
        <time>2025-04-10T17:18:59Z</time>
      </trkpt>
      <trkpt lat="43.65456" lon="1.38973">
        <ele>128</ele>
        <time>2025-04-10T17:19:00Z</time>
      </trkpt>
      <trkpt lat="43.65456" lon="1.38973">
        <ele>128</ele>
        <time>2025-04-10T17:19:01Z</time>
      </trkpt>
      <trkpt lat="43.65456" lon="1.38973">
        <ele>128</ele>
        <time>2025-04-10T17:19:02Z</time>
      </trkpt>
      <trkpt lat="43.65456" lon="1.3897">
        <ele>128</ele>
        <time>2025-04-10T17:19:03Z</time>
      </trkpt>
      <trkpt lat="43.65456" lon="1.3897">
        <ele>128</ele>
        <time>2025-04-10T17:19:04Z</time>
      </trkpt>
      <trkpt lat="43.65456" lon="1.3897">
        <ele>128</ele>
        <time>2025-04-10T17:19:05Z</time>
      </trkpt>
      <trkpt lat="43.65456" lon="1.3897">
        <ele>128</ele>
        <time>2025-04-10T17:19:06Z</time>
      </trkpt>
      <trkpt lat="43.65454" lon="1.38968">
        <ele>128</ele>
        <time>2025-04-10T17:19:07Z</time>
      </trkpt>
      <trkpt lat="43.65452" lon="1.38966">
        <ele>128</ele>
        <time>2025-04-10T17:19:08Z</time>
      </trkpt>
      <trkpt lat="43.65451" lon="1.38963">
        <ele>128</ele>
        <time>2025-04-10T17:19:09Z</time>
      </trkpt>
      <trkpt lat="43.65449" lon="1.38961">
        <ele>128</ele>
        <time>2025-04-10T17:19:10Z</time>
      </trkpt>
      <trkpt lat="43.65447" lon="1.38958">
        <ele>129</ele>
        <time>2025-04-10T17:19:11Z</time>
      </trkpt>
      <trkpt lat="43.65445" lon="1.38955">
        <ele>129</ele>
        <time>2025-04-10T17:19:12Z</time>
      </trkpt>
      <trkpt lat="43.65443" lon="1.38951">
        <ele>129</ele>
        <time>2025-04-10T17:19:13Z</time>
      </trkpt>
      <trkpt lat="43.65442" lon="1.38949">
        <ele>129</ele>
        <time>2025-04-10T17:19:14Z</time>
      </trkpt>
      <trkpt lat="43.6544" lon="1.38947">
        <ele>130</ele>
        <time>2025-04-10T17:19:15Z</time>
      </trkpt>
      <trkpt lat="43.65438" lon="1.38944">
        <ele>131</ele>
        <time>2025-04-10T17:19:16Z</time>
      </trkpt>
      <trkpt lat="43.65436" lon="1.38942">
        <ele>132</ele>
        <time>2025-04-10T17:19:17Z</time>
      </trkpt>
      <trkpt lat="43.65435" lon="1.3894">
        <ele>133</ele>
        <time>2025-04-10T17:19:18Z</time>
      </trkpt>
      <trkpt lat="43.65432" lon="1.38936">
        <ele>134</ele>
        <time>2025-04-10T17:19:19Z</time>
      </trkpt>
      <trkpt lat="43.6543" lon="1.38932">
        <ele>134</ele>
        <time>2025-04-10T17:19:20Z</time>
      </trkpt>
      <trkpt lat="43.65427" lon="1.38928">
        <ele>135</ele>
        <time>2025-04-10T17:19:21Z</time>
      </trkpt>
      <trkpt lat="43.65425" lon="1.38924">
        <ele>135</ele>
        <time>2025-04-10T17:19:22Z</time>
      </trkpt>
      <trkpt lat="43.65423" lon="1.38919">
        <ele>135</ele>
        <time>2025-04-10T17:19:23Z</time>
      </trkpt>
      <trkpt lat="43.6542" lon="1.38914">
        <ele>135</ele>
        <time>2025-04-10T17:19:24Z</time>
      </trkpt>
      <trkpt lat="43.65418" lon="1.38908">
        <ele>136</ele>
        <time>2025-04-10T17:19:25Z</time>
      </trkpt>
      <trkpt lat="43.65417" lon="1.38902">
        <ele>137</ele>
        <time>2025-04-10T17:19:26Z</time>
      </trkpt>
      <trkpt lat="43.65416" lon="1.38895">
        <ele>137</ele>
        <time>2025-04-10T17:19:27Z</time>
      </trkpt>
      <trkpt lat="43.65415" lon="1.38889">
        <ele>137</ele>
        <time>2025-04-10T17:19:28Z</time>
      </trkpt>
      <trkpt lat="43.65413" lon="1.38884">
        <ele>137</ele>
        <time>2025-04-10T17:19:29Z</time>
      </trkpt>
      <trkpt lat="43.65412" lon="1.38878">
        <ele>137</ele>
        <time>2025-04-10T17:19:30Z</time>
      </trkpt>
      <trkpt lat="43.65412" lon="1.38871">
        <ele>138</ele>
        <time>2025-04-10T17:19:31Z</time>
      </trkpt>
      <trkpt lat="43.65411" lon="1.38865">
        <ele>138</ele>
        <time>2025-04-10T17:19:32Z</time>
      </trkpt>
      <trkpt lat="43.65412" lon="1.3886">
        <ele>139</ele>
        <time>2025-04-10T17:19:33Z</time>
      </trkpt>
      <trkpt lat="43.65413" lon="1.38857">
        <ele>139</ele>
        <time>2025-04-10T17:19:34Z</time>
      </trkpt>
      <trkpt lat="43.65415" lon="1.38854">
        <ele>140</ele>
        <time>2025-04-10T17:19:35Z</time>
      </trkpt>
      <trkpt lat="43.65416" lon="1.38851">
        <ele>140</ele>
        <time>2025-04-10T17:19:36Z</time>
      </trkpt>
      <trkpt lat="43.65417" lon="1.38849">
        <ele>140</ele>
        <time>2025-04-10T17:19:37Z</time>
      </trkpt>
      <trkpt lat="43.65417" lon="1.38849">
        <ele>140</ele>
        <time>2025-04-10T17:19:38Z</time>
      </trkpt>
      <trkpt lat="43.6542" lon="1.38846">
        <ele>140</ele>
        <time>2025-04-10T17:19:39Z</time>
      </trkpt>
      <trkpt lat="43.6542" lon="1.38846">
        <ele>140</ele>
        <time>2025-04-10T17:19:40Z</time>
      </trkpt>
      <trkpt lat="43.65423" lon="1.38844">
        <ele>141</ele>
        <time>2025-04-10T17:19:41Z</time>
      </trkpt>
      <trkpt lat="43.65423" lon="1.38844">
        <ele>141</ele>
        <time>2025-04-10T17:19:42Z</time>
      </trkpt>
      <trkpt lat="43.65425" lon="1.38842">
        <ele>141</ele>
        <time>2025-04-10T17:19:43Z</time>
      </trkpt>
      <trkpt lat="43.65425" lon="1.38842">
        <ele>141</ele>
        <time>2025-04-10T17:19:44Z</time>
      </trkpt>
      <trkpt lat="43.65428" lon="1.38843">
        <ele>141</ele>
        <time>2025-04-10T17:19:45Z</time>
      </trkpt>
      <trkpt lat="43.65429" lon="1.38844">
        <ele>141</ele>
        <time>2025-04-10T17:19:46Z</time>
      </trkpt>
      <trkpt lat="43.65429" lon="1.38844">
        <ele>141</ele>
        <time>2025-04-10T17:19:47Z</time>
      </trkpt>
      <trkpt lat="43.65431" lon="1.38848">
        <ele>141</ele>
        <time>2025-04-10T17:19:48Z</time>
      </trkpt>
      <trkpt lat="43.65431" lon="1.38848">
        <ele>141</ele>
        <time>2025-04-10T17:19:49Z</time>
      </trkpt>
      <trkpt lat="43.65432" lon="1.38851">
        <ele>141</ele>
        <time>2025-04-10T17:19:50Z</time>
      </trkpt>
      <trkpt lat="43.65432" lon="1.38851">
        <ele>141</ele>
        <time>2025-04-10T17:19:51Z</time>
      </trkpt>
      <trkpt lat="43.65434" lon="1.38855">
        <ele>141</ele>
        <time>2025-04-10T17:19:52Z</time>
      </trkpt>
      <trkpt lat="43.65434" lon="1.38855">
        <ele>141</ele>
        <time>2025-04-10T17:19:53Z</time>
      </trkpt>
      <trkpt lat="43.65436" lon="1.38858">
        <ele>141</ele>
        <time>2025-04-10T17:19:54Z</time>
      </trkpt>
      <trkpt lat="43.65436" lon="1.38858">
        <ele>141</ele>
        <time>2025-04-10T17:19:55Z</time>
      </trkpt>
      <trkpt lat="43.65437" lon="1.38862">
        <ele>141</ele>
        <time>2025-04-10T17:19:56Z</time>
      </trkpt>
      <trkpt lat="43.65437" lon="1.38862">
        <ele>140</ele>
        <time>2025-04-10T17:19:57Z</time>
      </trkpt>
      <trkpt lat="43.65437" lon="1.38865">
        <ele>140</ele>
        <time>2025-04-10T17:19:58Z</time>
      </trkpt>
      <trkpt lat="43.65437" lon="1.38865">
        <ele>140</ele>
        <time>2025-04-10T17:19:59Z</time>
      </trkpt>
      <trkpt lat="43.65438" lon="1.38869">
        <ele>140</ele>
        <time>2025-04-10T17:20:00Z</time>
      </trkpt>
      <trkpt lat="43.65438" lon="1.38869">
        <ele>140</ele>
        <time>2025-04-10T17:20:01Z</time>
      </trkpt>
      <trkpt lat="43.65439" lon="1.38872">
        <ele>140</ele>
        <time>2025-04-10T17:20:02Z</time>
      </trkpt>
      <trkpt lat="43.65439" lon="1.38872">
        <ele>140</ele>
        <time>2025-04-10T17:20:03Z</time>
      </trkpt>
      <trkpt lat="43.65441" lon="1.38875">
        <ele>140</ele>
        <time>2025-04-10T17:20:04Z</time>
      </trkpt>
      <trkpt lat="43.65441" lon="1.38875">
        <ele>140</ele>
        <time>2025-04-10T17:20:05Z</time>
      </trkpt>
      <trkpt lat="43.65443" lon="1.38879">
        <ele>140</ele>
        <time>2025-04-10T17:20:06Z</time>
      </trkpt>
      <trkpt lat="43.65443" lon="1.38879">
        <ele>140</ele>
        <time>2025-04-10T17:20:07Z</time>
      </trkpt>
      <trkpt lat="43.65443" lon="1.38883">
        <ele>140</ele>
        <time>2025-04-10T17:20:08Z</time>
      </trkpt>
      <trkpt lat="43.65443" lon="1.38883">
        <ele>140</ele>
        <time>2025-04-10T17:20:09Z</time>
      </trkpt>
      <trkpt lat="43.65444" lon="1.38886">
        <ele>140</ele>
        <time>2025-04-10T17:20:10Z</time>
      </trkpt>
      <trkpt lat="43.65444" lon="1.38886">
        <ele>140</ele>
        <time>2025-04-10T17:20:11Z</time>
      </trkpt>
      <trkpt lat="43.65446" lon="1.3889">
        <ele>139</ele>
        <time>2025-04-10T17:20:12Z</time>
      </trkpt>
      <trkpt lat="43.65446" lon="1.3889">
        <ele>139</ele>
        <time>2025-04-10T17:20:13Z</time>
      </trkpt>
      <trkpt lat="43.65446" lon="1.38894">
        <ele>139</ele>
        <time>2025-04-10T17:20:14Z</time>
      </trkpt>
      <trkpt lat="43.65446" lon="1.38894">
        <ele>139</ele>
        <time>2025-04-10T17:20:15Z</time>
      </trkpt>
      <trkpt lat="43.65447" lon="1.38898">
        <ele>139</ele>
        <time>2025-04-10T17:20:16Z</time>
      </trkpt>
      <trkpt lat="43.65447" lon="1.38898">
        <ele>139</ele>
        <time>2025-04-10T17:20:17Z</time>
      </trkpt>
      <trkpt lat="43.65448" lon="1.38901">
        <ele>139</ele>
        <time>2025-04-10T17:20:18Z</time>
      </trkpt>
      <trkpt lat="43.65448" lon="1.38901">
        <ele>139</ele>
        <time>2025-04-10T17:20:19Z</time>
      </trkpt>
      <trkpt lat="43.65449" lon="1.38904">
        <ele>139</ele>
        <time>2025-04-10T17:20:20Z</time>
      </trkpt>
      <trkpt lat="43.65449" lon="1.38904">
        <ele>139</ele>
        <time>2025-04-10T17:20:21Z</time>
      </trkpt>
      <trkpt lat="43.65451" lon="1.38907">
        <ele>139</ele>
        <time>2025-04-10T17:20:22Z</time>
      </trkpt>
      <trkpt lat="43.65451" lon="1.38907">
        <ele>139</ele>
        <time>2025-04-10T17:20:23Z</time>
      </trkpt>
      <trkpt lat="43.65453" lon="1.3891">
        <ele>139</ele>
        <time>2025-04-10T17:20:24Z</time>
      </trkpt>
      <trkpt lat="43.65453" lon="1.3891">
        <ele>139</ele>
        <time>2025-04-10T17:20:25Z</time>
      </trkpt>
      <trkpt lat="43.65456" lon="1.38913">
        <ele>139</ele>
        <time>2025-04-10T17:20:26Z</time>
      </trkpt>
      <trkpt lat="43.65457" lon="1.38915">
        <ele>139</ele>
        <time>2025-04-10T17:20:27Z</time>
      </trkpt>
      <trkpt lat="43.65457" lon="1.38915">
        <ele>139</ele>
        <time>2025-04-10T17:20:28Z</time>
      </trkpt>
      <trkpt lat="43.6546" lon="1.38919">
        <ele>139</ele>
        <time>2025-04-10T17:20:29Z</time>
      </trkpt>
      <trkpt lat="43.65461" lon="1.38922">
        <ele>139</ele>
        <time>2025-04-10T17:20:30Z</time>
      </trkpt>
      <trkpt lat="43.65462" lon="1.38926">
        <ele>139</ele>
        <time>2025-04-10T17:20:31Z</time>
      </trkpt>
      <trkpt lat="43.65463" lon="1.38929">
        <ele>139</ele>
        <time>2025-04-10T17:20:32Z</time>
      </trkpt>
      <trkpt lat="43.65464" lon="1.38933">
        <ele>138</ele>
        <time>2025-04-10T17:20:33Z</time>
      </trkpt>
      <trkpt lat="43.65464" lon="1.38936">
        <ele>138</ele>
        <time>2025-04-10T17:20:34Z</time>
      </trkpt>
      <trkpt lat="43.65465" lon="1.3894">
        <ele>137</ele>
        <time>2025-04-10T17:20:35Z</time>
      </trkpt>
      <trkpt lat="43.65466" lon="1.38944">
        <ele>136</ele>
        <time>2025-04-10T17:20:36Z</time>
      </trkpt>
      <trkpt lat="43.65466" lon="1.38948">
        <ele>136</ele>
        <time>2025-04-10T17:20:37Z</time>
      </trkpt>
      <trkpt lat="43.65467" lon="1.38952">
        <ele>136</ele>
        <time>2025-04-10T17:20:38Z</time>
      </trkpt>
      <trkpt lat="43.65468" lon="1.38957">
        <ele>136</ele>
        <time>2025-04-10T17:20:39Z</time>
      </trkpt>
      <trkpt lat="43.65469" lon="1.38962">
        <ele>134</ele>
        <time>2025-04-10T17:20:40Z</time>
      </trkpt>
      <trkpt lat="43.6547" lon="1.38967">
        <ele>132</ele>
        <time>2025-04-10T17:20:41Z</time>
      </trkpt>
      <trkpt lat="43.65471" lon="1.38972">
        <ele>132</ele>
        <time>2025-04-10T17:20:42Z</time>
      </trkpt>
      <trkpt lat="43.65472" lon="1.38977">
        <ele>132</ele>
        <time>2025-04-10T17:20:43Z</time>
      </trkpt>
      <trkpt lat="43.65473" lon="1.38981">
        <ele>131</ele>
        <time>2025-04-10T17:20:44Z</time>
      </trkpt>
      <trkpt lat="43.65473" lon="1.38985">
        <ele>130</ele>
        <time>2025-04-10T17:20:45Z</time>
      </trkpt>
      <trkpt lat="43.65474" lon="1.38989">
        <ele>130</ele>
        <time>2025-04-10T17:20:46Z</time>
      </trkpt>
      <trkpt lat="43.65474" lon="1.38993">
        <ele>130</ele>
        <time>2025-04-10T17:20:47Z</time>
      </trkpt>
      <trkpt lat="43.65473" lon="1.38995">
        <ele>130</ele>
        <time>2025-04-10T17:20:48Z</time>
      </trkpt>
      <trkpt lat="43.6547" lon="1.38996">
        <ele>130</ele>
        <time>2025-04-10T17:20:49Z</time>
      </trkpt>
      <trkpt lat="43.65467" lon="1.38996">
        <ele>129</ele>
        <time>2025-04-10T17:20:50Z</time>
      </trkpt>
      <trkpt lat="43.65464" lon="1.38996">
        <ele>128</ele>
        <time>2025-04-10T17:20:51Z</time>
      </trkpt>
      <trkpt lat="43.65462" lon="1.38994">
        <ele>128</ele>
        <time>2025-04-10T17:20:52Z</time>
      </trkpt>
      <trkpt lat="43.65461" lon="1.38993">
        <ele>128</ele>
        <time>2025-04-10T17:20:53Z</time>
      </trkpt>
      <trkpt lat="43.65459" lon="1.38991">
        <ele>128</ele>
        <time>2025-04-10T17:20:54Z</time>
      </trkpt>
      <trkpt lat="43.65458" lon="1.38989">
        <ele>128</ele>
        <time>2025-04-10T17:20:55Z</time>
      </trkpt>
      <trkpt lat="43.65457" lon="1.38986">
        <ele>128</ele>
        <time>2025-04-10T17:20:56Z</time>
      </trkpt>
      <trkpt lat="43.65457" lon="1.38986">
        <ele>128</ele>
        <time>2025-04-10T17:20:57Z</time>
      </trkpt>
      <trkpt lat="43.65456" lon="1.38981">
        <ele>128</ele>
        <time>2025-04-10T17:20:58Z</time>
      </trkpt>
      <trkpt lat="43.65456" lon="1.38981">
        <ele>128</ele>
        <time>2025-04-10T17:20:59Z</time>
      </trkpt>
      <trkpt lat="43.65455" lon="1.38978">
        <ele>128</ele>
        <time>2025-04-10T17:21:00Z</time>
      </trkpt>
      <trkpt lat="43.65455" lon="1.38978">
        <ele>128</ele>
        <time>2025-04-10T17:21:01Z</time>
      </trkpt>
      <trkpt lat="43.65455" lon="1.38978">
        <ele>128</ele>
        <time>2025-04-10T17:21:02Z</time>
      </trkpt>
      <trkpt lat="43.65455" lon="1.38975">
        <ele>128</ele>
        <time>2025-04-10T17:21:03Z</time>
      </trkpt>
      <trkpt lat="43.65455" lon="1.38975">
        <ele>128</ele>
        <time>2025-04-10T17:21:04Z</time>
      </trkpt>
      <trkpt lat="43.65455" lon="1.38975">
        <ele>128</ele>
        <time>2025-04-10T17:21:05Z</time>
      </trkpt>
      <trkpt lat="43.65455" lon="1.38975">
        <ele>129</ele>
        <time>2025-04-10T17:21:06Z</time>
      </trkpt>
      <trkpt lat="43.65455" lon="1.38975">
        <ele>129</ele>
        <time>2025-04-10T17:21:07Z</time>
      </trkpt>
      <trkpt lat="43.65454" lon="1.38972">
        <ele>129</ele>
        <time>2025-04-10T17:21:08Z</time>
      </trkpt>
      <trkpt lat="43.65454" lon="1.38972">
        <ele>129</ele>
        <time>2025-04-10T17:21:09Z</time>
      </trkpt>
      <trkpt lat="43.65452" lon="1.38969">
        <ele>128</ele>
        <time>2025-04-10T17:21:10Z</time>
      </trkpt>
      <trkpt lat="43.65452" lon="1.38969">
        <ele>128</ele>
        <time>2025-04-10T17:21:11Z</time>
      </trkpt>
      <trkpt lat="43.65448" lon="1.38962">
        <ele>128</ele>
        <time>2025-04-10T17:21:12Z</time>
      </trkpt>
      <trkpt lat="43.65447" lon="1.38961">
        <ele>128</ele>
        <time>2025-04-10T17:21:13Z</time>
      </trkpt>
      <trkpt lat="43.65445" lon="1.38958">
        <ele>130</ele>
        <time>2025-04-10T17:21:14Z</time>
      </trkpt>
      <trkpt lat="43.65444" lon="1.38955">
        <ele>131</ele>
        <time>2025-04-10T17:21:15Z</time>
      </trkpt>
      <trkpt lat="43.65442" lon="1.38952">
        <ele>131</ele>
        <time>2025-04-10T17:21:16Z</time>
      </trkpt>
      <trkpt lat="43.6544" lon="1.38949">
        <ele>131</ele>
        <time>2025-04-10T17:21:17Z</time>
      </trkpt>
      <trkpt lat="43.65438" lon="1.38946">
        <ele>132</ele>
        <time>2025-04-10T17:21:18Z</time>
      </trkpt>
      <trkpt lat="43.65436" lon="1.38943">
        <ele>133</ele>
        <time>2025-04-10T17:21:19Z</time>
      </trkpt>
      <trkpt lat="43.65434" lon="1.38939">
        <ele>133</ele>
        <time>2025-04-10T17:21:20Z</time>
      </trkpt>
      <trkpt lat="43.65431" lon="1.38935">
        <ele>133</ele>
        <time>2025-04-10T17:21:21Z</time>
      </trkpt>
      <trkpt lat="43.65429" lon="1.3893">
        <ele>134</ele>
        <time>2025-04-10T17:21:22Z</time>
      </trkpt>
      <trkpt lat="43.65426" lon="1.38926">
        <ele>134</ele>
        <time>2025-04-10T17:21:23Z</time>
      </trkpt>
      <trkpt lat="43.65424" lon="1.38921">
        <ele>135</ele>
        <time>2025-04-10T17:21:24Z</time>
      </trkpt>
      <trkpt lat="43.65421" lon="1.38916">
        <ele>136</ele>
        <time>2025-04-10T17:21:25Z</time>
      </trkpt>
      <trkpt lat="43.65419" lon="1.38909">
        <ele>136</ele>
        <time>2025-04-10T17:21:26Z</time>
      </trkpt>
      <trkpt lat="43.65417" lon="1.38903">
        <ele>137</ele>
        <time>2025-04-10T17:21:27Z</time>
      </trkpt>
      <trkpt lat="43.65415" lon="1.38896">
        <ele>138</ele>
        <time>2025-04-10T17:21:28Z</time>
      </trkpt>
      <trkpt lat="43.65414" lon="1.38891">
        <ele>138</ele>
        <time>2025-04-10T17:21:29Z</time>
      </trkpt>
      <trkpt lat="43.65413" lon="1.38885">
        <ele>138</ele>
        <time>2025-04-10T17:21:30Z</time>
      </trkpt>
      <trkpt lat="43.65412" lon="1.38879">
        <ele>138</ele>
        <time>2025-04-10T17:21:31Z</time>
      </trkpt>
      <trkpt lat="43.65411" lon="1.38873">
        <ele>139</ele>
        <time>2025-04-10T17:21:32Z</time>
      </trkpt>
      <trkpt lat="43.65411" lon="1.38867">
        <ele>139</ele>
        <time>2025-04-10T17:21:33Z</time>
      </trkpt>
      <trkpt lat="43.65412" lon="1.38861">
        <ele>139</ele>
        <time>2025-04-10T17:21:34Z</time>
      </trkpt>
      <trkpt lat="43.65412" lon="1.38856">
        <ele>139</ele>
        <time>2025-04-10T17:21:35Z</time>
      </trkpt>
      <trkpt lat="43.65413" lon="1.38853">
        <ele>139</ele>
        <time>2025-04-10T17:21:36Z</time>
      </trkpt>
      <trkpt lat="43.65414" lon="1.3885">
        <ele>139</ele>
        <time>2025-04-10T17:21:37Z</time>
      </trkpt>
      <trkpt lat="43.65415" lon="1.38847">
        <ele>139</ele>
        <time>2025-04-10T17:21:38Z</time>
      </trkpt>
      <trkpt lat="43.65416" lon="1.38845">
        <ele>140</ele>
        <time>2025-04-10T17:21:39Z</time>
      </trkpt>
      <trkpt lat="43.65416" lon="1.38845">
        <ele>140</ele>
        <time>2025-04-10T17:21:40Z</time>
      </trkpt>
      <trkpt lat="43.65419" lon="1.38842">
        <ele>140</ele>
        <time>2025-04-10T17:21:41Z</time>
      </trkpt>
      <trkpt lat="43.65421" lon="1.38841">
        <ele>140</ele>
        <time>2025-04-10T17:21:42Z</time>
      </trkpt>
      <trkpt lat="43.65421" lon="1.38841">
        <ele>140</ele>
        <time>2025-04-10T17:21:43Z</time>
      </trkpt>
      <trkpt lat="43.65423" lon="1.3884">
        <ele>140</ele>
        <time>2025-04-10T17:21:44Z</time>
      </trkpt>
      <trkpt lat="43.65423" lon="1.3884">
        <ele>140</ele>
        <time>2025-04-10T17:21:45Z</time>
      </trkpt>
      <trkpt lat="43.65427" lon="1.38841">
        <ele>141</ele>
        <time>2025-04-10T17:21:46Z</time>
      </trkpt>
      <trkpt lat="43.65427" lon="1.38841">
        <ele>142</ele>
        <time>2025-04-10T17:21:47Z</time>
      </trkpt>
      <trkpt lat="43.65428" lon="1.38844">
        <ele>142</ele>
        <time>2025-04-10T17:21:48Z</time>
      </trkpt>
      <trkpt lat="43.65429" lon="1.38846">
        <ele>142</ele>
        <time>2025-04-10T17:21:49Z</time>
      </trkpt>
      <trkpt lat="43.6543" lon="1.38848">
        <ele>142</ele>
        <time>2025-04-10T17:21:50Z</time>
      </trkpt>
      <trkpt lat="43.65432" lon="1.3885">
        <ele>142</ele>
        <time>2025-04-10T17:21:51Z</time>
      </trkpt>
      <trkpt lat="43.65433" lon="1.38853">
        <ele>142</ele>
        <time>2025-04-10T17:21:52Z</time>
      </trkpt>
      <trkpt lat="43.65434" lon="1.38856">
        <ele>141</ele>
        <time>2025-04-10T17:21:53Z</time>
      </trkpt>
      <trkpt lat="43.65435" lon="1.38858">
        <ele>141</ele>
        <time>2025-04-10T17:21:54Z</time>
      </trkpt>
      <trkpt lat="43.65436" lon="1.38861">
        <ele>141</ele>
        <time>2025-04-10T17:21:55Z</time>
      </trkpt>
      <trkpt lat="43.65438" lon="1.38864">
        <ele>141</ele>
        <time>2025-04-10T17:21:56Z</time>
      </trkpt>
      <trkpt lat="43.65439" lon="1.38868">
        <ele>140</ele>
        <time>2025-04-10T17:21:57Z</time>
      </trkpt>
      <trkpt lat="43.65439" lon="1.38871">
        <ele>140</ele>
        <time>2025-04-10T17:21:58Z</time>
      </trkpt>
      <trkpt lat="43.6544" lon="1.38873">
        <ele>140</ele>
        <time>2025-04-10T17:21:59Z</time>
      </trkpt>
      <trkpt lat="43.6544" lon="1.38873">
        <ele>139</ele>
        <time>2025-04-10T17:22:00Z</time>
      </trkpt>
      <trkpt lat="43.65441" lon="1.38877">
        <ele>139</ele>
        <time>2025-04-10T17:22:01Z</time>
      </trkpt>
      <trkpt lat="43.65441" lon="1.3888">
        <ele>139</ele>
        <time>2025-04-10T17:22:02Z</time>
      </trkpt>
      <trkpt lat="43.65442" lon="1.38883">
        <ele>139</ele>
        <time>2025-04-10T17:22:03Z</time>
      </trkpt>
      <trkpt lat="43.65443" lon="1.38886">
        <ele>139</ele>
        <time>2025-04-10T17:22:04Z</time>
      </trkpt>
      <trkpt lat="43.65443" lon="1.38886">
        <ele>139</ele>
        <time>2025-04-10T17:22:05Z</time>
      </trkpt>
      <trkpt lat="43.65444" lon="1.38891">
        <ele>139</ele>
        <time>2025-04-10T17:22:06Z</time>
      </trkpt>
      <trkpt lat="43.65444" lon="1.38891">
        <ele>139</ele>
        <time>2025-04-10T17:22:07Z</time>
      </trkpt>
      <trkpt lat="43.65446" lon="1.38895">
        <ele>139</ele>
        <time>2025-04-10T17:22:08Z</time>
      </trkpt>
      <trkpt lat="43.65447" lon="1.38898">
        <ele>139</ele>
        <time>2025-04-10T17:22:09Z</time>
      </trkpt>
      <trkpt lat="43.65447" lon="1.389">
        <ele>139</ele>
        <time>2025-04-10T17:22:10Z</time>
      </trkpt>
      <trkpt lat="43.65448" lon="1.38903">
        <ele>139</ele>
        <time>2025-04-10T17:22:11Z</time>
      </trkpt>
      <trkpt lat="43.65449" lon="1.38905">
        <ele>139</ele>
        <time>2025-04-10T17:22:12Z</time>
      </trkpt>
      <trkpt lat="43.6545" lon="1.38907">
        <ele>139</ele>
        <time>2025-04-10T17:22:13Z</time>
      </trkpt>
      <trkpt lat="43.65452" lon="1.38909">
        <ele>139</ele>
        <time>2025-04-10T17:22:14Z</time>
      </trkpt>
      <trkpt lat="43.65453" lon="1.38911">
        <ele>139</ele>
        <time>2025-04-10T17:22:15Z</time>
      </trkpt>
      <trkpt lat="43.65455" lon="1.38913">
        <ele>139</ele>
        <time>2025-04-10T17:22:16Z</time>
      </trkpt>
      <trkpt lat="43.65456" lon="1.38915">
        <ele>139</ele>
        <time>2025-04-10T17:22:17Z</time>
      </trkpt>
      <trkpt lat="43.65457" lon="1.38918">
        <ele>139</ele>
        <time>2025-04-10T17:22:18Z</time>
      </trkpt>
      <trkpt lat="43.65458" lon="1.38922">
        <ele>139</ele>
        <time>2025-04-10T17:22:19Z</time>
      </trkpt>
      <trkpt lat="43.65459" lon="1.38926">
        <ele>139</ele>
        <time>2025-04-10T17:22:20Z</time>
      </trkpt>
      <trkpt lat="43.65461" lon="1.38929">
        <ele>139</ele>
        <time>2025-04-10T17:22:21Z</time>
      </trkpt>
      <trkpt lat="43.65462" lon="1.38933">
        <ele>139</ele>
        <time>2025-04-10T17:22:22Z</time>
      </trkpt>
      <trkpt lat="43.65463" lon="1.38937">
        <ele>139</ele>
        <time>2025-04-10T17:22:23Z</time>
      </trkpt>
      <trkpt lat="43.65465" lon="1.38942">
        <ele>138</ele>
        <time>2025-04-10T17:22:24Z</time>
      </trkpt>
      <trkpt lat="43.65466" lon="1.38945">
        <ele>137</ele>
        <time>2025-04-10T17:22:25Z</time>
      </trkpt>
      <trkpt lat="43.65467" lon="1.38951">
        <ele>137</ele>
        <time>2025-04-10T17:22:26Z</time>
      </trkpt>
      <trkpt lat="43.65469" lon="1.38956">
        <ele>136</ele>
        <time>2025-04-10T17:22:27Z</time>
      </trkpt>
      <trkpt lat="43.65471" lon="1.38961">
        <ele>134</ele>
        <time>2025-04-10T17:22:28Z</time>
      </trkpt>
      <trkpt lat="43.65472" lon="1.38966">
        <ele>133</ele>
        <time>2025-04-10T17:22:29Z</time>
      </trkpt>
      <trkpt lat="43.65473" lon="1.38971">
        <ele>133</ele>
        <time>2025-04-10T17:22:30Z</time>
      </trkpt>
      <trkpt lat="43.65474" lon="1.38975">
        <ele>133</ele>
        <time>2025-04-10T17:22:31Z</time>
      </trkpt>
      <trkpt lat="43.65475" lon="1.38979">
        <ele>132</ele>
        <time>2025-04-10T17:22:32Z</time>
      </trkpt>
      <trkpt lat="43.65475" lon="1.38983">
        <ele>132</ele>
        <time>2025-04-10T17:22:33Z</time>
      </trkpt>
      <trkpt lat="43.65474" lon="1.38987">
        <ele>131</ele>
        <time>2025-04-10T17:22:34Z</time>
      </trkpt>
      <trkpt lat="43.65472" lon="1.3899">
        <ele>130</ele>
        <time>2025-04-10T17:22:35Z</time>
      </trkpt>
      <trkpt lat="43.65469" lon="1.38992">
        <ele>129</ele>
        <time>2025-04-10T17:22:36Z</time>
      </trkpt>
      <trkpt lat="43.65466" lon="1.38992">
        <ele>129</ele>
        <time>2025-04-10T17:22:37Z</time>
      </trkpt>
      <trkpt lat="43.65464" lon="1.38991">
        <ele>129</ele>
        <time>2025-04-10T17:22:38Z</time>
      </trkpt>
      <trkpt lat="43.65462" lon="1.3899">
        <ele>129</ele>
        <time>2025-04-10T17:22:39Z</time>
      </trkpt>
      <trkpt lat="43.65462" lon="1.3899">
        <ele>129</ele>
        <time>2025-04-10T17:22:40Z</time>
      </trkpt>
      <trkpt lat="43.65459" lon="1.38988">
        <ele>129</ele>
        <time>2025-04-10T17:22:41Z</time>
      </trkpt>
      <trkpt lat="43.65459" lon="1.38988">
        <ele>129</ele>
        <time>2025-04-10T17:22:42Z</time>
      </trkpt>
      <trkpt lat="43.65458" lon="1.38985">
        <ele>129</ele>
        <time>2025-04-10T17:22:43Z</time>
      </trkpt>
      <trkpt lat="43.65458" lon="1.38985">
        <ele>129</ele>
        <time>2025-04-10T17:22:44Z</time>
      </trkpt>
      <trkpt lat="43.65457" lon="1.38982">
        <ele>129</ele>
        <time>2025-04-10T17:22:45Z</time>
      </trkpt>
      <trkpt lat="43.65457" lon="1.38982">
        <ele>129</ele>
        <time>2025-04-10T17:22:46Z</time>
      </trkpt>
      <trkpt lat="43.65457" lon="1.38979">
        <ele>129</ele>
        <time>2025-04-10T17:22:47Z</time>
      </trkpt>
      <trkpt lat="43.65457" lon="1.38979">
        <ele>129</ele>
        <time>2025-04-10T17:22:48Z</time>
      </trkpt>
      <trkpt lat="43.65457" lon="1.38979">
        <ele>129</ele>
        <time>2025-04-10T17:22:49Z</time>
      </trkpt>
      <trkpt lat="43.65457" lon="1.38976">
        <ele>129</ele>
        <time>2025-04-10T17:22:50Z</time>
      </trkpt>
      <trkpt lat="43.65457" lon="1.38976">
        <ele>129</ele>
        <time>2025-04-10T17:22:51Z</time>
      </trkpt>
      <trkpt lat="43.65457" lon="1.38976">
        <ele>129</ele>
        <time>2025-04-10T17:22:52Z</time>
      </trkpt>
      <trkpt lat="43.65457" lon="1.38976">
        <ele>129</ele>
        <time>2025-04-10T17:22:53Z</time>
      </trkpt>
      <trkpt lat="43.65457" lon="1.38976">
        <ele>129</ele>
        <time>2025-04-10T17:22:54Z</time>
      </trkpt>
      <trkpt lat="43.65457" lon="1.38976">
        <ele>129</ele>
        <time>2025-04-10T17:22:55Z</time>
      </trkpt>
      <trkpt lat="43.65455" lon="1.38972">
        <ele>129</ele>
        <time>2025-04-10T17:22:56Z</time>
      </trkpt>
      <trkpt lat="43.65455" lon="1.38972">
        <ele>129</ele>
        <time>2025-04-10T17:22:57Z</time>
      </trkpt>
      <trkpt lat="43.65454" lon="1.38969">
        <ele>129</ele>
        <time>2025-04-10T17:22:58Z</time>
      </trkpt>
      <trkpt lat="43.65453" lon="1.38966">
        <ele>129</ele>
        <time>2025-04-10T17:22:59Z</time>
      </trkpt>
      <trkpt lat="43.6545" lon="1.38962">
        <ele>129</ele>
        <time>2025-04-10T17:23:00Z</time>
      </trkpt>
      <trkpt lat="43.65447" lon="1.38959">
        <ele>129</ele>
        <time>2025-04-10T17:23:01Z</time>
      </trkpt>
      <trkpt lat="43.65445" lon="1.38956">
        <ele>130</ele>
        <time>2025-04-10T17:23:02Z</time>
      </trkpt>
      <trkpt lat="43.65443" lon="1.38953">
        <ele>130</ele>
        <time>2025-04-10T17:23:03Z</time>
      </trkpt>
      <trkpt lat="43.65441" lon="1.3895">
        <ele>131</ele>
        <time>2025-04-10T17:23:04Z</time>
      </trkpt>
      <trkpt lat="43.65439" lon="1.38947">
        <ele>132</ele>
        <time>2025-04-10T17:23:05Z</time>
      </trkpt>
      <trkpt lat="43.65437" lon="1.38944">
        <ele>132</ele>
        <time>2025-04-10T17:23:06Z</time>
      </trkpt>
      <trkpt lat="43.65435" lon="1.38942">
        <ele>133</ele>
        <time>2025-04-10T17:23:07Z</time>
      </trkpt>
      <trkpt lat="43.65432" lon="1.3894">
        <ele>134</ele>
        <time>2025-04-10T17:23:08Z</time>
      </trkpt>
      <trkpt lat="43.6543" lon="1.38938">
        <ele>135</ele>
        <time>2025-04-10T17:23:09Z</time>
      </trkpt>
      <trkpt lat="43.65428" lon="1.38935">
        <ele>135</ele>
        <time>2025-04-10T17:23:10Z</time>
      </trkpt>
      <trkpt lat="43.65426" lon="1.38931">
        <ele>135</ele>
        <time>2025-04-10T17:23:11Z</time>
      </trkpt>
      <trkpt lat="43.65424" lon="1.38927">
        <ele>136</ele>
        <time>2025-04-10T17:23:12Z</time>
      </trkpt>
      <trkpt lat="43.65422" lon="1.38923">
        <ele>136</ele>
        <time>2025-04-10T17:23:13Z</time>
      </trkpt>
      <trkpt lat="43.6542" lon="1.38919">
        <ele>136</ele>
        <time>2025-04-10T17:23:14Z</time>
      </trkpt>
      <trkpt lat="43.65419" lon="1.38914">
        <ele>136</ele>
        <time>2025-04-10T17:23:15Z</time>
      </trkpt>
      <trkpt lat="43.65417" lon="1.3891">
        <ele>136</ele>
        <time>2025-04-10T17:23:16Z</time>
      </trkpt>
      <trkpt lat="43.65416" lon="1.38904">
        <ele>136</ele>
        <time>2025-04-10T17:23:17Z</time>
      </trkpt>
      <trkpt lat="43.65414" lon="1.38898">
        <ele>137</ele>
        <time>2025-04-10T17:23:18Z</time>
      </trkpt>
      <trkpt lat="43.65413" lon="1.38892">
        <ele>137</ele>
        <time>2025-04-10T17:23:19Z</time>
      </trkpt>
      <trkpt lat="43.65412" lon="1.38887">
        <ele>137</ele>
        <time>2025-04-10T17:23:20Z</time>
      </trkpt>
      <trkpt lat="43.65412" lon="1.38881">
        <ele>138</ele>
        <time>2025-04-10T17:23:21Z</time>
      </trkpt>
      <trkpt lat="43.65411" lon="1.38875">
        <ele>138</ele>
        <time>2025-04-10T17:23:22Z</time>
      </trkpt>
      <trkpt lat="43.65411" lon="1.3887">
        <ele>139</ele>
        <time>2025-04-10T17:23:23Z</time>
      </trkpt>
      <trkpt lat="43.65412" lon="1.38865">
        <ele>139</ele>
        <time>2025-04-10T17:23:24Z</time>
      </trkpt>
      <trkpt lat="43.65413" lon="1.3886">
        <ele>140</ele>
        <time>2025-04-10T17:23:25Z</time>
      </trkpt>
      <trkpt lat="43.65414" lon="1.38856">
        <ele>140</ele>
        <time>2025-04-10T17:23:26Z</time>
      </trkpt>
      <trkpt lat="43.65416" lon="1.38854">
        <ele>140</ele>
        <time>2025-04-10T17:23:27Z</time>
      </trkpt>
      <trkpt lat="43.65417" lon="1.38851">
        <ele>140</ele>
        <time>2025-04-10T17:23:28Z</time>
      </trkpt>
      <trkpt lat="43.65418" lon="1.38849">
        <ele>140</ele>
        <time>2025-04-10T17:23:29Z</time>
      </trkpt>
      <trkpt lat="43.65418" lon="1.38849">
        <ele>140</ele>
        <time>2025-04-10T17:23:30Z</time>
      </trkpt>
      <trkpt lat="43.65421" lon="1.38847">
        <ele>140</ele>
        <time>2025-04-10T17:23:31Z</time>
      </trkpt>
      <trkpt lat="43.65421" lon="1.38847">
        <ele>141</ele>
        <time>2025-04-10T17:23:32Z</time>
      </trkpt>
      <trkpt lat="43.65423" lon="1.38844">
        <ele>141</ele>
        <time>2025-04-10T17:23:33Z</time>
      </trkpt>
      <trkpt lat="43.65423" lon="1.38844">
        <ele>141</ele>
        <time>2025-04-10T17:23:34Z</time>
      </trkpt>
      <trkpt lat="43.65425" lon="1.38842">
        <ele>141</ele>
        <time>2025-04-10T17:23:35Z</time>
      </trkpt>
      <trkpt lat="43.65427" lon="1.38841">
        <ele>141</ele>
        <time>2025-04-10T17:23:36Z</time>
      </trkpt>
      <trkpt lat="43.65427" lon="1.38841">
        <ele>142</ele>
        <time>2025-04-10T17:23:37Z</time>
      </trkpt>
      <trkpt lat="43.65429" lon="1.38842">
        <ele>142</ele>
        <time>2025-04-10T17:23:38Z</time>
      </trkpt>
      <trkpt lat="43.65429" lon="1.38842">
        <ele>142</ele>
        <time>2025-04-10T17:23:39Z</time>
      </trkpt>
      <trkpt lat="43.65431" lon="1.38846">
        <ele>142</ele>
        <time>2025-04-10T17:23:40Z</time>
      </trkpt>
      <trkpt lat="43.65431" lon="1.38846">
        <ele>142</ele>
        <time>2025-04-10T17:23:41Z</time>
      </trkpt>
      <trkpt lat="43.65432" lon="1.38849">
        <ele>142</ele>
        <time>2025-04-10T17:23:42Z</time>
      </trkpt>
      <trkpt lat="43.65432" lon="1.38849">
        <ele>142</ele>
        <time>2025-04-10T17:23:43Z</time>
      </trkpt>
      <trkpt lat="43.65434" lon="1.38853">
        <ele>142</ele>
        <time>2025-04-10T17:23:44Z</time>
      </trkpt>
      <trkpt lat="43.65436" lon="1.38855">
        <ele>142</ele>
        <time>2025-04-10T17:23:45Z</time>
      </trkpt>
      <trkpt lat="43.65436" lon="1.38858">
        <ele>142</ele>
        <time>2025-04-10T17:23:46Z</time>
      </trkpt>
      <trkpt lat="43.65436" lon="1.38858">
        <ele>142</ele>
        <time>2025-04-10T17:23:47Z</time>
      </trkpt>
      <trkpt lat="43.65437" lon="1.38862">
        <ele>141</ele>
        <time>2025-04-10T17:23:48Z</time>
      </trkpt>
      <trkpt lat="43.65438" lon="1.38865">
        <ele>141</ele>
        <time>2025-04-10T17:23:49Z</time>
      </trkpt>
      <trkpt lat="43.65439" lon="1.38867">
        <ele>141</ele>
        <time>2025-04-10T17:23:50Z</time>
      </trkpt>
      <trkpt lat="43.6544" lon="1.3887">
        <ele>141</ele>
        <time>2025-04-10T17:23:51Z</time>
      </trkpt>
      <trkpt lat="43.65441" lon="1.38872">
        <ele>141</ele>
        <time>2025-04-10T17:23:52Z</time>
      </trkpt>
      <trkpt lat="43.65441" lon="1.38875">
        <ele>141</ele>
        <time>2025-04-10T17:23:53Z</time>
      </trkpt>
      <trkpt lat="43.65442" lon="1.38878">
        <ele>140</ele>
        <time>2025-04-10T17:23:54Z</time>
      </trkpt>
      <trkpt lat="43.65443" lon="1.38881">
        <ele>140</ele>
        <time>2025-04-10T17:23:55Z</time>
      </trkpt>
      <trkpt lat="43.65443" lon="1.38884">
        <ele>140</ele>
        <time>2025-04-10T17:23:56Z</time>
      </trkpt>
      <trkpt lat="43.65444" lon="1.38887">
        <ele>140</ele>
        <time>2025-04-10T17:23:57Z</time>
      </trkpt>
      <trkpt lat="43.65445" lon="1.3889">
        <ele>140</ele>
        <time>2025-04-10T17:23:58Z</time>
      </trkpt>
      <trkpt lat="43.65446" lon="1.38892">
        <ele>140</ele>
        <time>2025-04-10T17:23:59Z</time>
      </trkpt>
      <trkpt lat="43.65447" lon="1.38895">
        <ele>140</ele>
        <time>2025-04-10T17:24:00Z</time>
      </trkpt>
      <trkpt lat="43.65448" lon="1.38897">
        <ele>140</ele>
        <time>2025-04-10T17:24:01Z</time>
      </trkpt>
      <trkpt lat="43.65449" lon="1.389">
        <ele>140</ele>
        <time>2025-04-10T17:24:02Z</time>
      </trkpt>
      <trkpt lat="43.65449" lon="1.389">
        <ele>140</ele>
        <time>2025-04-10T17:24:03Z</time>
      </trkpt>
      <trkpt lat="43.65451" lon="1.38904">
        <ele>140</ele>
        <time>2025-04-10T17:24:04Z</time>
      </trkpt>
      <trkpt lat="43.65451" lon="1.38904">
        <ele>140</ele>
        <time>2025-04-10T17:24:05Z</time>
      </trkpt>
      <trkpt lat="43.65453" lon="1.38907">
        <ele>140</ele>
        <time>2025-04-10T17:24:06Z</time>
      </trkpt>
      <trkpt lat="43.65455" lon="1.38909">
        <ele>140</ele>
        <time>2025-04-10T17:24:07Z</time>
      </trkpt>
      <trkpt lat="43.65456" lon="1.38911">
        <ele>140</ele>
        <time>2025-04-10T17:24:08Z</time>
      </trkpt>
      <trkpt lat="43.65458" lon="1.38913">
        <ele>140</ele>
        <time>2025-04-10T17:24:09Z</time>
      </trkpt>
      <trkpt lat="43.65459" lon="1.38916">
        <ele>139</ele>
        <time>2025-04-10T17:24:10Z</time>
      </trkpt>
      <trkpt lat="43.6546" lon="1.38919">
        <ele>139</ele>
        <time>2025-04-10T17:24:11Z</time>
      </trkpt>
      <trkpt lat="43.6546" lon="1.38922">
        <ele>139</ele>
        <time>2025-04-10T17:24:12Z</time>
      </trkpt>
      <trkpt lat="43.65461" lon="1.38924">
        <ele>139</ele>
        <time>2025-04-10T17:24:13Z</time>
      </trkpt>
      <trkpt lat="43.65462" lon="1.38926">
        <ele>138</ele>
        <time>2025-04-10T17:24:14Z</time>
      </trkpt>
      <trkpt lat="43.65463" lon="1.38929">
        <ele>138</ele>
        <time>2025-04-10T17:24:15Z</time>
      </trkpt>
      <trkpt lat="43.65464" lon="1.38932">
        <ele>137</ele>
        <time>2025-04-10T17:24:16Z</time>
      </trkpt>
      <trkpt lat="43.65465" lon="1.38936">
        <ele>137</ele>
        <time>2025-04-10T17:24:17Z</time>
      </trkpt>
      <trkpt lat="43.65465" lon="1.3894">
        <ele>137</ele>
        <time>2025-04-10T17:24:18Z</time>
      </trkpt>
      <trkpt lat="43.65467" lon="1.38945">
        <ele>137</ele>
        <time>2025-04-10T17:24:19Z</time>
      </trkpt>
      <trkpt lat="43.65468" lon="1.38949">
        <ele>137</ele>
        <time>2025-04-10T17:24:20Z</time>
      </trkpt>
      <trkpt lat="43.65469" lon="1.38955">
        <ele>136</ele>
        <time>2025-04-10T17:24:21Z</time>
      </trkpt>
      <trkpt lat="43.65472" lon="1.3896">
        <ele>135</ele>
        <time>2025-04-10T17:24:22Z</time>
      </trkpt>
      <trkpt lat="43.65473" lon="1.38966">
        <ele>134</ele>
        <time>2025-04-10T17:24:23Z</time>
      </trkpt>
      <trkpt lat="43.65474" lon="1.3897">
        <ele>133</ele>
        <time>2025-04-10T17:24:24Z</time>
      </trkpt>
      <trkpt lat="43.65474" lon="1.38975">
        <ele>133</ele>
        <time>2025-04-10T17:24:25Z</time>
      </trkpt>
      <trkpt lat="43.65475" lon="1.38978">
        <ele>132</ele>
        <time>2025-04-10T17:24:26Z</time>
      </trkpt>
      <trkpt lat="43.65476" lon="1.38982">
        <ele>132</ele>
        <time>2025-04-10T17:24:27Z</time>
      </trkpt>
      <trkpt lat="43.65475" lon="1.38985">
        <ele>131</ele>
        <time>2025-04-10T17:24:28Z</time>
      </trkpt>
      <trkpt lat="43.65473" lon="1.38987">
        <ele>131</ele>
        <time>2025-04-10T17:24:29Z</time>
      </trkpt>
      <trkpt lat="43.65471" lon="1.38987">
        <ele>131</ele>
        <time>2025-04-10T17:24:30Z</time>
      </trkpt>
      <trkpt lat="43.65468" lon="1.38986">
        <ele>130</ele>
        <time>2025-04-10T17:24:31Z</time>
      </trkpt>
      <trkpt lat="43.65468" lon="1.38986">
        <ele>130</ele>
        <time>2025-04-10T17:24:32Z</time>
      </trkpt>
      <trkpt lat="43.65465" lon="1.38986">
        <ele>130</ele>
        <time>2025-04-10T17:24:33Z</time>
      </trkpt>
      <trkpt lat="43.65465" lon="1.38986">
        <ele>130</ele>
        <time>2025-04-10T17:24:34Z</time>
      </trkpt>
      <trkpt lat="43.65462" lon="1.38984">
        <ele>130</ele>
        <time>2025-04-10T17:24:35Z</time>
      </trkpt>
      <trkpt lat="43.65462" lon="1.38984">
        <ele>130</ele>
        <time>2025-04-10T17:24:36Z</time>
      </trkpt>
      <trkpt lat="43.65461" lon="1.38982">
        <ele>130</ele>
        <time>2025-04-10T17:24:37Z</time>
      </trkpt>
      <trkpt lat="43.65461" lon="1.38982">
        <ele>130</ele>
        <time>2025-04-10T17:24:38Z</time>
      </trkpt>
      <trkpt lat="43.6546" lon="1.38979">
        <ele>130</ele>
        <time>2025-04-10T17:24:39Z</time>
      </trkpt>
      <trkpt lat="43.6546" lon="1.38979">
        <ele>130</ele>
        <time>2025-04-10T17:24:40Z</time>
      </trkpt>
      <trkpt lat="43.65459" lon="1.38977">
        <ele>130</ele>
        <time>2025-04-10T17:24:41Z</time>
      </trkpt>
      <trkpt lat="43.65459" lon="1.38977">
        <ele>130</ele>
        <time>2025-04-10T17:24:42Z</time>
      </trkpt>
      <trkpt lat="43.65457" lon="1.38974">
        <ele>130</ele>
        <time>2025-04-10T17:24:43Z</time>
      </trkpt>
      <trkpt lat="43.65457" lon="1.38974">
        <ele>130</ele>
        <time>2025-04-10T17:24:44Z</time>
      </trkpt>
      <trkpt lat="43.65457" lon="1.38974">
        <ele>129</ele>
        <time>2025-04-10T17:24:45Z</time>
      </trkpt>
      <trkpt lat="43.65456" lon="1.38971">
        <ele>129</ele>
        <time>2025-04-10T17:24:46Z</time>
      </trkpt>
      <trkpt lat="43.65456" lon="1.38971">
        <ele>130</ele>
        <time>2025-04-10T17:24:47Z</time>
      </trkpt>
      <trkpt lat="43.65456" lon="1.38971">
        <ele>130</ele>
        <time>2025-04-10T17:24:48Z</time>
      </trkpt>
      <trkpt lat="43.65456" lon="1.38971">
        <ele>130</ele>
        <time>2025-04-10T17:24:49Z</time>
      </trkpt>
      <trkpt lat="43.65456" lon="1.38971">
        <ele>130</ele>
        <time>2025-04-10T17:24:50Z</time>
      </trkpt>
      <trkpt lat="43.65456" lon="1.38971">
        <ele>129</ele>
        <time>2025-04-10T17:24:51Z</time>
      </trkpt>
      <trkpt lat="43.65455" lon="1.38967">
        <ele>129</ele>
        <time>2025-04-10T17:24:52Z</time>
      </trkpt>
      <trkpt lat="43.65454" lon="1.38964">
        <ele>129</ele>
        <time>2025-04-10T17:24:53Z</time>
      </trkpt>
      <trkpt lat="43.65453" lon="1.38961">
        <ele>130</ele>
        <time>2025-04-10T17:24:54Z</time>
      </trkpt>
      <trkpt lat="43.65451" lon="1.38957">
        <ele>130</ele>
        <time>2025-04-10T17:24:55Z</time>
      </trkpt>
      <trkpt lat="43.65448" lon="1.38953">
        <ele>129</ele>
        <time>2025-04-10T17:24:56Z</time>
      </trkpt>
      <trkpt lat="43.65445" lon="1.3895">
        <ele>130</ele>
        <time>2025-04-10T17:24:57Z</time>
      </trkpt>
      <trkpt lat="43.65443" lon="1.38947">
        <ele>131</ele>
        <time>2025-04-10T17:24:58Z</time>
      </trkpt>
      <trkpt lat="43.65441" lon="1.38944">
        <ele>131</ele>
        <time>2025-04-10T17:24:59Z</time>
      </trkpt>
      <trkpt lat="43.65438" lon="1.38941">
        <ele>132</ele>
        <time>2025-04-10T17:25:00Z</time>
      </trkpt>
      <trkpt lat="43.65437" lon="1.38939">
        <ele>133</ele>
        <time>2025-04-10T17:25:01Z</time>
      </trkpt>
      <trkpt lat="43.65435" lon="1.38936">
        <ele>133</ele>
        <time>2025-04-10T17:25:02Z</time>
      </trkpt>
      <trkpt lat="43.65433" lon="1.38933">
        <ele>134</ele>
        <time>2025-04-10T17:25:03Z</time>
      </trkpt>
      <trkpt lat="43.65431" lon="1.3893">
        <ele>134</ele>
        <time>2025-04-10T17:25:04Z</time>
      </trkpt>
      <trkpt lat="43.6543" lon="1.38927">
        <ele>134</ele>
        <time>2025-04-10T17:25:05Z</time>
      </trkpt>
      <trkpt lat="43.65428" lon="1.38924">
        <ele>135</ele>
        <time>2025-04-10T17:25:06Z</time>
      </trkpt>
      <trkpt lat="43.65425" lon="1.3892">
        <ele>136</ele>
        <time>2025-04-10T17:25:07Z</time>
      </trkpt>
      <trkpt lat="43.65423" lon="1.38915">
        <ele>137</ele>
        <time>2025-04-10T17:25:08Z</time>
      </trkpt>
      <trkpt lat="43.65422" lon="1.3891">
        <ele>137</ele>
        <time>2025-04-10T17:25:09Z</time>
      </trkpt>
      <trkpt lat="43.6542" lon="1.38904">
        <ele>137</ele>
        <time>2025-04-10T17:25:10Z</time>
      </trkpt>
      <trkpt lat="43.65419" lon="1.38898">
        <ele>138</ele>
        <time>2025-04-10T17:25:11Z</time>
      </trkpt>
      <trkpt lat="43.65417" lon="1.38892">
        <ele>138</ele>
        <time>2025-04-10T17:25:12Z</time>
      </trkpt>
      <trkpt lat="43.65416" lon="1.38887">
        <ele>138</ele>
        <time>2025-04-10T17:25:13Z</time>
      </trkpt>
      <trkpt lat="43.65415" lon="1.38882">
        <ele>139</ele>
        <time>2025-04-10T17:25:14Z</time>
      </trkpt>
      <trkpt lat="43.65415" lon="1.38878">
        <ele>139</ele>
        <time>2025-04-10T17:25:15Z</time>
      </trkpt>
      <trkpt lat="43.65414" lon="1.38873">
        <ele>139</ele>
        <time>2025-04-10T17:25:16Z</time>
      </trkpt>
      <trkpt lat="43.65414" lon="1.38868">
        <ele>140</ele>
        <time>2025-04-10T17:25:17Z</time>
      </trkpt>
      <trkpt lat="43.65416" lon="1.38864">
        <ele>140</ele>
        <time>2025-04-10T17:25:18Z</time>
      </trkpt>
      <trkpt lat="43.65417" lon="1.3886">
        <ele>140</ele>
        <time>2025-04-10T17:25:19Z</time>
      </trkpt>
      <trkpt lat="43.65418" lon="1.38858">
        <ele>140</ele>
        <time>2025-04-10T17:25:20Z</time>
      </trkpt>
      <trkpt lat="43.65419" lon="1.38856">
        <ele>140</ele>
        <time>2025-04-10T17:25:21Z</time>
      </trkpt>
      <trkpt lat="43.65419" lon="1.38856">
        <ele>140</ele>
        <time>2025-04-10T17:25:22Z</time>
      </trkpt>
      <trkpt lat="43.65421" lon="1.38853">
        <ele>140</ele>
        <time>2025-04-10T17:25:23Z</time>
      </trkpt>
      <trkpt lat="43.65421" lon="1.38853">
        <ele>140</ele>
        <time>2025-04-10T17:25:24Z</time>
      </trkpt>
      <trkpt lat="43.65423" lon="1.3885">
        <ele>141</ele>
        <time>2025-04-10T17:25:25Z</time>
      </trkpt>
      <trkpt lat="43.65423" lon="1.3885">
        <ele>141</ele>
        <time>2025-04-10T17:25:26Z</time>
      </trkpt>
      <trkpt lat="43.65424" lon="1.38848">
        <ele>141</ele>
        <time>2025-04-10T17:25:27Z</time>
      </trkpt>
      <trkpt lat="43.65424" lon="1.38848">
        <ele>141</ele>
        <time>2025-04-10T17:25:28Z</time>
      </trkpt>
      <trkpt lat="43.65426" lon="1.38845">
        <ele>141</ele>
        <time>2025-04-10T17:25:29Z</time>
      </trkpt>
      <trkpt lat="43.65426" lon="1.38845">
        <ele>141</ele>
        <time>2025-04-10T17:25:30Z</time>
      </trkpt>
      <trkpt lat="43.65428" lon="1.38845">
        <ele>141</ele>
        <time>2025-04-10T17:25:31Z</time>
      </trkpt>
      <trkpt lat="43.65428" lon="1.38845">
        <ele>141</ele>
        <time>2025-04-10T17:25:32Z</time>
      </trkpt>
      <trkpt lat="43.65429" lon="1.38847">
        <ele>142</ele>
        <time>2025-04-10T17:25:33Z</time>
      </trkpt>
      <trkpt lat="43.65429" lon="1.38847">
        <ele>142</ele>
        <time>2025-04-10T17:25:34Z</time>
      </trkpt>
      <trkpt lat="43.6543" lon="1.38851">
        <ele>142</ele>
        <time>2025-04-10T17:25:35Z</time>
      </trkpt>
      <trkpt lat="43.65431" lon="1.38855">
        <ele>142</ele>
        <time>2025-04-10T17:25:36Z</time>
      </trkpt>
      <trkpt lat="43.65433" lon="1.38858">
        <ele>142</ele>
        <time>2025-04-10T17:25:37Z</time>
      </trkpt>
      <trkpt lat="43.65434" lon="1.38861">
        <ele>142</ele>
        <time>2025-04-10T17:25:38Z</time>
      </trkpt>
      <trkpt lat="43.65435" lon="1.38864">
        <ele>141</ele>
        <time>2025-04-10T17:25:39Z</time>
      </trkpt>
      <trkpt lat="43.65436" lon="1.38867">
        <ele>141</ele>
        <time>2025-04-10T17:25:40Z</time>
      </trkpt>
      <trkpt lat="43.65437" lon="1.3887">
        <ele>141</ele>
        <time>2025-04-10T17:25:41Z</time>
      </trkpt>
      <trkpt lat="43.65438" lon="1.38873">
        <ele>140</ele>
        <time>2025-04-10T17:25:42Z</time>
      </trkpt>
      <trkpt lat="43.65438" lon="1.38876">
        <ele>140</ele>
        <time>2025-04-10T17:25:43Z</time>
      </trkpt>
      <trkpt lat="43.65439" lon="1.38879">
        <ele>140</ele>
        <time>2025-04-10T17:25:44Z</time>
      </trkpt>
      <trkpt lat="43.65439" lon="1.38882">
        <ele>140</ele>
        <time>2025-04-10T17:25:45Z</time>
      </trkpt>
      <trkpt lat="43.6544" lon="1.38885">
        <ele>140</ele>
        <time>2025-04-10T17:25:46Z</time>
      </trkpt>
      <trkpt lat="43.65441" lon="1.38887">
        <ele>140</ele>
        <time>2025-04-10T17:25:47Z</time>
      </trkpt>
      <trkpt lat="43.65442" lon="1.3889">
        <ele>140</ele>
        <time>2025-04-10T17:25:48Z</time>
      </trkpt>
      <trkpt lat="43.65443" lon="1.38893">
        <ele>140</ele>
        <time>2025-04-10T17:25:49Z</time>
      </trkpt>
      <trkpt lat="43.65444" lon="1.38895">
        <ele>140</ele>
        <time>2025-04-10T17:25:50Z</time>
      </trkpt>
      <trkpt lat="43.65445" lon="1.38897">
        <ele>140</ele>
        <time>2025-04-10T17:25:51Z</time>
      </trkpt>
      <trkpt lat="43.65446" lon="1.389">
        <ele>140</ele>
        <time>2025-04-10T17:25:52Z</time>
      </trkpt>
      <trkpt lat="43.65447" lon="1.38902">
        <ele>139</ele>
        <time>2025-04-10T17:25:53Z</time>
      </trkpt>
      <trkpt lat="43.65449" lon="1.38905">
        <ele>139</ele>
        <time>2025-04-10T17:25:54Z</time>
      </trkpt>
      <trkpt lat="43.6545" lon="1.38907">
        <ele>139</ele>
        <time>2025-04-10T17:25:55Z</time>
      </trkpt>
      <trkpt lat="43.65452" lon="1.38909">
        <ele>139</ele>
        <time>2025-04-10T17:25:56Z</time>
      </trkpt>
      <trkpt lat="43.65453" lon="1.38912">
        <ele>139</ele>
        <time>2025-04-10T17:25:57Z</time>
      </trkpt>
      <trkpt lat="43.65455" lon="1.38914">
        <ele>139</ele>
        <time>2025-04-10T17:25:58Z</time>
      </trkpt>
      <trkpt lat="43.65456" lon="1.38916">
        <ele>139</ele>
        <time>2025-04-10T17:25:59Z</time>
      </trkpt>
      <trkpt lat="43.65458" lon="1.38919">
        <ele>139</ele>
        <time>2025-04-10T17:26:00Z</time>
      </trkpt>
      <trkpt lat="43.6546" lon="1.38922">
        <ele>139</ele>
        <time>2025-04-10T17:26:01Z</time>
      </trkpt>
      <trkpt lat="43.65461" lon="1.38925">
        <ele>139</ele>
        <time>2025-04-10T17:26:02Z</time>
      </trkpt>
      <trkpt lat="43.65462" lon="1.38929">
        <ele>139</ele>
        <time>2025-04-10T17:26:03Z</time>
      </trkpt>
      <trkpt lat="43.65463" lon="1.38933">
        <ele>139</ele>
        <time>2025-04-10T17:26:04Z</time>
      </trkpt>
      <trkpt lat="43.65465" lon="1.38938">
        <ele>139</ele>
        <time>2025-04-10T17:26:05Z</time>
      </trkpt>
      <trkpt lat="43.65466" lon="1.38941">
        <ele>138</ele>
        <time>2025-04-10T17:26:06Z</time>
      </trkpt>
      <trkpt lat="43.65467" lon="1.38946">
        <ele>138</ele>
        <time>2025-04-10T17:26:07Z</time>
      </trkpt>
      <trkpt lat="43.65468" lon="1.3895">
        <ele>137</ele>
        <time>2025-04-10T17:26:08Z</time>
      </trkpt>
      <trkpt lat="43.65469" lon="1.38955">
        <ele>136</ele>
        <time>2025-04-10T17:26:09Z</time>
      </trkpt>
      <trkpt lat="43.65471" lon="1.3896">
        <ele>135</ele>
        <time>2025-04-10T17:26:10Z</time>
      </trkpt>
      <trkpt lat="43.65473" lon="1.38965">
        <ele>135</ele>
        <time>2025-04-10T17:26:11Z</time>
      </trkpt>
      <trkpt lat="43.65474" lon="1.3897">
        <ele>134</ele>
        <time>2025-04-10T17:26:12Z</time>
      </trkpt>
      <trkpt lat="43.65475" lon="1.38974">
        <ele>133</ele>
        <time>2025-04-10T17:26:13Z</time>
      </trkpt>
      <trkpt lat="43.65475" lon="1.38977">
        <ele>133</ele>
        <time>2025-04-10T17:26:14Z</time>
      </trkpt>
      <trkpt lat="43.65476" lon="1.38981">
        <ele>132</ele>
        <time>2025-04-10T17:26:15Z</time>
      </trkpt>
      <trkpt lat="43.65476" lon="1.38984">
        <ele>132</ele>
        <time>2025-04-10T17:26:16Z</time>
      </trkpt>
      <trkpt lat="43.65475" lon="1.38987">
        <ele>131</ele>
        <time>2025-04-10T17:26:17Z</time>
      </trkpt>
      <trkpt lat="43.65473" lon="1.38988">
        <ele>131</ele>
        <time>2025-04-10T17:26:18Z</time>
      </trkpt>
      <trkpt lat="43.6547" lon="1.38988">
        <ele>130</ele>
        <time>2025-04-10T17:26:19Z</time>
      </trkpt>
      <trkpt lat="43.65468" lon="1.38987">
        <ele>130</ele>
        <time>2025-04-10T17:26:20Z</time>
      </trkpt>
      <trkpt lat="43.65468" lon="1.38987">
        <ele>130</ele>
        <time>2025-04-10T17:26:21Z</time>
      </trkpt>
      <trkpt lat="43.65465" lon="1.38985">
        <ele>129</ele>
        <time>2025-04-10T17:26:22Z</time>
      </trkpt>
      <trkpt lat="43.65465" lon="1.38985">
        <ele>129</ele>
        <time>2025-04-10T17:26:23Z</time>
      </trkpt>
      <trkpt lat="43.65464" lon="1.38982">
        <ele>129</ele>
        <time>2025-04-10T17:26:24Z</time>
      </trkpt>
      <trkpt lat="43.65464" lon="1.38982">
        <ele>129</ele>
        <time>2025-04-10T17:26:25Z</time>
      </trkpt>
      <trkpt lat="43.65462" lon="1.3898">
        <ele>129</ele>
        <time>2025-04-10T17:26:26Z</time>
      </trkpt>
      <trkpt lat="43.65462" lon="1.3898">
        <ele>129</ele>
        <time>2025-04-10T17:26:27Z</time>
      </trkpt>
      <trkpt lat="43.6546" lon="1.38978">
        <ele>129</ele>
        <time>2025-04-10T17:26:28Z</time>
      </trkpt>
      <trkpt lat="43.6546" lon="1.38978">
        <ele>129</ele>
        <time>2025-04-10T17:26:29Z</time>
      </trkpt>
      <trkpt lat="43.65459" lon="1.38975">
        <ele>129</ele>
        <time>2025-04-10T17:26:30Z</time>
      </trkpt>
      <trkpt lat="43.65459" lon="1.38975">
        <ele>129</ele>
        <time>2025-04-10T17:26:31Z</time>
      </trkpt>
      <trkpt lat="43.65458" lon="1.38973">
        <ele>129</ele>
        <time>2025-04-10T17:26:32Z</time>
      </trkpt>
      <trkpt lat="43.65458" lon="1.38973">
        <ele>129</ele>
        <time>2025-04-10T17:26:33Z</time>
      </trkpt>
      <trkpt lat="43.65458" lon="1.38973">
        <ele>129</ele>
        <time>2025-04-10T17:26:34Z</time>
      </trkpt>
      <trkpt lat="43.65458" lon="1.38973">
        <ele>129</ele>
        <time>2025-04-10T17:26:35Z</time>
      </trkpt>
      <trkpt lat="43.65458" lon="1.38973">
        <ele>129</ele>
        <time>2025-04-10T17:26:36Z</time>
      </trkpt>
      <trkpt lat="43.65458" lon="1.38973">
        <ele>129</ele>
        <time>2025-04-10T17:26:37Z</time>
      </trkpt>
      <trkpt lat="43.65458" lon="1.38973">
        <ele>129</ele>
        <time>2025-04-10T17:26:38Z</time>
      </trkpt>
      <trkpt lat="43.65457" lon="1.3897">
        <ele>129</ele>
        <time>2025-04-10T17:26:39Z</time>
      </trkpt>
      <trkpt lat="43.65457" lon="1.3897">
        <ele>129</ele>
        <time>2025-04-10T17:26:40Z</time>
      </trkpt>
      <trkpt lat="43.65457" lon="1.3897">
        <ele>129</ele>
        <time>2025-04-10T17:26:41Z</time>
      </trkpt>
      <trkpt lat="43.65456" lon="1.38968">
        <ele>129</ele>
        <time>2025-04-10T17:26:42Z</time>
      </trkpt>
      <trkpt lat="43.65455" lon="1.38965">
        <ele>130</ele>
        <time>2025-04-10T17:26:43Z</time>
      </trkpt>
      <trkpt lat="43.65454" lon="1.38963">
        <ele>130</ele>
        <time>2025-04-10T17:26:44Z</time>
      </trkpt>
      <trkpt lat="43.65452" lon="1.3896">
        <ele>130</ele>
        <time>2025-04-10T17:26:45Z</time>
      </trkpt>
      <trkpt lat="43.6545" lon="1.38956">
        <ele>130</ele>
        <time>2025-04-10T17:26:46Z</time>
      </trkpt>
      <trkpt lat="43.65447" lon="1.38953">
        <ele>130</ele>
        <time>2025-04-10T17:26:47Z</time>
      </trkpt>
      <trkpt lat="43.65445" lon="1.3895">
        <ele>130</ele>
        <time>2025-04-10T17:26:48Z</time>
      </trkpt>
      <trkpt lat="43.65442" lon="1.38946">
        <ele>131</ele>
        <time>2025-04-10T17:26:49Z</time>
      </trkpt>
      <trkpt lat="43.6544" lon="1.38942">
        <ele>132</ele>
        <time>2025-04-10T17:26:50Z</time>
      </trkpt>
      <trkpt lat="43.65438" lon="1.38939">
        <ele>133</ele>
        <time>2025-04-10T17:26:51Z</time>
      </trkpt>
      <trkpt lat="43.65437" lon="1.38937">
        <ele>134</ele>
        <time>2025-04-10T17:26:52Z</time>
      </trkpt>
      <trkpt lat="43.65435" lon="1.38935">
        <ele>134</ele>
        <time>2025-04-10T17:26:53Z</time>
      </trkpt>
      <trkpt lat="43.65433" lon="1.38932">
        <ele>135</ele>
        <time>2025-04-10T17:26:54Z</time>
      </trkpt>
      <trkpt lat="43.65431" lon="1.38929">
        <ele>135</ele>
        <time>2025-04-10T17:26:55Z</time>
      </trkpt>
      <trkpt lat="43.65429" lon="1.38926">
        <ele>135</ele>
        <time>2025-04-10T17:26:56Z</time>
      </trkpt>
      <trkpt lat="43.65429" lon="1.38926">
        <ele>135</ele>
        <time>2025-04-10T17:26:57Z</time>
      </trkpt>
      <trkpt lat="43.65424" lon="1.38918">
        <ele>136</ele>
        <time>2025-04-10T17:26:58Z</time>
      </trkpt>
      <trkpt lat="43.65424" lon="1.38916">
        <ele>136</ele>
        <time>2025-04-10T17:26:59Z</time>
      </trkpt>
      <trkpt lat="43.65422" lon="1.38913">
        <ele>137</ele>
        <time>2025-04-10T17:27:00Z</time>
      </trkpt>
      <trkpt lat="43.65421" lon="1.38909">
        <ele>138</ele>
        <time>2025-04-10T17:27:01Z</time>
      </trkpt>
      <trkpt lat="43.65419" lon="1.38904">
        <ele>138</ele>
        <time>2025-04-10T17:27:02Z</time>
      </trkpt>
      <trkpt lat="43.65418" lon="1.38898">
        <ele>138</ele>
        <time>2025-04-10T17:27:03Z</time>
      </trkpt>
      <trkpt lat="43.65417" lon="1.38893">
        <ele>138</ele>
        <time>2025-04-10T17:27:04Z</time>
      </trkpt>
      <trkpt lat="43.65416" lon="1.38887">
        <ele>139</ele>
        <time>2025-04-10T17:27:05Z</time>
      </trkpt>
      <trkpt lat="43.65416" lon="1.38882">
        <ele>139</ele>
        <time>2025-04-10T17:27:06Z</time>
      </trkpt>
      <trkpt lat="43.65416" lon="1.38878">
        <ele>139</ele>
        <time>2025-04-10T17:27:07Z</time>
      </trkpt>
      <trkpt lat="43.65415" lon="1.38873">
        <ele>140</ele>
        <time>2025-04-10T17:27:08Z</time>
      </trkpt>
      <trkpt lat="43.65415" lon="1.38869">
        <ele>140</ele>
        <time>2025-04-10T17:27:09Z</time>
      </trkpt>
      <trkpt lat="43.65415" lon="1.38864">
        <ele>141</ele>
        <time>2025-04-10T17:27:10Z</time>
      </trkpt>
      <trkpt lat="43.65415" lon="1.38861">
        <ele>141</ele>
        <time>2025-04-10T17:27:11Z</time>
      </trkpt>
      <trkpt lat="43.65416" lon="1.38858">
        <ele>141</ele>
        <time>2025-04-10T17:27:12Z</time>
      </trkpt>
      <trkpt lat="43.65417" lon="1.38856">
        <ele>141</ele>
        <time>2025-04-10T17:27:13Z</time>
      </trkpt>
      <trkpt lat="43.65417" lon="1.38856">
        <ele>141</ele>
        <time>2025-04-10T17:27:14Z</time>
      </trkpt>
      <trkpt lat="43.65419" lon="1.38853">
        <ele>141</ele>
        <time>2025-04-10T17:27:15Z</time>
      </trkpt>
      <trkpt lat="43.65419" lon="1.38853">
        <ele>141</ele>
        <time>2025-04-10T17:27:16Z</time>
      </trkpt>
      <trkpt lat="43.65419" lon="1.38853">
        <ele>141</ele>
        <time>2025-04-10T17:27:17Z</time>
      </trkpt>
      <trkpt lat="43.65419" lon="1.38853">
        <ele>141</ele>
        <time>2025-04-10T17:27:18Z</time>
      </trkpt>
      <trkpt lat="43.65421" lon="1.38851">
        <ele>141</ele>
        <time>2025-04-10T17:27:19Z</time>
      </trkpt>
      <trkpt lat="43.65421" lon="1.38851">
        <ele>141</ele>
        <time>2025-04-10T17:27:20Z</time>
      </trkpt>
      <trkpt lat="43.65423" lon="1.38848">
        <ele>141</ele>
        <time>2025-04-10T17:27:21Z</time>
      </trkpt>
      <trkpt lat="43.65423" lon="1.38848">
        <ele>141</ele>
        <time>2025-04-10T17:27:22Z</time>
      </trkpt>
      <trkpt lat="43.65426" lon="1.38848">
        <ele>142</ele>
        <time>2025-04-10T17:27:23Z</time>
      </trkpt>
      <trkpt lat="43.65426" lon="1.38848">
        <ele>142</ele>
        <time>2025-04-10T17:27:24Z</time>
      </trkpt>
      <trkpt lat="43.65426" lon="1.38848">
        <ele>142</ele>
        <time>2025-04-10T17:27:25Z</time>
      </trkpt>
      <trkpt lat="43.65428" lon="1.3885">
        <ele>142</ele>
        <time>2025-04-10T17:27:26Z</time>
      </trkpt>
      <trkpt lat="43.65428" lon="1.3885">
        <ele>142</ele>
        <time>2025-04-10T17:27:27Z</time>
      </trkpt>
      <trkpt lat="43.6543" lon="1.38854">
        <ele>142</ele>
        <time>2025-04-10T17:27:28Z</time>
      </trkpt>
      <trkpt lat="43.6543" lon="1.38854">
        <ele>142</ele>
        <time>2025-04-10T17:27:29Z</time>
      </trkpt>
      <trkpt lat="43.65431" lon="1.38856">
        <ele>142</ele>
        <time>2025-04-10T17:27:30Z</time>
      </trkpt>
      <trkpt lat="43.65431" lon="1.38856">
        <ele>142</ele>
        <time>2025-04-10T17:27:31Z</time>
      </trkpt>
      <trkpt lat="43.65432" lon="1.38859">
        <ele>142</ele>
        <time>2025-04-10T17:27:32Z</time>
      </trkpt>
      <trkpt lat="43.65432" lon="1.38859">
        <ele>142</ele>
        <time>2025-04-10T17:27:33Z</time>
      </trkpt>
      <trkpt lat="43.65434" lon="1.38862">
        <ele>142</ele>
        <time>2025-04-10T17:27:34Z</time>
      </trkpt>
      <trkpt lat="43.65434" lon="1.38862">
        <ele>141</ele>
        <time>2025-04-10T17:27:35Z</time>
      </trkpt>
      <trkpt lat="43.65434" lon="1.38865">
        <ele>141</ele>
        <time>2025-04-10T17:27:36Z</time>
      </trkpt>
      <trkpt lat="43.65434" lon="1.38865">
        <ele>141</ele>
        <time>2025-04-10T17:27:37Z</time>
      </trkpt>
      <trkpt lat="43.65436" lon="1.38868">
        <ele>141</ele>
        <time>2025-04-10T17:27:38Z</time>
      </trkpt>
      <trkpt lat="43.65436" lon="1.38868">
        <ele>141</ele>
        <time>2025-04-10T17:27:39Z</time>
      </trkpt>
      <trkpt lat="43.65438" lon="1.3887">
        <ele>140</ele>
        <time>2025-04-10T17:27:40Z</time>
      </trkpt>
      <trkpt lat="43.65438" lon="1.3887">
        <ele>140</ele>
        <time>2025-04-10T17:27:41Z</time>
      </trkpt>
      <trkpt lat="43.65439" lon="1.38873">
        <ele>140</ele>
        <time>2025-04-10T17:27:42Z</time>
      </trkpt>
      <trkpt lat="43.65439" lon="1.38873">
        <ele>140</ele>
        <time>2025-04-10T17:27:43Z</time>
      </trkpt>
      <trkpt lat="43.65439" lon="1.38873">
        <ele>139</ele>
        <time>2025-04-10T17:27:44Z</time>
      </trkpt>
      <trkpt lat="43.6544" lon="1.38876">
        <ele>139</ele>
        <time>2025-04-10T17:27:45Z</time>
      </trkpt>
      <trkpt lat="43.6544" lon="1.38876">
        <ele>139</ele>
        <time>2025-04-10T17:27:46Z</time>
      </trkpt>
      <trkpt lat="43.65441" lon="1.38879">
        <ele>139</ele>
        <time>2025-04-10T17:27:47Z</time>
      </trkpt>
      <trkpt lat="43.65441" lon="1.38879">
        <ele>139</ele>
        <time>2025-04-10T17:27:48Z</time>
      </trkpt>
      <trkpt lat="43.65442" lon="1.38882">
        <ele>139</ele>
        <time>2025-04-10T17:27:49Z</time>
      </trkpt>
      <trkpt lat="43.65442" lon="1.38882">
        <ele>139</ele>
        <time>2025-04-10T17:27:50Z</time>
      </trkpt>
      <trkpt lat="43.65443" lon="1.38885">
        <ele>139</ele>
        <time>2025-04-10T17:27:51Z</time>
      </trkpt>
      <trkpt lat="43.65443" lon="1.38885">
        <ele>139</ele>
        <time>2025-04-10T17:27:52Z</time>
      </trkpt>
      <trkpt lat="43.65444" lon="1.38888">
        <ele>139</ele>
        <time>2025-04-10T17:27:53Z</time>
      </trkpt>
      <trkpt lat="43.65444" lon="1.38888">
        <ele>139</ele>
        <time>2025-04-10T17:27:54Z</time>
      </trkpt>
      <trkpt lat="43.65445" lon="1.38891">
        <ele>139</ele>
        <time>2025-04-10T17:27:55Z</time>
      </trkpt>
      <trkpt lat="43.65445" lon="1.38891">
        <ele>139</ele>
        <time>2025-04-10T17:27:56Z</time>
      </trkpt>
      <trkpt lat="43.65446" lon="1.38894">
        <ele>139</ele>
        <time>2025-04-10T17:27:57Z</time>
      </trkpt>
      <trkpt lat="43.65446" lon="1.38894">
        <ele>139</ele>
        <time>2025-04-10T17:27:58Z</time>
      </trkpt>
      <trkpt lat="43.65447" lon="1.38897">
        <ele>139</ele>
        <time>2025-04-10T17:27:59Z</time>
      </trkpt>
      <trkpt lat="43.65447" lon="1.38897">
        <ele>139</ele>
        <time>2025-04-10T17:28:00Z</time>
      </trkpt>
      <trkpt lat="43.65449" lon="1.389">
        <ele>139</ele>
        <time>2025-04-10T17:28:01Z</time>
      </trkpt>
      <trkpt lat="43.65449" lon="1.389">
        <ele>139</ele>
        <time>2025-04-10T17:28:02Z</time>
      </trkpt>
      <trkpt lat="43.6545" lon="1.38903">
        <ele>139</ele>
        <time>2025-04-10T17:28:03Z</time>
      </trkpt>
      <trkpt lat="43.6545" lon="1.38903">
        <ele>139</ele>
        <time>2025-04-10T17:28:04Z</time>
      </trkpt>
      <trkpt lat="43.65452" lon="1.38906">
        <ele>139</ele>
        <time>2025-04-10T17:28:05Z</time>
      </trkpt>
      <trkpt lat="43.65452" lon="1.38906">
        <ele>139</ele>
        <time>2025-04-10T17:28:06Z</time>
      </trkpt>
      <trkpt lat="43.65454" lon="1.38909">
        <ele>139</ele>
        <time>2025-04-10T17:28:07Z</time>
      </trkpt>
      <trkpt lat="43.65454" lon="1.38909">
        <ele>139</ele>
        <time>2025-04-10T17:28:08Z</time>
      </trkpt>
      <trkpt lat="43.65456" lon="1.38911">
        <ele>139</ele>
        <time>2025-04-10T17:28:09Z</time>
      </trkpt>
      <trkpt lat="43.65456" lon="1.38911">
        <ele>139</ele>
        <time>2025-04-10T17:28:10Z</time>
      </trkpt>
      <trkpt lat="43.65457" lon="1.38913">
        <ele>139</ele>
        <time>2025-04-10T17:28:11Z</time>
      </trkpt>
      <trkpt lat="43.65457" lon="1.38913">
        <ele>139</ele>
        <time>2025-04-10T17:28:12Z</time>
      </trkpt>
      <trkpt lat="43.65459" lon="1.38915">
        <ele>139</ele>
        <time>2025-04-10T17:28:13Z</time>
      </trkpt>
      <trkpt lat="43.65459" lon="1.38915">
        <ele>139</ele>
        <time>2025-04-10T17:28:14Z</time>
      </trkpt>
      <trkpt lat="43.65461" lon="1.38918">
        <ele>139</ele>
        <time>2025-04-10T17:28:15Z</time>
      </trkpt>
      <trkpt lat="43.65461" lon="1.38918">
        <ele>139</ele>
        <time>2025-04-10T17:28:16Z</time>
      </trkpt>
      <trkpt lat="43.65462" lon="1.38921">
        <ele>139</ele>
        <time>2025-04-10T17:28:17Z</time>
      </trkpt>
      <trkpt lat="43.65462" lon="1.38921">
        <ele>139</ele>
        <time>2025-04-10T17:28:18Z</time>
      </trkpt>
      <trkpt lat="43.65462" lon="1.38925">
        <ele>139</ele>
        <time>2025-04-10T17:28:19Z</time>
      </trkpt>
      <trkpt lat="43.65462" lon="1.38925">
        <ele>139</ele>
        <time>2025-04-10T17:28:20Z</time>
      </trkpt>
      <trkpt lat="43.65462" lon="1.38928">
        <ele>139</ele>
        <time>2025-04-10T17:28:21Z</time>
      </trkpt>
      <trkpt lat="43.65462" lon="1.38928">
        <ele>139</ele>
        <time>2025-04-10T17:28:22Z</time>
      </trkpt>
      <trkpt lat="43.65462" lon="1.3893">
        <ele>139</ele>
        <time>2025-04-10T17:28:23Z</time>
      </trkpt>
      <trkpt lat="43.65462" lon="1.3893">
        <ele>138</ele>
        <time>2025-04-10T17:28:24Z</time>
      </trkpt>
      <trkpt lat="43.65462" lon="1.3893">
        <ele>138</ele>
        <time>2025-04-10T17:28:25Z</time>
      </trkpt>
      <trkpt lat="43.65464" lon="1.38934">
        <ele>138</ele>
        <time>2025-04-10T17:28:26Z</time>
      </trkpt>
      <trkpt lat="43.65464" lon="1.38934">
        <ele>138</ele>
        <time>2025-04-10T17:28:27Z</time>
      </trkpt>
      <trkpt lat="43.65465" lon="1.38939">
        <ele>138</ele>
        <time>2025-04-10T17:28:28Z</time>
      </trkpt>
      <trkpt lat="43.65465" lon="1.38939">
        <ele>138</ele>
        <time>2025-04-10T17:28:29Z</time>
      </trkpt>
      <trkpt lat="43.65466" lon="1.38942">
        <ele>138</ele>
        <time>2025-04-10T17:28:30Z</time>
      </trkpt>
      <trkpt lat="43.65466" lon="1.38942">
        <ele>137</ele>
        <time>2025-04-10T17:28:31Z</time>
      </trkpt>
      <trkpt lat="43.65467" lon="1.38945">
        <ele>136</ele>
        <time>2025-04-10T17:28:32Z</time>
      </trkpt>
      <trkpt lat="43.65467" lon="1.38945">
        <ele>136</ele>
        <time>2025-04-10T17:28:33Z</time>
      </trkpt>
      <trkpt lat="43.65468" lon="1.38948">
        <ele>136</ele>
        <time>2025-04-10T17:28:34Z</time>
      </trkpt>
      <trkpt lat="43.65468" lon="1.38948">
        <ele>136</ele>
        <time>2025-04-10T17:28:35Z</time>
      </trkpt>
      <trkpt lat="43.65469" lon="1.38951">
        <ele>136</ele>
        <time>2025-04-10T17:28:36Z</time>
      </trkpt>
      <trkpt lat="43.65469" lon="1.38951">
        <ele>136</ele>
        <time>2025-04-10T17:28:37Z</time>
      </trkpt>
      <trkpt lat="43.6547" lon="1.38956">
        <ele>136</ele>
        <time>2025-04-10T17:28:38Z</time>
      </trkpt>
      <trkpt lat="43.65458" lon="1.38975">
        <ele>130</ele>
        <time>2025-04-10T17:34:00Z</time>
      </trkpt>
      <trkpt lat="43.65458" lon="1.38975">
        <ele>130</ele>
        <time>2025-04-10T17:34:01Z</time>
      </trkpt>
      <trkpt lat="43.65458" lon="1.38974">
        <ele>130</ele>
        <time>2025-04-10T17:34:02Z</time>
      </trkpt>
      <trkpt lat="43.65458" lon="1.38974">
        <ele>130</ele>
        <time>2025-04-10T17:34:03Z</time>
      </trkpt>
      <trkpt lat="43.65458" lon="1.38974">
        <ele>130</ele>
        <time>2025-04-10T17:34:04Z</time>
      </trkpt>
      <trkpt lat="43.65458" lon="1.38974">
        <ele>130</ele>
        <time>2025-04-10T17:34:05Z</time>
      </trkpt>
      <trkpt lat="43.65458" lon="1.38974">
        <ele>130</ele>
        <time>2025-04-10T17:34:06Z</time>
      </trkpt>
      <trkpt lat="43.65458" lon="1.38974">
        <ele>130</ele>
        <time>2025-04-10T17:34:07Z</time>
      </trkpt>
      <trkpt lat="43.65458" lon="1.38974">
        <ele>130</ele>
        <time>2025-04-10T17:34:08Z</time>
      </trkpt>
      <trkpt lat="43.65456" lon="1.38971">
        <ele>130</ele>
        <time>2025-04-10T17:34:09Z</time>
      </trkpt>
      <trkpt lat="43.65455" lon="1.38969">
        <ele>130</ele>
        <time>2025-04-10T17:34:10Z</time>
      </trkpt>
      <trkpt lat="43.65453" lon="1.38967">
        <ele>130</ele>
        <time>2025-04-10T17:34:11Z</time>
      </trkpt>
      <trkpt lat="43.65452" lon="1.38964">
        <ele>130</ele>
        <time>2025-04-10T17:34:12Z</time>
      </trkpt>
      <trkpt lat="43.65451" lon="1.38961">
        <ele>131</ele>
        <time>2025-04-10T17:34:13Z</time>
      </trkpt>
      <trkpt lat="43.65449" lon="1.38957">
        <ele>131</ele>
        <time>2025-04-10T17:34:14Z</time>
      </trkpt>
      <trkpt lat="43.65446" lon="1.38953">
        <ele>132</ele>
        <time>2025-04-10T17:34:15Z</time>
      </trkpt>
      <trkpt lat="43.65444" lon="1.38949">
        <ele>132</ele>
        <time>2025-04-10T17:34:16Z</time>
      </trkpt>
      <trkpt lat="43.65442" lon="1.38946">
        <ele>132</ele>
        <time>2025-04-10T17:34:17Z</time>
      </trkpt>
      <trkpt lat="43.6544" lon="1.38943">
        <ele>132</ele>
        <time>2025-04-10T17:34:18Z</time>
      </trkpt>
      <trkpt lat="43.65438" lon="1.3894">
        <ele>133</ele>
        <time>2025-04-10T17:34:19Z</time>
      </trkpt>
      <trkpt lat="43.65437" lon="1.38937">
        <ele>133</ele>
        <time>2025-04-10T17:34:20Z</time>
      </trkpt>
      <trkpt lat="43.65435" lon="1.38934">
        <ele>134</ele>
        <time>2025-04-10T17:34:21Z</time>
      </trkpt>
      <trkpt lat="43.65433" lon="1.38931">
        <ele>134</ele>
        <time>2025-04-10T17:34:22Z</time>
      </trkpt>
      <trkpt lat="43.65431" lon="1.38927">
        <ele>135</ele>
        <time>2025-04-10T17:34:23Z</time>
      </trkpt>
      <trkpt lat="43.65429" lon="1.38924">
        <ele>136</ele>
        <time>2025-04-10T17:34:24Z</time>
      </trkpt>
      <trkpt lat="43.65427" lon="1.3892">
        <ele>136</ele>
        <time>2025-04-10T17:34:25Z</time>
      </trkpt>
      <trkpt lat="43.65425" lon="1.38915">
        <ele>136</ele>
        <time>2025-04-10T17:34:26Z</time>
      </trkpt>
      <trkpt lat="43.65423" lon="1.38911">
        <ele>138</ele>
        <time>2025-04-10T17:34:27Z</time>
      </trkpt>
      <trkpt lat="43.65421" lon="1.38906">
        <ele>138</ele>
        <time>2025-04-10T17:34:28Z</time>
      </trkpt>
      <trkpt lat="43.6542" lon="1.38901">
        <ele>138</ele>
        <time>2025-04-10T17:34:29Z</time>
      </trkpt>
      <trkpt lat="43.65419" lon="1.38896">
        <ele>138</ele>
        <time>2025-04-10T17:34:30Z</time>
      </trkpt>
      <trkpt lat="43.65417" lon="1.3889">
        <ele>138</ele>
        <time>2025-04-10T17:34:31Z</time>
      </trkpt>
      <trkpt lat="43.65416" lon="1.38885">
        <ele>138</ele>
        <time>2025-04-10T17:34:32Z</time>
      </trkpt>
      <trkpt lat="43.65416" lon="1.38879">
        <ele>138</ele>
        <time>2025-04-10T17:34:33Z</time>
      </trkpt>
      <trkpt lat="43.65416" lon="1.38874">
        <ele>139</ele>
        <time>2025-04-10T17:34:34Z</time>
      </trkpt>
      <trkpt lat="43.65417" lon="1.3887">
        <ele>140</ele>
        <time>2025-04-10T17:34:35Z</time>
      </trkpt>
      <trkpt lat="43.65418" lon="1.38867">
        <ele>140</ele>
        <time>2025-04-10T17:34:36Z</time>
      </trkpt>
      <trkpt lat="43.6542" lon="1.38865">
        <ele>140</ele>
        <time>2025-04-10T17:34:37Z</time>
      </trkpt>
      <trkpt lat="43.65421" lon="1.38863">
        <ele>140</ele>
        <time>2025-04-10T17:34:38Z</time>
      </trkpt>
      <trkpt lat="43.65422" lon="1.3886">
        <ele>141</ele>
        <time>2025-04-10T17:34:39Z</time>
      </trkpt>
      <trkpt lat="43.65423" lon="1.38858">
        <ele>142</ele>
        <time>2025-04-10T17:34:40Z</time>
      </trkpt>
      <trkpt lat="43.65423" lon="1.38858">
        <ele>142</ele>
        <time>2025-04-10T17:34:41Z</time>
      </trkpt>
      <trkpt lat="43.65426" lon="1.38855">
        <ele>142</ele>
        <time>2025-04-10T17:34:42Z</time>
      </trkpt>
      <trkpt lat="43.65426" lon="1.38855">
        <ele>142</ele>
        <time>2025-04-10T17:34:43Z</time>
      </trkpt>
      <trkpt lat="43.65428" lon="1.38853">
        <ele>142</ele>
        <time>2025-04-10T17:34:44Z</time>
      </trkpt>
      <trkpt lat="43.65428" lon="1.38853">
        <ele>142</ele>
        <time>2025-04-10T17:34:45Z</time>
      </trkpt>
      <trkpt lat="43.6543" lon="1.3885">
        <ele>142</ele>
        <time>2025-04-10T17:34:46Z</time>
      </trkpt>
      <trkpt lat="43.6543" lon="1.3885">
        <ele>142</ele>
        <time>2025-04-10T17:34:47Z</time>
      </trkpt>
      <trkpt lat="43.6543" lon="1.3885">
        <ele>142</ele>
        <time>2025-04-10T17:34:48Z</time>
      </trkpt>
      <trkpt lat="43.65432" lon="1.38851">
        <ele>142</ele>
        <time>2025-04-10T17:34:49Z</time>
      </trkpt>
      <trkpt lat="43.65432" lon="1.38851">
        <ele>142</ele>
        <time>2025-04-10T17:34:50Z</time>
      </trkpt>
      <trkpt lat="43.65432" lon="1.38854">
        <ele>142</ele>
        <time>2025-04-10T17:34:51Z</time>
      </trkpt>
      <trkpt lat="43.65432" lon="1.38854">
        <ele>142</ele>
        <time>2025-04-10T17:34:52Z</time>
      </trkpt>
      <trkpt lat="43.65432" lon="1.38854">
        <ele>142</ele>
        <time>2025-04-10T17:34:53Z</time>
      </trkpt>
      <trkpt lat="43.65434" lon="1.38857">
        <ele>142</ele>
        <time>2025-04-10T17:34:54Z</time>
      </trkpt>
      <trkpt lat="43.65434" lon="1.38857">
        <ele>142</ele>
        <time>2025-04-10T17:34:55Z</time>
      </trkpt>
      <trkpt lat="43.65436" lon="1.38861">
        <ele>142</ele>
        <time>2025-04-10T17:34:56Z</time>
      </trkpt>
      <trkpt lat="43.65436" lon="1.38861">
        <ele>142</ele>
        <time>2025-04-10T17:34:57Z</time>
      </trkpt>
      <trkpt lat="43.65438" lon="1.38864">
        <ele>142</ele>
        <time>2025-04-10T17:34:58Z</time>
      </trkpt>
      <trkpt lat="43.65438" lon="1.38864">
        <ele>142</ele>
        <time>2025-04-10T17:34:59Z</time>
      </trkpt>
      <trkpt lat="43.65438" lon="1.38868">
        <ele>142</ele>
        <time>2025-04-10T17:35:00Z</time>
      </trkpt>
      <trkpt lat="43.65438" lon="1.38868">
        <ele>141</ele>
        <time>2025-04-10T17:35:01Z</time>
      </trkpt>
      <trkpt lat="43.6544" lon="1.38871">
        <ele>141</ele>
        <time>2025-04-10T17:35:02Z</time>
      </trkpt>
      <trkpt lat="43.6544" lon="1.38871">
        <ele>141</ele>
        <time>2025-04-10T17:35:03Z</time>
      </trkpt>
      <trkpt lat="43.65441" lon="1.38875">
        <ele>141</ele>
        <time>2025-04-10T17:35:04Z</time>
      </trkpt>
      <trkpt lat="43.65441" lon="1.38875">
        <ele>141</ele>
        <time>2025-04-10T17:35:05Z</time>
      </trkpt>
      <trkpt lat="43.65442" lon="1.38878">
        <ele>141</ele>
        <time>2025-04-10T17:35:06Z</time>
      </trkpt>
      <trkpt lat="43.65442" lon="1.38878">
        <ele>141</ele>
        <time>2025-04-10T17:35:07Z</time>
      </trkpt>
      <trkpt lat="43.65443" lon="1.38882">
        <ele>141</ele>
        <time>2025-04-10T17:35:08Z</time>
      </trkpt>
      <trkpt lat="43.65443" lon="1.38882">
        <ele>141</ele>
        <time>2025-04-10T17:35:09Z</time>
      </trkpt>
      <trkpt lat="43.65444" lon="1.38885">
        <ele>141</ele>
        <time>2025-04-10T17:35:10Z</time>
      </trkpt>
      <trkpt lat="43.65444" lon="1.38885">
        <ele>141</ele>
        <time>2025-04-10T17:35:11Z</time>
      </trkpt>
      <trkpt lat="43.65445" lon="1.38889">
        <ele>141</ele>
        <time>2025-04-10T17:35:12Z</time>
      </trkpt>
      <trkpt lat="43.65445" lon="1.38889">
        <ele>141</ele>
        <time>2025-04-10T17:35:13Z</time>
      </trkpt>
      <trkpt lat="43.65446" lon="1.38893">
        <ele>141</ele>
        <time>2025-04-10T17:35:14Z</time>
      </trkpt>
      <trkpt lat="43.65446" lon="1.38893">
        <ele>141</ele>
        <time>2025-04-10T17:35:15Z</time>
      </trkpt>
      <trkpt lat="43.65447" lon="1.38896">
        <ele>141</ele>
        <time>2025-04-10T17:35:16Z</time>
      </trkpt>
      <trkpt lat="43.65447" lon="1.38896">
        <ele>141</ele>
        <time>2025-04-10T17:35:17Z</time>
      </trkpt>
      <trkpt lat="43.65448" lon="1.38899">
        <ele>141</ele>
        <time>2025-04-10T17:35:18Z</time>
      </trkpt>
      <trkpt lat="43.65448" lon="1.38899">
        <ele>141</ele>
        <time>2025-04-10T17:35:19Z</time>
      </trkpt>
      <trkpt lat="43.65449" lon="1.38903">
        <ele>141</ele>
        <time>2025-04-10T17:35:20Z</time>
      </trkpt>
      <trkpt lat="43.65449" lon="1.38903">
        <ele>140</ele>
        <time>2025-04-10T17:35:21Z</time>
      </trkpt>
      <trkpt lat="43.65451" lon="1.38906">
        <ele>140</ele>
        <time>2025-04-10T17:35:22Z</time>
      </trkpt>
      <trkpt lat="43.65451" lon="1.38906">
        <ele>140</ele>
        <time>2025-04-10T17:35:23Z</time>
      </trkpt>
      <trkpt lat="43.65453" lon="1.38909">
        <ele>140</ele>
        <time>2025-04-10T17:35:24Z</time>
      </trkpt>
      <trkpt lat="43.65453" lon="1.38909">
        <ele>140</ele>
        <time>2025-04-10T17:35:25Z</time>
      </trkpt>
      <trkpt lat="43.65456" lon="1.38912">
        <ele>140</ele>
        <time>2025-04-10T17:35:26Z</time>
      </trkpt>
      <trkpt lat="43.65457" lon="1.38914">
        <ele>140</ele>
        <time>2025-04-10T17:35:27Z</time>
      </trkpt>
      <trkpt lat="43.65459" lon="1.38916">
        <ele>140</ele>
        <time>2025-04-10T17:35:28Z</time>
      </trkpt>
      <trkpt lat="43.65461" lon="1.38919">
        <ele>140</ele>
        <time>2025-04-10T17:35:29Z</time>
      </trkpt>
      <trkpt lat="43.65462" lon="1.38921">
        <ele>140</ele>
        <time>2025-04-10T17:35:30Z</time>
      </trkpt>
      <trkpt lat="43.65463" lon="1.38924">
        <ele>140</ele>
        <time>2025-04-10T17:35:31Z</time>
      </trkpt>
      <trkpt lat="43.65463" lon="1.38927">
        <ele>140</ele>
        <time>2025-04-10T17:35:32Z</time>
      </trkpt>
      <trkpt lat="43.65464" lon="1.3893">
        <ele>139</ele>
        <time>2025-04-10T17:35:33Z</time>
      </trkpt>
      <trkpt lat="43.65465" lon="1.38933">
        <ele>139</ele>
        <time>2025-04-10T17:35:34Z</time>
      </trkpt>
      <trkpt lat="43.65466" lon="1.38936">
        <ele>138</ele>
        <time>2025-04-10T17:35:35Z</time>
      </trkpt>
      <trkpt lat="43.65466" lon="1.38939">
        <ele>138</ele>
        <time>2025-04-10T17:35:36Z</time>
      </trkpt>
      <trkpt lat="43.65467" lon="1.38942">
        <ele>138</ele>
        <time>2025-04-10T17:35:37Z</time>
      </trkpt>
      <trkpt lat="43.65468" lon="1.38946">
        <ele>138</ele>
        <time>2025-04-10T17:35:38Z</time>
      </trkpt>
      <trkpt lat="43.65469" lon="1.38949">
        <ele>137</ele>
        <time>2025-04-10T17:35:39Z</time>
      </trkpt>
      <trkpt lat="43.65469" lon="1.38953">
        <ele>137</ele>
        <time>2025-04-10T17:35:40Z</time>
      </trkpt>
      <trkpt lat="43.6547" lon="1.38957">
        <ele>136</ele>
        <time>2025-04-10T17:35:41Z</time>
      </trkpt>
      <trkpt lat="43.65471" lon="1.38961">
        <ele>135</ele>
        <time>2025-04-10T17:35:42Z</time>
      </trkpt>
      <trkpt lat="43.65472" lon="1.38966">
        <ele>134</ele>
        <time>2025-04-10T17:35:43Z</time>
      </trkpt>
      <trkpt lat="43.65473" lon="1.3897">
        <ele>133</ele>
        <time>2025-04-10T17:35:44Z</time>
      </trkpt>
      <trkpt lat="43.65473" lon="1.38974">
        <ele>133</ele>
        <time>2025-04-10T17:35:45Z</time>
      </trkpt>
      <trkpt lat="43.65474" lon="1.38978">
        <ele>133</ele>
        <time>2025-04-10T17:35:46Z</time>
      </trkpt>
      <trkpt lat="43.65474" lon="1.38982">
        <ele>132</ele>
        <time>2025-04-10T17:35:47Z</time>
      </trkpt>
      <trkpt lat="43.65473" lon="1.38986">
        <ele>132</ele>
        <time>2025-04-10T17:35:48Z</time>
      </trkpt>
      <trkpt lat="43.6547" lon="1.38987">
        <ele>132</ele>
        <time>2025-04-10T17:35:49Z</time>
      </trkpt>
      <trkpt lat="43.65467" lon="1.38986">
        <ele>131</ele>
        <time>2025-04-10T17:35:50Z</time>
      </trkpt>
      <trkpt lat="43.65465" lon="1.38984">
        <ele>131</ele>
        <time>2025-04-10T17:35:51Z</time>
      </trkpt>
      <trkpt lat="43.65465" lon="1.38984">
        <ele>130</ele>
        <time>2025-04-10T17:35:52Z</time>
      </trkpt>
      <trkpt lat="43.65462" lon="1.3898">
        <ele>130</ele>
        <time>2025-04-10T17:35:53Z</time>
      </trkpt>
      <trkpt lat="43.65462" lon="1.3898">
        <ele>130</ele>
        <time>2025-04-10T17:35:54Z</time>
      </trkpt>
      <trkpt lat="43.65461" lon="1.38978">
        <ele>130</ele>
        <time>2025-04-10T17:35:55Z</time>
      </trkpt>
      <trkpt lat="43.65461" lon="1.38978">
        <ele>130</ele>
        <time>2025-04-10T17:35:56Z</time>
      </trkpt>
      <trkpt lat="43.65459" lon="1.38977">
        <ele>130</ele>
        <time>2025-04-10T17:35:57Z</time>
      </trkpt>
      <trkpt lat="43.65459" lon="1.38977">
        <ele>130</ele>
        <time>2025-04-10T17:35:58Z</time>
      </trkpt>
      <trkpt lat="43.65459" lon="1.38977">
        <ele>130</ele>
        <time>2025-04-10T17:35:59Z</time>
      </trkpt>
      <trkpt lat="43.65457" lon="1.38974">
        <ele>130</ele>
        <time>2025-04-10T17:36:00Z</time>
      </trkpt>
      <trkpt lat="43.65457" lon="1.38974">
        <ele>130</ele>
        <time>2025-04-10T17:36:01Z</time>
      </trkpt>
      <trkpt lat="43.65457" lon="1.38974">
        <ele>130</ele>
        <time>2025-04-10T17:36:02Z</time>
      </trkpt>
      <trkpt lat="43.65455" lon="1.38972">
        <ele>130</ele>
        <time>2025-04-10T17:36:03Z</time>
      </trkpt>
      <trkpt lat="43.65455" lon="1.38972">
        <ele>130</ele>
        <time>2025-04-10T17:36:04Z</time>
      </trkpt>
      <trkpt lat="43.65455" lon="1.38972">
        <ele>130</ele>
        <time>2025-04-10T17:36:05Z</time>
      </trkpt>
      <trkpt lat="43.65455" lon="1.38972">
        <ele>130</ele>
        <time>2025-04-10T17:36:06Z</time>
      </trkpt>
      <trkpt lat="43.65455" lon="1.38972">
        <ele>130</ele>
        <time>2025-04-10T17:36:07Z</time>
      </trkpt>
      <trkpt lat="43.65455" lon="1.38969">
        <ele>130</ele>
        <time>2025-04-10T17:36:08Z</time>
      </trkpt>
      <trkpt lat="43.65454" lon="1.38966">
        <ele>130</ele>
        <time>2025-04-10T17:36:09Z</time>
      </trkpt>
      <trkpt lat="43.65453" lon="1.38962">
        <ele>130</ele>
        <time>2025-04-10T17:36:10Z</time>
      </trkpt>
      <trkpt lat="43.65451" lon="1.38957">
        <ele>130</ele>
        <time>2025-04-10T17:36:11Z</time>
      </trkpt>
      <trkpt lat="43.65449" lon="1.38953">
        <ele>131</ele>
        <time>2025-04-10T17:36:12Z</time>
      </trkpt>
      <trkpt lat="43.65446" lon="1.38948">
        <ele>131</ele>
        <time>2025-04-10T17:36:13Z</time>
      </trkpt>
      <trkpt lat="43.65443" lon="1.38944">
        <ele>131</ele>
        <time>2025-04-10T17:36:14Z</time>
      </trkpt>
      <trkpt lat="43.6544" lon="1.38941">
        <ele>132</ele>
        <time>2025-04-10T17:36:15Z</time>
      </trkpt>
      <trkpt lat="43.65438" lon="1.38937">
        <ele>132</ele>
        <time>2025-04-10T17:36:16Z</time>
      </trkpt>
      <trkpt lat="43.65435" lon="1.38934">
        <ele>133</ele>
        <time>2025-04-10T17:36:17Z</time>
      </trkpt>
      <trkpt lat="43.65433" lon="1.38932">
        <ele>134</ele>
        <time>2025-04-10T17:36:18Z</time>
      </trkpt>
      <trkpt lat="43.65431" lon="1.38929">
        <ele>134</ele>
        <time>2025-04-10T17:36:19Z</time>
      </trkpt>
      <trkpt lat="43.65429" lon="1.38926">
        <ele>134</ele>
        <time>2025-04-10T17:36:20Z</time>
      </trkpt>
      <trkpt lat="43.65427" lon="1.38922">
        <ele>135</ele>
        <time>2025-04-10T17:36:21Z</time>
      </trkpt>
      <trkpt lat="43.65425" lon="1.38918">
        <ele>136</ele>
        <time>2025-04-10T17:36:22Z</time>
      </trkpt>
      <trkpt lat="43.65423" lon="1.38915">
        <ele>136</ele>
        <time>2025-04-10T17:36:23Z</time>
      </trkpt>
      <trkpt lat="43.65421" lon="1.3891">
        <ele>137</ele>
        <time>2025-04-10T17:36:24Z</time>
      </trkpt>
      <trkpt lat="43.6542" lon="1.38905">
        <ele>137</ele>
        <time>2025-04-10T17:36:25Z</time>
      </trkpt>
      <trkpt lat="43.65418" lon="1.38899">
        <ele>138</ele>
        <time>2025-04-10T17:36:26Z</time>
      </trkpt>
      <trkpt lat="43.65417" lon="1.38894">
        <ele>139</ele>
        <time>2025-04-10T17:36:27Z</time>
      </trkpt>
      <trkpt lat="43.65416" lon="1.38889">
        <ele>139</ele>
        <time>2025-04-10T17:36:28Z</time>
      </trkpt>
      <trkpt lat="43.65414" lon="1.38883">
        <ele>139</ele>
        <time>2025-04-10T17:36:29Z</time>
      </trkpt>
      <trkpt lat="43.65413" lon="1.38878">
        <ele>139</ele>
        <time>2025-04-10T17:36:30Z</time>
      </trkpt>
      <trkpt lat="43.65411" lon="1.38872">
        <ele>139</ele>
        <time>2025-04-10T17:36:31Z</time>
      </trkpt>
      <trkpt lat="43.65411" lon="1.38866">
        <ele>140</ele>
        <time>2025-04-10T17:36:32Z</time>
      </trkpt>
      <trkpt lat="43.65412" lon="1.38861">
        <ele>140</ele>
        <time>2025-04-10T17:36:33Z</time>
      </trkpt>
      <trkpt lat="43.65413" lon="1.38856">
        <ele>140</ele>
        <time>2025-04-10T17:36:34Z</time>
      </trkpt>
      <trkpt lat="43.65416" lon="1.38852">
        <ele>140</ele>
        <time>2025-04-10T17:36:35Z</time>
      </trkpt>
      <trkpt lat="43.65418" lon="1.38849">
        <ele>141</ele>
        <time>2025-04-10T17:36:36Z</time>
      </trkpt>
      <trkpt lat="43.6542" lon="1.38847">
        <ele>141</ele>
        <time>2025-04-10T17:36:37Z</time>
      </trkpt>
      <trkpt lat="43.65421" lon="1.38845">
        <ele>142</ele>
        <time>2025-04-10T17:36:38Z</time>
      </trkpt>
      <trkpt lat="43.65421" lon="1.38845">
        <ele>142</ele>
        <time>2025-04-10T17:36:39Z</time>
      </trkpt>
      <trkpt lat="43.65424" lon="1.38844">
        <ele>142</ele>
        <time>2025-04-10T17:36:40Z</time>
      </trkpt>
      <trkpt lat="43.65424" lon="1.38844">
        <ele>142</ele>
        <time>2025-04-10T17:36:41Z</time>
      </trkpt>
      <trkpt lat="43.65427" lon="1.38842">
        <ele>142</ele>
        <time>2025-04-10T17:36:42Z</time>
      </trkpt>
      <trkpt lat="43.65427" lon="1.38842">
        <ele>142</ele>
        <time>2025-04-10T17:36:43Z</time>
      </trkpt>
      <trkpt lat="43.65429" lon="1.38843">
        <ele>142</ele>
        <time>2025-04-10T17:36:44Z</time>
      </trkpt>
      <trkpt lat="43.6543" lon="1.38845">
        <ele>143</ele>
        <time>2025-04-10T17:36:45Z</time>
      </trkpt>
      <trkpt lat="43.65431" lon="1.38847">
        <ele>143</ele>
        <time>2025-04-10T17:36:46Z</time>
      </trkpt>
      <trkpt lat="43.65431" lon="1.38847">
        <ele>143</ele>
        <time>2025-04-10T17:36:47Z</time>
      </trkpt>
      <trkpt lat="43.65433" lon="1.38851">
        <ele>143</ele>
        <time>2025-04-10T17:36:48Z</time>
      </trkpt>
      <trkpt lat="43.65434" lon="1.38853">
        <ele>143</ele>
        <time>2025-04-10T17:36:49Z</time>
      </trkpt>
      <trkpt lat="43.65436" lon="1.38855">
        <ele>143</ele>
        <time>2025-04-10T17:36:50Z</time>
      </trkpt>
      <trkpt lat="43.65436" lon="1.38855">
        <ele>143</ele>
        <time>2025-04-10T17:36:51Z</time>
      </trkpt>
      <trkpt lat="43.65438" lon="1.38858">
        <ele>143</ele>
        <time>2025-04-10T17:36:52Z</time>
      </trkpt>
      <trkpt lat="43.65438" lon="1.38858">
        <ele>143</ele>
        <time>2025-04-10T17:36:53Z</time>
      </trkpt>
      <trkpt lat="43.6544" lon="1.38861">
        <ele>143</ele>
        <time>2025-04-10T17:36:54Z</time>
      </trkpt>
      <trkpt lat="43.6544" lon="1.38861">
        <ele>142</ele>
        <time>2025-04-10T17:36:55Z</time>
      </trkpt>
      <trkpt lat="43.65441" lon="1.38865">
        <ele>142</ele>
        <time>2025-04-10T17:36:56Z</time>
      </trkpt>
      <trkpt lat="43.65441" lon="1.38865">
        <ele>142</ele>
        <time>2025-04-10T17:36:57Z</time>
      </trkpt>
      <trkpt lat="43.65441" lon="1.38869">
        <ele>141</ele>
        <time>2025-04-10T17:36:58Z</time>
      </trkpt>
      <trkpt lat="43.65441" lon="1.38869">
        <ele>141</ele>
        <time>2025-04-10T17:36:59Z</time>
      </trkpt>
      <trkpt lat="43.65441" lon="1.38872">
        <ele>141</ele>
        <time>2025-04-10T17:37:00Z</time>
      </trkpt>
      <trkpt lat="43.65441" lon="1.38872">
        <ele>141</ele>
        <time>2025-04-10T17:37:01Z</time>
      </trkpt>
      <trkpt lat="43.65442" lon="1.38875">
        <ele>141</ele>
        <time>2025-04-10T17:37:02Z</time>
      </trkpt>
      <trkpt lat="43.65442" lon="1.38875">
        <ele>141</ele>
        <time>2025-04-10T17:37:03Z</time>
      </trkpt>
      <trkpt lat="43.65443" lon="1.38879">
        <ele>140</ele>
        <time>2025-04-10T17:37:04Z</time>
      </trkpt>
      <trkpt lat="43.65443" lon="1.38879">
        <ele>140</ele>
        <time>2025-04-10T17:37:05Z</time>
      </trkpt>
      <trkpt lat="43.65444" lon="1.38883">
        <ele>140</ele>
        <time>2025-04-10T17:37:06Z</time>
      </trkpt>
      <trkpt lat="43.65444" lon="1.38883">
        <ele>140</ele>
        <time>2025-04-10T17:37:07Z</time>
      </trkpt>
      <trkpt lat="43.65446" lon="1.38887">
        <ele>140</ele>
        <time>2025-04-10T17:37:08Z</time>
      </trkpt>
      <trkpt lat="43.65446" lon="1.38887">
        <ele>140</ele>
        <time>2025-04-10T17:37:09Z</time>
      </trkpt>
      <trkpt lat="43.65446" lon="1.38891">
        <ele>140</ele>
        <time>2025-04-10T17:37:10Z</time>
      </trkpt>
      <trkpt lat="43.65446" lon="1.38891">
        <ele>140</ele>
        <time>2025-04-10T17:37:11Z</time>
      </trkpt>
      <trkpt lat="43.65446" lon="1.38894">
        <ele>140</ele>
        <time>2025-04-10T17:37:12Z</time>
      </trkpt>
      <trkpt lat="43.65446" lon="1.38894">
        <ele>140</ele>
        <time>2025-04-10T17:37:13Z</time>
      </trkpt>
      <trkpt lat="43.65447" lon="1.38898">
        <ele>140</ele>
        <time>2025-04-10T17:37:14Z</time>
      </trkpt>
      <trkpt lat="43.65447" lon="1.38898">
        <ele>140</ele>
        <time>2025-04-10T17:37:15Z</time>
      </trkpt>
      <trkpt lat="43.65448" lon="1.38901">
        <ele>140</ele>
        <time>2025-04-10T17:37:16Z</time>
      </trkpt>
      <trkpt lat="43.65448" lon="1.38901">
        <ele>140</ele>
        <time>2025-04-10T17:37:17Z</time>
      </trkpt>
      <trkpt lat="43.65449" lon="1.38904">
        <ele>140</ele>
        <time>2025-04-10T17:37:18Z</time>
      </trkpt>
      <trkpt lat="43.65449" lon="1.38904">
        <ele>140</ele>
        <time>2025-04-10T17:37:19Z</time>
      </trkpt>
      <trkpt lat="43.65451" lon="1.38907">
        <ele>140</ele>
        <time>2025-04-10T17:37:20Z</time>
      </trkpt>
      <trkpt lat="43.65451" lon="1.38907">
        <ele>140</ele>
        <time>2025-04-10T17:37:21Z</time>
      </trkpt>
      <trkpt lat="43.65453" lon="1.38911">
        <ele>140</ele>
        <time>2025-04-10T17:37:22Z</time>
      </trkpt>
      <trkpt lat="43.65453" lon="1.38911">
        <ele>140</ele>
        <time>2025-04-10T17:37:23Z</time>
      </trkpt>
      <trkpt lat="43.65456" lon="1.38914">
        <ele>140</ele>
        <time>2025-04-10T17:37:24Z</time>
      </trkpt>
      <trkpt lat="43.65457" lon="1.38916">
        <ele>140</ele>
        <time>2025-04-10T17:37:25Z</time>
      </trkpt>
      <trkpt lat="43.65458" lon="1.38918">
        <ele>140</ele>
        <time>2025-04-10T17:37:26Z</time>
      </trkpt>
      <trkpt lat="43.65458" lon="1.38918">
        <ele>140</ele>
        <time>2025-04-10T17:37:27Z</time>
      </trkpt>
      <trkpt lat="43.6546" lon="1.38922">
        <ele>140</ele>
        <time>2025-04-10T17:37:28Z</time>
      </trkpt>
      <trkpt lat="43.6546" lon="1.38922">
        <ele>140</ele>
        <time>2025-04-10T17:37:29Z</time>
      </trkpt>
      <trkpt lat="43.65461" lon="1.38926">
        <ele>140</ele>
        <time>2025-04-10T17:37:30Z</time>
      </trkpt>
      <trkpt lat="43.65461" lon="1.38926">
        <ele>140</ele>
        <time>2025-04-10T17:37:31Z</time>
      </trkpt>
      <trkpt lat="43.65461" lon="1.38929">
        <ele>140</ele>
        <time>2025-04-10T17:37:32Z</time>
      </trkpt>
      <trkpt lat="43.65461" lon="1.38929">
        <ele>140</ele>
        <time>2025-04-10T17:37:33Z</time>
      </trkpt>
      <trkpt lat="43.65462" lon="1.38932">
        <ele>139</ele>
        <time>2025-04-10T17:37:34Z</time>
      </trkpt>
      <trkpt lat="43.65463" lon="1.38935">
        <ele>139</ele>
        <time>2025-04-10T17:37:35Z</time>
      </trkpt>
      <trkpt lat="43.65463" lon="1.38935">
        <ele>138</ele>
        <time>2025-04-10T17:37:36Z</time>
      </trkpt>
      <trkpt lat="43.65464" lon="1.38939">
        <ele>138</ele>
        <time>2025-04-10T17:37:37Z</time>
      </trkpt>
      <trkpt lat="43.65464" lon="1.38939">
        <ele>138</ele>
        <time>2025-04-10T17:37:38Z</time>
      </trkpt>
      <trkpt lat="43.65465" lon="1.38942">
        <ele>137</ele>
        <time>2025-04-10T17:37:39Z</time>
      </trkpt>
      <trkpt lat="43.65465" lon="1.38942">
        <ele>137</ele>
        <time>2025-04-10T17:37:40Z</time>
      </trkpt>
      <trkpt lat="43.65466" lon="1.38947">
        <ele>136</ele>
        <time>2025-04-10T17:37:41Z</time>
      </trkpt>
      <trkpt lat="43.65467" lon="1.3895">
        <ele>136</ele>
        <time>2025-04-10T17:37:42Z</time>
      </trkpt>
      <trkpt lat="43.65468" lon="1.38953">
        <ele>136</ele>
        <time>2025-04-10T17:37:43Z</time>
      </trkpt>
      <trkpt lat="43.65468" lon="1.38955">
        <ele>135</ele>
        <time>2025-04-10T17:37:44Z</time>
      </trkpt>
      <trkpt lat="43.65468" lon="1.38955">
        <ele>135</ele>
        <time>2025-04-10T17:37:45Z</time>
      </trkpt>
      <trkpt lat="43.65469" lon="1.38959">
        <ele>134</ele>
        <time>2025-04-10T17:37:46Z</time>
      </trkpt>
      <trkpt lat="43.65469" lon="1.38959">
        <ele>134</ele>
        <time>2025-04-10T17:37:47Z</time>
      </trkpt>
      <trkpt lat="43.65472" lon="1.38966">
        <ele>135</ele>
        <time>2025-04-10T17:37:48Z</time>
      </trkpt>
      <trkpt lat="43.65472" lon="1.38967">
        <ele>134</ele>
        <time>2025-04-10T17:37:49Z</time>
      </trkpt>
      <trkpt lat="43.65473" lon="1.3897">
        <ele>134</ele>
        <time>2025-04-10T17:37:50Z</time>
      </trkpt>
      <trkpt lat="43.65474" lon="1.38973">
        <ele>134</ele>
        <time>2025-04-10T17:37:51Z</time>
      </trkpt>
      <trkpt lat="43.65475" lon="1.38976">
        <ele>133</ele>
        <time>2025-04-10T17:37:52Z</time>
      </trkpt>
      <trkpt lat="43.65476" lon="1.38979">
        <ele>133</ele>
        <time>2025-04-10T17:37:53Z</time>
      </trkpt>
      <trkpt lat="43.65476" lon="1.38981">
        <ele>132</ele>
        <time>2025-04-10T17:37:54Z</time>
      </trkpt>
      <trkpt lat="43.65477" lon="1.38984">
        <ele>132</ele>
        <time>2025-04-10T17:37:55Z</time>
      </trkpt>
      <trkpt lat="43.65477" lon="1.38987">
        <ele>132</ele>
        <time>2025-04-10T17:37:56Z</time>
      </trkpt>
      <trkpt lat="43.65474" lon="1.38989">
        <ele>131</ele>
        <time>2025-04-10T17:37:57Z</time>
      </trkpt>
      <trkpt lat="43.65471" lon="1.38989">
        <ele>130</ele>
        <time>2025-04-10T17:37:58Z</time>
      </trkpt>
      <trkpt lat="43.65467" lon="1.38989">
        <ele>130</ele>
        <time>2025-04-10T17:37:59Z</time>
      </trkpt>
      <trkpt lat="43.65465" lon="1.38988">
        <ele>130</ele>
        <time>2025-04-10T17:38:00Z</time>
      </trkpt>
      <trkpt lat="43.65465" lon="1.38988">
        <ele>129</ele>
        <time>2025-04-10T17:38:01Z</time>
      </trkpt>
      <trkpt lat="43.65462" lon="1.38986">
        <ele>130</ele>
        <time>2025-04-10T17:38:02Z</time>
      </trkpt>
      <trkpt lat="43.65462" lon="1.38986">
        <ele>130</ele>
        <time>2025-04-10T17:38:03Z</time>
      </trkpt>
      <trkpt lat="43.6546" lon="1.38984">
        <ele>130</ele>
        <time>2025-04-10T17:38:04Z</time>
      </trkpt>
      <trkpt lat="43.6546" lon="1.38984">
        <ele>130</ele>
        <time>2025-04-10T17:38:05Z</time>
      </trkpt>
      <trkpt lat="43.65459" lon="1.38981">
        <ele>130</ele>
        <time>2025-04-10T17:38:06Z</time>
      </trkpt>
      <trkpt lat="43.65459" lon="1.38981">
        <ele>130</ele>
        <time>2025-04-10T17:38:07Z</time>
      </trkpt>
      <trkpt lat="43.65459" lon="1.38981">
        <ele>130</ele>
        <time>2025-04-10T17:38:08Z</time>
      </trkpt>
      <trkpt lat="43.65458" lon="1.38978">
        <ele>130</ele>
        <time>2025-04-10T17:38:09Z</time>
      </trkpt>
      <trkpt lat="43.65458" lon="1.38978">
        <ele>130</ele>
        <time>2025-04-10T17:38:10Z</time>
      </trkpt>
      <trkpt lat="43.65458" lon="1.38978">
        <ele>130</ele>
        <time>2025-04-10T17:38:11Z</time>
      </trkpt>
      <trkpt lat="43.65458" lon="1.38978">
        <ele>130</ele>
        <time>2025-04-10T17:38:12Z</time>
      </trkpt>
      <trkpt lat="43.65458" lon="1.38978">
        <ele>130</ele>
        <time>2025-04-10T17:38:13Z</time>
      </trkpt>
      <trkpt lat="43.65456" lon="1.38976">
        <ele>130</ele>
        <time>2025-04-10T17:38:14Z</time>
      </trkpt>
      <trkpt lat="43.65456" lon="1.38976">
        <ele>130</ele>
        <time>2025-04-10T17:38:15Z</time>
      </trkpt>
      <trkpt lat="43.65455" lon="1.38973">
        <ele>131</ele>
        <time>2025-04-10T17:38:16Z</time>
      </trkpt>
      <trkpt lat="43.65454" lon="1.3897">
        <ele>131</ele>
        <time>2025-04-10T17:38:17Z</time>
      </trkpt>
      <trkpt lat="43.65452" lon="1.38967">
        <ele>131</ele>
        <time>2025-04-10T17:38:18Z</time>
      </trkpt>
      <trkpt lat="43.65449" lon="1.38963">
        <ele>131</ele>
        <time>2025-04-10T17:38:19Z</time>
      </trkpt>
      <trkpt lat="43.65446" lon="1.38959">
        <ele>131</ele>
        <time>2025-04-10T17:38:20Z</time>
      </trkpt>
      <trkpt lat="43.65444" lon="1.38956">
        <ele>131</ele>
        <time>2025-04-10T17:38:21Z</time>
      </trkpt>
      <trkpt lat="43.65442" lon="1.38952">
        <ele>131</ele>
        <time>2025-04-10T17:38:22Z</time>
      </trkpt>
      <trkpt lat="43.6544" lon="1.38948">
        <ele>132</ele>
        <time>2025-04-10T17:38:23Z</time>
      </trkpt>
      <trkpt lat="43.65438" lon="1.38944">
        <ele>133</ele>
        <time>2025-04-10T17:38:24Z</time>
      </trkpt>
      <trkpt lat="43.65436" lon="1.38941">
        <ele>134</ele>
        <time>2025-04-10T17:38:25Z</time>
      </trkpt>
      <trkpt lat="43.65434" lon="1.38938">
        <ele>135</ele>
        <time>2025-04-10T17:38:26Z</time>
      </trkpt>
      <trkpt lat="43.65432" lon="1.38934">
        <ele>135</ele>
        <time>2025-04-10T17:38:27Z</time>
      </trkpt>
      <trkpt lat="43.6543" lon="1.3893">
        <ele>136</ele>
        <time>2025-04-10T17:38:28Z</time>
      </trkpt>
      <trkpt lat="43.65427" lon="1.38926">
        <ele>136</ele>
        <time>2025-04-10T17:38:29Z</time>
      </trkpt>
      <trkpt lat="43.65424" lon="1.38922">
        <ele>137</ele>
        <time>2025-04-10T17:38:30Z</time>
      </trkpt>
      <trkpt lat="43.65422" lon="1.38917">
        <ele>137</ele>
        <time>2025-04-10T17:38:31Z</time>
      </trkpt>
      <trkpt lat="43.6542" lon="1.38912">
        <ele>137</ele>
        <time>2025-04-10T17:38:32Z</time>
      </trkpt>
      <trkpt lat="43.65418" lon="1.38907">
        <ele>138</ele>
        <time>2025-04-10T17:38:33Z</time>
      </trkpt>
      <trkpt lat="43.65416" lon="1.38901">
        <ele>138</ele>
        <time>2025-04-10T17:38:34Z</time>
      </trkpt>
      <trkpt lat="43.65415" lon="1.38895">
        <ele>138</ele>
        <time>2025-04-10T17:38:35Z</time>
      </trkpt>
      <trkpt lat="43.65413" lon="1.38889">
        <ele>138</ele>
        <time>2025-04-10T17:38:36Z</time>
      </trkpt>
      <trkpt lat="43.65412" lon="1.38884">
        <ele>138</ele>
        <time>2025-04-10T17:38:37Z</time>
      </trkpt>
      <trkpt lat="43.65412" lon="1.38879">
        <ele>139</ele>
        <time>2025-04-10T17:38:38Z</time>
      </trkpt>
      <trkpt lat="43.65412" lon="1.38874">
        <ele>140</ele>
        <time>2025-04-10T17:38:39Z</time>
      </trkpt>
      <trkpt lat="43.65411" lon="1.38869">
        <ele>140</ele>
        <time>2025-04-10T17:38:40Z</time>
      </trkpt>
      <trkpt lat="43.65411" lon="1.38865">
        <ele>140</ele>
        <time>2025-04-10T17:38:41Z</time>
      </trkpt>
      <trkpt lat="43.65412" lon="1.3886">
        <ele>140</ele>
        <time>2025-04-10T17:38:42Z</time>
      </trkpt>
      <trkpt lat="43.65414" lon="1.38857">
        <ele>141</ele>
        <time>2025-04-10T17:38:43Z</time>
      </trkpt>
      <trkpt lat="43.65415" lon="1.38854">
        <ele>141</ele>
        <time>2025-04-10T17:38:44Z</time>
      </trkpt>
      <trkpt lat="43.65416" lon="1.38851">
        <ele>141</ele>
        <time>2025-04-10T17:38:45Z</time>
      </trkpt>
      <trkpt lat="43.65418" lon="1.38848">
        <ele>141</ele>
        <time>2025-04-10T17:38:46Z</time>
      </trkpt>
      <trkpt lat="43.65418" lon="1.38848">
        <ele>142</ele>
        <time>2025-04-10T17:38:47Z</time>
      </trkpt>
      <trkpt lat="43.6542" lon="1.38846">
        <ele>142</ele>
        <time>2025-04-10T17:38:48Z</time>
      </trkpt>
      <trkpt lat="43.6542" lon="1.38846">
        <ele>142</ele>
        <time>2025-04-10T17:38:49Z</time>
      </trkpt>
      <trkpt lat="43.65422" lon="1.38843">
        <ele>142</ele>
        <time>2025-04-10T17:38:50Z</time>
      </trkpt>
      <trkpt lat="43.65422" lon="1.38843">
        <ele>142</ele>
        <time>2025-04-10T17:38:51Z</time>
      </trkpt>
      <trkpt lat="43.65425" lon="1.38841">
        <ele>142</ele>
        <time>2025-04-10T17:38:52Z</time>
      </trkpt>
      <trkpt lat="43.65425" lon="1.38841">
        <ele>143</ele>
        <time>2025-04-10T17:38:53Z</time>
      </trkpt>
      <trkpt lat="43.65427" lon="1.3884">
        <ele>143</ele>
        <time>2025-04-10T17:38:54Z</time>
      </trkpt>
      <trkpt lat="43.65427" lon="1.3884">
        <ele>143</ele>
        <time>2025-04-10T17:38:55Z</time>
      </trkpt>
      <trkpt lat="43.65429" lon="1.38842">
        <ele>143</ele>
        <time>2025-04-10T17:38:56Z</time>
      </trkpt>
      <trkpt lat="43.65429" lon="1.38842">
        <ele>143</ele>
        <time>2025-04-10T17:38:57Z</time>
      </trkpt>
      <trkpt lat="43.65431" lon="1.38846">
        <ele>143</ele>
        <time>2025-04-10T17:38:58Z</time>
      </trkpt>
      <trkpt lat="43.65431" lon="1.38846">
        <ele>143</ele>
        <time>2025-04-10T17:38:59Z</time>
      </trkpt>
      <trkpt lat="43.65433" lon="1.3885">
        <ele>143</ele>
        <time>2025-04-10T17:39:00Z</time>
      </trkpt>
      <trkpt lat="43.65434" lon="1.38852">
        <ele>143</ele>
        <time>2025-04-10T17:39:01Z</time>
      </trkpt>
      <trkpt lat="43.65434" lon="1.38852">
        <ele>143</ele>
        <time>2025-04-10T17:39:02Z</time>
      </trkpt>
      <trkpt lat="43.65435" lon="1.38855">
        <ele>143</ele>
        <time>2025-04-10T17:39:03Z</time>
      </trkpt>
      <trkpt lat="43.65435" lon="1.38855">
        <ele>143</ele>
        <time>2025-04-10T17:39:04Z</time>
      </trkpt>
      <trkpt lat="43.65437" lon="1.38858">
        <ele>143</ele>
        <time>2025-04-10T17:39:05Z</time>
      </trkpt>
      <trkpt lat="43.65437" lon="1.38858">
        <ele>143</ele>
        <time>2025-04-10T17:39:06Z</time>
      </trkpt>
      <trkpt lat="43.65438" lon="1.38862">
        <ele>143</ele>
        <time>2025-04-10T17:39:07Z</time>
      </trkpt>
      <trkpt lat="43.65438" lon="1.38862">
        <ele>143</ele>
        <time>2025-04-10T17:39:08Z</time>
      </trkpt>
      <trkpt lat="43.65439" lon="1.38865">
        <ele>142</ele>
        <time>2025-04-10T17:39:09Z</time>
      </trkpt>
      <trkpt lat="43.65439" lon="1.38865">
        <ele>142</ele>
        <time>2025-04-10T17:39:10Z</time>
      </trkpt>
      <trkpt lat="43.65439" lon="1.38869">
        <ele>142</ele>
        <time>2025-04-10T17:39:11Z</time>
      </trkpt>
      <trkpt lat="43.65439" lon="1.38869">
        <ele>142</ele>
        <time>2025-04-10T17:39:12Z</time>
      </trkpt>
      <trkpt lat="43.6544" lon="1.38872">
        <ele>142</ele>
        <time>2025-04-10T17:39:13Z</time>
      </trkpt>
      <trkpt lat="43.6544" lon="1.38872">
        <ele>142</ele>
        <time>2025-04-10T17:39:14Z</time>
      </trkpt>
      <trkpt lat="43.65441" lon="1.38875">
        <ele>142</ele>
        <time>2025-04-10T17:39:15Z</time>
      </trkpt>
      <trkpt lat="43.65441" lon="1.38875">
        <ele>142</ele>
        <time>2025-04-10T17:39:16Z</time>
      </trkpt>
      <trkpt lat="43.65443" lon="1.38879">
        <ele>141</ele>
        <time>2025-04-10T17:39:17Z</time>
      </trkpt>
      <trkpt lat="43.65443" lon="1.38879">
        <ele>141</ele>
        <time>2025-04-10T17:39:18Z</time>
      </trkpt>
      <trkpt lat="43.65444" lon="1.38883">
        <ele>141</ele>
        <time>2025-04-10T17:39:19Z</time>
      </trkpt>
      <trkpt lat="43.65444" lon="1.38883">
        <ele>141</ele>
        <time>2025-04-10T17:39:20Z</time>
      </trkpt>
      <trkpt lat="43.65444" lon="1.38886">
        <ele>141</ele>
        <time>2025-04-10T17:39:21Z</time>
      </trkpt>
      <trkpt lat="43.65444" lon="1.38886">
        <ele>141</ele>
        <time>2025-04-10T17:39:22Z</time>
      </trkpt>
      <trkpt lat="43.65445" lon="1.38889">
        <ele>141</ele>
        <time>2025-04-10T17:39:23Z</time>
      </trkpt>
      <trkpt lat="43.65445" lon="1.38889">
        <ele>141</ele>
        <time>2025-04-10T17:39:24Z</time>
      </trkpt>
      <trkpt lat="43.65446" lon="1.38893">
        <ele>141</ele>
        <time>2025-04-10T17:39:25Z</time>
      </trkpt>
      <trkpt lat="43.65446" lon="1.38893">
        <ele>141</ele>
        <time>2025-04-10T17:39:26Z</time>
      </trkpt>
      <trkpt lat="43.65446" lon="1.38896">
        <ele>141</ele>
        <time>2025-04-10T17:39:27Z</time>
      </trkpt>
      <trkpt lat="43.65446" lon="1.38896">
        <ele>141</ele>
        <time>2025-04-10T17:39:28Z</time>
      </trkpt>
      <trkpt lat="43.65447" lon="1.38899">
        <ele>141</ele>
        <time>2025-04-10T17:39:29Z</time>
      </trkpt>
      <trkpt lat="43.65447" lon="1.38899">
        <ele>141</ele>
        <time>2025-04-10T17:39:30Z</time>
      </trkpt>
      <trkpt lat="43.65448" lon="1.38901">
        <ele>141</ele>
        <time>2025-04-10T17:39:31Z</time>
      </trkpt>
      <trkpt lat="43.65448" lon="1.38901">
        <ele>141</ele>
        <time>2025-04-10T17:39:32Z</time>
      </trkpt>
      <trkpt lat="43.6545" lon="1.38904">
        <ele>141</ele>
        <time>2025-04-10T17:39:33Z</time>
      </trkpt>
      <trkpt lat="43.65451" lon="1.38906">
        <ele>141</ele>
        <time>2025-04-10T17:39:34Z</time>
      </trkpt>
      <trkpt lat="43.65452" lon="1.38909">
        <ele>141</ele>
        <time>2025-04-10T17:39:35Z</time>
      </trkpt>
      <trkpt lat="43.65452" lon="1.38909">
        <ele>141</ele>
        <time>2025-04-10T17:39:36Z</time>
      </trkpt>
      <trkpt lat="43.65454" lon="1.38912">
        <ele>141</ele>
        <time>2025-04-10T17:39:37Z</time>
      </trkpt>
      <trkpt lat="43.65455" lon="1.38914">
        <ele>141</ele>
        <time>2025-04-10T17:39:38Z</time>
      </trkpt>
      <trkpt lat="43.65455" lon="1.38914">
        <ele>141</ele>
        <time>2025-04-10T17:39:39Z</time>
      </trkpt>
      <trkpt lat="43.65458" lon="1.38918">
        <ele>140</ele>
        <time>2025-04-10T17:39:40Z</time>
      </trkpt>
      <trkpt lat="43.65459" lon="1.38921">
        <ele>140</ele>
        <time>2025-04-10T17:39:41Z</time>
      </trkpt>
      <trkpt lat="43.6546" lon="1.38924">
        <ele>140</ele>
        <time>2025-04-10T17:39:42Z</time>
      </trkpt>
      <trkpt lat="43.65462" lon="1.38928">
        <ele>140</ele>
        <time>2025-04-10T17:39:43Z</time>
      </trkpt>
      <trkpt lat="43.65463" lon="1.38931">
        <ele>139</ele>
        <time>2025-04-10T17:39:44Z</time>
      </trkpt>
      <trkpt lat="43.65463" lon="1.38935">
        <ele>139</ele>
        <time>2025-04-10T17:39:45Z</time>
      </trkpt>
      <trkpt lat="43.65465" lon="1.38938">
        <ele>139</ele>
        <time>2025-04-10T17:39:46Z</time>
      </trkpt>
      <trkpt lat="43.65466" lon="1.38942">
        <ele>139</ele>
        <time>2025-04-10T17:39:47Z</time>
      </trkpt>
      <trkpt lat="43.65466" lon="1.38945">
        <ele>138</ele>
        <time>2025-04-10T17:39:48Z</time>
      </trkpt>
      <trkpt lat="43.65467" lon="1.38949">
        <ele>138</ele>
        <time>2025-04-10T17:39:49Z</time>
      </trkpt>
      <trkpt lat="43.65467" lon="1.38953">
        <ele>137</ele>
        <time>2025-04-10T17:39:50Z</time>
      </trkpt>
      <trkpt lat="43.65468" lon="1.38957">
        <ele>137</ele>
        <time>2025-04-10T17:39:51Z</time>
      </trkpt>
      <trkpt lat="43.65469" lon="1.38962">
        <ele>136</ele>
        <time>2025-04-10T17:39:52Z</time>
      </trkpt>
      <trkpt lat="43.65471" lon="1.38967">
        <ele>136</ele>
        <time>2025-04-10T17:39:53Z</time>
      </trkpt>
      <trkpt lat="43.65472" lon="1.38971">
        <ele>135</ele>
        <time>2025-04-10T17:39:54Z</time>
      </trkpt>
      <trkpt lat="43.65474" lon="1.38977">
        <ele>134</ele>
        <time>2025-04-10T17:39:55Z</time>
      </trkpt>
      <trkpt lat="43.65475" lon="1.38982">
        <ele>134</ele>
        <time>2025-04-10T17:39:56Z</time>
      </trkpt>
      <trkpt lat="43.65475" lon="1.38986">
        <ele>133</ele>
        <time>2025-04-10T17:39:57Z</time>
      </trkpt>
      <trkpt lat="43.65475" lon="1.38991">
        <ele>132</ele>
        <time>2025-04-10T17:39:58Z</time>
      </trkpt>
      <trkpt lat="43.65475" lon="1.38994">
        <ele>132</ele>
        <time>2025-04-10T17:39:59Z</time>
      </trkpt>
      <trkpt lat="43.65472" lon="1.38997">
        <ele>132</ele>
        <time>2025-04-10T17:40:00Z</time>
      </trkpt>
      <trkpt lat="43.65469" lon="1.38997">
        <ele>132</ele>
        <time>2025-04-10T17:40:01Z</time>
      </trkpt>
      <trkpt lat="43.65467" lon="1.38997">
        <ele>132</ele>
        <time>2025-04-10T17:40:02Z</time>
      </trkpt>
      <trkpt lat="43.65465" lon="1.38996">
        <ele>131</ele>
        <time>2025-04-10T17:40:03Z</time>
      </trkpt>
      <trkpt lat="43.65463" lon="1.38994">
        <ele>131</ele>
        <time>2025-04-10T17:40:04Z</time>
      </trkpt>
      <trkpt lat="43.65462" lon="1.38992">
        <ele>131</ele>
        <time>2025-04-10T17:40:05Z</time>
      </trkpt>
      <trkpt lat="43.65461" lon="1.38991">
        <ele>131</ele>
        <time>2025-04-10T17:40:06Z</time>
      </trkpt>
      <trkpt lat="43.65461" lon="1.38991">
        <ele>131</ele>
        <time>2025-04-10T17:40:07Z</time>
      </trkpt>
      <trkpt lat="43.65458" lon="1.38987">
        <ele>131</ele>
        <time>2025-04-10T17:40:08Z</time>
      </trkpt>
      <trkpt lat="43.65458" lon="1.38987">
        <ele>131</ele>
        <time>2025-04-10T17:40:09Z</time>
      </trkpt>
      <trkpt lat="43.65456" lon="1.38983">
        <ele>131</ele>
        <time>2025-04-10T17:40:10Z</time>
      </trkpt>
      <trkpt lat="43.65456" lon="1.38983">
        <ele>131</ele>
        <time>2025-04-10T17:40:11Z</time>
      </trkpt>
      <trkpt lat="43.65456" lon="1.38978">
        <ele>131</ele>
        <time>2025-04-10T17:40:12Z</time>
      </trkpt>
      <trkpt lat="43.65456" lon="1.38978">
        <ele>131</ele>
        <time>2025-04-10T17:40:13Z</time>
      </trkpt>
      <trkpt lat="43.65456" lon="1.38978">
        <ele>131</ele>
        <time>2025-04-10T17:40:14Z</time>
      </trkpt>
      <trkpt lat="43.65456" lon="1.38978">
        <ele>131</ele>
        <time>2025-04-10T17:40:15Z</time>
      </trkpt>
      <trkpt lat="43.65456" lon="1.38978">
        <ele>131</ele>
        <time>2025-04-10T17:40:16Z</time>
      </trkpt>
      <trkpt lat="43.65456" lon="1.38978">
        <ele>131</ele>
        <time>2025-04-10T17:40:17Z</time>
      </trkpt>
      <trkpt lat="43.65456" lon="1.38975">
        <ele>131</ele>
        <time>2025-04-10T17:40:18Z</time>
      </trkpt>
      <trkpt lat="43.65456" lon="1.38975">
        <ele>130</ele>
        <time>2025-04-10T17:40:19Z</time>
      </trkpt>
      <trkpt lat="43.65455" lon="1.38972">
        <ele>130</ele>
        <time>2025-04-10T17:40:20Z</time>
      </trkpt>
      <trkpt lat="43.65454" lon="1.3897">
        <ele>130</ele>
        <time>2025-04-10T17:40:21Z</time>
      </trkpt>
      <trkpt lat="43.65452" lon="1.38968">
        <ele>130</ele>
        <time>2025-04-10T17:40:22Z</time>
      </trkpt>
      <trkpt lat="43.65451" lon="1.38965">
        <ele>130</ele>
        <time>2025-04-10T17:40:23Z</time>
      </trkpt>
      <trkpt lat="43.6545" lon="1.38962">
        <ele>131</ele>
        <time>2025-04-10T17:40:24Z</time>
      </trkpt>
      <trkpt lat="43.65448" lon="1.38959">
        <ele>131</ele>
        <time>2025-04-10T17:40:25Z</time>
      </trkpt>
      <trkpt lat="43.65446" lon="1.38956">
        <ele>132</ele>
        <time>2025-04-10T17:40:26Z</time>
      </trkpt>
      <trkpt lat="43.65444" lon="1.38953">
        <ele>133</ele>
        <time>2025-04-10T17:40:27Z</time>
      </trkpt>
      <trkpt lat="43.65443" lon="1.3895">
        <ele>133</ele>
        <time>2025-04-10T17:40:28Z</time>
      </trkpt>
      <trkpt lat="43.65442" lon="1.38947">
        <ele>134</ele>
        <time>2025-04-10T17:40:29Z</time>
      </trkpt>
      <trkpt lat="43.6544" lon="1.38945">
        <ele>134</ele>
        <time>2025-04-10T17:40:30Z</time>
      </trkpt>
      <trkpt lat="43.65439" lon="1.38942">
        <ele>134</ele>
        <time>2025-04-10T17:40:31Z</time>
      </trkpt>
      <trkpt lat="43.65437" lon="1.3894">
        <ele>135</ele>
        <time>2025-04-10T17:40:32Z</time>
      </trkpt>
      <trkpt lat="43.65435" lon="1.38937">
        <ele>135</ele>
        <time>2025-04-10T17:40:33Z</time>
      </trkpt>
      <trkpt lat="43.65434" lon="1.38934">
        <ele>136</ele>
        <time>2025-04-10T17:40:34Z</time>
      </trkpt>
      <trkpt lat="43.65432" lon="1.38931">
        <ele>137</ele>
        <time>2025-04-10T17:40:35Z</time>
      </trkpt>
      <trkpt lat="43.6543" lon="1.38926">
        <ele>137</ele>
        <time>2025-04-10T17:40:36Z</time>
      </trkpt>
      <trkpt lat="43.65427" lon="1.38922">
        <ele>138</ele>
        <time>2025-04-10T17:40:37Z</time>
      </trkpt>
      <trkpt lat="43.65425" lon="1.38918">
        <ele>139</ele>
        <time>2025-04-10T17:40:38Z</time>
      </trkpt>
      <trkpt lat="43.65423" lon="1.38912">
        <ele>139</ele>
        <time>2025-04-10T17:40:39Z</time>
      </trkpt>
      <trkpt lat="43.65421" lon="1.38906">
        <ele>139</ele>
        <time>2025-04-10T17:40:40Z</time>
      </trkpt>
      <trkpt lat="43.6542" lon="1.38901">
        <ele>139</ele>
        <time>2025-04-10T17:40:41Z</time>
      </trkpt>
      <trkpt lat="43.65419" lon="1.38895">
        <ele>139</ele>
        <time>2025-04-10T17:40:42Z</time>
      </trkpt>
      <trkpt lat="43.65417" lon="1.3889">
        <ele>139</ele>
        <time>2025-04-10T17:40:43Z</time>
      </trkpt>
      <trkpt lat="43.65416" lon="1.38885">
        <ele>139</ele>
        <time>2025-04-10T17:40:44Z</time>
      </trkpt>
      <trkpt lat="43.65414" lon="1.38879">
        <ele>140</ele>
        <time>2025-04-10T17:40:45Z</time>
      </trkpt>
      <trkpt lat="43.65414" lon="1.38874">
        <ele>140</ele>
        <time>2025-04-10T17:40:46Z</time>
      </trkpt>
      <trkpt lat="43.65413" lon="1.38869">
        <ele>140</ele>
        <time>2025-04-10T17:40:47Z</time>
      </trkpt>
      <trkpt lat="43.65413" lon="1.38864">
        <ele>141</ele>
        <time>2025-04-10T17:40:48Z</time>
      </trkpt>
      <trkpt lat="43.65414" lon="1.38861">
        <ele>141</ele>
        <time>2025-04-10T17:40:49Z</time>
      </trkpt>
      <trkpt lat="43.65416" lon="1.38858">
        <ele>142</ele>
        <time>2025-04-10T17:40:50Z</time>
      </trkpt>
      <trkpt lat="43.65417" lon="1.38855">
        <ele>142</ele>
        <time>2025-04-10T17:40:51Z</time>
      </trkpt>
      <trkpt lat="43.65418" lon="1.38852">
        <ele>142</ele>
        <time>2025-04-10T17:40:52Z</time>
      </trkpt>
      <trkpt lat="43.6542" lon="1.3885">
        <ele>142</ele>
        <time>2025-04-10T17:40:53Z</time>
      </trkpt>
      <trkpt lat="43.6542" lon="1.3885">
        <ele>142</ele>
        <time>2025-04-10T17:40:54Z</time>
      </trkpt>
      <trkpt lat="43.65422" lon="1.38847">
        <ele>142</ele>
        <time>2025-04-10T17:40:55Z</time>
      </trkpt>
      <trkpt lat="43.65422" lon="1.38847">
        <ele>142</ele>
        <time>2025-04-10T17:40:56Z</time>
      </trkpt>
      <trkpt lat="43.65425" lon="1.38846">
        <ele>142</ele>
        <time>2025-04-10T17:40:57Z</time>
      </trkpt>
      <trkpt lat="43.65425" lon="1.38846">
        <ele>142</ele>
        <time>2025-04-10T17:40:58Z</time>
      </trkpt>
      <trkpt lat="43.65427" lon="1.38844">
        <ele>142</ele>
        <time>2025-04-10T17:40:59Z</time>
      </trkpt>
      <trkpt lat="43.65427" lon="1.38844">
        <ele>142</ele>
        <time>2025-04-10T17:41:00Z</time>
      </trkpt>
      <trkpt lat="43.65429" lon="1.38844">
        <ele>142</ele>
        <time>2025-04-10T17:41:01Z</time>
      </trkpt>
      <trkpt lat="43.65429" lon="1.38844">
        <ele>143</ele>
        <time>2025-04-10T17:41:02Z</time>
      </trkpt>
      <trkpt lat="43.65429" lon="1.38844">
        <ele>143</ele>
        <time>2025-04-10T17:41:03Z</time>
      </trkpt>
      <trkpt lat="43.65431" lon="1.38847">
        <ele>143</ele>
        <time>2025-04-10T17:41:04Z</time>
      </trkpt>
      <trkpt lat="43.65431" lon="1.38847">
        <ele>143</ele>
        <time>2025-04-10T17:41:05Z</time>
      </trkpt>
      <trkpt lat="43.65432" lon="1.38851">
        <ele>143</ele>
        <time>2025-04-10T17:41:06Z</time>
      </trkpt>
      <trkpt lat="43.65432" lon="1.38851">
        <ele>143</ele>
        <time>2025-04-10T17:41:07Z</time>
      </trkpt>
      <trkpt lat="43.65433" lon="1.38854">
        <ele>143</ele>
        <time>2025-04-10T17:41:08Z</time>
      </trkpt>
      <trkpt lat="43.65433" lon="1.38854">
        <ele>143</ele>
        <time>2025-04-10T17:41:09Z</time>
      </trkpt>
      <trkpt lat="43.65435" lon="1.38857">
        <ele>143</ele>
        <time>2025-04-10T17:41:10Z</time>
      </trkpt>
      <trkpt lat="43.65435" lon="1.38857">
        <ele>143</ele>
        <time>2025-04-10T17:41:11Z</time>
      </trkpt>
      <trkpt lat="43.65436" lon="1.3886">
        <ele>143</ele>
        <time>2025-04-10T17:41:12Z</time>
      </trkpt>
      <trkpt lat="43.65436" lon="1.3886">
        <ele>142</ele>
        <time>2025-04-10T17:41:13Z</time>
      </trkpt>
      <trkpt lat="43.65437" lon="1.38863">
        <ele>142</ele>
        <time>2025-04-10T17:41:14Z</time>
      </trkpt>
      <trkpt lat="43.65437" lon="1.38863">
        <ele>142</ele>
        <time>2025-04-10T17:41:15Z</time>
      </trkpt>
      <trkpt lat="43.65439" lon="1.38866">
        <ele>142</ele>
        <time>2025-04-10T17:41:16Z</time>
      </trkpt>
      <trkpt lat="43.65439" lon="1.38866">
        <ele>142</ele>
        <time>2025-04-10T17:41:17Z</time>
      </trkpt>
      <trkpt lat="43.6544" lon="1.38869">
        <ele>142</ele>
        <time>2025-04-10T17:41:18Z</time>
      </trkpt>
      <trkpt lat="43.6544" lon="1.38869">
        <ele>141</ele>
        <time>2025-04-10T17:41:19Z</time>
      </trkpt>
      <trkpt lat="43.65441" lon="1.38871">
        <ele>141</ele>
        <time>2025-04-10T17:41:20Z</time>
      </trkpt>
      <trkpt lat="43.65441" lon="1.38871">
        <ele>141</ele>
        <time>2025-04-10T17:41:21Z</time>
      </trkpt>
      <trkpt lat="43.65442" lon="1.38873">
        <ele>141</ele>
        <time>2025-04-10T17:41:22Z</time>
      </trkpt>
      <trkpt lat="43.65442" lon="1.38873">
        <ele>141</ele>
        <time>2025-04-10T17:41:23Z</time>
      </trkpt>
      <trkpt lat="43.65443" lon="1.38877">
        <ele>141</ele>
        <time>2025-04-10T17:41:24Z</time>
      </trkpt>
      <trkpt lat="43.65443" lon="1.38877">
        <ele>141</ele>
        <time>2025-04-10T17:41:25Z</time>
      </trkpt>
      <trkpt lat="43.65444" lon="1.38881">
        <ele>141</ele>
        <time>2025-04-10T17:41:26Z</time>
      </trkpt>
      <trkpt lat="43.65444" lon="1.38881">
        <ele>141</ele>
        <time>2025-04-10T17:41:27Z</time>
      </trkpt>
      <trkpt lat="43.65445" lon="1.38884">
        <ele>141</ele>
        <time>2025-04-10T17:41:28Z</time>
      </trkpt>
      <trkpt lat="43.65445" lon="1.38884">
        <ele>141</ele>
        <time>2025-04-10T17:41:29Z</time>
      </trkpt>
      <trkpt lat="43.65446" lon="1.38888">
        <ele>141</ele>
        <time>2025-04-10T17:41:30Z</time>
      </trkpt>
      <trkpt lat="43.65446" lon="1.38888">
        <ele>141</ele>
        <time>2025-04-10T17:41:31Z</time>
      </trkpt>
      <trkpt lat="43.65447" lon="1.38891">
        <ele>141</ele>
        <time>2025-04-10T17:41:32Z</time>
      </trkpt>
      <trkpt lat="43.65447" lon="1.38891">
        <ele>141</ele>
        <time>2025-04-10T17:41:33Z</time>
      </trkpt>
      <trkpt lat="43.65447" lon="1.38894">
        <ele>141</ele>
        <time>2025-04-10T17:41:34Z</time>
      </trkpt>
      <trkpt lat="43.65447" lon="1.38894">
        <ele>141</ele>
        <time>2025-04-10T17:41:35Z</time>
      </trkpt>
      <trkpt lat="43.65447" lon="1.38897">
        <ele>141</ele>
        <time>2025-04-10T17:41:36Z</time>
      </trkpt>
      <trkpt lat="43.65447" lon="1.38897">
        <ele>141</ele>
        <time>2025-04-10T17:41:37Z</time>
      </trkpt>
      <trkpt lat="43.65448" lon="1.389">
        <ele>141</ele>
        <time>2025-04-10T17:41:38Z</time>
      </trkpt>
      <trkpt lat="43.65448" lon="1.389">
        <ele>141</ele>
        <time>2025-04-10T17:41:39Z</time>
      </trkpt>
      <trkpt lat="43.65448" lon="1.38902">
        <ele>141</ele>
        <time>2025-04-10T17:41:40Z</time>
      </trkpt>
      <trkpt lat="43.65448" lon="1.38902">
        <ele>141</ele>
        <time>2025-04-10T17:41:41Z</time>
      </trkpt>
      <trkpt lat="43.6545" lon="1.38905">
        <ele>141</ele>
        <time>2025-04-10T17:41:42Z</time>
      </trkpt>
      <trkpt lat="43.6545" lon="1.38905">
        <ele>141</ele>
        <time>2025-04-10T17:41:43Z</time>
      </trkpt>
      <trkpt lat="43.65452" lon="1.38908">
        <ele>141</ele>
        <time>2025-04-10T17:41:44Z</time>
      </trkpt>
      <trkpt lat="43.65452" lon="1.38908">
        <ele>141</ele>
        <time>2025-04-10T17:41:45Z</time>
      </trkpt>
      <trkpt lat="43.65454" lon="1.38911">
        <ele>141</ele>
        <time>2025-04-10T17:41:46Z</time>
      </trkpt>
      <trkpt lat="43.65454" lon="1.38911">
        <ele>141</ele>
        <time>2025-04-10T17:41:47Z</time>
      </trkpt>
      <trkpt lat="43.65456" lon="1.38914">
        <ele>141</ele>
        <time>2025-04-10T17:41:48Z</time>
      </trkpt>
      <trkpt lat="43.65456" lon="1.38914">
        <ele>141</ele>
        <time>2025-04-10T17:41:49Z</time>
      </trkpt>
      <trkpt lat="43.65458" lon="1.38917">
        <ele>141</ele>
        <time>2025-04-10T17:41:50Z</time>
      </trkpt>
      <trkpt lat="43.65458" lon="1.38917">
        <ele>141</ele>
        <time>2025-04-10T17:41:51Z</time>
      </trkpt>
      <trkpt lat="43.6546" lon="1.38922">
        <ele>141</ele>
        <time>2025-04-10T17:41:52Z</time>
      </trkpt>
      <trkpt lat="43.65461" lon="1.38925">
        <ele>140</ele>
        <time>2025-04-10T17:41:53Z</time>
      </trkpt>
      <trkpt lat="43.65461" lon="1.38928">
        <ele>140</ele>
        <time>2025-04-10T17:41:54Z</time>
      </trkpt>
      <trkpt lat="43.65462" lon="1.38931">
        <ele>140</ele>
        <time>2025-04-10T17:41:55Z</time>
      </trkpt>
      <trkpt lat="43.65463" lon="1.38934">
        <ele>140</ele>
        <time>2025-04-10T17:41:56Z</time>
      </trkpt>
      <trkpt lat="43.65464" lon="1.38937">
        <ele>140</ele>
        <time>2025-04-10T17:41:57Z</time>
      </trkpt>
      <trkpt lat="43.65465" lon="1.38941">
        <ele>140</ele>
        <time>2025-04-10T17:41:58Z</time>
      </trkpt>
      <trkpt lat="43.65466" lon="1.38945">
        <ele>140</ele>
        <time>2025-04-10T17:41:59Z</time>
      </trkpt>
      <trkpt lat="43.65467" lon="1.38948">
        <ele>139</ele>
        <time>2025-04-10T17:42:00Z</time>
      </trkpt>
      <trkpt lat="43.65468" lon="1.38952">
        <ele>137</ele>
        <time>2025-04-10T17:42:01Z</time>
      </trkpt>
      <trkpt lat="43.65469" lon="1.38956">
        <ele>137</ele>
        <time>2025-04-10T17:42:02Z</time>
      </trkpt>
      <trkpt lat="43.6547" lon="1.38961">
        <ele>137</ele>
        <time>2025-04-10T17:42:03Z</time>
      </trkpt>
      <trkpt lat="43.65471" lon="1.38965">
        <ele>136</ele>
        <time>2025-04-10T17:42:04Z</time>
      </trkpt>
      <trkpt lat="43.65471" lon="1.38969">
        <ele>135</ele>
        <time>2025-04-10T17:42:05Z</time>
      </trkpt>
      <trkpt lat="43.65472" lon="1.38974">
        <ele>135</ele>
        <time>2025-04-10T17:42:06Z</time>
      </trkpt>
      <trkpt lat="43.65473" lon="1.38978">
        <ele>134</ele>
        <time>2025-04-10T17:42:07Z</time>
      </trkpt>
      <trkpt lat="43.65473" lon="1.38982">
        <ele>134</ele>
        <time>2025-04-10T17:42:08Z</time>
      </trkpt>
      <trkpt lat="43.65474" lon="1.38986">
        <ele>133</ele>
        <time>2025-04-10T17:42:09Z</time>
      </trkpt>
      <trkpt lat="43.65473" lon="1.38989">
        <ele>132</ele>
        <time>2025-04-10T17:42:10Z</time>
      </trkpt>
      <trkpt lat="43.65471" lon="1.3899">
        <ele>131</ele>
        <time>2025-04-10T17:42:11Z</time>
      </trkpt>
      <trkpt lat="43.65468" lon="1.38989">
        <ele>131</ele>
        <time>2025-04-10T17:42:12Z</time>
      </trkpt>
      <trkpt lat="43.65466" lon="1.38987">
        <ele>131</ele>
        <time>2025-04-10T17:42:13Z</time>
      </trkpt>
      <trkpt lat="43.65465" lon="1.38985">
        <ele>131</ele>
        <time>2025-04-10T17:42:14Z</time>
      </trkpt>
      <trkpt lat="43.65465" lon="1.38985">
        <ele>130</ele>
        <time>2025-04-10T17:42:15Z</time>
      </trkpt>
      <trkpt lat="43.65463" lon="1.38982">
        <ele>130</ele>
        <time>2025-04-10T17:42:16Z</time>
      </trkpt>
      <trkpt lat="43.65463" lon="1.38982">
        <ele>130</ele>
        <time>2025-04-10T17:42:17Z</time>
      </trkpt>
      <trkpt lat="43.65461" lon="1.38979">
        <ele>130</ele>
        <time>2025-04-10T17:42:18Z</time>
      </trkpt>
      <trkpt lat="43.65461" lon="1.38979">
        <ele>130</ele>
        <time>2025-04-10T17:42:19Z</time>
      </trkpt>
      <trkpt lat="43.65459" lon="1.38976">
        <ele>130</ele>
        <time>2025-04-10T17:42:20Z</time>
      </trkpt>
      <trkpt lat="43.65459" lon="1.38976">
        <ele>130</ele>
        <time>2025-04-10T17:42:21Z</time>
      </trkpt>
      <trkpt lat="43.65458" lon="1.38974">
        <ele>130</ele>
        <time>2025-04-10T17:42:22Z</time>
      </trkpt>
      <trkpt lat="43.65458" lon="1.38974">
        <ele>130</ele>
        <time>2025-04-10T17:42:23Z</time>
      </trkpt>
      <trkpt lat="43.65458" lon="1.38974">
        <ele>130</ele>
        <time>2025-04-10T17:42:24Z</time>
      </trkpt>
      <trkpt lat="43.65458" lon="1.38974">
        <ele>130</ele>
        <time>2025-04-10T17:42:25Z</time>
      </trkpt>
      <trkpt lat="43.65458" lon="1.38974">
        <ele>130</ele>
        <time>2025-04-10T17:42:26Z</time>
      </trkpt>
      <trkpt lat="43.65457" lon="1.38972">
        <ele>130</ele>
        <time>2025-04-10T17:42:27Z</time>
      </trkpt>
      <trkpt lat="43.65457" lon="1.38972">
        <ele>130</ele>
        <time>2025-04-10T17:42:28Z</time>
      </trkpt>
      <trkpt lat="43.65457" lon="1.38972">
        <ele>130</ele>
        <time>2025-04-10T17:42:29Z</time>
      </trkpt>
      <trkpt lat="43.65457" lon="1.38972">
        <ele>130</ele>
        <time>2025-04-10T17:42:30Z</time>
      </trkpt>
      <trkpt lat="43.65455" lon="1.38969">
        <ele>130</ele>
        <time>2025-04-10T17:42:31Z</time>
      </trkpt>
      <trkpt lat="43.65454" lon="1.38966">
        <ele>130</ele>
        <time>2025-04-10T17:42:32Z</time>
      </trkpt>
      <trkpt lat="43.65453" lon="1.38962">
        <ele>130</ele>
        <time>2025-04-10T17:42:33Z</time>
      </trkpt>
      <trkpt lat="43.65451" lon="1.38958">
        <ele>130</ele>
        <time>2025-04-10T17:42:34Z</time>
      </trkpt>
      <trkpt lat="43.65448" lon="1.38954">
        <ele>130</ele>
        <time>2025-04-10T17:42:35Z</time>
      </trkpt>
      <trkpt lat="43.65446" lon="1.38951">
        <ele>130</ele>
        <time>2025-04-10T17:42:36Z</time>
      </trkpt>
      <trkpt lat="43.65443" lon="1.38947">
        <ele>131</ele>
        <time>2025-04-10T17:42:37Z</time>
      </trkpt>
      <trkpt lat="43.65442" lon="1.38943">
        <ele>131</ele>
        <time>2025-04-10T17:42:38Z</time>
      </trkpt>
      <trkpt lat="43.6544" lon="1.3894">
        <ele>132</ele>
        <time>2025-04-10T17:42:39Z</time>
      </trkpt>
      <trkpt lat="43.65439" lon="1.38937">
        <ele>133</ele>
        <time>2025-04-10T17:42:40Z</time>
      </trkpt>
      <trkpt lat="43.65437" lon="1.38936">
        <ele>134</ele>
        <time>2025-04-10T17:42:41Z</time>
      </trkpt>
      <trkpt lat="43.65436" lon="1.38933">
        <ele>135</ele>
        <time>2025-04-10T17:42:42Z</time>
      </trkpt>
      <trkpt lat="43.65434" lon="1.38931">
        <ele>136</ele>
        <time>2025-04-10T17:42:43Z</time>
      </trkpt>
      <trkpt lat="43.65432" lon="1.38928">
        <ele>136</ele>
        <time>2025-04-10T17:42:44Z</time>
      </trkpt>
      <trkpt lat="43.6543" lon="1.38924">
        <ele>136</ele>
        <time>2025-04-10T17:42:45Z</time>
      </trkpt>
      <trkpt lat="43.65428" lon="1.38921">
        <ele>136</ele>
        <time>2025-04-10T17:42:46Z</time>
      </trkpt>
      <trkpt lat="43.65426" lon="1.38918">
        <ele>136</ele>
        <time>2025-04-10T17:42:47Z</time>
      </trkpt>
      <trkpt lat="43.65424" lon="1.38915">
        <ele>138</ele>
        <time>2025-04-10T17:42:48Z</time>
      </trkpt>
      <trkpt lat="43.65422" lon="1.38911">
        <ele>138</ele>
        <time>2025-04-10T17:42:49Z</time>
      </trkpt>
      <trkpt lat="43.6542" lon="1.38906">
        <ele>138</ele>
        <time>2025-04-10T17:42:50Z</time>
      </trkpt>
      <trkpt lat="43.65419" lon="1.38901">
        <ele>139</ele>
        <time>2025-04-10T17:42:51Z</time>
      </trkpt>
      <trkpt lat="43.65418" lon="1.38896">
        <ele>139</ele>
        <time>2025-04-10T17:42:52Z</time>
      </trkpt>
      <trkpt lat="43.65417" lon="1.38892">
        <ele>139</ele>
        <time>2025-04-10T17:42:53Z</time>
      </trkpt>
      <trkpt lat="43.65416" lon="1.38887">
        <ele>140</ele>
        <time>2025-04-10T17:42:54Z</time>
      </trkpt>
      <trkpt lat="43.65415" lon="1.38882">
        <ele>140</ele>
        <time>2025-04-10T17:42:55Z</time>
      </trkpt>
      <trkpt lat="43.65414" lon="1.38878">
        <ele>140</ele>
        <time>2025-04-10T17:42:56Z</time>
      </trkpt>
      <trkpt lat="43.65414" lon="1.38873">
        <ele>140</ele>
        <time>2025-04-10T17:42:57Z</time>
      </trkpt>
      <trkpt lat="43.65414" lon="1.38869">
        <ele>140</ele>
        <time>2025-04-10T17:42:58Z</time>
      </trkpt>
      <trkpt lat="43.65415" lon="1.38866">
        <ele>141</ele>
        <time>2025-04-10T17:42:59Z</time>
      </trkpt>
      <trkpt lat="43.65417" lon="1.38863">
        <ele>141</ele>
        <time>2025-04-10T17:43:00Z</time>
      </trkpt>
      <trkpt lat="43.65418" lon="1.38862">
        <ele>142</ele>
        <time>2025-04-10T17:43:01Z</time>
      </trkpt>
      <trkpt lat="43.65419" lon="1.3886">
        <ele>142</ele>
        <time>2025-04-10T17:43:02Z</time>
      </trkpt>
      <trkpt lat="43.65421" lon="1.38858">
        <ele>142</ele>
        <time>2025-04-10T17:43:03Z</time>
      </trkpt>
      <trkpt lat="43.65421" lon="1.38858">
        <ele>142</ele>
        <time>2025-04-10T17:43:04Z</time>
      </trkpt>
      <trkpt lat="43.65423" lon="1.38855">
        <ele>143</ele>
        <time>2025-04-10T17:43:05Z</time>
      </trkpt>
      <trkpt lat="43.65423" lon="1.38855">
        <ele>143</ele>
        <time>2025-04-10T17:43:06Z</time>
      </trkpt>
      <trkpt lat="43.65426" lon="1.38853">
        <ele>143</ele>
        <time>2025-04-10T17:43:07Z</time>
      </trkpt>
      <trkpt lat="43.65426" lon="1.38853">
        <ele>143</ele>
        <time>2025-04-10T17:43:08Z</time>
      </trkpt>
      <trkpt lat="43.65428" lon="1.3885">
        <ele>143</ele>
        <time>2025-04-10T17:43:09Z</time>
      </trkpt>
      <trkpt lat="43.65428" lon="1.3885">
        <ele>143</ele>
        <time>2025-04-10T17:43:10Z</time>
      </trkpt>
      <trkpt lat="43.6543" lon="1.38849">
        <ele>143</ele>
        <time>2025-04-10T17:43:11Z</time>
      </trkpt>
      <trkpt lat="43.6543" lon="1.38849">
        <ele>143</ele>
        <time>2025-04-10T17:43:12Z</time>
      </trkpt>
      <trkpt lat="43.6543" lon="1.38849">
        <ele>143</ele>
        <time>2025-04-10T17:43:13Z</time>
      </trkpt>
      <trkpt lat="43.65432" lon="1.3885">
        <ele>143</ele>
        <time>2025-04-10T17:43:14Z</time>
      </trkpt>
      <trkpt lat="43.65432" lon="1.3885">
        <ele>143</ele>
        <time>2025-04-10T17:43:15Z</time>
      </trkpt>
      <trkpt lat="43.65433" lon="1.38853">
        <ele>143</ele>
        <time>2025-04-10T17:43:16Z</time>
      </trkpt>
      <trkpt lat="43.65433" lon="1.38853">
        <ele>143</ele>
        <time>2025-04-10T17:43:17Z</time>
      </trkpt>
      <trkpt lat="43.65434" lon="1.38856">
        <ele>143</ele>
        <time>2025-04-10T17:43:18Z</time>
      </trkpt>
      <trkpt lat="43.65434" lon="1.38856">
        <ele>143</ele>
        <time>2025-04-10T17:43:19Z</time>
      </trkpt>
      <trkpt lat="43.65436" lon="1.38859">
        <ele>143</ele>
        <time>2025-04-10T17:43:20Z</time>
      </trkpt>
      <trkpt lat="43.65436" lon="1.38859">
        <ele>143</ele>
        <time>2025-04-10T17:43:21Z</time>
      </trkpt>
      <trkpt lat="43.65437" lon="1.38862">
        <ele>143</ele>
        <time>2025-04-10T17:43:22Z</time>
      </trkpt>
      <trkpt lat="43.65437" lon="1.38862">
        <ele>143</ele>
        <time>2025-04-10T17:43:23Z</time>
      </trkpt>
      <trkpt lat="43.65438" lon="1.38865">
        <ele>143</ele>
        <time>2025-04-10T17:43:24Z</time>
      </trkpt>
      <trkpt lat="43.65438" lon="1.38865">
        <ele>143</ele>
        <time>2025-04-10T17:43:25Z</time>
      </trkpt>
      <trkpt lat="43.65439" lon="1.38868">
        <ele>143</ele>
        <time>2025-04-10T17:43:26Z</time>
      </trkpt>
      <trkpt lat="43.65439" lon="1.38868">
        <ele>143</ele>
        <time>2025-04-10T17:43:27Z</time>
      </trkpt>
      <trkpt lat="43.6544" lon="1.38871">
        <ele>142</ele>
        <time>2025-04-10T17:43:28Z</time>
      </trkpt>
      <trkpt lat="43.6544" lon="1.38871">
        <ele>142</ele>
        <time>2025-04-10T17:43:29Z</time>
      </trkpt>
      <trkpt lat="43.65442" lon="1.38873">
        <ele>142</ele>
        <time>2025-04-10T17:43:30Z</time>
      </trkpt>
      <trkpt lat="43.65442" lon="1.38873">
        <ele>142</ele>
        <time>2025-04-10T17:43:31Z</time>
      </trkpt>
      <trkpt lat="43.65442" lon="1.38876">
        <ele>142</ele>
        <time>2025-04-10T17:43:32Z</time>
      </trkpt>
      <trkpt lat="43.65442" lon="1.38876">
        <ele>142</ele>
        <time>2025-04-10T17:43:33Z</time>
      </trkpt>
      <trkpt lat="43.65443" lon="1.3888">
        <ele>142</ele>
        <time>2025-04-10T17:43:34Z</time>
      </trkpt>
      <trkpt lat="43.65443" lon="1.3888">
        <ele>141</ele>
        <time>2025-04-10T17:43:35Z</time>
      </trkpt>
      <trkpt lat="43.65444" lon="1.38883">
        <ele>141</ele>
        <time>2025-04-10T17:43:36Z</time>
      </trkpt>
      <trkpt lat="43.65444" lon="1.38883">
        <ele>141</ele>
        <time>2025-04-10T17:43:37Z</time>
      </trkpt>
      <trkpt lat="43.65445" lon="1.38887">
        <ele>141</ele>
        <time>2025-04-10T17:43:38Z</time>
      </trkpt>
      <trkpt lat="43.65445" lon="1.38887">
        <ele>141</ele>
        <time>2025-04-10T17:43:39Z</time>
      </trkpt>
      <trkpt lat="43.65445" lon="1.38891">
        <ele>141</ele>
        <time>2025-04-10T17:43:40Z</time>
      </trkpt>
      <trkpt lat="43.65445" lon="1.38891">
        <ele>141</ele>
        <time>2025-04-10T17:43:41Z</time>
      </trkpt>
      <trkpt lat="43.65446" lon="1.38894">
        <ele>141</ele>
        <time>2025-04-10T17:43:42Z</time>
      </trkpt>
      <trkpt lat="43.65446" lon="1.38894">
        <ele>141</ele>
        <time>2025-04-10T17:43:43Z</time>
      </trkpt>
      <trkpt lat="43.65447" lon="1.38897">
        <ele>141</ele>
        <time>2025-04-10T17:43:44Z</time>
      </trkpt>
      <trkpt lat="43.65447" lon="1.38897">
        <ele>141</ele>
        <time>2025-04-10T17:43:45Z</time>
      </trkpt>
      <trkpt lat="43.65448" lon="1.38899">
        <ele>141</ele>
        <time>2025-04-10T17:43:46Z</time>
      </trkpt>
      <trkpt lat="43.65448" lon="1.38899">
        <ele>141</ele>
        <time>2025-04-10T17:43:47Z</time>
      </trkpt>
      <trkpt lat="43.6545" lon="1.38902">
        <ele>141</ele>
        <time>2025-04-10T17:43:48Z</time>
      </trkpt>
      <trkpt lat="43.6545" lon="1.38902">
        <ele>142</ele>
        <time>2025-04-10T17:43:49Z</time>
      </trkpt>
      <trkpt lat="43.65451" lon="1.38905">
        <ele>142</ele>
        <time>2025-04-10T17:43:50Z</time>
      </trkpt>
      <trkpt lat="43.65451" lon="1.38905">
        <ele>142</ele>
        <time>2025-04-10T17:43:51Z</time>
      </trkpt>
      <trkpt lat="43.65452" lon="1.38908">
        <ele>142</ele>
        <time>2025-04-10T17:43:52Z</time>
      </trkpt>
      <trkpt lat="43.65452" lon="1.38908">
        <ele>141</ele>
        <time>2025-04-10T17:43:53Z</time>
      </trkpt>
      <trkpt lat="43.65454" lon="1.38911">
        <ele>141</ele>
        <time>2025-04-10T17:43:54Z</time>
      </trkpt>
      <trkpt lat="43.65455" lon="1.38912">
        <ele>141</ele>
        <time>2025-04-10T17:43:55Z</time>
      </trkpt>
      <trkpt lat="43.65455" lon="1.38912">
        <ele>141</ele>
        <time>2025-04-10T17:43:56Z</time>
      </trkpt>
      <trkpt lat="43.65457" lon="1.38915">
        <ele>141</ele>
        <time>2025-04-10T17:43:57Z</time>
      </trkpt>
      <trkpt lat="43.65457" lon="1.38915">
        <ele>141</ele>
        <time>2025-04-10T17:43:58Z</time>
      </trkpt>
      <trkpt lat="43.65459" lon="1.38918">
        <ele>141</ele>
        <time>2025-04-10T17:43:59Z</time>
      </trkpt>
      <trkpt lat="43.6546" lon="1.38921">
        <ele>141</ele>
        <time>2025-04-10T17:44:00Z</time>
      </trkpt>
      <trkpt lat="43.65461" lon="1.38923">
        <ele>141</ele>
        <time>2025-04-10T17:44:01Z</time>
      </trkpt>
      <trkpt lat="43.65462" lon="1.38926">
        <ele>141</ele>
        <time>2025-04-10T17:44:02Z</time>
      </trkpt>
      <trkpt lat="43.65463" lon="1.38928">
        <ele>140</ele>
        <time>2025-04-10T17:44:03Z</time>
      </trkpt>
      <trkpt lat="43.65464" lon="1.38931">
        <ele>140</ele>
        <time>2025-04-10T17:44:04Z</time>
      </trkpt>
      <trkpt lat="43.65465" lon="1.38934">
        <ele>140</ele>
        <time>2025-04-10T17:44:05Z</time>
      </trkpt>
      <trkpt lat="43.65465" lon="1.38937">
        <ele>139</ele>
        <time>2025-04-10T17:44:06Z</time>
      </trkpt>
      <trkpt lat="43.65466" lon="1.3894">
        <ele>139</ele>
        <time>2025-04-10T17:44:07Z</time>
      </trkpt>
      <trkpt lat="43.65467" lon="1.38943">
        <ele>138</ele>
        <time>2025-04-10T17:44:08Z</time>
      </trkpt>
      <trkpt lat="43.65467" lon="1.38947">
        <ele>138</ele>
        <time>2025-04-10T17:44:09Z</time>
      </trkpt>
      <trkpt lat="43.65467" lon="1.3895">
        <ele>138</ele>
        <time>2025-04-10T17:44:10Z</time>
      </trkpt>
      <trkpt lat="43.65468" lon="1.38954">
        <ele>138</ele>
        <time>2025-04-10T17:44:11Z</time>
      </trkpt>
      <trkpt lat="43.65469" lon="1.38957">
        <ele>137</ele>
        <time>2025-04-10T17:44:12Z</time>
      </trkpt>
      <trkpt lat="43.6547" lon="1.38961">
        <ele>136</ele>
        <time>2025-04-10T17:44:13Z</time>
      </trkpt>
      <trkpt lat="43.65471" lon="1.38965">
        <ele>136</ele>
        <time>2025-04-10T17:44:14Z</time>
      </trkpt>
      <trkpt lat="43.65472" lon="1.38969">
        <ele>135</ele>
        <time>2025-04-10T17:44:15Z</time>
      </trkpt>
      <trkpt lat="43.65473" lon="1.38973">
        <ele>134</ele>
        <time>2025-04-10T17:44:16Z</time>
      </trkpt>
      <trkpt lat="43.65474" lon="1.38978">
        <ele>134</ele>
        <time>2025-04-10T17:44:17Z</time>
      </trkpt>
      <trkpt lat="43.65474" lon="1.38981">
        <ele>133</ele>
        <time>2025-04-10T17:44:18Z</time>
      </trkpt>
      <trkpt lat="43.65474" lon="1.38985">
        <ele>132</ele>
        <time>2025-04-10T17:44:19Z</time>
      </trkpt>
      <trkpt lat="43.65473" lon="1.38988">
        <ele>132</ele>
        <time>2025-04-10T17:44:20Z</time>
      </trkpt>
      <trkpt lat="43.6547" lon="1.38988">
        <ele>131</ele>
        <time>2025-04-10T17:44:21Z</time>
      </trkpt>
      <trkpt lat="43.65467" lon="1.38987">
        <ele>131</ele>
        <time>2025-04-10T17:44:22Z</time>
      </trkpt>
      <trkpt lat="43.65466" lon="1.38985">
        <ele>131</ele>
        <time>2025-04-10T17:44:23Z</time>
      </trkpt>
      <trkpt lat="43.65465" lon="1.38983">
        <ele>131</ele>
        <time>2025-04-10T17:44:24Z</time>
      </trkpt>
      <trkpt lat="43.65465" lon="1.38983">
        <ele>131</ele>
        <time>2025-04-10T17:44:25Z</time>
      </trkpt>
      <trkpt lat="43.65462" lon="1.3898">
        <ele>131</ele>
        <time>2025-04-10T17:44:26Z</time>
      </trkpt>
      <trkpt lat="43.65462" lon="1.3898">
        <ele>131</ele>
        <time>2025-04-10T17:44:27Z</time>
      </trkpt>
      <trkpt lat="43.65461" lon="1.38976">
        <ele>131</ele>
        <time>2025-04-10T17:44:28Z</time>
      </trkpt>
      <trkpt lat="43.65461" lon="1.38976">
        <ele>131</ele>
        <time>2025-04-10T17:44:29Z</time>
      </trkpt>
      <trkpt lat="43.65459" lon="1.38973">
        <ele>131</ele>
        <time>2025-04-10T17:44:30Z</time>
      </trkpt>
      <trkpt lat="43.65459" lon="1.38973">
        <ele>132</ele>
        <time>2025-04-10T17:44:31Z</time>
      </trkpt>
      <trkpt lat="43.65459" lon="1.38973">
        <ele>132</ele>
        <time>2025-04-10T17:44:32Z</time>
      </trkpt>
      <trkpt lat="43.65459" lon="1.38973">
        <ele>132</ele>
        <time>2025-04-10T17:44:33Z</time>
      </trkpt>
      <trkpt lat="43.65457" lon="1.38972">
        <ele>132</ele>
        <time>2025-04-10T17:44:34Z</time>
      </trkpt>
      <trkpt lat="43.65457" lon="1.38972">
        <ele>131</ele>
        <time>2025-04-10T17:44:35Z</time>
      </trkpt>
      <trkpt lat="43.65457" lon="1.38972">
        <ele>131</ele>
        <time>2025-04-10T17:44:36Z</time>
      </trkpt>
      <trkpt lat="43.65457" lon="1.38972">
        <ele>131</ele>
        <time>2025-04-10T17:44:37Z</time>
      </trkpt>
      <trkpt lat="43.65456" lon="1.38969">
        <ele>131</ele>
        <time>2025-04-10T17:44:38Z</time>
      </trkpt>
      <trkpt lat="43.65455" lon="1.38965">
        <ele>131</ele>
        <time>2025-04-10T17:44:39Z</time>
      </trkpt>
      <trkpt lat="43.65453" lon="1.38961">
        <ele>132</ele>
        <time>2025-04-10T17:44:40Z</time>
      </trkpt>
      <trkpt lat="43.65451" lon="1.38955">
        <ele>132</ele>
        <time>2025-04-10T17:44:41Z</time>
      </trkpt>
      <trkpt lat="43.65449" lon="1.38951">
        <ele>131</ele>
        <time>2025-04-10T17:44:42Z</time>
      </trkpt>
      <trkpt lat="43.65447" lon="1.38947">
        <ele>132</ele>
        <time>2025-04-10T17:44:43Z</time>
      </trkpt>
      <trkpt lat="43.65445" lon="1.38945">
        <ele>132</ele>
        <time>2025-04-10T17:44:44Z</time>
      </trkpt>
      <trkpt lat="43.65443" lon="1.38942">
        <ele>132</ele>
        <time>2025-04-10T17:44:45Z</time>
      </trkpt>
      <trkpt lat="43.65441" lon="1.38939">
        <ele>132</ele>
        <time>2025-04-10T17:44:46Z</time>
      </trkpt>
      <trkpt lat="43.65439" lon="1.38936">
        <ele>133</ele>
        <time>2025-04-10T17:44:47Z</time>
      </trkpt>
      <trkpt lat="43.65438" lon="1.38933">
        <ele>133</ele>
        <time>2025-04-10T17:44:48Z</time>
      </trkpt>
      <trkpt lat="43.65437" lon="1.38931">
        <ele>133</ele>
        <time>2025-04-10T17:44:49Z</time>
      </trkpt>
      <trkpt lat="43.65435" lon="1.38929">
        <ele>134</ele>
        <time>2025-04-10T17:44:50Z</time>
      </trkpt>
      <trkpt lat="43.65434" lon="1.38926">
        <ele>135</ele>
        <time>2025-04-10T17:44:51Z</time>
      </trkpt>
      <trkpt lat="43.65433" lon="1.38924">
        <ele>136</ele>
        <time>2025-04-10T17:44:52Z</time>
      </trkpt>
      <trkpt lat="43.65431" lon="1.38922">
        <ele>136</ele>
        <time>2025-04-10T17:44:53Z</time>
      </trkpt>
      <trkpt lat="43.65429" lon="1.3892">
        <ele>137</ele>
        <time>2025-04-10T17:44:54Z</time>
      </trkpt>
      <trkpt lat="43.65428" lon="1.38917">
        <ele>137</ele>
        <time>2025-04-10T17:44:55Z</time>
      </trkpt>
      <trkpt lat="43.65426" lon="1.38913">
        <ele>138</ele>
        <time>2025-04-10T17:44:56Z</time>
      </trkpt>
      <trkpt lat="43.65424" lon="1.3891">
        <ele>138</ele>
        <time>2025-04-10T17:44:57Z</time>
      </trkpt>
      <trkpt lat="43.65422" lon="1.38906">
        <ele>138</ele>
        <time>2025-04-10T17:44:58Z</time>
      </trkpt>
      <trkpt lat="43.65421" lon="1.38901">
        <ele>139</ele>
        <time>2025-04-10T17:44:59Z</time>
      </trkpt>
      <trkpt lat="43.6542" lon="1.38897">
        <ele>139</ele>
        <time>2025-04-10T17:45:00Z</time>
      </trkpt>
      <trkpt lat="43.65419" lon="1.38892">
        <ele>139</ele>
        <time>2025-04-10T17:45:01Z</time>
      </trkpt>
      <trkpt lat="43.65418" lon="1.38888">
        <ele>139</ele>
        <time>2025-04-10T17:45:02Z</time>
      </trkpt>
      <trkpt lat="43.65417" lon="1.38883">
        <ele>139</ele>
        <time>2025-04-10T17:45:03Z</time>
      </trkpt>
      <trkpt lat="43.65416" lon="1.38878">
        <ele>139</ele>
        <time>2025-04-10T17:45:04Z</time>
      </trkpt>
      <trkpt lat="43.65415" lon="1.38874">
        <ele>139</ele>
        <time>2025-04-10T17:45:05Z</time>
      </trkpt>
      <trkpt lat="43.65415" lon="1.3887">
        <ele>140</ele>
        <time>2025-04-10T17:45:06Z</time>
      </trkpt>
      <trkpt lat="43.65415" lon="1.38866">
        <ele>140</ele>
        <time>2025-04-10T17:45:07Z</time>
      </trkpt>
      <trkpt lat="43.65416" lon="1.38863">
        <ele>140</ele>
        <time>2025-04-10T17:45:08Z</time>
      </trkpt>
      <trkpt lat="43.65417" lon="1.3886">
        <ele>141</ele>
        <time>2025-04-10T17:45:09Z</time>
      </trkpt>
      <trkpt lat="43.65418" lon="1.38858">
        <ele>142</ele>
        <time>2025-04-10T17:45:10Z</time>
      </trkpt>
      <trkpt lat="43.65418" lon="1.38858">
        <ele>143</ele>
        <time>2025-04-10T17:45:11Z</time>
      </trkpt>
      <trkpt lat="43.65421" lon="1.38854">
        <ele>143</ele>
        <time>2025-04-10T17:45:12Z</time>
      </trkpt>
      <trkpt lat="43.65421" lon="1.38854">
        <ele>143</ele>
        <time>2025-04-10T17:45:13Z</time>
      </trkpt>
      <trkpt lat="43.65423" lon="1.38851">
        <ele>143</ele>
        <time>2025-04-10T17:45:14Z</time>
      </trkpt>
      <trkpt lat="43.65423" lon="1.38851">
        <ele>143</ele>
        <time>2025-04-10T17:45:15Z</time>
      </trkpt>
      <trkpt lat="43.65425" lon="1.38848">
        <ele>143</ele>
        <time>2025-04-10T17:45:16Z</time>
      </trkpt>
      <trkpt lat="43.65425" lon="1.38848">
        <ele>144</ele>
        <time>2025-04-10T17:45:17Z</time>
      </trkpt>
      <trkpt lat="43.65428" lon="1.38847">
        <ele>144</ele>
        <time>2025-04-10T17:45:18Z</time>
      </trkpt>
      <trkpt lat="43.65428" lon="1.38847">
        <ele>144</ele>
        <time>2025-04-10T17:45:19Z</time>
      </trkpt>
      <trkpt lat="43.6543" lon="1.38846">
        <ele>144</ele>
        <time>2025-04-10T17:45:20Z</time>
      </trkpt>
      <trkpt lat="43.6543" lon="1.38846">
        <ele>144</ele>
        <time>2025-04-10T17:45:21Z</time>
      </trkpt>
      <trkpt lat="43.6543" lon="1.38846">
        <ele>144</ele>
        <time>2025-04-10T17:45:22Z</time>
      </trkpt>
      <trkpt lat="43.65432" lon="1.38848">
        <ele>144</ele>
        <time>2025-04-10T17:45:23Z</time>
      </trkpt>
      <trkpt lat="43.65432" lon="1.38848">
        <ele>144</ele>
        <time>2025-04-10T17:45:24Z</time>
      </trkpt>
      <trkpt lat="43.65433" lon="1.38851">
        <ele>144</ele>
        <time>2025-04-10T17:45:25Z</time>
      </trkpt>
      <trkpt lat="43.65433" lon="1.38851">
        <ele>144</ele>
        <time>2025-04-10T17:45:26Z</time>
      </trkpt>
      <trkpt lat="43.65435" lon="1.38855">
        <ele>144</ele>
        <time>2025-04-10T17:45:27Z</time>
      </trkpt>
      <trkpt lat="43.65435" lon="1.38855">
        <ele>144</ele>
        <time>2025-04-10T17:45:28Z</time>
      </trkpt>
      <trkpt lat="43.65436" lon="1.38858">
        <ele>144</ele>
        <time>2025-04-10T17:45:29Z</time>
      </trkpt>
      <trkpt lat="43.65436" lon="1.38858">
        <ele>143</ele>
        <time>2025-04-10T17:45:30Z</time>
      </trkpt>
      <trkpt lat="43.65437" lon="1.38861">
        <ele>143</ele>
        <time>2025-04-10T17:45:31Z</time>
      </trkpt>
      <trkpt lat="43.65437" lon="1.38861">
        <ele>143</ele>
        <time>2025-04-10T17:45:32Z</time>
      </trkpt>
      <trkpt lat="43.65438" lon="1.38864">
        <ele>143</ele>
        <time>2025-04-10T17:45:33Z</time>
      </trkpt>
      <trkpt lat="43.65438" lon="1.38864">
        <ele>143</ele>
        <time>2025-04-10T17:45:34Z</time>
      </trkpt>
      <trkpt lat="43.65439" lon="1.38868">
        <ele>143</ele>
        <time>2025-04-10T17:45:35Z</time>
      </trkpt>
      <trkpt lat="43.65439" lon="1.38868">
        <ele>143</ele>
        <time>2025-04-10T17:45:36Z</time>
      </trkpt>
      <trkpt lat="43.6544" lon="1.38871">
        <ele>142</ele>
        <time>2025-04-10T17:45:37Z</time>
      </trkpt>
      <trkpt lat="43.6544" lon="1.38871">
        <ele>142</ele>
        <time>2025-04-10T17:45:38Z</time>
      </trkpt>
      <trkpt lat="43.6544" lon="1.38874">
        <ele>142</ele>
        <time>2025-04-10T17:45:39Z</time>
      </trkpt>
      <trkpt lat="43.6544" lon="1.38874">
        <ele>142</ele>
        <time>2025-04-10T17:45:40Z</time>
      </trkpt>
      <trkpt lat="43.6544" lon="1.38877">
        <ele>142</ele>
        <time>2025-04-10T17:45:41Z</time>
      </trkpt>
      <trkpt lat="43.6544" lon="1.38877">
        <ele>142</ele>
        <time>2025-04-10T17:45:42Z</time>
      </trkpt>
      <trkpt lat="43.65441" lon="1.3888">
        <ele>142</ele>
        <time>2025-04-10T17:45:43Z</time>
      </trkpt>
      <trkpt lat="43.65441" lon="1.3888">
        <ele>142</ele>
        <time>2025-04-10T17:45:44Z</time>
      </trkpt>
      <trkpt lat="43.65442" lon="1.38884">
        <ele>142</ele>
        <time>2025-04-10T17:45:45Z</time>
      </trkpt>
      <trkpt lat="43.65442" lon="1.38884">
        <ele>142</ele>
        <time>2025-04-10T17:45:46Z</time>
      </trkpt>
      <trkpt lat="43.65443" lon="1.38887">
        <ele>142</ele>
        <time>2025-04-10T17:45:47Z</time>
      </trkpt>
      <trkpt lat="43.65443" lon="1.38887">
        <ele>142</ele>
        <time>2025-04-10T17:45:48Z</time>
      </trkpt>
      <trkpt lat="43.65443" lon="1.38889">
        <ele>142</ele>
        <time>2025-04-10T17:45:49Z</time>
      </trkpt>
      <trkpt lat="43.65443" lon="1.38889">
        <ele>142</ele>
        <time>2025-04-10T17:45:50Z</time>
      </trkpt>
      <trkpt lat="43.65443" lon="1.38892">
        <ele>142</ele>
        <time>2025-04-10T17:45:51Z</time>
      </trkpt>
      <trkpt lat="43.65443" lon="1.38892">
        <ele>142</ele>
        <time>2025-04-10T17:45:52Z</time>
      </trkpt>
      <trkpt lat="43.65444" lon="1.38895">
        <ele>142</ele>
        <time>2025-04-10T17:45:53Z</time>
      </trkpt>
      <trkpt lat="43.65444" lon="1.38895">
        <ele>142</ele>
        <time>2025-04-10T17:45:54Z</time>
      </trkpt>
      <trkpt lat="43.65445" lon="1.38898">
        <ele>142</ele>
        <time>2025-04-10T17:45:55Z</time>
      </trkpt>
      <trkpt lat="43.65445" lon="1.38898">
        <ele>142</ele>
        <time>2025-04-10T17:45:56Z</time>
      </trkpt>
      <trkpt lat="43.65447" lon="1.38902">
        <ele>142</ele>
        <time>2025-04-10T17:45:57Z</time>
      </trkpt>
      <trkpt lat="43.65447" lon="1.38902">
        <ele>142</ele>
        <time>2025-04-10T17:45:58Z</time>
      </trkpt>
      <trkpt lat="43.65449" lon="1.38904">
        <ele>142</ele>
        <time>2025-04-10T17:45:59Z</time>
      </trkpt>
      <trkpt lat="43.65449" lon="1.38904">
        <ele>142</ele>
        <time>2025-04-10T17:46:00Z</time>
      </trkpt>
      <trkpt lat="43.65449" lon="1.38904">
        <ele>142</ele>
        <time>2025-04-10T17:46:01Z</time>
      </trkpt>
      <trkpt lat="43.65449" lon="1.38904">
        <ele>142</ele>
        <time>2025-04-10T17:46:02Z</time>
      </trkpt>
      <trkpt lat="43.6545" lon="1.38907">
        <ele>142</ele>
        <time>2025-04-10T17:46:03Z</time>
      </trkpt>
      <trkpt lat="43.6545" lon="1.38907">
        <ele>142</ele>
        <time>2025-04-10T17:46:04Z</time>
      </trkpt>
      <trkpt lat="43.65452" lon="1.3891">
        <ele>142</ele>
        <time>2025-04-10T17:46:05Z</time>
      </trkpt>
      <trkpt lat="43.65452" lon="1.3891">
        <ele>142</ele>
        <time>2025-04-10T17:46:06Z</time>
      </trkpt>
      <trkpt lat="43.65454" lon="1.38914">
        <ele>142</ele>
        <time>2025-04-10T17:46:07Z</time>
      </trkpt>
      <trkpt lat="43.65455" lon="1.38916">
        <ele>142</ele>
        <time>2025-04-10T17:46:08Z</time>
      </trkpt>
      <trkpt lat="43.65456" lon="1.38918">
        <ele>142</ele>
        <time>2025-04-10T17:46:09Z</time>
      </trkpt>
      <trkpt lat="43.65457" lon="1.38921">
        <ele>141</ele>
        <time>2025-04-10T17:46:10Z</time>
      </trkpt>
      <trkpt lat="43.65457" lon="1.38923">
        <ele>141</ele>
        <time>2025-04-10T17:46:11Z</time>
      </trkpt>
      <trkpt lat="43.65458" lon="1.38927">
        <ele>141</ele>
        <time>2025-04-10T17:46:12Z</time>
      </trkpt>
      <trkpt lat="43.65459" lon="1.3893">
        <ele>141</ele>
        <time>2025-04-10T17:46:13Z</time>
      </trkpt>
      <trkpt lat="43.6546" lon="1.38933">
        <ele>140</ele>
        <time>2025-04-10T17:46:14Z</time>
      </trkpt>
      <trkpt lat="43.6546" lon="1.38937">
        <ele>140</ele>
        <time>2025-04-10T17:46:15Z</time>
      </trkpt>
      <trkpt lat="43.65461" lon="1.38941">
        <ele>139</ele>
        <time>2025-04-10T17:46:16Z</time>
      </trkpt>
      <trkpt lat="43.65463" lon="1.38945">
        <ele>139</ele>
        <time>2025-04-10T17:46:17Z</time>
      </trkpt>
      <trkpt lat="43.65463" lon="1.38949">
        <ele>139</ele>
        <time>2025-04-10T17:46:18Z</time>
      </trkpt>
      <trkpt lat="43.65465" lon="1.38953">
        <ele>138</ele>
        <time>2025-04-10T17:46:19Z</time>
      </trkpt>
      <trkpt lat="43.65466" lon="1.38958">
        <ele>138</ele>
        <time>2025-04-10T17:46:20Z</time>
      </trkpt>
      <trkpt lat="43.65466" lon="1.38962">
        <ele>137</ele>
        <time>2025-04-10T17:46:21Z</time>
      </trkpt>
      <trkpt lat="43.65467" lon="1.38965">
        <ele>136</ele>
        <time>2025-04-10T17:46:22Z</time>
      </trkpt>
      <trkpt lat="43.65468" lon="1.38968">
        <ele>135</ele>
        <time>2025-04-10T17:46:23Z</time>
      </trkpt>
      <trkpt lat="43.65469" lon="1.38972">
        <ele>135</ele>
        <time>2025-04-10T17:46:24Z</time>
      </trkpt>
      <trkpt lat="43.6547" lon="1.38976">
        <ele>134</ele>
        <time>2025-04-10T17:46:25Z</time>
      </trkpt>
      <trkpt lat="43.6547" lon="1.3898">
        <ele>134</ele>
        <time>2025-04-10T17:46:26Z</time>
      </trkpt>
      <trkpt lat="43.65471" lon="1.38985">
        <ele>133</ele>
        <time>2025-04-10T17:46:27Z</time>
      </trkpt>
      <trkpt lat="43.65471" lon="1.38989">
        <ele>133</ele>
        <time>2025-04-10T17:46:28Z</time>
      </trkpt>
      <trkpt lat="43.65469" lon="1.3899">
        <ele>132</ele>
        <time>2025-04-10T17:46:29Z</time>
      </trkpt>
      <trkpt lat="43.65466" lon="1.38989">
        <ele>132</ele>
        <time>2025-04-10T17:46:30Z</time>
      </trkpt>
      <trkpt lat="43.65466" lon="1.38989">
        <ele>132</ele>
        <time>2025-04-10T17:46:31Z</time>
      </trkpt>
      <trkpt lat="43.65463" lon="1.38988">
        <ele>132</ele>
        <time>2025-04-10T17:46:32Z</time>
      </trkpt>
      <trkpt lat="43.65461" lon="1.38986">
        <ele>132</ele>
        <time>2025-04-10T17:46:33Z</time>
      </trkpt>
      <trkpt lat="43.6546" lon="1.38984">
        <ele>131</ele>
        <time>2025-04-10T17:46:34Z</time>
      </trkpt>
      <trkpt lat="43.6546" lon="1.38984">
        <ele>131</ele>
        <time>2025-04-10T17:46:35Z</time>
      </trkpt>
      <trkpt lat="43.65458" lon="1.3898">
        <ele>131</ele>
        <time>2025-04-10T17:46:36Z</time>
      </trkpt>
      <trkpt lat="43.65458" lon="1.3898">
        <ele>131</ele>
        <time>2025-04-10T17:46:37Z</time>
      </trkpt>
      <trkpt lat="43.65458" lon="1.3898">
        <ele>131</ele>
        <time>2025-04-10T17:46:38Z</time>
      </trkpt>
      <trkpt lat="43.65214" lon="1.38028">
        <ele>147</ele>
        <time>2025-04-10T18:06:23Z</time>
      </trkpt>
      <trkpt lat="43.65213" lon="1.38029">
        <ele>147</ele>
        <time>2025-04-10T18:06:24Z</time>
      </trkpt>
      <trkpt lat="43.65213" lon="1.38029">
        <ele>148</ele>
        <time>2025-04-10T18:06:25Z</time>
      </trkpt>
      <trkpt lat="43.65209" lon="1.38032">
        <ele>148</ele>
        <time>2025-04-10T18:06:26Z</time>
      </trkpt>
      <trkpt lat="43.65208" lon="1.38033">
        <ele>148</ele>
        <time>2025-04-10T18:06:27Z</time>
      </trkpt>
      <trkpt lat="43.65206" lon="1.38035">
        <ele>148</ele>
        <time>2025-04-10T18:06:28Z</time>
      </trkpt>
      <trkpt lat="43.65204" lon="1.38037">
        <ele>148</ele>
        <time>2025-04-10T18:06:29Z</time>
      </trkpt>
      <trkpt lat="43.65202" lon="1.38039">
        <ele>148</ele>
        <time>2025-04-10T18:06:30Z</time>
      </trkpt>
      <trkpt lat="43.652" lon="1.38041">
        <ele>148</ele>
        <time>2025-04-10T18:06:31Z</time>
      </trkpt>
      <trkpt lat="43.65198" lon="1.38043">
        <ele>148</ele>
        <time>2025-04-10T18:06:32Z</time>
      </trkpt>
      <trkpt lat="43.65196" lon="1.38045">
        <ele>148</ele>
        <time>2025-04-10T18:06:33Z</time>
      </trkpt>
      <trkpt lat="43.65194" lon="1.38047">
        <ele>148</ele>
        <time>2025-04-10T18:06:34Z</time>
      </trkpt>
      <trkpt lat="43.65192" lon="1.38049">
        <ele>148</ele>
        <time>2025-04-10T18:06:35Z</time>
      </trkpt>
      <trkpt lat="43.6519" lon="1.3805">
        <ele>148</ele>
        <time>2025-04-10T18:06:36Z</time>
      </trkpt>
      <trkpt lat="43.65188" lon="1.38052">
        <ele>148</ele>
        <time>2025-04-10T18:06:37Z</time>
      </trkpt>
      <trkpt lat="43.65185" lon="1.38053">
        <ele>148</ele>
        <time>2025-04-10T18:06:38Z</time>
      </trkpt>
      <trkpt lat="43.65183" lon="1.38054">
        <ele>148</ele>
        <time>2025-04-10T18:06:39Z</time>
      </trkpt>
      <trkpt lat="43.65181" lon="1.38055">
        <ele>148</ele>
        <time>2025-04-10T18:06:40Z</time>
      </trkpt>
      <trkpt lat="43.65179" lon="1.38057">
        <ele>148</ele>
        <time>2025-04-10T18:06:41Z</time>
      </trkpt>
      <trkpt lat="43.65177" lon="1.38058">
        <ele>148</ele>
        <time>2025-04-10T18:06:42Z</time>
      </trkpt>
      <trkpt lat="43.65175" lon="1.38059">
        <ele>148</ele>
        <time>2025-04-10T18:06:43Z</time>
      </trkpt>
      <trkpt lat="43.65173" lon="1.38061">
        <ele>148</ele>
        <time>2025-04-10T18:06:44Z</time>
      </trkpt>
      <trkpt lat="43.65171" lon="1.38063">
        <ele>148</ele>
        <time>2025-04-10T18:06:45Z</time>
      </trkpt>
      <trkpt lat="43.65169" lon="1.38064">
        <ele>148</ele>
        <time>2025-04-10T18:06:46Z</time>
      </trkpt>
      <trkpt lat="43.65167" lon="1.38066">
        <ele>148</ele>
        <time>2025-04-10T18:06:47Z</time>
      </trkpt>
      <trkpt lat="43.65165" lon="1.38067">
        <ele>148</ele>
        <time>2025-04-10T18:06:48Z</time>
      </trkpt>
      <trkpt lat="43.65163" lon="1.38068">
        <ele>148</ele>
        <time>2025-04-10T18:06:49Z</time>
      </trkpt>
      <trkpt lat="43.65161" lon="1.3807">
        <ele>148</ele>
        <time>2025-04-10T18:06:50Z</time>
      </trkpt>
      <trkpt lat="43.65159" lon="1.38072">
        <ele>148</ele>
        <time>2025-04-10T18:06:51Z</time>
      </trkpt>
      <trkpt lat="43.65158" lon="1.38073">
        <ele>147</ele>
        <time>2025-04-10T18:06:52Z</time>
      </trkpt>
      <trkpt lat="43.65156" lon="1.38075">
        <ele>147</ele>
        <time>2025-04-10T18:06:53Z</time>
      </trkpt>
      <trkpt lat="43.65154" lon="1.38076">
        <ele>147</ele>
        <time>2025-04-10T18:06:54Z</time>
      </trkpt>
      <trkpt lat="43.65152" lon="1.38078">
        <ele>147</ele>
        <time>2025-04-10T18:06:55Z</time>
      </trkpt>
      <trkpt lat="43.65149" lon="1.38079">
        <ele>147</ele>
        <time>2025-04-10T18:06:56Z</time>
      </trkpt>
      <trkpt lat="43.65147" lon="1.3808">
        <ele>147</ele>
        <time>2025-04-10T18:06:57Z</time>
      </trkpt>
      <trkpt lat="43.65146" lon="1.38082">
        <ele>148</ele>
        <time>2025-04-10T18:06:58Z</time>
      </trkpt>
      <trkpt lat="43.65144" lon="1.38083">
        <ele>148</ele>
        <time>2025-04-10T18:06:59Z</time>
      </trkpt>
      <trkpt lat="43.65142" lon="1.38084">
        <ele>148</ele>
        <time>2025-04-10T18:07:00Z</time>
      </trkpt>
      <trkpt lat="43.6514" lon="1.38086">
        <ele>148</ele>
        <time>2025-04-10T18:07:01Z</time>
      </trkpt>
      <trkpt lat="43.65138" lon="1.38087">
        <ele>148</ele>
        <time>2025-04-10T18:07:02Z</time>
      </trkpt>
      <trkpt lat="43.65136" lon="1.38088">
        <ele>148</ele>
        <time>2025-04-10T18:07:03Z</time>
      </trkpt>
      <trkpt lat="43.65135" lon="1.3809">
        <ele>148</ele>
        <time>2025-04-10T18:07:04Z</time>
      </trkpt>
      <trkpt lat="43.65133" lon="1.38091">
        <ele>148</ele>
        <time>2025-04-10T18:07:05Z</time>
      </trkpt>
      <trkpt lat="43.65131" lon="1.38092">
        <ele>148</ele>
        <time>2025-04-10T18:07:06Z</time>
      </trkpt>
      <trkpt lat="43.65129" lon="1.38093">
        <ele>147</ele>
        <time>2025-04-10T18:07:07Z</time>
      </trkpt>
      <trkpt lat="43.65127" lon="1.38095">
        <ele>147</ele>
        <time>2025-04-10T18:07:08Z</time>
      </trkpt>
      <trkpt lat="43.65125" lon="1.38096">
        <ele>147</ele>
        <time>2025-04-10T18:07:09Z</time>
      </trkpt>
      <trkpt lat="43.65123" lon="1.38097">
        <ele>147</ele>
        <time>2025-04-10T18:07:10Z</time>
      </trkpt>
      <trkpt lat="43.65121" lon="1.38099">
        <ele>147</ele>
        <time>2025-04-10T18:07:11Z</time>
      </trkpt>
      <trkpt lat="43.65119" lon="1.381">
        <ele>147</ele>
        <time>2025-04-10T18:07:12Z</time>
      </trkpt>
      <trkpt lat="43.65117" lon="1.38101">
        <ele>147</ele>
        <time>2025-04-10T18:07:13Z</time>
      </trkpt>
      <trkpt lat="43.65116" lon="1.38103">
        <ele>147</ele>
        <time>2025-04-10T18:07:14Z</time>
      </trkpt>
      <trkpt lat="43.65116" lon="1.38103">
        <ele>147</ele>
        <time>2025-04-10T18:07:15Z</time>
      </trkpt>
      <trkpt lat="43.65113" lon="1.38105">
        <ele>148</ele>
        <time>2025-04-10T18:07:16Z</time>
      </trkpt>
      <trkpt lat="43.65113" lon="1.38105">
        <ele>148</ele>
        <time>2025-04-10T18:07:17Z</time>
      </trkpt>
      <trkpt lat="43.65109" lon="1.38107">
        <ele>148</ele>
        <time>2025-04-10T18:07:18Z</time>
      </trkpt>
      <trkpt lat="43.65109" lon="1.38107">
        <ele>148</ele>
        <time>2025-04-10T18:07:19Z</time>
      </trkpt>
      <trkpt lat="43.65106" lon="1.38109">
        <ele>148</ele>
        <time>2025-04-10T18:07:20Z</time>
      </trkpt>
      <trkpt lat="43.65104" lon="1.38111">
        <ele>148</ele>
        <time>2025-04-10T18:07:21Z</time>
      </trkpt>
      <trkpt lat="43.65102" lon="1.38112">
        <ele>148</ele>
        <time>2025-04-10T18:07:22Z</time>
      </trkpt>
      <trkpt lat="43.651" lon="1.38114">
        <ele>148</ele>
        <time>2025-04-10T18:07:23Z</time>
      </trkpt>
      <trkpt lat="43.65098" lon="1.38115">
        <ele>147</ele>
        <time>2025-04-10T18:07:24Z</time>
      </trkpt>
      <trkpt lat="43.65097" lon="1.38116">
        <ele>147</ele>
        <time>2025-04-10T18:07:25Z</time>
      </trkpt>
      <trkpt lat="43.65095" lon="1.38117">
        <ele>147</ele>
        <time>2025-04-10T18:07:26Z</time>
      </trkpt>
      <trkpt lat="43.65093" lon="1.38118">
        <ele>147</ele>
        <time>2025-04-10T18:07:27Z</time>
      </trkpt>
      <trkpt lat="43.65091" lon="1.3812">
        <ele>147</ele>
        <time>2025-04-10T18:07:28Z</time>
      </trkpt>
      <trkpt lat="43.6509" lon="1.38121">
        <ele>147</ele>
        <time>2025-04-10T18:07:29Z</time>
      </trkpt>
      <trkpt lat="43.65088" lon="1.38122">
        <ele>147</ele>
        <time>2025-04-10T18:07:30Z</time>
      </trkpt>
      <trkpt lat="43.65086" lon="1.38123">
        <ele>148</ele>
        <time>2025-04-10T18:07:31Z</time>
      </trkpt>
      <trkpt lat="43.65084" lon="1.38124">
        <ele>148</ele>
        <time>2025-04-10T18:07:32Z</time>
      </trkpt>
      <trkpt lat="43.65082" lon="1.38126">
        <ele>148</ele>
        <time>2025-04-10T18:07:33Z</time>
      </trkpt>
      <trkpt lat="43.65081" lon="1.38127">
        <ele>148</ele>
        <time>2025-04-10T18:07:34Z</time>
      </trkpt>
      <trkpt lat="43.65079" lon="1.38129">
        <ele>148</ele>
        <time>2025-04-10T18:07:35Z</time>
      </trkpt>
      <trkpt lat="43.65077" lon="1.38129">
        <ele>148</ele>
        <time>2025-04-10T18:07:36Z</time>
      </trkpt>
      <trkpt lat="43.65075" lon="1.38129">
        <ele>148</ele>
        <time>2025-04-10T18:07:37Z</time>
      </trkpt>
      <trkpt lat="43.65073" lon="1.38128">
        <ele>148</ele>
        <time>2025-04-10T18:07:38Z</time>
      </trkpt>
      <trkpt lat="43.65071" lon="1.38127">
        <ele>148</ele>
        <time>2025-04-10T18:07:39Z</time>
      </trkpt>
      <trkpt lat="43.65071" lon="1.38127">
        <ele>147</ele>
        <time>2025-04-10T18:07:40Z</time>
      </trkpt>
      <trkpt lat="43.65069" lon="1.38123">
        <ele>147</ele>
        <time>2025-04-10T18:07:41Z</time>
      </trkpt>
      <trkpt lat="43.65067" lon="1.3812">
        <ele>147</ele>
        <time>2025-04-10T18:07:42Z</time>
      </trkpt>
      <trkpt lat="43.65066" lon="1.38118">
        <ele>147</ele>
        <time>2025-04-10T18:07:43Z</time>
      </trkpt>
      <trkpt lat="43.65065" lon="1.38116">
        <ele>147</ele>
        <time>2025-04-10T18:07:44Z</time>
      </trkpt>
      <trkpt lat="43.65063" lon="1.38113">
        <ele>147</ele>
        <time>2025-04-10T18:07:45Z</time>
      </trkpt>
      <trkpt lat="43.65062" lon="1.38111">
        <ele>147</ele>
        <time>2025-04-10T18:07:46Z</time>
      </trkpt>
      <trkpt lat="43.6506" lon="1.38108">
        <ele>147</ele>
        <time>2025-04-10T18:07:47Z</time>
      </trkpt>
      <trkpt lat="43.65059" lon="1.38105">
        <ele>146</ele>
        <time>2025-04-10T18:07:48Z</time>
      </trkpt>
      <trkpt lat="43.65057" lon="1.38103">
        <ele>146</ele>
        <time>2025-04-10T18:07:49Z</time>
      </trkpt>
      <trkpt lat="43.65056" lon="1.38101">
        <ele>146</ele>
        <time>2025-04-10T18:07:50Z</time>
      </trkpt>
      <trkpt lat="43.65055" lon="1.38099">
        <ele>146</ele>
        <time>2025-04-10T18:07:51Z</time>
      </trkpt>
      <trkpt lat="43.65053" lon="1.38097">
        <ele>146</ele>
        <time>2025-04-10T18:07:52Z</time>
      </trkpt>
      <trkpt lat="43.65052" lon="1.38094">
        <ele>146</ele>
        <time>2025-04-10T18:07:53Z</time>
      </trkpt>
      <trkpt lat="43.6505" lon="1.38091">
        <ele>146</ele>
        <time>2025-04-10T18:07:54Z</time>
      </trkpt>
      <trkpt lat="43.65049" lon="1.38089">
        <ele>145</ele>
        <time>2025-04-10T18:07:55Z</time>
      </trkpt>
      <trkpt lat="43.65047" lon="1.38086">
        <ele>145</ele>
        <time>2025-04-10T18:07:56Z</time>
      </trkpt>
      <trkpt lat="43.65046" lon="1.38084">
        <ele>145</ele>
        <time>2025-04-10T18:07:57Z</time>
      </trkpt>
      <trkpt lat="43.65045" lon="1.38081">
        <ele>145</ele>
        <time>2025-04-10T18:07:58Z</time>
      </trkpt>
      <trkpt lat="43.65043" lon="1.38079">
        <ele>145</ele>
        <time>2025-04-10T18:07:59Z</time>
      </trkpt>
      <trkpt lat="43.65042" lon="1.38076">
        <ele>145</ele>
        <time>2025-04-10T18:08:00Z</time>
      </trkpt>
      <trkpt lat="43.65041" lon="1.38073">
        <ele>145</ele>
        <time>2025-04-10T18:08:01Z</time>
      </trkpt>
      <trkpt lat="43.6504" lon="1.38071">
        <ele>145</ele>
        <time>2025-04-10T18:08:02Z</time>
      </trkpt>
      <trkpt lat="43.65038" lon="1.38069">
        <ele>145</ele>
        <time>2025-04-10T18:08:03Z</time>
      </trkpt>
      <trkpt lat="43.65037" lon="1.38067">
        <ele>145</ele>
        <time>2025-04-10T18:08:04Z</time>
      </trkpt>
      <trkpt lat="43.65036" lon="1.38064">
        <ele>146</ele>
        <time>2025-04-10T18:08:05Z</time>
      </trkpt>
      <trkpt lat="43.65035" lon="1.38062">
        <ele>146</ele>
        <time>2025-04-10T18:08:06Z</time>
      </trkpt>
      <trkpt lat="43.65033" lon="1.38059">
        <ele>146</ele>
        <time>2025-04-10T18:08:07Z</time>
      </trkpt>
      <trkpt lat="43.65032" lon="1.38057">
        <ele>146</ele>
        <time>2025-04-10T18:08:08Z</time>
      </trkpt>
      <trkpt lat="43.6503" lon="1.38054">
        <ele>146</ele>
        <time>2025-04-10T18:08:09Z</time>
      </trkpt>
      <trkpt lat="43.65029" lon="1.38052">
        <ele>146</ele>
        <time>2025-04-10T18:08:10Z</time>
      </trkpt>
      <trkpt lat="43.65028" lon="1.38049">
        <ele>146</ele>
        <time>2025-04-10T18:08:11Z</time>
      </trkpt>
      <trkpt lat="43.65026" lon="1.38046">
        <ele>146</ele>
        <time>2025-04-10T18:08:12Z</time>
      </trkpt>
      <trkpt lat="43.65025" lon="1.38044">
        <ele>146</ele>
        <time>2025-04-10T18:08:13Z</time>
      </trkpt>
      <trkpt lat="43.65024" lon="1.38041">
        <ele>146</ele>
        <time>2025-04-10T18:08:14Z</time>
      </trkpt>
      <trkpt lat="43.65022" lon="1.3804">
        <ele>146</ele>
        <time>2025-04-10T18:08:15Z</time>
      </trkpt>
      <trkpt lat="43.65021" lon="1.38037">
        <ele>146</ele>
        <time>2025-04-10T18:08:16Z</time>
      </trkpt>
      <trkpt lat="43.6502" lon="1.38035">
        <ele>146</ele>
        <time>2025-04-10T18:08:17Z</time>
      </trkpt>
      <trkpt lat="43.65019" lon="1.38033">
        <ele>146</ele>
        <time>2025-04-10T18:08:18Z</time>
      </trkpt>
      <trkpt lat="43.65017" lon="1.38031">
        <ele>146</ele>
        <time>2025-04-10T18:08:19Z</time>
      </trkpt>
      <trkpt lat="43.65015" lon="1.38028">
        <ele>146</ele>
        <time>2025-04-10T18:08:20Z</time>
      </trkpt>
      <trkpt lat="43.65014" lon="1.38026">
        <ele>146</ele>
        <time>2025-04-10T18:08:21Z</time>
      </trkpt>
      <trkpt lat="43.65013" lon="1.38024">
        <ele>146</ele>
        <time>2025-04-10T18:08:22Z</time>
      </trkpt>
      <trkpt lat="43.65012" lon="1.38021">
        <ele>146</ele>
        <time>2025-04-10T18:08:23Z</time>
      </trkpt>
      <trkpt lat="43.6501" lon="1.38019">
        <ele>145</ele>
        <time>2025-04-10T18:08:24Z</time>
      </trkpt>
      <trkpt lat="43.65008" lon="1.38017">
        <ele>145</ele>
        <time>2025-04-10T18:08:25Z</time>
      </trkpt>
      <trkpt lat="43.65007" lon="1.38014">
        <ele>145</ele>
        <time>2025-04-10T18:08:26Z</time>
      </trkpt>
      <trkpt lat="43.65006" lon="1.38012">
        <ele>145</ele>
        <time>2025-04-10T18:08:27Z</time>
      </trkpt>
      <trkpt lat="43.65004" lon="1.3801">
        <ele>145</ele>
        <time>2025-04-10T18:08:28Z</time>
      </trkpt>
      <trkpt lat="43.65003" lon="1.38007">
        <ele>145</ele>
        <time>2025-04-10T18:08:29Z</time>
      </trkpt>
      <trkpt lat="43.65002" lon="1.38005">
        <ele>145</ele>
        <time>2025-04-10T18:08:30Z</time>
      </trkpt>
      <trkpt lat="43.65001" lon="1.38003">
        <ele>145</ele>
        <time>2025-04-10T18:08:31Z</time>
      </trkpt>
      <trkpt lat="43.64999" lon="1.38001">
        <ele>146</ele>
        <time>2025-04-10T18:08:32Z</time>
      </trkpt>
      <trkpt lat="43.64998" lon="1.37999">
        <ele>146</ele>
        <time>2025-04-10T18:08:33Z</time>
      </trkpt>
      <trkpt lat="43.64997" lon="1.37997">
        <ele>145</ele>
        <time>2025-04-10T18:08:34Z</time>
      </trkpt>
      <trkpt lat="43.64995" lon="1.37994">
        <ele>145</ele>
        <time>2025-04-10T18:08:35Z</time>
      </trkpt>
      <trkpt lat="43.64994" lon="1.37993">
        <ele>145</ele>
        <time>2025-04-10T18:08:36Z</time>
      </trkpt>
      <trkpt lat="43.64992" lon="1.37991">
        <ele>146</ele>
        <time>2025-04-10T18:08:37Z</time>
      </trkpt>
      <trkpt lat="43.6499" lon="1.37989">
        <ele>146</ele>
        <time>2025-04-10T18:08:38Z</time>
      </trkpt>
      <trkpt lat="43.64989" lon="1.37986">
        <ele>146</ele>
        <time>2025-04-10T18:08:39Z</time>
      </trkpt>
      <trkpt lat="43.64987" lon="1.37984">
        <ele>146</ele>
        <time>2025-04-10T18:08:40Z</time>
      </trkpt>
      <trkpt lat="43.64986" lon="1.37982">
        <ele>146</ele>
        <time>2025-04-10T18:08:41Z</time>
      </trkpt>
      <trkpt lat="43.64984" lon="1.37979">
        <ele>146</ele>
        <time>2025-04-10T18:08:42Z</time>
      </trkpt>
      <trkpt lat="43.64983" lon="1.37977">
        <ele>146</ele>
        <time>2025-04-10T18:08:43Z</time>
      </trkpt>
      <trkpt lat="43.64982" lon="1.37975">
        <ele>146</ele>
        <time>2025-04-10T18:08:44Z</time>
      </trkpt>
      <trkpt lat="43.6498" lon="1.37973">
        <ele>146</ele>
        <time>2025-04-10T18:08:45Z</time>
      </trkpt>
      <trkpt lat="43.64979" lon="1.3797">
        <ele>146</ele>
        <time>2025-04-10T18:08:46Z</time>
      </trkpt>
      <trkpt lat="43.64977" lon="1.37968">
        <ele>146</ele>
        <time>2025-04-10T18:08:47Z</time>
      </trkpt>
      <trkpt lat="43.64976" lon="1.37966">
        <ele>146</ele>
        <time>2025-04-10T18:08:48Z</time>
      </trkpt>
      <trkpt lat="43.64974" lon="1.37963">
        <ele>146</ele>
        <time>2025-04-10T18:08:49Z</time>
      </trkpt>
      <trkpt lat="43.64973" lon="1.37961">
        <ele>146</ele>
        <time>2025-04-10T18:08:50Z</time>
      </trkpt>
      <trkpt lat="43.64972" lon="1.37958">
        <ele>146</ele>
        <time>2025-04-10T18:08:51Z</time>
      </trkpt>
      <trkpt lat="43.64971" lon="1.37956">
        <ele>146</ele>
        <time>2025-04-10T18:08:52Z</time>
      </trkpt>
      <trkpt lat="43.64969" lon="1.37954">
        <ele>146</ele>
        <time>2025-04-10T18:08:53Z</time>
      </trkpt>
      <trkpt lat="43.64967" lon="1.37952">
        <ele>146</ele>
        <time>2025-04-10T18:08:54Z</time>
      </trkpt>
      <trkpt lat="43.64966" lon="1.3795">
        <ele>145</ele>
        <time>2025-04-10T18:08:55Z</time>
      </trkpt>
      <trkpt lat="43.64965" lon="1.37947">
        <ele>145</ele>
        <time>2025-04-10T18:08:56Z</time>
      </trkpt>
      <trkpt lat="43.64963" lon="1.37945">
        <ele>145</ele>
        <time>2025-04-10T18:08:57Z</time>
      </trkpt>
      <trkpt lat="43.64962" lon="1.37943">
        <ele>145</ele>
        <time>2025-04-10T18:08:58Z</time>
      </trkpt>
      <trkpt lat="43.64961" lon="1.37941">
        <ele>146</ele>
        <time>2025-04-10T18:08:59Z</time>
      </trkpt>
      <trkpt lat="43.64959" lon="1.37939">
        <ele>146</ele>
        <time>2025-04-10T18:09:00Z</time>
      </trkpt>
      <trkpt lat="43.64958" lon="1.37937">
        <ele>146</ele>
        <time>2025-04-10T18:09:01Z</time>
      </trkpt>
      <trkpt lat="43.64957" lon="1.37935">
        <ele>146</ele>
        <time>2025-04-10T18:09:02Z</time>
      </trkpt>
      <trkpt lat="43.64955" lon="1.37932">
        <ele>146</ele>
        <time>2025-04-10T18:09:03Z</time>
      </trkpt>
      <trkpt lat="43.64955" lon="1.37929">
        <ele>146</ele>
        <time>2025-04-10T18:09:04Z</time>
      </trkpt>
      <trkpt lat="43.64954" lon="1.37926">
        <ele>146</ele>
        <time>2025-04-10T18:09:05Z</time>
      </trkpt>
      <trkpt lat="43.64953" lon="1.37923">
        <ele>147</ele>
        <time>2025-04-10T18:09:06Z</time>
      </trkpt>
      <trkpt lat="43.64952" lon="1.3792">
        <ele>147</ele>
        <time>2025-04-10T18:09:07Z</time>
      </trkpt>
      <trkpt lat="43.64951" lon="1.37917">
        <ele>147</ele>
        <time>2025-04-10T18:09:08Z</time>
      </trkpt>
      <trkpt lat="43.64951" lon="1.37915">
        <ele>147</ele>
        <time>2025-04-10T18:09:09Z</time>
      </trkpt>
      <trkpt lat="43.6495" lon="1.37912">
        <ele>146</ele>
        <time>2025-04-10T18:09:10Z</time>
      </trkpt>
      <trkpt lat="43.64949" lon="1.37909">
        <ele>146</ele>
        <time>2025-04-10T18:09:11Z</time>
      </trkpt>
      <trkpt lat="43.64948" lon="1.37906">
        <ele>147</ele>
        <time>2025-04-10T18:09:12Z</time>
      </trkpt>
      <trkpt lat="43.64948" lon="1.37903">
        <ele>147</ele>
        <time>2025-04-10T18:09:13Z</time>
      </trkpt>
      <trkpt lat="43.64947" lon="1.37899">
        <ele>147</ele>
        <time>2025-04-10T18:09:14Z</time>
      </trkpt>
      <trkpt lat="43.64947" lon="1.37895">
        <ele>147</ele>
        <time>2025-04-10T18:09:15Z</time>
      </trkpt>
      <trkpt lat="43.64946" lon="1.37891">
        <ele>147</ele>
        <time>2025-04-10T18:09:16Z</time>
      </trkpt>
      <trkpt lat="43.64945" lon="1.37888">
        <ele>147</ele>
        <time>2025-04-10T18:09:17Z</time>
      </trkpt>
      <trkpt lat="43.64944" lon="1.37885">
        <ele>147</ele>
        <time>2025-04-10T18:09:18Z</time>
      </trkpt>
      <trkpt lat="43.64942" lon="1.37883">
        <ele>147</ele>
        <time>2025-04-10T18:09:19Z</time>
      </trkpt>
      <trkpt lat="43.6494" lon="1.37882">
        <ele>147</ele>
        <time>2025-04-10T18:09:20Z</time>
      </trkpt>
      <trkpt lat="43.64938" lon="1.37881">
        <ele>147</ele>
        <time>2025-04-10T18:09:21Z</time>
      </trkpt>
      <trkpt lat="43.64937" lon="1.37879">
        <ele>147</ele>
        <time>2025-04-10T18:09:22Z</time>
      </trkpt>
      <trkpt lat="43.64935" lon="1.37878">
        <ele>147</ele>
        <time>2025-04-10T18:09:23Z</time>
      </trkpt>
      <trkpt lat="43.64932" lon="1.37876">
        <ele>147</ele>
        <time>2025-04-10T18:09:24Z</time>
      </trkpt>
      <trkpt lat="43.64929" lon="1.37875">
        <ele>147</ele>
        <time>2025-04-10T18:09:25Z</time>
      </trkpt>
      <trkpt lat="43.64927" lon="1.37874">
        <ele>147</ele>
        <time>2025-04-10T18:09:26Z</time>
      </trkpt>
      <trkpt lat="43.64925" lon="1.37872">
        <ele>147</ele>
        <time>2025-04-10T18:09:27Z</time>
      </trkpt>
      <trkpt lat="43.64923" lon="1.3787">
        <ele>147</ele>
        <time>2025-04-10T18:09:28Z</time>
      </trkpt>
      <trkpt lat="43.64923" lon="1.3787">
        <ele>147</ele>
        <time>2025-04-10T18:09:29Z</time>
      </trkpt>
    </trkseg>
  </trk>
</gpx>